<?xml version="1.0" encoding="UTF-8"?>
<gpx version="1.1" creator="https://www.youtrack.es" xsi:schemaLocation="http://www.topografix.com/GPX/1/1 http://www.topografix.com/GPX/1/1/gpx.xsd http://www.garmin.com/xmlschemas/GpxExtensions/v3 http://www.garmin.com/xmlschemas/GpxExtensionsv3.xsd http://www.garmin.com/xmlschemas/TrackPointExtension/v1 http://www.garmin.com/xmlschemas/TrackPointExtensionv1.xsd" xmlns:gpxtpx="http://www.garmin.com/xmlschemas/TrackPointExtension/v1" xmlns:gpxx="http://www.garmin.com/xmlschemas/GpxExtensions/v3" xmlns:xsi="http://www.w3.org/2001/XMLSchema-instance">
  <metadata>
    <link href="https://www.youtrack.es">
      <text>YouTrack.es</text>
    </link>
    <time>2026-05-08T19:06:31Z</time>
  </metadata>
  <trk>
    <src>https://www.youtrack.es</src>
    <link href="https://www.youtrack.es/ruta/38233-cumial-pereiro">
      <text>YouTrack.es</text>
    </link>
    <trkseg>
      <trkpt lat="42.34346" lon="-7.86896">
        <ele>119.6</ele>
        <time>2022-09-30 17:35:16</time>
      </trkpt>
      <trkpt lat="42.34344" lon="-7.86915">
        <ele>119.4</ele>
        <time>2022-09-30 17:35:20</time>
      </trkpt>
      <trkpt lat="42.3434" lon="-7.86945">
        <ele>118.6</ele>
        <time>2022-09-30 17:35:25</time>
      </trkpt>
      <trkpt lat="42.34338" lon="-7.86951">
        <ele>118.6</ele>
        <time>2022-09-30 17:35:26</time>
      </trkpt>
      <trkpt lat="42.34332" lon="-7.86956">
        <ele>118.4</ele>
        <time>2022-09-30 17:35:28</time>
      </trkpt>
      <trkpt lat="42.3433" lon="-7.86968">
        <ele>117.8</ele>
        <time>2022-09-30 17:35:32</time>
      </trkpt>
      <trkpt lat="42.3433" lon="-7.86972">
        <ele>118</ele>
        <time>2022-09-30 17:35:33</time>
      </trkpt>
      <trkpt lat="42.3433" lon="-7.86981">
        <ele>117.6</ele>
        <time>2022-09-30 17:35:36</time>
      </trkpt>
      <trkpt lat="42.3433" lon="-7.86983">
        <ele>117.6</ele>
        <time>2022-09-30 17:35:37</time>
      </trkpt>
      <trkpt lat="42.34322" lon="-7.86985">
        <ele>118.4</ele>
        <time>2022-09-30 17:35:41</time>
      </trkpt>
      <trkpt lat="42.34322" lon="-7.86987">
        <ele>118.6</ele>
        <time>2022-09-30 17:35:42</time>
      </trkpt>
      <trkpt lat="42.34323" lon="-7.86993">
        <ele>118.4</ele>
        <time>2022-09-30 17:35:44</time>
      </trkpt>
      <trkpt lat="42.3433" lon="-7.87005">
        <ele>117.8</ele>
        <time>2022-09-30 17:35:49</time>
      </trkpt>
      <trkpt lat="42.34329" lon="-7.87012">
        <ele>117.6</ele>
        <time>2022-09-30 17:35:52</time>
      </trkpt>
      <trkpt lat="42.34324" lon="-7.87013">
        <ele>117.4</ele>
        <time>2022-09-30 17:35:55</time>
      </trkpt>
      <trkpt lat="42.34322" lon="-7.87014">
        <ele>117.2</ele>
        <time>2022-09-30 17:35:56</time>
      </trkpt>
      <trkpt lat="42.34314" lon="-7.87016">
        <ele>117</ele>
        <time>2022-09-30 17:35:59</time>
      </trkpt>
      <trkpt lat="42.34312" lon="-7.87015">
        <ele>116.8</ele>
        <time>2022-09-30 17:36:00</time>
      </trkpt>
      <trkpt lat="42.34305" lon="-7.87003">
        <ele>116.8</ele>
        <time>2022-09-30 17:36:04</time>
      </trkpt>
      <trkpt lat="42.34301" lon="-7.86993">
        <ele>116.8</ele>
        <time>2022-09-30 17:36:06</time>
      </trkpt>
      <trkpt lat="42.34295" lon="-7.8698">
        <ele>116.6</ele>
        <time>2022-09-30 17:36:08</time>
      </trkpt>
      <trkpt lat="42.34289" lon="-7.86966">
        <ele>116.6</ele>
        <time>2022-09-30 17:36:10</time>
      </trkpt>
      <trkpt lat="42.34277" lon="-7.86936">
        <ele>115.8</ele>
        <time>2022-09-30 17:36:14</time>
      </trkpt>
      <trkpt lat="42.34269" lon="-7.86922">
        <ele>115.6</ele>
        <time>2022-09-30 17:36:16</time>
      </trkpt>
      <trkpt lat="42.34265" lon="-7.86917">
        <ele>115.4</ele>
        <time>2022-09-30 17:36:17</time>
      </trkpt>
      <trkpt lat="42.34259" lon="-7.86913">
        <ele>115.4</ele>
        <time>2022-09-30 17:36:18</time>
      </trkpt>
      <trkpt lat="42.34249" lon="-7.86909">
        <ele>115.2</ele>
        <time>2022-09-30 17:36:20</time>
      </trkpt>
      <trkpt lat="42.34241" lon="-7.86905">
        <ele>114.6</ele>
        <time>2022-09-30 17:36:22</time>
      </trkpt>
      <trkpt lat="42.34237" lon="-7.86904">
        <ele>114.2</ele>
        <time>2022-09-30 17:36:23</time>
      </trkpt>
      <trkpt lat="42.34223" lon="-7.869">
        <ele>113.6</ele>
        <time>2022-09-30 17:36:26</time>
      </trkpt>
      <trkpt lat="42.34212" lon="-7.86896">
        <ele>113</ele>
        <time>2022-09-30 17:36:28</time>
      </trkpt>
      <trkpt lat="42.34183" lon="-7.86887">
        <ele>113</ele>
        <time>2022-09-30 17:36:34</time>
      </trkpt>
      <trkpt lat="42.34153" lon="-7.86878">
        <ele>113.2</ele>
        <time>2022-09-30 17:36:41</time>
      </trkpt>
      <trkpt lat="42.34129" lon="-7.86869">
        <ele>113.2</ele>
        <time>2022-09-30 17:36:47</time>
      </trkpt>
      <trkpt lat="42.34093" lon="-7.8686">
        <ele>113.4</ele>
        <time>2022-09-30 17:36:55</time>
      </trkpt>
      <trkpt lat="42.34057" lon="-7.86849">
        <ele>113.4</ele>
        <time>2022-09-30 17:37:03</time>
      </trkpt>
      <trkpt lat="42.34027" lon="-7.86845">
        <ele>113.6</ele>
        <time>2022-09-30 17:37:10</time>
      </trkpt>
      <trkpt lat="42.34006" lon="-7.86841">
        <ele>113.8</ele>
        <time>2022-09-30 17:37:15</time>
      </trkpt>
      <trkpt lat="42.33999" lon="-7.86839">
        <ele>113.8</ele>
        <time>2022-09-30 17:37:17</time>
      </trkpt>
      <trkpt lat="42.33978" lon="-7.86834">
        <ele>113.6</ele>
        <time>2022-09-30 17:37:23</time>
      </trkpt>
      <trkpt lat="42.33956" lon="-7.86829">
        <ele>113.8</ele>
        <time>2022-09-30 17:37:29</time>
      </trkpt>
      <trkpt lat="42.3394" lon="-7.86824">
        <ele>113.8</ele>
        <time>2022-09-30 17:37:33</time>
      </trkpt>
      <trkpt lat="42.33935" lon="-7.86824">
        <ele>113.8</ele>
        <time>2022-09-30 17:37:34</time>
      </trkpt>
      <trkpt lat="42.33923" lon="-7.86833">
        <ele>114</ele>
        <time>2022-09-30 17:37:37</time>
      </trkpt>
      <trkpt lat="42.33919" lon="-7.86836">
        <ele>114</ele>
        <time>2022-09-30 17:37:38</time>
      </trkpt>
      <trkpt lat="42.3391" lon="-7.8685">
        <ele>114.4</ele>
        <time>2022-09-30 17:37:41</time>
      </trkpt>
      <trkpt lat="42.33908" lon="-7.86855">
        <ele>114.4</ele>
        <time>2022-09-30 17:37:42</time>
      </trkpt>
      <trkpt lat="42.33894" lon="-7.86882">
        <ele>114.2</ele>
        <time>2022-09-30 17:37:48</time>
      </trkpt>
      <trkpt lat="42.33891" lon="-7.86887">
        <ele>114.2</ele>
        <time>2022-09-30 17:37:49</time>
      </trkpt>
      <trkpt lat="42.33889" lon="-7.86892">
        <ele>114.2</ele>
        <time>2022-09-30 17:37:50</time>
      </trkpt>
      <trkpt lat="42.33881" lon="-7.86906">
        <ele>114.4</ele>
        <time>2022-09-30 17:37:53</time>
      </trkpt>
      <trkpt lat="42.33879" lon="-7.8691">
        <ele>114.4</ele>
        <time>2022-09-30 17:37:54</time>
      </trkpt>
      <trkpt lat="42.33862" lon="-7.86931">
        <ele>114.6</ele>
        <time>2022-09-30 17:37:59</time>
      </trkpt>
      <trkpt lat="42.33854" lon="-7.86936">
        <ele>114.6</ele>
        <time>2022-09-30 17:38:01</time>
      </trkpt>
      <trkpt lat="42.33833" lon="-7.86936">
        <ele>114.8</ele>
        <time>2022-09-30 17:38:06</time>
      </trkpt>
      <trkpt lat="42.33828" lon="-7.86934">
        <ele>115</ele>
        <time>2022-09-30 17:38:07</time>
      </trkpt>
      <trkpt lat="42.3382" lon="-7.8693">
        <ele>115</ele>
        <time>2022-09-30 17:38:09</time>
      </trkpt>
      <trkpt lat="42.33805" lon="-7.86919">
        <ele>115.2</ele>
        <time>2022-09-30 17:38:13</time>
      </trkpt>
      <trkpt lat="42.33791" lon="-7.86913">
        <ele>115</ele>
        <time>2022-09-30 17:38:18</time>
      </trkpt>
      <trkpt lat="42.33782" lon="-7.8691">
        <ele>115</ele>
        <time>2022-09-30 17:38:21</time>
      </trkpt>
      <trkpt lat="42.33777" lon="-7.86916">
        <ele>114.8</ele>
        <time>2022-09-30 17:38:23</time>
      </trkpt>
      <trkpt lat="42.3377" lon="-7.86924">
        <ele>114.6</ele>
        <time>2022-09-30 17:38:26</time>
      </trkpt>
      <trkpt lat="42.33762" lon="-7.86924">
        <ele>115.2</ele>
        <time>2022-09-30 17:38:29</time>
      </trkpt>
      <trkpt lat="42.33758" lon="-7.86922">
        <ele>115</ele>
        <time>2022-09-30 17:38:30</time>
      </trkpt>
      <trkpt lat="42.33736" lon="-7.86911">
        <ele>114.4</ele>
        <time>2022-09-30 17:38:35</time>
      </trkpt>
      <trkpt lat="42.33716" lon="-7.869">
        <ele>114.2</ele>
        <time>2022-09-30 17:38:40</time>
      </trkpt>
      <trkpt lat="42.33681" lon="-7.86881">
        <ele>114.6</ele>
        <time>2022-09-30 17:38:49</time>
      </trkpt>
      <trkpt lat="42.33654" lon="-7.86865">
        <ele>114.8</ele>
        <time>2022-09-30 17:38:56</time>
      </trkpt>
      <trkpt lat="42.33625" lon="-7.86847">
        <ele>115</ele>
        <time>2022-09-30 17:39:03</time>
      </trkpt>
      <trkpt lat="42.33598" lon="-7.86832">
        <ele>115.2</ele>
        <time>2022-09-30 17:39:10</time>
      </trkpt>
      <trkpt lat="42.33581" lon="-7.86824">
        <ele>115.4</ele>
        <time>2022-09-30 17:39:14</time>
      </trkpt>
      <trkpt lat="42.33566" lon="-7.86814">
        <ele>115.4</ele>
        <time>2022-09-30 17:39:18</time>
      </trkpt>
      <trkpt lat="42.33546" lon="-7.86803">
        <ele>115.4</ele>
        <time>2022-09-30 17:39:23</time>
      </trkpt>
      <trkpt lat="42.33539" lon="-7.86804">
        <ele>115.6</ele>
        <time>2022-09-30 17:39:25</time>
      </trkpt>
      <trkpt lat="42.33533" lon="-7.86804">
        <ele>116.2</ele>
        <time>2022-09-30 17:39:27</time>
      </trkpt>
      <trkpt lat="42.33528" lon="-7.86803">
        <ele>116.2</ele>
        <time>2022-09-30 17:39:29</time>
      </trkpt>
      <trkpt lat="42.33514" lon="-7.86797">
        <ele>116.6</ele>
        <time>2022-09-30 17:39:33</time>
      </trkpt>
      <trkpt lat="42.3351" lon="-7.86796">
        <ele>116.6</ele>
        <time>2022-09-30 17:39:34</time>
      </trkpt>
      <trkpt lat="42.33493" lon="-7.8679">
        <ele>117.2</ele>
        <time>2022-09-30 17:39:39</time>
      </trkpt>
      <trkpt lat="42.33485" lon="-7.86789">
        <ele>118.4</ele>
        <time>2022-09-30 17:39:42</time>
      </trkpt>
      <trkpt lat="42.33481" lon="-7.86787">
        <ele>119</ele>
        <time>2022-09-30 17:39:44</time>
      </trkpt>
      <trkpt lat="42.33475" lon="-7.86783">
        <ele>119.4</ele>
        <time>2022-09-30 17:39:47</time>
      </trkpt>
      <trkpt lat="42.33473" lon="-7.86781">
        <ele>119.4</ele>
        <time>2022-09-30 17:39:48</time>
      </trkpt>
      <trkpt lat="42.33471" lon="-7.86778">
        <ele>119.4</ele>
        <time>2022-09-30 17:39:49</time>
      </trkpt>
      <trkpt lat="42.33452" lon="-7.8676">
        <ele>120.4</ele>
        <time>2022-09-30 17:39:57</time>
      </trkpt>
      <trkpt lat="42.3345" lon="-7.86759">
        <ele>120.8</ele>
        <time>2022-09-30 17:39:58</time>
      </trkpt>
      <trkpt lat="42.33439" lon="-7.86749">
        <ele>121.4</ele>
        <time>2022-09-30 17:40:03</time>
      </trkpt>
      <trkpt lat="42.33419" lon="-7.86736">
        <ele>121.4</ele>
        <time>2022-09-30 17:40:10</time>
      </trkpt>
      <trkpt lat="42.33396" lon="-7.86727">
        <ele>120.6</ele>
        <time>2022-09-30 17:40:15</time>
      </trkpt>
      <trkpt lat="42.33366" lon="-7.86723">
        <ele>119.6</ele>
        <time>2022-09-30 17:40:20</time>
      </trkpt>
      <trkpt lat="42.3336" lon="-7.86722">
        <ele>119.2</ele>
        <time>2022-09-30 17:40:21</time>
      </trkpt>
      <trkpt lat="42.33354" lon="-7.86724">
        <ele>119.2</ele>
        <time>2022-09-30 17:40:22</time>
      </trkpt>
      <trkpt lat="42.33345" lon="-7.86728">
        <ele>119.4</ele>
        <time>2022-09-30 17:40:24</time>
      </trkpt>
      <trkpt lat="42.33322" lon="-7.86742">
        <ele>120</ele>
        <time>2022-09-30 17:40:30</time>
      </trkpt>
      <trkpt lat="42.33307" lon="-7.86751">
        <ele>120.6</ele>
        <time>2022-09-30 17:40:34</time>
      </trkpt>
      <trkpt lat="42.33298" lon="-7.86758">
        <ele>121.2</ele>
        <time>2022-09-30 17:40:37</time>
      </trkpt>
      <trkpt lat="42.33291" lon="-7.86761">
        <ele>121.8</ele>
        <time>2022-09-30 17:40:39</time>
      </trkpt>
      <trkpt lat="42.33275" lon="-7.8676">
        <ele>123</ele>
        <time>2022-09-30 17:40:43</time>
      </trkpt>
      <trkpt lat="42.3326" lon="-7.86754">
        <ele>124</ele>
        <time>2022-09-30 17:40:48</time>
      </trkpt>
      <trkpt lat="42.3325" lon="-7.86753">
        <ele>124.6</ele>
        <time>2022-09-30 17:40:51</time>
      </trkpt>
      <trkpt lat="42.33247" lon="-7.86754">
        <ele>124.8</ele>
        <time>2022-09-30 17:40:52</time>
      </trkpt>
      <trkpt lat="42.33239" lon="-7.86755">
        <ele>125.2</ele>
        <time>2022-09-30 17:40:55</time>
      </trkpt>
      <trkpt lat="42.33227" lon="-7.86756">
        <ele>125.6</ele>
        <time>2022-09-30 17:40:59</time>
      </trkpt>
      <trkpt lat="42.33214" lon="-7.86757">
        <ele>126.2</ele>
        <time>2022-09-30 17:41:03</time>
      </trkpt>
      <trkpt lat="42.33192" lon="-7.8676">
        <ele>126</ele>
        <time>2022-09-30 17:41:09</time>
      </trkpt>
      <trkpt lat="42.33171" lon="-7.86766">
        <ele>125.4</ele>
        <time>2022-09-30 17:41:13</time>
      </trkpt>
      <trkpt lat="42.33165" lon="-7.86767">
        <ele>125</ele>
        <time>2022-09-30 17:41:14</time>
      </trkpt>
      <trkpt lat="42.33142" lon="-7.86771">
        <ele>123.8</ele>
        <time>2022-09-30 17:41:18</time>
      </trkpt>
      <trkpt lat="42.33136" lon="-7.86771">
        <ele>123.8</ele>
        <time>2022-09-30 17:41:19</time>
      </trkpt>
      <trkpt lat="42.33109" lon="-7.86771">
        <ele>123.8</ele>
        <time>2022-09-30 17:41:24</time>
      </trkpt>
      <trkpt lat="42.33065" lon="-7.86774">
        <ele>124</ele>
        <time>2022-09-30 17:41:33</time>
      </trkpt>
      <trkpt lat="42.33047" lon="-7.86773">
        <ele>123.6</ele>
        <time>2022-09-30 17:41:36</time>
      </trkpt>
      <trkpt lat="42.33036" lon="-7.86769">
        <ele>122.8</ele>
        <time>2022-09-30 17:41:38</time>
      </trkpt>
      <trkpt lat="42.33031" lon="-7.86766">
        <ele>122.8</ele>
        <time>2022-09-30 17:41:39</time>
      </trkpt>
      <trkpt lat="42.33015" lon="-7.86766">
        <ele>122.2</ele>
        <time>2022-09-30 17:41:42</time>
      </trkpt>
      <trkpt lat="42.33009" lon="-7.86767">
        <ele>122</ele>
        <time>2022-09-30 17:41:43</time>
      </trkpt>
      <trkpt lat="42.33004" lon="-7.86769">
        <ele>121.6</ele>
        <time>2022-09-30 17:41:44</time>
      </trkpt>
      <trkpt lat="42.32993" lon="-7.86771">
        <ele>121.2</ele>
        <time>2022-09-30 17:41:46</time>
      </trkpt>
      <trkpt lat="42.32984" lon="-7.86767">
        <ele>120.8</ele>
        <time>2022-09-30 17:41:48</time>
      </trkpt>
      <trkpt lat="42.32976" lon="-7.86755">
        <ele>120.6</ele>
        <time>2022-09-30 17:41:51</time>
      </trkpt>
      <trkpt lat="42.32971" lon="-7.86747">
        <ele>120.4</ele>
        <time>2022-09-30 17:41:53</time>
      </trkpt>
      <trkpt lat="42.32963" lon="-7.86739">
        <ele>120</ele>
        <time>2022-09-30 17:41:55</time>
      </trkpt>
      <trkpt lat="42.32959" lon="-7.86735">
        <ele>120</ele>
        <time>2022-09-30 17:41:56</time>
      </trkpt>
      <trkpt lat="42.32937" lon="-7.86717">
        <ele>120</ele>
        <time>2022-09-30 17:42:01</time>
      </trkpt>
      <trkpt lat="42.32932" lon="-7.86715">
        <ele>120</ele>
        <time>2022-09-30 17:42:02</time>
      </trkpt>
      <trkpt lat="42.32909" lon="-7.86702">
        <ele>120.4</ele>
        <time>2022-09-30 17:42:07</time>
      </trkpt>
      <trkpt lat="42.32895" lon="-7.86685">
        <ele>120.6</ele>
        <time>2022-09-30 17:42:11</time>
      </trkpt>
      <trkpt lat="42.32892" lon="-7.8668">
        <ele>120.8</ele>
        <time>2022-09-30 17:42:12</time>
      </trkpt>
      <trkpt lat="42.32885" lon="-7.86663">
        <ele>121.2</ele>
        <time>2022-09-30 17:42:15</time>
      </trkpt>
      <trkpt lat="42.32881" lon="-7.86651">
        <ele>121.4</ele>
        <time>2022-09-30 17:42:17</time>
      </trkpt>
      <trkpt lat="42.3288" lon="-7.86645">
        <ele>121.6</ele>
        <time>2022-09-30 17:42:18</time>
      </trkpt>
      <trkpt lat="42.32875" lon="-7.86625">
        <ele>121.8</ele>
        <time>2022-09-30 17:42:22</time>
      </trkpt>
      <trkpt lat="42.32867" lon="-7.86594">
        <ele>122.4</ele>
        <time>2022-09-30 17:42:28</time>
      </trkpt>
      <trkpt lat="42.32859" lon="-7.8658">
        <ele>122.4</ele>
        <time>2022-09-30 17:42:31</time>
      </trkpt>
      <trkpt lat="42.32853" lon="-7.86572">
        <ele>122.4</ele>
        <time>2022-09-30 17:42:33</time>
      </trkpt>
      <trkpt lat="42.32841" lon="-7.86562">
        <ele>122.6</ele>
        <time>2022-09-30 17:42:36</time>
      </trkpt>
      <trkpt lat="42.32832" lon="-7.86557">
        <ele>122.8</ele>
        <time>2022-09-30 17:42:38</time>
      </trkpt>
      <trkpt lat="42.32804" lon="-7.86548">
        <ele>122.8</ele>
        <time>2022-09-30 17:42:44</time>
      </trkpt>
      <trkpt lat="42.32774" lon="-7.86548">
        <ele>123.2</ele>
        <time>2022-09-30 17:42:51</time>
      </trkpt>
      <trkpt lat="42.32757" lon="-7.86554">
        <ele>123.6</ele>
        <time>2022-09-30 17:42:55</time>
      </trkpt>
      <trkpt lat="42.32733" lon="-7.86566">
        <ele>123.6</ele>
        <time>2022-09-30 17:43:01</time>
      </trkpt>
      <trkpt lat="42.32721" lon="-7.86573">
        <ele>123.6</ele>
        <time>2022-09-30 17:43:04</time>
      </trkpt>
      <trkpt lat="42.32701" lon="-7.86583">
        <ele>123.8</ele>
        <time>2022-09-30 17:43:09</time>
      </trkpt>
      <trkpt lat="42.3268" lon="-7.86596">
        <ele>124</ele>
        <time>2022-09-30 17:43:14</time>
      </trkpt>
      <trkpt lat="42.32665" lon="-7.86612">
        <ele>124.2</ele>
        <time>2022-09-30 17:43:18</time>
      </trkpt>
      <trkpt lat="42.32661" lon="-7.86616">
        <ele>124.2</ele>
        <time>2022-09-30 17:43:19</time>
      </trkpt>
      <trkpt lat="42.32646" lon="-7.86626">
        <ele>124.4</ele>
        <time>2022-09-30 17:43:23</time>
      </trkpt>
      <trkpt lat="42.32641" lon="-7.86628">
        <ele>124.4</ele>
        <time>2022-09-30 17:43:24</time>
      </trkpt>
      <trkpt lat="42.32632" lon="-7.86629">
        <ele>124.4</ele>
        <time>2022-09-30 17:43:26</time>
      </trkpt>
      <trkpt lat="42.32623" lon="-7.86628">
        <ele>124.6</ele>
        <time>2022-09-30 17:43:28</time>
      </trkpt>
      <trkpt lat="42.32601" lon="-7.86618">
        <ele>124.8</ele>
        <time>2022-09-30 17:43:33</time>
      </trkpt>
      <trkpt lat="42.32597" lon="-7.86614">
        <ele>124.8</ele>
        <time>2022-09-30 17:43:34</time>
      </trkpt>
      <trkpt lat="42.32583" lon="-7.86595">
        <ele>125</ele>
        <time>2022-09-30 17:43:38</time>
      </trkpt>
      <trkpt lat="42.32563" lon="-7.86568">
        <ele>125.2</ele>
        <time>2022-09-30 17:43:44</time>
      </trkpt>
      <trkpt lat="42.32548" lon="-7.86549">
        <ele>125.4</ele>
        <time>2022-09-30 17:43:49</time>
      </trkpt>
      <trkpt lat="42.32539" lon="-7.86536">
        <ele>125.8</ele>
        <time>2022-09-30 17:43:52</time>
      </trkpt>
      <trkpt lat="42.32533" lon="-7.86529">
        <ele>126</ele>
        <time>2022-09-30 17:43:54</time>
      </trkpt>
      <trkpt lat="42.3252" lon="-7.86512">
        <ele>126.2</ele>
        <time>2022-09-30 17:43:58</time>
      </trkpt>
      <trkpt lat="42.32507" lon="-7.86502">
        <ele>126.2</ele>
        <time>2022-09-30 17:44:02</time>
      </trkpt>
      <trkpt lat="42.32487" lon="-7.86488">
        <ele>126.8</ele>
        <time>2022-09-30 17:44:07</time>
      </trkpt>
      <trkpt lat="42.32483" lon="-7.86485">
        <ele>126.8</ele>
        <time>2022-09-30 17:44:08</time>
      </trkpt>
      <trkpt lat="42.32465" lon="-7.86477">
        <ele>127.8</ele>
        <time>2022-09-30 17:44:13</time>
      </trkpt>
      <trkpt lat="42.32443" lon="-7.86475">
        <ele>128.2</ele>
        <time>2022-09-30 17:44:19</time>
      </trkpt>
      <trkpt lat="42.32418" lon="-7.8647">
        <ele>128.2</ele>
        <time>2022-09-30 17:44:26</time>
      </trkpt>
      <trkpt lat="42.32389" lon="-7.86466">
        <ele>128.2</ele>
        <time>2022-09-30 17:44:32</time>
      </trkpt>
      <trkpt lat="42.3236" lon="-7.86462">
        <ele>128.6</ele>
        <time>2022-09-30 17:44:39</time>
      </trkpt>
      <trkpt lat="42.32348" lon="-7.86459">
        <ele>128.8</ele>
        <time>2022-09-30 17:44:42</time>
      </trkpt>
      <trkpt lat="42.32336" lon="-7.86455">
        <ele>128.8</ele>
        <time>2022-09-30 17:44:45</time>
      </trkpt>
      <trkpt lat="42.3232" lon="-7.86449">
        <ele>129.2</ele>
        <time>2022-09-30 17:44:50</time>
      </trkpt>
      <trkpt lat="42.32313" lon="-7.86444">
        <ele>130</ele>
        <time>2022-09-30 17:44:53</time>
      </trkpt>
      <trkpt lat="42.32307" lon="-7.86439">
        <ele>130.4</ele>
        <time>2022-09-30 17:44:55</time>
      </trkpt>
      <trkpt lat="42.32301" lon="-7.86435">
        <ele>131</ele>
        <time>2022-09-30 17:44:58</time>
      </trkpt>
      <trkpt lat="42.32294" lon="-7.8643">
        <ele>131</ele>
        <time>2022-09-30 17:45:00</time>
      </trkpt>
      <trkpt lat="42.32274" lon="-7.86402">
        <ele>130.8</ele>
        <time>2022-09-30 17:45:06</time>
      </trkpt>
      <trkpt lat="42.32262" lon="-7.86378">
        <ele>130.8</ele>
        <time>2022-09-30 17:45:11</time>
      </trkpt>
      <trkpt lat="42.32247" lon="-7.8635">
        <ele>131</ele>
        <time>2022-09-30 17:45:17</time>
      </trkpt>
      <trkpt lat="42.3223" lon="-7.86341">
        <ele>131.4</ele>
        <time>2022-09-30 17:45:22</time>
      </trkpt>
      <trkpt lat="42.3221" lon="-7.86346">
        <ele>131.8</ele>
        <time>2022-09-30 17:45:28</time>
      </trkpt>
      <trkpt lat="42.32196" lon="-7.86364">
        <ele>132</ele>
        <time>2022-09-30 17:45:33</time>
      </trkpt>
      <trkpt lat="42.32193" lon="-7.86368">
        <ele>132.2</ele>
        <time>2022-09-30 17:45:34</time>
      </trkpt>
      <trkpt lat="42.32175" lon="-7.86394">
        <ele>132.6</ele>
        <time>2022-09-30 17:45:41</time>
      </trkpt>
      <trkpt lat="42.32163" lon="-7.86413">
        <ele>132.8</ele>
        <time>2022-09-30 17:45:46</time>
      </trkpt>
      <trkpt lat="42.32146" lon="-7.86437">
        <ele>133</ele>
        <time>2022-09-30 17:45:52</time>
      </trkpt>
      <trkpt lat="42.3214" lon="-7.86446">
        <ele>133.2</ele>
        <time>2022-09-30 17:45:54</time>
      </trkpt>
      <trkpt lat="42.32118" lon="-7.86471">
        <ele>133.6</ele>
        <time>2022-09-30 17:46:01</time>
      </trkpt>
      <trkpt lat="42.32095" lon="-7.86481">
        <ele>134</ele>
        <time>2022-09-30 17:46:07</time>
      </trkpt>
      <trkpt lat="42.32082" lon="-7.86482">
        <ele>134.2</ele>
        <time>2022-09-30 17:46:10</time>
      </trkpt>
      <trkpt lat="42.32069" lon="-7.86479">
        <ele>134.4</ele>
        <time>2022-09-30 17:46:13</time>
      </trkpt>
      <trkpt lat="42.32065" lon="-7.86477">
        <ele>134.4</ele>
        <time>2022-09-30 17:46:14</time>
      </trkpt>
      <trkpt lat="42.32045" lon="-7.86463">
        <ele>134.8</ele>
        <time>2022-09-30 17:46:20</time>
      </trkpt>
      <trkpt lat="42.32039" lon="-7.86454">
        <ele>135</ele>
        <time>2022-09-30 17:46:23</time>
      </trkpt>
      <trkpt lat="42.32034" lon="-7.86446">
        <ele>135</ele>
        <time>2022-09-30 17:46:25</time>
      </trkpt>
      <trkpt lat="42.32026" lon="-7.86432">
        <ele>135.4</ele>
        <time>2022-09-30 17:46:28</time>
      </trkpt>
      <trkpt lat="42.32017" lon="-7.86414">
        <ele>135.4</ele>
        <time>2022-09-30 17:46:32</time>
      </trkpt>
      <trkpt lat="42.32008" lon="-7.86389">
        <ele>135.8</ele>
        <time>2022-09-30 17:46:37</time>
      </trkpt>
      <trkpt lat="42.32001" lon="-7.86361">
        <ele>136.2</ele>
        <time>2022-09-30 17:46:43</time>
      </trkpt>
      <trkpt lat="42.31997" lon="-7.86353">
        <ele>136.4</ele>
        <time>2022-09-30 17:46:45</time>
      </trkpt>
      <trkpt lat="42.31989" lon="-7.86342">
        <ele>136.6</ele>
        <time>2022-09-30 17:46:48</time>
      </trkpt>
      <trkpt lat="42.31973" lon="-7.86328">
        <ele>137</ele>
        <time>2022-09-30 17:46:53</time>
      </trkpt>
      <trkpt lat="42.31962" lon="-7.86325">
        <ele>137.4</ele>
        <time>2022-09-30 17:46:56</time>
      </trkpt>
      <trkpt lat="42.31955" lon="-7.86324">
        <ele>137.6</ele>
        <time>2022-09-30 17:46:58</time>
      </trkpt>
      <trkpt lat="42.31937" lon="-7.86325">
        <ele>138</ele>
        <time>2022-09-30 17:47:03</time>
      </trkpt>
      <trkpt lat="42.31915" lon="-7.86327">
        <ele>138.4</ele>
        <time>2022-09-30 17:47:09</time>
      </trkpt>
      <trkpt lat="42.31911" lon="-7.86327">
        <ele>138.6</ele>
        <time>2022-09-30 17:47:10</time>
      </trkpt>
      <trkpt lat="42.31895" lon="-7.86328">
        <ele>138.8</ele>
        <time>2022-09-30 17:47:14</time>
      </trkpt>
      <trkpt lat="42.3187" lon="-7.8633">
        <ele>139.6</ele>
        <time>2022-09-30 17:47:21</time>
      </trkpt>
      <trkpt lat="42.3185" lon="-7.86336">
        <ele>140.2</ele>
        <time>2022-09-30 17:47:27</time>
      </trkpt>
      <trkpt lat="42.31832" lon="-7.86342">
        <ele>140.6</ele>
        <time>2022-09-30 17:47:32</time>
      </trkpt>
      <trkpt lat="42.31808" lon="-7.86344">
        <ele>141.2</ele>
        <time>2022-09-30 17:47:38</time>
      </trkpt>
      <trkpt lat="42.31798" lon="-7.86344">
        <ele>141.6</ele>
        <time>2022-09-30 17:47:41</time>
      </trkpt>
      <trkpt lat="42.3178" lon="-7.86341">
        <ele>142.2</ele>
        <time>2022-09-30 17:47:46</time>
      </trkpt>
      <trkpt lat="42.3176" lon="-7.86338">
        <ele>142.8</ele>
        <time>2022-09-30 17:47:52</time>
      </trkpt>
      <trkpt lat="42.31737" lon="-7.86336">
        <ele>143.4</ele>
        <time>2022-09-30 17:48:00</time>
      </trkpt>
      <trkpt lat="42.31725" lon="-7.86335">
        <ele>143.8</ele>
        <time>2022-09-30 17:48:04</time>
      </trkpt>
      <trkpt lat="42.31716" lon="-7.86335">
        <ele>144.2</ele>
        <time>2022-09-30 17:48:07</time>
      </trkpt>
      <trkpt lat="42.31707" lon="-7.86334">
        <ele>144.8</ele>
        <time>2022-09-30 17:48:11</time>
      </trkpt>
      <trkpt lat="42.31703" lon="-7.86333">
        <ele>145.2</ele>
        <time>2022-09-30 17:48:13</time>
      </trkpt>
      <trkpt lat="42.31697" lon="-7.86332">
        <ele>145.8</ele>
        <time>2022-09-30 17:48:16</time>
      </trkpt>
      <trkpt lat="42.31692" lon="-7.86331">
        <ele>146.6</ele>
        <time>2022-09-30 17:48:19</time>
      </trkpt>
      <trkpt lat="42.31689" lon="-7.86329">
        <ele>147.2</ele>
        <time>2022-09-30 17:48:21</time>
      </trkpt>
      <trkpt lat="42.31681" lon="-7.86325">
        <ele>148.2</ele>
        <time>2022-09-30 17:48:26</time>
      </trkpt>
      <trkpt lat="42.31676" lon="-7.86321">
        <ele>149.2</ele>
        <time>2022-09-30 17:48:29</time>
      </trkpt>
      <trkpt lat="42.31668" lon="-7.86318">
        <ele>149.8</ele>
        <time>2022-09-30 17:48:33</time>
      </trkpt>
      <trkpt lat="42.31659" lon="-7.86316">
        <ele>150.2</ele>
        <time>2022-09-30 17:48:37</time>
      </trkpt>
      <trkpt lat="42.3165" lon="-7.86309">
        <ele>150.4</ele>
        <time>2022-09-30 17:48:42</time>
      </trkpt>
      <trkpt lat="42.31638" lon="-7.86299">
        <ele>150.4</ele>
        <time>2022-09-30 17:48:48</time>
      </trkpt>
      <trkpt lat="42.31635" lon="-7.86292">
        <ele>150.8</ele>
        <time>2022-09-30 17:49:25</time>
      </trkpt>
      <trkpt lat="42.31631" lon="-7.86289">
        <ele>151</ele>
        <time>2022-09-30 17:49:27</time>
      </trkpt>
      <trkpt lat="42.31626" lon="-7.86284">
        <ele>151.2</ele>
        <time>2022-09-30 17:49:29</time>
      </trkpt>
      <trkpt lat="42.3162" lon="-7.86274">
        <ele>151.2</ele>
        <time>2022-09-30 17:49:33</time>
      </trkpt>
      <trkpt lat="42.31614" lon="-7.86266">
        <ele>150.4</ele>
        <time>2022-09-30 17:49:35</time>
      </trkpt>
      <trkpt lat="42.3161" lon="-7.86263">
        <ele>150</ele>
        <time>2022-09-30 17:49:36</time>
      </trkpt>
      <trkpt lat="42.31599" lon="-7.86259">
        <ele>148.8</ele>
        <time>2022-09-30 17:49:38</time>
      </trkpt>
      <trkpt lat="42.31593" lon="-7.86259">
        <ele>148.2</ele>
        <time>2022-09-30 17:49:39</time>
      </trkpt>
      <trkpt lat="42.31576" lon="-7.86264">
        <ele>148</ele>
        <time>2022-09-30 17:49:42</time>
      </trkpt>
      <trkpt lat="42.31567" lon="-7.86264">
        <ele>148.2</ele>
        <time>2022-09-30 17:49:44</time>
      </trkpt>
      <trkpt lat="42.31554" lon="-7.86267">
        <ele>148.2</ele>
        <time>2022-09-30 17:49:47</time>
      </trkpt>
      <trkpt lat="42.31522" lon="-7.86274">
        <ele>148.6</ele>
        <time>2022-09-30 17:49:54</time>
      </trkpt>
      <trkpt lat="42.31502" lon="-7.86273">
        <ele>149.2</ele>
        <time>2022-09-30 17:49:59</time>
      </trkpt>
      <trkpt lat="42.31477" lon="-7.86275">
        <ele>149.4</ele>
        <time>2022-09-30 17:50:05</time>
      </trkpt>
      <trkpt lat="42.31472" lon="-7.86275">
        <ele>149.6</ele>
        <time>2022-09-30 17:50:06</time>
      </trkpt>
      <trkpt lat="42.31446" lon="-7.86278">
        <ele>149.8</ele>
        <time>2022-09-30 17:50:12</time>
      </trkpt>
      <trkpt lat="42.31419" lon="-7.8628">
        <ele>150.2</ele>
        <time>2022-09-30 17:50:18</time>
      </trkpt>
      <trkpt lat="42.31386" lon="-7.86281">
        <ele>150.8</ele>
        <time>2022-09-30 17:50:25</time>
      </trkpt>
      <trkpt lat="42.31368" lon="-7.86282">
        <ele>151.4</ele>
        <time>2022-09-30 17:50:30</time>
      </trkpt>
      <trkpt lat="42.31348" lon="-7.8628">
        <ele>152</ele>
        <time>2022-09-30 17:50:35</time>
      </trkpt>
      <trkpt lat="42.31345" lon="-7.8628">
        <ele>152.2</ele>
        <time>2022-09-30 17:50:36</time>
      </trkpt>
      <trkpt lat="42.31326" lon="-7.86275">
        <ele>153</ele>
        <time>2022-09-30 17:50:41</time>
      </trkpt>
      <trkpt lat="42.31324" lon="-7.86264">
        <ele>153.4</ele>
        <time>2022-09-30 17:50:44</time>
      </trkpt>
      <trkpt lat="42.31328" lon="-7.86257">
        <ele>153.6</ele>
        <time>2022-09-30 17:50:46</time>
      </trkpt>
      <trkpt lat="42.31333" lon="-7.86244">
        <ele>153.6</ele>
        <time>2022-09-30 17:50:49</time>
      </trkpt>
      <trkpt lat="42.31335" lon="-7.86231">
        <ele>154.4</ele>
        <time>2022-09-30 17:50:53</time>
      </trkpt>
      <trkpt lat="42.31336" lon="-7.86228">
        <ele>154.6</ele>
        <time>2022-09-30 17:50:54</time>
      </trkpt>
      <trkpt lat="42.31338" lon="-7.86214">
        <ele>155.6</ele>
        <time>2022-09-30 17:50:59</time>
      </trkpt>
      <trkpt lat="42.31339" lon="-7.86211">
        <ele>155.8</ele>
        <time>2022-09-30 17:51:00</time>
      </trkpt>
      <trkpt lat="42.3134" lon="-7.86202">
        <ele>156.6</ele>
        <time>2022-09-30 17:51:03</time>
      </trkpt>
      <trkpt lat="42.31342" lon="-7.86191">
        <ele>157.6</ele>
        <time>2022-09-30 17:51:07</time>
      </trkpt>
      <trkpt lat="42.31342" lon="-7.86188">
        <ele>157.8</ele>
        <time>2022-09-30 17:51:08</time>
      </trkpt>
      <trkpt lat="42.31344" lon="-7.86176">
        <ele>158.8</ele>
        <time>2022-09-30 17:51:13</time>
      </trkpt>
      <trkpt lat="42.31346" lon="-7.86164">
        <ele>160</ele>
        <time>2022-09-30 17:51:18</time>
      </trkpt>
      <trkpt lat="42.31348" lon="-7.8616">
        <ele>160.4</ele>
        <time>2022-09-30 17:51:20</time>
      </trkpt>
      <trkpt lat="42.31349" lon="-7.86153">
        <ele>161</ele>
        <time>2022-09-30 17:51:23</time>
      </trkpt>
      <trkpt lat="42.3135" lon="-7.86151">
        <ele>161.2</ele>
        <time>2022-09-30 17:51:24</time>
      </trkpt>
      <trkpt lat="42.31348" lon="-7.86147">
        <ele>161.6</ele>
        <time>2022-09-30 17:51:26</time>
      </trkpt>
      <trkpt lat="42.31347" lon="-7.86141">
        <ele>162</ele>
        <time>2022-09-30 17:51:29</time>
      </trkpt>
      <trkpt lat="42.31348" lon="-7.86136">
        <ele>162.6</ele>
        <time>2022-09-30 17:51:31</time>
      </trkpt>
      <trkpt lat="42.31348" lon="-7.86129">
        <ele>163.2</ele>
        <time>2022-09-30 17:51:34</time>
      </trkpt>
      <trkpt lat="42.31346" lon="-7.86126">
        <ele>163.4</ele>
        <time>2022-09-30 17:51:36</time>
      </trkpt>
      <trkpt lat="42.31342" lon="-7.86123">
        <ele>163.6</ele>
        <time>2022-09-30 17:51:38</time>
      </trkpt>
      <trkpt lat="42.31334" lon="-7.86116">
        <ele>163.6</ele>
        <time>2022-09-30 17:51:42</time>
      </trkpt>
      <trkpt lat="42.31325" lon="-7.86113">
        <ele>163.6</ele>
        <time>2022-09-30 17:51:46</time>
      </trkpt>
      <trkpt lat="42.31316" lon="-7.86105">
        <ele>163.6</ele>
        <time>2022-09-30 17:51:50</time>
      </trkpt>
      <trkpt lat="42.31311" lon="-7.86102">
        <ele>163.8</ele>
        <time>2022-09-30 17:51:52</time>
      </trkpt>
      <trkpt lat="42.31298" lon="-7.86091">
        <ele>164</ele>
        <time>2022-09-30 17:51:57</time>
      </trkpt>
      <trkpt lat="42.31279" lon="-7.86073">
        <ele>164.2</ele>
        <time>2022-09-30 17:52:04</time>
      </trkpt>
      <trkpt lat="42.31266" lon="-7.86048">
        <ele>164.4</ele>
        <time>2022-09-30 17:52:11</time>
      </trkpt>
      <trkpt lat="42.31253" lon="-7.86019">
        <ele>164.6</ele>
        <time>2022-09-30 17:52:18</time>
      </trkpt>
      <trkpt lat="42.31243" lon="-7.85995">
        <ele>165.4</ele>
        <time>2022-09-30 17:52:23</time>
      </trkpt>
      <trkpt lat="42.31235" lon="-7.85972">
        <ele>164.6</ele>
        <time>2022-09-30 17:52:27</time>
      </trkpt>
      <trkpt lat="42.3123" lon="-7.85961">
        <ele>164.6</ele>
        <time>2022-09-30 17:52:29</time>
      </trkpt>
      <trkpt lat="42.31227" lon="-7.85957">
        <ele>164.4</ele>
        <time>2022-09-30 17:52:30</time>
      </trkpt>
      <trkpt lat="42.31223" lon="-7.85947">
        <ele>164.4</ele>
        <time>2022-09-30 17:52:32</time>
      </trkpt>
      <trkpt lat="42.31206" lon="-7.8591">
        <ele>164.2</ele>
        <time>2022-09-30 17:52:40</time>
      </trkpt>
      <trkpt lat="42.31189" lon="-7.85887">
        <ele>164.4</ele>
        <time>2022-09-30 17:52:46</time>
      </trkpt>
      <trkpt lat="42.31166" lon="-7.85857">
        <ele>164.6</ele>
        <time>2022-09-30 17:52:54</time>
      </trkpt>
      <trkpt lat="42.31152" lon="-7.85837">
        <ele>164.8</ele>
        <time>2022-09-30 17:53:00</time>
      </trkpt>
      <trkpt lat="42.31131" lon="-7.8581">
        <ele>165.2</ele>
        <time>2022-09-30 17:53:08</time>
      </trkpt>
      <trkpt lat="42.31129" lon="-7.85807">
        <ele>165.4</ele>
        <time>2022-09-30 17:53:09</time>
      </trkpt>
      <trkpt lat="42.31114" lon="-7.8579">
        <ele>166.2</ele>
        <time>2022-09-30 17:53:16</time>
      </trkpt>
      <trkpt lat="42.3111" lon="-7.85785">
        <ele>166.4</ele>
        <time>2022-09-30 17:53:18</time>
      </trkpt>
      <trkpt lat="42.31099" lon="-7.85771">
        <ele>167</ele>
        <time>2022-09-30 17:53:24</time>
      </trkpt>
      <trkpt lat="42.31086" lon="-7.85762">
        <ele>167.6</ele>
        <time>2022-09-30 17:53:29</time>
      </trkpt>
      <trkpt lat="42.31084" lon="-7.8576">
        <ele>167.6</ele>
        <time>2022-09-30 17:53:30</time>
      </trkpt>
      <trkpt lat="42.31069" lon="-7.85748">
        <ele>168.6</ele>
        <time>2022-09-30 17:53:37</time>
      </trkpt>
      <trkpt lat="42.31055" lon="-7.85736">
        <ele>169.8</ele>
        <time>2022-09-30 17:53:44</time>
      </trkpt>
      <trkpt lat="42.31049" lon="-7.8573">
        <ele>170.2</ele>
        <time>2022-09-30 17:53:47</time>
      </trkpt>
      <trkpt lat="42.31042" lon="-7.85725">
        <ele>170.8</ele>
        <time>2022-09-30 17:53:51</time>
      </trkpt>
      <trkpt lat="42.31037" lon="-7.8572">
        <ele>171.2</ele>
        <time>2022-09-30 17:53:54</time>
      </trkpt>
      <trkpt lat="42.31031" lon="-7.85713">
        <ele>171.8</ele>
        <time>2022-09-30 17:53:58</time>
      </trkpt>
      <trkpt lat="42.31024" lon="-7.85707">
        <ele>172.6</ele>
        <time>2022-09-30 17:54:02</time>
      </trkpt>
      <trkpt lat="42.31022" lon="-7.85706">
        <ele>172.8</ele>
        <time>2022-09-30 17:54:03</time>
      </trkpt>
      <trkpt lat="42.31014" lon="-7.85699">
        <ele>173.8</ele>
        <time>2022-09-30 17:54:08</time>
      </trkpt>
      <trkpt lat="42.31013" lon="-7.85698">
        <ele>174.2</ele>
        <time>2022-09-30 17:54:09</time>
      </trkpt>
      <trkpt lat="42.31004" lon="-7.8569">
        <ele>175</ele>
        <time>2022-09-30 17:54:15</time>
      </trkpt>
      <trkpt lat="42.31002" lon="-7.85689">
        <ele>175.2</ele>
        <time>2022-09-30 17:54:16</time>
      </trkpt>
      <trkpt lat="42.30992" lon="-7.8568">
        <ele>176</ele>
        <time>2022-09-30 17:54:22</time>
      </trkpt>
      <trkpt lat="42.30986" lon="-7.85676">
        <ele>176.6</ele>
        <time>2022-09-30 17:54:26</time>
      </trkpt>
      <trkpt lat="42.30981" lon="-7.85672">
        <ele>177.2</ele>
        <time>2022-09-30 17:54:29</time>
      </trkpt>
      <trkpt lat="42.30974" lon="-7.85668">
        <ele>177.8</ele>
        <time>2022-09-30 17:54:33</time>
      </trkpt>
      <trkpt lat="42.30969" lon="-7.85664">
        <ele>178.2</ele>
        <time>2022-09-30 17:54:36</time>
      </trkpt>
      <trkpt lat="42.3096" lon="-7.85659">
        <ele>179</ele>
        <time>2022-09-30 17:54:41</time>
      </trkpt>
      <trkpt lat="42.30955" lon="-7.85655">
        <ele>179.4</ele>
        <time>2022-09-30 17:54:44</time>
      </trkpt>
      <trkpt lat="42.30949" lon="-7.8565">
        <ele>180</ele>
        <time>2022-09-30 17:54:48</time>
      </trkpt>
      <trkpt lat="42.30945" lon="-7.85648">
        <ele>180.4</ele>
        <time>2022-09-30 17:54:50</time>
      </trkpt>
      <trkpt lat="42.30936" lon="-7.85642">
        <ele>181.6</ele>
        <time>2022-09-30 17:54:56</time>
      </trkpt>
      <trkpt lat="42.30934" lon="-7.8564">
        <ele>181.8</ele>
        <time>2022-09-30 17:54:57</time>
      </trkpt>
      <trkpt lat="42.30925" lon="-7.85633">
        <ele>182.8</ele>
        <time>2022-09-30 17:55:03</time>
      </trkpt>
      <trkpt lat="42.30923" lon="-7.85632">
        <ele>183</ele>
        <time>2022-09-30 17:55:04</time>
      </trkpt>
      <trkpt lat="42.30913" lon="-7.85626">
        <ele>183.8</ele>
        <time>2022-09-30 17:55:10</time>
      </trkpt>
      <trkpt lat="42.30909" lon="-7.85622">
        <ele>184.2</ele>
        <time>2022-09-30 17:55:13</time>
      </trkpt>
      <trkpt lat="42.30899" lon="-7.85614">
        <ele>185</ele>
        <time>2022-09-30 17:55:19</time>
      </trkpt>
      <trkpt lat="42.30893" lon="-7.8561">
        <ele>185.2</ele>
        <time>2022-09-30 17:55:22</time>
      </trkpt>
      <trkpt lat="42.30876" lon="-7.85596">
        <ele>186</ele>
        <time>2022-09-30 17:55:31</time>
      </trkpt>
      <trkpt lat="42.30874" lon="-7.85594">
        <ele>186</ele>
        <time>2022-09-30 17:55:32</time>
      </trkpt>
      <trkpt lat="42.30866" lon="-7.85588">
        <ele>186.8</ele>
        <time>2022-09-30 17:55:37</time>
      </trkpt>
      <trkpt lat="42.30865" lon="-7.85586">
        <ele>187</ele>
        <time>2022-09-30 17:55:38</time>
      </trkpt>
      <trkpt lat="42.30863" lon="-7.85583">
        <ele>187.2</ele>
        <time>2022-09-30 17:55:40</time>
      </trkpt>
      <trkpt lat="42.3086" lon="-7.8558">
        <ele>187.6</ele>
        <time>2022-09-30 17:55:42</time>
      </trkpt>
      <trkpt lat="42.30852" lon="-7.85573">
        <ele>188.2</ele>
        <time>2022-09-30 17:55:47</time>
      </trkpt>
      <trkpt lat="42.30851" lon="-7.85572">
        <ele>188.4</ele>
        <time>2022-09-30 17:55:48</time>
      </trkpt>
      <trkpt lat="42.30839" lon="-7.85565">
        <ele>189.4</ele>
        <time>2022-09-30 17:55:55</time>
      </trkpt>
      <trkpt lat="42.30826" lon="-7.85557">
        <ele>190.4</ele>
        <time>2022-09-30 17:56:02</time>
      </trkpt>
      <trkpt lat="42.30825" lon="-7.85556">
        <ele>190.4</ele>
        <time>2022-09-30 17:56:03</time>
      </trkpt>
      <trkpt lat="42.30821" lon="-7.8555">
        <ele>191.2</ele>
        <time>2022-09-30 17:56:06</time>
      </trkpt>
      <trkpt lat="42.30817" lon="-7.85549">
        <ele>191.6</ele>
        <time>2022-09-30 17:56:08</time>
      </trkpt>
      <trkpt lat="42.30805" lon="-7.85545">
        <ele>192.6</ele>
        <time>2022-09-30 17:56:15</time>
      </trkpt>
      <trkpt lat="42.30804" lon="-7.85543">
        <ele>192.8</ele>
        <time>2022-09-30 17:56:16</time>
      </trkpt>
      <trkpt lat="42.30795" lon="-7.85539">
        <ele>193.6</ele>
        <time>2022-09-30 17:56:21</time>
      </trkpt>
      <trkpt lat="42.30793" lon="-7.85538">
        <ele>193.8</ele>
        <time>2022-09-30 17:56:22</time>
      </trkpt>
      <trkpt lat="42.30786" lon="-7.85527">
        <ele>194.4</ele>
        <time>2022-09-30 17:56:28</time>
      </trkpt>
      <trkpt lat="42.30785" lon="-7.85526">
        <ele>194.8</ele>
        <time>2022-09-30 17:56:29</time>
      </trkpt>
      <trkpt lat="42.30776" lon="-7.85514">
        <ele>195.6</ele>
        <time>2022-09-30 17:56:36</time>
      </trkpt>
      <trkpt lat="42.30773" lon="-7.8551">
        <ele>195.8</ele>
        <time>2022-09-30 17:56:38</time>
      </trkpt>
      <trkpt lat="42.30766" lon="-7.85501">
        <ele>196.2</ele>
        <time>2022-09-30 17:56:43</time>
      </trkpt>
      <trkpt lat="42.30759" lon="-7.85493">
        <ele>196.6</ele>
        <time>2022-09-30 17:56:48</time>
      </trkpt>
      <trkpt lat="42.30758" lon="-7.85491">
        <ele>196.8</ele>
        <time>2022-09-30 17:56:49</time>
      </trkpt>
      <trkpt lat="42.30756" lon="-7.8549">
        <ele>197</ele>
        <time>2022-09-30 17:56:50</time>
      </trkpt>
      <trkpt lat="42.30745" lon="-7.85475">
        <ele>197.4</ele>
        <time>2022-09-30 17:56:57</time>
      </trkpt>
      <trkpt lat="42.30736" lon="-7.85464">
        <ele>198</ele>
        <time>2022-09-30 17:57:03</time>
      </trkpt>
      <trkpt lat="42.30732" lon="-7.85458">
        <ele>198.4</ele>
        <time>2022-09-30 17:57:06</time>
      </trkpt>
      <trkpt lat="42.30721" lon="-7.85438">
        <ele>198.8</ele>
        <time>2022-09-30 17:57:14</time>
      </trkpt>
      <trkpt lat="42.30713" lon="-7.85424">
        <ele>199</ele>
        <time>2022-09-30 17:57:19</time>
      </trkpt>
      <trkpt lat="42.30709" lon="-7.8542">
        <ele>199</ele>
        <time>2022-09-30 17:57:21</time>
      </trkpt>
      <trkpt lat="42.30695" lon="-7.85393">
        <ele>199.6</ele>
        <time>2022-09-30 17:57:30</time>
      </trkpt>
      <trkpt lat="42.30686" lon="-7.85386">
        <ele>200.2</ele>
        <time>2022-09-30 17:57:34</time>
      </trkpt>
      <trkpt lat="42.30683" lon="-7.85386">
        <ele>200.2</ele>
        <time>2022-09-30 17:57:35</time>
      </trkpt>
      <trkpt lat="42.30668" lon="-7.85388">
        <ele>200.8</ele>
        <time>2022-09-30 17:57:41</time>
      </trkpt>
      <trkpt lat="42.3066" lon="-7.85389">
        <ele>201.2</ele>
        <time>2022-09-30 17:57:44</time>
      </trkpt>
      <trkpt lat="42.30649" lon="-7.85388">
        <ele>201.6</ele>
        <time>2022-09-30 17:57:48</time>
      </trkpt>
      <trkpt lat="42.30632" lon="-7.85381">
        <ele>202.2</ele>
        <time>2022-09-30 17:57:55</time>
      </trkpt>
      <trkpt lat="42.30615" lon="-7.85373">
        <ele>203</ele>
        <time>2022-09-30 17:58:02</time>
      </trkpt>
      <trkpt lat="42.30608" lon="-7.8537">
        <ele>203.4</ele>
        <time>2022-09-30 17:58:05</time>
      </trkpt>
      <trkpt lat="42.30594" lon="-7.85366">
        <ele>204.2</ele>
        <time>2022-09-30 17:58:11</time>
      </trkpt>
      <trkpt lat="42.3059" lon="-7.85364">
        <ele>204.6</ele>
        <time>2022-09-30 17:58:13</time>
      </trkpt>
      <trkpt lat="42.3058" lon="-7.85354">
        <ele>205.2</ele>
        <time>2022-09-30 17:58:19</time>
      </trkpt>
      <trkpt lat="42.3058" lon="-7.85338">
        <ele>205.6</ele>
        <time>2022-09-30 17:58:24</time>
      </trkpt>
      <trkpt lat="42.30586" lon="-7.85313">
        <ele>206.2</ele>
        <time>2022-09-30 17:58:32</time>
      </trkpt>
      <trkpt lat="42.30587" lon="-7.85307">
        <ele>206.8</ele>
        <time>2022-09-30 17:58:34</time>
      </trkpt>
      <trkpt lat="42.30592" lon="-7.85295">
        <ele>207</ele>
        <time>2022-09-30 17:58:38</time>
      </trkpt>
      <trkpt lat="42.30601" lon="-7.85265">
        <ele>207.6</ele>
        <time>2022-09-30 17:58:47</time>
      </trkpt>
      <trkpt lat="42.30603" lon="-7.85257">
        <ele>207.8</ele>
        <time>2022-09-30 17:58:49</time>
      </trkpt>
      <trkpt lat="42.30604" lon="-7.85251">
        <ele>207.8</ele>
        <time>2022-09-30 17:58:52</time>
      </trkpt>
      <trkpt lat="42.3061" lon="-7.85228">
        <ele>208.4</ele>
        <time>2022-09-30 17:58:58</time>
      </trkpt>
      <trkpt lat="42.30614" lon="-7.85199">
        <ele>209</ele>
        <time>2022-09-30 17:59:06</time>
      </trkpt>
      <trkpt lat="42.30614" lon="-7.85196">
        <ele>209.2</ele>
        <time>2022-09-30 17:59:07</time>
      </trkpt>
      <trkpt lat="42.30612" lon="-7.85194">
        <ele>209.4</ele>
        <time>2022-09-30 17:59:08</time>
      </trkpt>
      <trkpt lat="42.30608" lon="-7.85184">
        <ele>209.8</ele>
        <time>2022-09-30 17:59:11</time>
      </trkpt>
      <trkpt lat="42.30606" lon="-7.85176">
        <ele>210</ele>
        <time>2022-09-30 17:59:13</time>
      </trkpt>
      <trkpt lat="42.30601" lon="-7.85153">
        <ele>210.2</ele>
        <time>2022-09-30 17:59:19</time>
      </trkpt>
      <trkpt lat="42.30597" lon="-7.8514">
        <ele>211</ele>
        <time>2022-09-30 17:59:23</time>
      </trkpt>
      <trkpt lat="42.30594" lon="-7.85127">
        <ele>211.6</ele>
        <time>2022-09-30 17:59:27</time>
      </trkpt>
      <trkpt lat="42.30593" lon="-7.85121">
        <ele>212</ele>
        <time>2022-09-30 17:59:29</time>
      </trkpt>
      <trkpt lat="42.30592" lon="-7.85106">
        <ele>213</ele>
        <time>2022-09-30 17:59:34</time>
      </trkpt>
      <trkpt lat="42.30593" lon="-7.85103">
        <ele>213.2</ele>
        <time>2022-09-30 17:59:35</time>
      </trkpt>
      <trkpt lat="42.30595" lon="-7.85092">
        <ele>213.8</ele>
        <time>2022-09-30 17:59:39</time>
      </trkpt>
      <trkpt lat="42.30595" lon="-7.85083">
        <ele>214.2</ele>
        <time>2022-09-30 17:59:42</time>
      </trkpt>
      <trkpt lat="42.30593" lon="-7.85078">
        <ele>214.2</ele>
        <time>2022-09-30 17:59:44</time>
      </trkpt>
      <trkpt lat="42.30592" lon="-7.85076">
        <ele>214.2</ele>
        <time>2022-09-30 17:59:45</time>
      </trkpt>
      <trkpt lat="42.30588" lon="-7.85056">
        <ele>215.4</ele>
        <time>2022-09-30 17:59:52</time>
      </trkpt>
      <trkpt lat="42.30589" lon="-7.85038">
        <ele>216.4</ele>
        <time>2022-09-30 17:59:59</time>
      </trkpt>
      <trkpt lat="42.30594" lon="-7.85024">
        <ele>217.4</ele>
        <time>2022-09-30 18:00:05</time>
      </trkpt>
      <trkpt lat="42.30596" lon="-7.85019">
        <ele>217.8</ele>
        <time>2022-09-30 18:00:07</time>
      </trkpt>
      <trkpt lat="42.30604" lon="-7.85007">
        <ele>218.2</ele>
        <time>2022-09-30 18:00:13</time>
      </trkpt>
      <trkpt lat="42.30611" lon="-7.85">
        <ele>218.6</ele>
        <time>2022-09-30 18:00:17</time>
      </trkpt>
      <trkpt lat="42.30617" lon="-7.84995">
        <ele>219</ele>
        <time>2022-09-30 18:00:21</time>
      </trkpt>
      <trkpt lat="42.30622" lon="-7.84992">
        <ele>219.6</ele>
        <time>2022-09-30 18:00:24</time>
      </trkpt>
      <trkpt lat="42.3063" lon="-7.84986">
        <ele>220.2</ele>
        <time>2022-09-30 18:00:28</time>
      </trkpt>
      <trkpt lat="42.30635" lon="-7.84982">
        <ele>220.6</ele>
        <time>2022-09-30 18:00:31</time>
      </trkpt>
      <trkpt lat="42.30642" lon="-7.84978">
        <ele>221.4</ele>
        <time>2022-09-30 18:00:35</time>
      </trkpt>
      <trkpt lat="42.3065" lon="-7.84972">
        <ele>222</ele>
        <time>2022-09-30 18:00:39</time>
      </trkpt>
      <trkpt lat="42.30652" lon="-7.84968">
        <ele>222.2</ele>
        <time>2022-09-30 18:00:41</time>
      </trkpt>
      <trkpt lat="42.30651" lon="-7.84966">
        <ele>222.4</ele>
        <time>2022-09-30 18:00:42</time>
      </trkpt>
      <trkpt lat="42.30647" lon="-7.84962">
        <ele>223</ele>
        <time>2022-09-30 18:00:45</time>
      </trkpt>
      <trkpt lat="42.30645" lon="-7.8496">
        <ele>223.2</ele>
        <time>2022-09-30 18:00:46</time>
      </trkpt>
      <trkpt lat="42.30643" lon="-7.84956">
        <ele>223.4</ele>
        <time>2022-09-30 18:00:48</time>
      </trkpt>
      <trkpt lat="42.30636" lon="-7.84946">
        <ele>224.2</ele>
        <time>2022-09-30 18:00:53</time>
      </trkpt>
      <trkpt lat="42.30631" lon="-7.84943">
        <ele>225</ele>
        <time>2022-09-30 18:00:56</time>
      </trkpt>
      <trkpt lat="42.3063" lon="-7.84944">
        <ele>225.2</ele>
        <time>2022-09-30 18:00:57</time>
      </trkpt>
      <trkpt lat="42.30629" lon="-7.84945">
        <ele>225.4</ele>
        <time>2022-09-30 18:00:58</time>
      </trkpt>
      <trkpt lat="42.30619" lon="-7.8496">
        <ele>224.8</ele>
        <time>2022-09-30 18:01:03</time>
      </trkpt>
      <trkpt lat="42.30606" lon="-7.84975">
        <ele>223.8</ele>
        <time>2022-09-30 18:01:06</time>
      </trkpt>
      <trkpt lat="42.30601" lon="-7.8498">
        <ele>223.2</ele>
        <time>2022-09-30 18:01:07</time>
      </trkpt>
      <trkpt lat="42.30595" lon="-7.84983">
        <ele>222.8</ele>
        <time>2022-09-30 18:01:08</time>
      </trkpt>
      <trkpt lat="42.30585" lon="-7.84978">
        <ele>222.8</ele>
        <time>2022-09-30 18:01:10</time>
      </trkpt>
      <trkpt lat="42.30579" lon="-7.84966">
        <ele>223.4</ele>
        <time>2022-09-30 18:01:13</time>
      </trkpt>
      <trkpt lat="42.30577" lon="-7.84963">
        <ele>223.6</ele>
        <time>2022-09-30 18:01:14</time>
      </trkpt>
      <trkpt lat="42.30574" lon="-7.84959">
        <ele>224</ele>
        <time>2022-09-30 18:01:16</time>
      </trkpt>
      <trkpt lat="42.30572" lon="-7.84954">
        <ele>224.8</ele>
        <time>2022-09-30 18:01:19</time>
      </trkpt>
      <trkpt lat="42.3057" lon="-7.84952">
        <ele>225</ele>
        <time>2022-09-30 18:01:21</time>
      </trkpt>
      <trkpt lat="42.30568" lon="-7.84952">
        <ele>225.2</ele>
        <time>2022-09-30 18:01:22</time>
      </trkpt>
      <trkpt lat="42.30566" lon="-7.84951">
        <ele>225.4</ele>
        <time>2022-09-30 18:01:23</time>
      </trkpt>
      <trkpt lat="42.30555" lon="-7.84958">
        <ele>226</ele>
        <time>2022-09-30 18:01:29</time>
      </trkpt>
      <trkpt lat="42.30554" lon="-7.84959">
        <ele>226.2</ele>
        <time>2022-09-30 18:01:30</time>
      </trkpt>
      <trkpt lat="42.30549" lon="-7.84967">
        <ele>226.8</ele>
        <time>2022-09-30 18:01:35</time>
      </trkpt>
      <trkpt lat="42.30545" lon="-7.84972">
        <ele>227.2</ele>
        <time>2022-09-30 18:01:38</time>
      </trkpt>
      <trkpt lat="42.30535" lon="-7.84982">
        <ele>228.2</ele>
        <time>2022-09-30 18:01:45</time>
      </trkpt>
      <trkpt lat="42.30534" lon="-7.84984">
        <ele>228.4</ele>
        <time>2022-09-30 18:01:46</time>
      </trkpt>
      <trkpt lat="42.30521" lon="-7.84996">
        <ele>229.4</ele>
        <time>2022-09-30 18:01:54</time>
      </trkpt>
      <trkpt lat="42.3051" lon="-7.85004">
        <ele>230.2</ele>
        <time>2022-09-30 18:02:01</time>
      </trkpt>
      <trkpt lat="42.30508" lon="-7.85005">
        <ele>230.4</ele>
        <time>2022-09-30 18:02:03</time>
      </trkpt>
      <trkpt lat="42.30503" lon="-7.85007">
        <ele>231.4</ele>
        <time>2022-09-30 18:02:07</time>
      </trkpt>
      <trkpt lat="42.30502" lon="-7.85008">
        <ele>231.6</ele>
        <time>2022-09-30 18:02:08</time>
      </trkpt>
      <trkpt lat="42.30496" lon="-7.85012">
        <ele>232.8</ele>
        <time>2022-09-30 18:02:13</time>
      </trkpt>
      <trkpt lat="42.30492" lon="-7.85014">
        <ele>233.4</ele>
        <time>2022-09-30 18:02:16</time>
      </trkpt>
      <trkpt lat="42.3049" lon="-7.85016">
        <ele>234</ele>
        <time>2022-09-30 18:02:18</time>
      </trkpt>
      <trkpt lat="42.30483" lon="-7.85021">
        <ele>234.8</ele>
        <time>2022-09-30 18:02:23</time>
      </trkpt>
      <trkpt lat="42.30481" lon="-7.85023">
        <ele>235</ele>
        <time>2022-09-30 18:02:25</time>
      </trkpt>
      <trkpt lat="42.30471" lon="-7.85028">
        <ele>235.8</ele>
        <time>2022-09-30 18:02:32</time>
      </trkpt>
      <trkpt lat="42.30467" lon="-7.85031">
        <ele>236</ele>
        <time>2022-09-30 18:02:35</time>
      </trkpt>
      <trkpt lat="42.30458" lon="-7.85035">
        <ele>236.4</ele>
        <time>2022-09-30 18:02:41</time>
      </trkpt>
      <trkpt lat="42.3044" lon="-7.85049">
        <ele>236.4</ele>
        <time>2022-09-30 18:02:49</time>
      </trkpt>
      <trkpt lat="42.30425" lon="-7.85059">
        <ele>234.6</ele>
        <time>2022-09-30 18:02:53</time>
      </trkpt>
      <trkpt lat="42.30421" lon="-7.85058">
        <ele>233.8</ele>
        <time>2022-09-30 18:02:54</time>
      </trkpt>
      <trkpt lat="42.30415" lon="-7.85056">
        <ele>233.6</ele>
        <time>2022-09-30 18:02:55</time>
      </trkpt>
      <trkpt lat="42.30412" lon="-7.85053">
        <ele>233.8</ele>
        <time>2022-09-30 18:02:57</time>
      </trkpt>
      <trkpt lat="42.3041" lon="-7.85048">
        <ele>234.8</ele>
        <time>2022-09-30 18:02:59</time>
      </trkpt>
      <trkpt lat="42.30409" lon="-7.85045">
        <ele>235.2</ele>
        <time>2022-09-30 18:03:00</time>
      </trkpt>
      <trkpt lat="42.30407" lon="-7.85042">
        <ele>235.8</ele>
        <time>2022-09-30 18:03:02</time>
      </trkpt>
      <trkpt lat="42.30405" lon="-7.85039">
        <ele>236</ele>
        <time>2022-09-30 18:03:03</time>
      </trkpt>
      <trkpt lat="42.30401" lon="-7.8503">
        <ele>237.2</ele>
        <time>2022-09-30 18:03:08</time>
      </trkpt>
      <trkpt lat="42.30401" lon="-7.85028">
        <ele>237.4</ele>
        <time>2022-09-30 18:03:09</time>
      </trkpt>
      <trkpt lat="42.30398" lon="-7.85018">
        <ele>238.4</ele>
        <time>2022-09-30 18:03:14</time>
      </trkpt>
      <trkpt lat="42.30397" lon="-7.85014">
        <ele>238.8</ele>
        <time>2022-09-30 18:03:16</time>
      </trkpt>
      <trkpt lat="42.30397" lon="-7.85008">
        <ele>239.4</ele>
        <time>2022-09-30 18:03:19</time>
      </trkpt>
      <trkpt lat="42.30396" lon="-7.84998">
        <ele>240.2</ele>
        <time>2022-09-30 18:03:23</time>
      </trkpt>
      <trkpt lat="42.30396" lon="-7.84993">
        <ele>240.6</ele>
        <time>2022-09-30 18:03:25</time>
      </trkpt>
      <trkpt lat="42.30395" lon="-7.84978">
        <ele>241.8</ele>
        <time>2022-09-30 18:03:31</time>
      </trkpt>
      <trkpt lat="42.30394" lon="-7.84965">
        <ele>242.8</ele>
        <time>2022-09-30 18:03:37</time>
      </trkpt>
      <trkpt lat="42.30393" lon="-7.84963">
        <ele>243</ele>
        <time>2022-09-30 18:03:38</time>
      </trkpt>
      <trkpt lat="42.30391" lon="-7.84955">
        <ele>244</ele>
        <time>2022-09-30 18:03:42</time>
      </trkpt>
      <trkpt lat="42.30388" lon="-7.84945">
        <ele>245.2</ele>
        <time>2022-09-30 18:03:47</time>
      </trkpt>
      <trkpt lat="42.30385" lon="-7.84932">
        <ele>246.4</ele>
        <time>2022-09-30 18:03:52</time>
      </trkpt>
      <trkpt lat="42.30383" lon="-7.84924">
        <ele>247.2</ele>
        <time>2022-09-30 18:03:56</time>
      </trkpt>
      <trkpt lat="42.30382" lon="-7.84922">
        <ele>247.4</ele>
        <time>2022-09-30 18:03:57</time>
      </trkpt>
      <trkpt lat="42.30378" lon="-7.8491">
        <ele>248.6</ele>
        <time>2022-09-30 18:04:02</time>
      </trkpt>
      <trkpt lat="42.30378" lon="-7.84908">
        <ele>248.8</ele>
        <time>2022-09-30 18:04:03</time>
      </trkpt>
      <trkpt lat="42.30374" lon="-7.849">
        <ele>249.8</ele>
        <time>2022-09-30 18:04:07</time>
      </trkpt>
      <trkpt lat="42.30372" lon="-7.84891">
        <ele>250.4</ele>
        <time>2022-09-30 18:04:11</time>
      </trkpt>
      <trkpt lat="42.30371" lon="-7.84888">
        <ele>250.6</ele>
        <time>2022-09-30 18:04:45</time>
      </trkpt>
      <trkpt lat="42.3037" lon="-7.84884">
        <ele>250.8</ele>
        <time>2022-09-30 18:04:46</time>
      </trkpt>
      <trkpt lat="42.30365" lon="-7.84867">
        <ele>251.4</ele>
        <time>2022-09-30 18:04:52</time>
      </trkpt>
      <trkpt lat="42.30364" lon="-7.84857">
        <ele>251.8</ele>
        <time>2022-09-30 18:04:55</time>
      </trkpt>
      <trkpt lat="42.30362" lon="-7.84844">
        <ele>252</ele>
        <time>2022-09-30 18:04:59</time>
      </trkpt>
      <trkpt lat="42.30357" lon="-7.84817">
        <ele>252.8</ele>
        <time>2022-09-30 18:05:07</time>
      </trkpt>
      <trkpt lat="42.30349" lon="-7.84792">
        <ele>253.8</ele>
        <time>2022-09-30 18:05:15</time>
      </trkpt>
      <trkpt lat="42.30349" lon="-7.84788">
        <ele>253.8</ele>
        <time>2022-09-30 18:05:16</time>
      </trkpt>
      <trkpt lat="42.30345" lon="-7.84772">
        <ele>255</ele>
        <time>2022-09-30 18:05:22</time>
      </trkpt>
      <trkpt lat="42.30345" lon="-7.84769">
        <ele>255.2</ele>
        <time>2022-09-30 18:05:23</time>
      </trkpt>
      <trkpt lat="42.30346" lon="-7.84757">
        <ele>256.2</ele>
        <time>2022-09-30 18:05:28</time>
      </trkpt>
      <trkpt lat="42.30346" lon="-7.84752">
        <ele>256.6</ele>
        <time>2022-09-30 18:05:30</time>
      </trkpt>
      <trkpt lat="42.30347" lon="-7.84745">
        <ele>257.2</ele>
        <time>2022-09-30 18:05:33</time>
      </trkpt>
      <trkpt lat="42.30348" lon="-7.84734">
        <ele>258</ele>
        <time>2022-09-30 18:05:37</time>
      </trkpt>
      <trkpt lat="42.30349" lon="-7.84731">
        <ele>258.4</ele>
        <time>2022-09-30 18:05:38</time>
      </trkpt>
      <trkpt lat="42.30349" lon="-7.84722">
        <ele>259.6</ele>
        <time>2022-09-30 18:05:42</time>
      </trkpt>
      <trkpt lat="42.30349" lon="-7.84717">
        <ele>260.2</ele>
        <time>2022-09-30 18:05:44</time>
      </trkpt>
      <trkpt lat="42.30349" lon="-7.8471">
        <ele>260.6</ele>
        <time>2022-09-30 18:05:47</time>
      </trkpt>
      <trkpt lat="42.30348" lon="-7.84698">
        <ele>261.8</ele>
        <time>2022-09-30 18:05:52</time>
      </trkpt>
      <trkpt lat="42.30348" lon="-7.84696">
        <ele>262</ele>
        <time>2022-09-30 18:05:53</time>
      </trkpt>
      <trkpt lat="42.30348" lon="-7.84689">
        <ele>262.8</ele>
        <time>2022-09-30 18:05:56</time>
      </trkpt>
      <trkpt lat="42.30347" lon="-7.84677">
        <ele>264</ele>
        <time>2022-09-30 18:06:01</time>
      </trkpt>
      <trkpt lat="42.30347" lon="-7.84673">
        <ele>264.4</ele>
        <time>2022-09-30 18:06:03</time>
      </trkpt>
      <trkpt lat="42.30345" lon="-7.84664">
        <ele>265</ele>
        <time>2022-09-30 18:06:07</time>
      </trkpt>
      <trkpt lat="42.30343" lon="-7.84655">
        <ele>265.8</ele>
        <time>2022-09-30 18:06:11</time>
      </trkpt>
      <trkpt lat="42.3034" lon="-7.84648">
        <ele>266.2</ele>
        <time>2022-09-30 18:06:15</time>
      </trkpt>
      <trkpt lat="42.30338" lon="-7.84645">
        <ele>266.4</ele>
        <time>2022-09-30 18:06:17</time>
      </trkpt>
      <trkpt lat="42.30335" lon="-7.84643">
        <ele>266.6</ele>
        <time>2022-09-30 18:06:19</time>
      </trkpt>
      <trkpt lat="42.30335" lon="-7.8464">
        <ele>266.8</ele>
        <time>2022-09-30 18:06:20</time>
      </trkpt>
      <trkpt lat="42.30332" lon="-7.84634">
        <ele>267.2</ele>
        <time>2022-09-30 18:06:23</time>
      </trkpt>
      <trkpt lat="42.3033" lon="-7.8463">
        <ele>267.6</ele>
        <time>2022-09-30 18:06:25</time>
      </trkpt>
      <trkpt lat="42.30325" lon="-7.8462">
        <ele>268.2</ele>
        <time>2022-09-30 18:06:30</time>
      </trkpt>
      <trkpt lat="42.3032" lon="-7.8461">
        <ele>268.6</ele>
        <time>2022-09-30 18:06:35</time>
      </trkpt>
      <trkpt lat="42.30314" lon="-7.846">
        <ele>269.2</ele>
        <time>2022-09-30 18:06:40</time>
      </trkpt>
      <trkpt lat="42.3031" lon="-7.84592">
        <ele>269.8</ele>
        <time>2022-09-30 18:06:44</time>
      </trkpt>
      <trkpt lat="42.30303" lon="-7.84585">
        <ele>270.4</ele>
        <time>2022-09-30 18:06:50</time>
      </trkpt>
      <trkpt lat="42.30301" lon="-7.84582">
        <ele>270.6</ele>
        <time>2022-09-30 18:06:52</time>
      </trkpt>
      <trkpt lat="42.30299" lon="-7.84581">
        <ele>270.8</ele>
        <time>2022-09-30 18:06:53</time>
      </trkpt>
      <trkpt lat="42.30296" lon="-7.84575">
        <ele>271.6</ele>
        <time>2022-09-30 18:06:57</time>
      </trkpt>
      <trkpt lat="42.30293" lon="-7.8457">
        <ele>271.8</ele>
        <time>2022-09-30 18:07:00</time>
      </trkpt>
      <trkpt lat="42.30287" lon="-7.84558">
        <ele>272.6</ele>
        <time>2022-09-30 18:07:08</time>
      </trkpt>
      <trkpt lat="42.30286" lon="-7.84556">
        <ele>272.6</ele>
        <time>2022-09-30 18:07:09</time>
      </trkpt>
      <trkpt lat="42.30279" lon="-7.84543">
        <ele>273.4</ele>
        <time>2022-09-30 18:07:17</time>
      </trkpt>
      <trkpt lat="42.30278" lon="-7.84541">
        <ele>273.6</ele>
        <time>2022-09-30 18:07:18</time>
      </trkpt>
      <trkpt lat="42.30273" lon="-7.84532">
        <ele>274.4</ele>
        <time>2022-09-30 18:07:24</time>
      </trkpt>
      <trkpt lat="42.30271" lon="-7.84526">
        <ele>274.8</ele>
        <time>2022-09-30 18:07:27</time>
      </trkpt>
      <trkpt lat="42.30266" lon="-7.84517">
        <ele>275.6</ele>
        <time>2022-09-30 18:07:33</time>
      </trkpt>
      <trkpt lat="42.30264" lon="-7.84514">
        <ele>275.8</ele>
        <time>2022-09-30 18:07:35</time>
      </trkpt>
      <trkpt lat="42.30259" lon="-7.84504">
        <ele>277</ele>
        <time>2022-09-30 18:07:42</time>
      </trkpt>
      <trkpt lat="42.30258" lon="-7.84503">
        <ele>277.2</ele>
        <time>2022-09-30 18:07:43</time>
      </trkpt>
      <trkpt lat="42.30254" lon="-7.84496">
        <ele>278</ele>
        <time>2022-09-30 18:07:48</time>
      </trkpt>
      <trkpt lat="42.30253" lon="-7.84494">
        <ele>278</ele>
        <time>2022-09-30 18:07:49</time>
      </trkpt>
      <trkpt lat="42.30251" lon="-7.84492">
        <ele>278.2</ele>
        <time>2022-09-30 18:07:51</time>
      </trkpt>
      <trkpt lat="42.30248" lon="-7.84483">
        <ele>279</ele>
        <time>2022-09-30 18:07:56</time>
      </trkpt>
      <trkpt lat="42.30244" lon="-7.84478">
        <ele>279.6</ele>
        <time>2022-09-30 18:08:00</time>
      </trkpt>
      <trkpt lat="42.30242" lon="-7.84473">
        <ele>280.2</ele>
        <time>2022-09-30 18:08:03</time>
      </trkpt>
      <trkpt lat="42.30237" lon="-7.84463">
        <ele>281.4</ele>
        <time>2022-09-30 18:08:09</time>
      </trkpt>
      <trkpt lat="42.30236" lon="-7.84462">
        <ele>281.4</ele>
        <time>2022-09-30 18:08:10</time>
      </trkpt>
      <trkpt lat="42.30231" lon="-7.84451">
        <ele>282.4</ele>
        <time>2022-09-30 18:08:16</time>
      </trkpt>
      <trkpt lat="42.30229" lon="-7.84447">
        <ele>282.6</ele>
        <time>2022-09-30 18:08:18</time>
      </trkpt>
      <trkpt lat="42.30223" lon="-7.84438">
        <ele>283.6</ele>
        <time>2022-09-30 18:08:24</time>
      </trkpt>
      <trkpt lat="42.30221" lon="-7.84435">
        <ele>283.8</ele>
        <time>2022-09-30 18:08:26</time>
      </trkpt>
      <trkpt lat="42.30215" lon="-7.84428">
        <ele>284.6</ele>
        <time>2022-09-30 18:08:31</time>
      </trkpt>
      <trkpt lat="42.30209" lon="-7.84423">
        <ele>284.8</ele>
        <time>2022-09-30 18:08:35</time>
      </trkpt>
      <trkpt lat="42.30199" lon="-7.84414">
        <ele>285.2</ele>
        <time>2022-09-30 18:08:42</time>
      </trkpt>
      <trkpt lat="42.30191" lon="-7.84408">
        <ele>285.8</ele>
        <time>2022-09-30 18:08:47</time>
      </trkpt>
      <trkpt lat="42.30187" lon="-7.84402">
        <ele>286</ele>
        <time>2022-09-30 18:08:51</time>
      </trkpt>
      <trkpt lat="42.30181" lon="-7.84388">
        <ele>286.8</ele>
        <time>2022-09-30 18:08:58</time>
      </trkpt>
      <trkpt lat="42.30175" lon="-7.84373">
        <ele>287.2</ele>
        <time>2022-09-30 18:09:05</time>
      </trkpt>
      <trkpt lat="42.3017" lon="-7.84359">
        <ele>287.8</ele>
        <time>2022-09-30 18:09:11</time>
      </trkpt>
      <trkpt lat="42.3017" lon="-7.84357">
        <ele>287.8</ele>
        <time>2022-09-30 18:09:12</time>
      </trkpt>
      <trkpt lat="42.30162" lon="-7.84334">
        <ele>288.8</ele>
        <time>2022-09-30 18:09:21</time>
      </trkpt>
      <trkpt lat="42.3016" lon="-7.84329">
        <ele>289</ele>
        <time>2022-09-30 18:09:23</time>
      </trkpt>
      <trkpt lat="42.30154" lon="-7.84317">
        <ele>289.6</ele>
        <time>2022-09-30 18:09:29</time>
      </trkpt>
      <trkpt lat="42.30152" lon="-7.84312">
        <ele>290</ele>
        <time>2022-09-30 18:09:31</time>
      </trkpt>
      <trkpt lat="42.30146" lon="-7.84299">
        <ele>290.8</ele>
        <time>2022-09-30 18:09:37</time>
      </trkpt>
      <trkpt lat="42.30143" lon="-7.84295">
        <ele>291</ele>
        <time>2022-09-30 18:09:39</time>
      </trkpt>
      <trkpt lat="42.30135" lon="-7.84288">
        <ele>292</ele>
        <time>2022-09-30 18:09:44</time>
      </trkpt>
      <trkpt lat="42.30125" lon="-7.84282">
        <ele>293.2</ele>
        <time>2022-09-30 18:09:50</time>
      </trkpt>
      <trkpt lat="42.30123" lon="-7.84282">
        <ele>293.2</ele>
        <time>2022-09-30 18:09:51</time>
      </trkpt>
      <trkpt lat="42.30108" lon="-7.84276">
        <ele>293.8</ele>
        <time>2022-09-30 18:09:59</time>
      </trkpt>
      <trkpt lat="42.30093" lon="-7.84271">
        <ele>294.2</ele>
        <time>2022-09-30 18:10:06</time>
      </trkpt>
      <trkpt lat="42.30078" lon="-7.84266">
        <ele>294.4</ele>
        <time>2022-09-30 18:10:12</time>
      </trkpt>
      <trkpt lat="42.30061" lon="-7.84258">
        <ele>294.8</ele>
        <time>2022-09-30 18:10:19</time>
      </trkpt>
      <trkpt lat="42.30049" lon="-7.84252">
        <ele>295.2</ele>
        <time>2022-09-30 18:10:24</time>
      </trkpt>
      <trkpt lat="42.30044" lon="-7.84249">
        <ele>295.4</ele>
        <time>2022-09-30 18:10:26</time>
      </trkpt>
      <trkpt lat="42.30032" lon="-7.84242">
        <ele>296.4</ele>
        <time>2022-09-30 18:10:32</time>
      </trkpt>
      <trkpt lat="42.30024" lon="-7.84237">
        <ele>296.8</ele>
        <time>2022-09-30 18:10:36</time>
      </trkpt>
      <trkpt lat="42.30017" lon="-7.84231">
        <ele>297.4</ele>
        <time>2022-09-30 18:10:40</time>
      </trkpt>
      <trkpt lat="42.30007" lon="-7.84223">
        <ele>298.2</ele>
        <time>2022-09-30 18:10:45</time>
      </trkpt>
      <trkpt lat="42.30004" lon="-7.8422">
        <ele>298.4</ele>
        <time>2022-09-30 18:10:47</time>
      </trkpt>
      <trkpt lat="42.29995" lon="-7.84212">
        <ele>299</ele>
        <time>2022-09-30 18:10:52</time>
      </trkpt>
      <trkpt lat="42.2999" lon="-7.84206">
        <ele>299.6</ele>
        <time>2022-09-30 18:10:55</time>
      </trkpt>
      <trkpt lat="42.29981" lon="-7.84198">
        <ele>300</ele>
        <time>2022-09-30 18:11:00</time>
      </trkpt>
      <trkpt lat="42.29969" lon="-7.84191">
        <ele>300.6</ele>
        <time>2022-09-30 18:11:06</time>
      </trkpt>
      <trkpt lat="42.29964" lon="-7.84186">
        <ele>300.8</ele>
        <time>2022-09-30 18:11:09</time>
      </trkpt>
      <trkpt lat="42.29952" lon="-7.84172">
        <ele>301.6</ele>
        <time>2022-09-30 18:11:16</time>
      </trkpt>
      <trkpt lat="42.2995" lon="-7.8417">
        <ele>301.8</ele>
        <time>2022-09-30 18:11:17</time>
      </trkpt>
      <trkpt lat="42.2994" lon="-7.84159">
        <ele>302.8</ele>
        <time>2022-09-30 18:11:23</time>
      </trkpt>
      <trkpt lat="42.29938" lon="-7.84157">
        <ele>302.8</ele>
        <time>2022-09-30 18:11:24</time>
      </trkpt>
      <trkpt lat="42.29936" lon="-7.8415">
        <ele>303.2</ele>
        <time>2022-09-30 18:11:27</time>
      </trkpt>
      <trkpt lat="42.29937" lon="-7.84146">
        <ele>303.2</ele>
        <time>2022-09-30 18:11:29</time>
      </trkpt>
      <trkpt lat="42.29947" lon="-7.84138">
        <ele>303.8</ele>
        <time>2022-09-30 18:11:36</time>
      </trkpt>
      <trkpt lat="42.29949" lon="-7.84137">
        <ele>303.8</ele>
        <time>2022-09-30 18:11:37</time>
      </trkpt>
      <trkpt lat="42.29961" lon="-7.84131">
        <ele>304.4</ele>
        <time>2022-09-30 18:11:44</time>
      </trkpt>
      <trkpt lat="42.29967" lon="-7.84128">
        <ele>304.8</ele>
        <time>2022-09-30 18:11:47</time>
      </trkpt>
      <trkpt lat="42.29978" lon="-7.84124">
        <ele>305.2</ele>
        <time>2022-09-30 18:11:53</time>
      </trkpt>
      <trkpt lat="42.29986" lon="-7.84121">
        <ele>305.8</ele>
        <time>2022-09-30 18:11:57</time>
      </trkpt>
      <trkpt lat="42.29989" lon="-7.84119">
        <ele>306.2</ele>
        <time>2022-09-30 18:11:59</time>
      </trkpt>
      <trkpt lat="42.29992" lon="-7.84114">
        <ele>306.6</ele>
        <time>2022-09-30 18:12:02</time>
      </trkpt>
      <trkpt lat="42.29993" lon="-7.8411">
        <ele>306.8</ele>
        <time>2022-09-30 18:12:04</time>
      </trkpt>
      <trkpt lat="42.29993" lon="-7.84108">
        <ele>306.8</ele>
        <time>2022-09-30 18:12:05</time>
      </trkpt>
      <trkpt lat="42.29993" lon="-7.84095">
        <ele>307.8</ele>
        <time>2022-09-30 18:12:11</time>
      </trkpt>
      <trkpt lat="42.29993" lon="-7.84093">
        <ele>307.8</ele>
        <time>2022-09-30 18:12:12</time>
      </trkpt>
      <trkpt lat="42.29994" lon="-7.84083">
        <ele>309</ele>
        <time>2022-09-30 18:12:17</time>
      </trkpt>
      <trkpt lat="42.29994" lon="-7.84081">
        <ele>309.4</ele>
        <time>2022-09-30 18:12:18</time>
      </trkpt>
      <trkpt lat="42.29994" lon="-7.84076">
        <ele>310.2</ele>
        <time>2022-09-30 18:12:21</time>
      </trkpt>
      <trkpt lat="42.29994" lon="-7.84071">
        <ele>311.2</ele>
        <time>2022-09-30 18:12:24</time>
      </trkpt>
      <trkpt lat="42.29994" lon="-7.84069">
        <ele>311.4</ele>
        <time>2022-09-30 18:12:25</time>
      </trkpt>
      <trkpt lat="42.29993" lon="-7.84062">
        <ele>312.8</ele>
        <time>2022-09-30 18:12:29</time>
      </trkpt>
      <trkpt lat="42.29994" lon="-7.84056">
        <ele>313.8</ele>
        <time>2022-09-30 18:12:32</time>
      </trkpt>
      <trkpt lat="42.29994" lon="-7.8405">
        <ele>314.6</ele>
        <time>2022-09-30 18:12:35</time>
      </trkpt>
      <trkpt lat="42.29997" lon="-7.84038">
        <ele>314.8</ele>
        <time>2022-09-30 18:12:40</time>
      </trkpt>
      <trkpt lat="42.30001" lon="-7.84034">
        <ele>314.8</ele>
        <time>2022-09-30 18:12:42</time>
      </trkpt>
      <trkpt lat="42.30008" lon="-7.84027">
        <ele>314.6</ele>
        <time>2022-09-30 18:12:45</time>
      </trkpt>
      <trkpt lat="42.30014" lon="-7.84013">
        <ele>314.4</ele>
        <time>2022-09-30 18:12:49</time>
      </trkpt>
      <trkpt lat="42.30015" lon="-7.83994">
        <ele>314.4</ele>
        <time>2022-09-30 18:12:54</time>
      </trkpt>
      <trkpt lat="42.30012" lon="-7.83969">
        <ele>314.2</ele>
        <time>2022-09-30 18:13:01</time>
      </trkpt>
      <trkpt lat="42.3001" lon="-7.83946">
        <ele>314.6</ele>
        <time>2022-09-30 18:13:07</time>
      </trkpt>
      <trkpt lat="42.30008" lon="-7.83925">
        <ele>314.6</ele>
        <time>2022-09-30 18:13:13</time>
      </trkpt>
      <trkpt lat="42.30009" lon="-7.83906">
        <ele>314.4</ele>
        <time>2022-09-30 18:13:18</time>
      </trkpt>
      <trkpt lat="42.3001" lon="-7.83878">
        <ele>314</ele>
        <time>2022-09-30 18:13:24</time>
      </trkpt>
      <trkpt lat="42.30009" lon="-7.83873">
        <ele>313.8</ele>
        <time>2022-09-30 18:13:25</time>
      </trkpt>
      <trkpt lat="42.30007" lon="-7.83867">
        <ele>313.4</ele>
        <time>2022-09-30 18:13:27</time>
      </trkpt>
      <trkpt lat="42.30005" lon="-7.83865">
        <ele>313.4</ele>
        <time>2022-09-30 18:13:28</time>
      </trkpt>
      <trkpt lat="42.3" lon="-7.8387">
        <ele>313.6</ele>
        <time>2022-09-30 18:13:31</time>
      </trkpt>
      <trkpt lat="42.29998" lon="-7.83874">
        <ele>313.8</ele>
        <time>2022-09-30 18:13:33</time>
      </trkpt>
      <trkpt lat="42.29992" lon="-7.83882">
        <ele>313.8</ele>
        <time>2022-09-30 18:13:36</time>
      </trkpt>
      <trkpt lat="42.29979" lon="-7.83896">
        <ele>314.8</ele>
        <time>2022-09-30 18:13:43</time>
      </trkpt>
      <trkpt lat="42.29975" lon="-7.83896">
        <ele>314.8</ele>
        <time>2022-09-30 18:13:45</time>
      </trkpt>
      <trkpt lat="42.29963" lon="-7.83895">
        <ele>315.2</ele>
        <time>2022-09-30 18:13:50</time>
      </trkpt>
      <trkpt lat="42.29945" lon="-7.83889">
        <ele>315.4</ele>
        <time>2022-09-30 18:13:57</time>
      </trkpt>
      <trkpt lat="42.2993" lon="-7.83877">
        <ele>316</ele>
        <time>2022-09-30 18:14:04</time>
      </trkpt>
      <trkpt lat="42.29927" lon="-7.83875">
        <ele>316</ele>
        <time>2022-09-30 18:14:05</time>
      </trkpt>
      <trkpt lat="42.29914" lon="-7.83861">
        <ele>316.6</ele>
        <time>2022-09-30 18:14:12</time>
      </trkpt>
      <trkpt lat="42.29909" lon="-7.83855">
        <ele>317</ele>
        <time>2022-09-30 18:14:15</time>
      </trkpt>
      <trkpt lat="42.299" lon="-7.8385">
        <ele>317</ele>
        <time>2022-09-30 18:14:19</time>
      </trkpt>
      <trkpt lat="42.29895" lon="-7.83856">
        <ele>317.2</ele>
        <time>2022-09-30 18:14:22</time>
      </trkpt>
      <trkpt lat="42.29881" lon="-7.8386">
        <ele>317</ele>
        <time>2022-09-30 18:14:26</time>
      </trkpt>
      <trkpt lat="42.29869" lon="-7.83865">
        <ele>317</ele>
        <time>2022-09-30 18:14:29</time>
      </trkpt>
      <trkpt lat="42.29862" lon="-7.8387">
        <ele>317.2</ele>
        <time>2022-09-30 18:14:31</time>
      </trkpt>
      <trkpt lat="42.29831" lon="-7.83894">
        <ele>316.6</ele>
        <time>2022-09-30 18:14:39</time>
      </trkpt>
      <trkpt lat="42.29803" lon="-7.83915">
        <ele>316</ele>
        <time>2022-09-30 18:14:46</time>
      </trkpt>
      <trkpt lat="42.29799" lon="-7.83918">
        <ele>316</ele>
        <time>2022-09-30 18:14:47</time>
      </trkpt>
      <trkpt lat="42.29786" lon="-7.83928">
        <ele>315.6</ele>
        <time>2022-09-30 18:14:50</time>
      </trkpt>
      <trkpt lat="42.2977" lon="-7.8394">
        <ele>315.4</ele>
        <time>2022-09-30 18:14:54</time>
      </trkpt>
      <trkpt lat="42.29757" lon="-7.8395">
        <ele>314.6</ele>
        <time>2022-09-30 18:14:57</time>
      </trkpt>
      <trkpt lat="42.29748" lon="-7.83956">
        <ele>313.8</ele>
        <time>2022-09-30 18:15:00</time>
      </trkpt>
      <trkpt lat="42.29746" lon="-7.83957">
        <ele>313.6</ele>
        <time>2022-09-30 18:15:01</time>
      </trkpt>
      <trkpt lat="42.29736" lon="-7.83963">
        <ele>312.6</ele>
        <time>2022-09-30 18:15:05</time>
      </trkpt>
      <trkpt lat="42.29733" lon="-7.83965">
        <ele>312.4</ele>
        <time>2022-09-30 18:15:06</time>
      </trkpt>
      <trkpt lat="42.29728" lon="-7.83978">
        <ele>311.4</ele>
        <time>2022-09-30 18:15:09</time>
      </trkpt>
      <trkpt lat="42.29727" lon="-7.84001">
        <ele>310.4</ele>
        <time>2022-09-30 18:15:13</time>
      </trkpt>
      <trkpt lat="42.2972" lon="-7.84008">
        <ele>309.2</ele>
        <time>2022-09-30 18:15:16</time>
      </trkpt>
      <trkpt lat="42.29708" lon="-7.84002">
        <ele>308.6</ele>
        <time>2022-09-30 18:15:19</time>
      </trkpt>
      <trkpt lat="42.29695" lon="-7.84002">
        <ele>308.4</ele>
        <time>2022-09-30 18:15:22</time>
      </trkpt>
      <trkpt lat="42.29682" lon="-7.84002">
        <ele>308.4</ele>
        <time>2022-09-30 18:15:25</time>
      </trkpt>
      <trkpt lat="42.29676" lon="-7.84006">
        <ele>308.2</ele>
        <time>2022-09-30 18:15:27</time>
      </trkpt>
      <trkpt lat="42.29673" lon="-7.84009">
        <ele>308</ele>
        <time>2022-09-30 18:15:28</time>
      </trkpt>
      <trkpt lat="42.29665" lon="-7.84024">
        <ele>307.6</ele>
        <time>2022-09-30 18:15:31</time>
      </trkpt>
      <trkpt lat="42.29654" lon="-7.8403">
        <ele>307.4</ele>
        <time>2022-09-30 18:15:34</time>
      </trkpt>
      <trkpt lat="42.29634" lon="-7.84038">
        <ele>307.6</ele>
        <time>2022-09-30 18:15:39</time>
      </trkpt>
      <trkpt lat="42.2963" lon="-7.84039">
        <ele>307.8</ele>
        <time>2022-09-30 18:15:40</time>
      </trkpt>
      <trkpt lat="42.29605" lon="-7.84045">
        <ele>308.4</ele>
        <time>2022-09-30 18:15:47</time>
      </trkpt>
      <trkpt lat="42.29584" lon="-7.84051">
        <ele>308.8</ele>
        <time>2022-09-30 18:15:54</time>
      </trkpt>
      <trkpt lat="42.29566" lon="-7.84055">
        <ele>309.2</ele>
        <time>2022-09-30 18:16:00</time>
      </trkpt>
      <trkpt lat="42.29559" lon="-7.84055">
        <ele>309.2</ele>
        <time>2022-09-30 18:16:02</time>
      </trkpt>
      <trkpt lat="42.29548" lon="-7.84057">
        <ele>309.4</ele>
        <time>2022-09-30 18:16:05</time>
      </trkpt>
      <trkpt lat="42.2952" lon="-7.84056">
        <ele>310.2</ele>
        <time>2022-09-30 18:16:13</time>
      </trkpt>
      <trkpt lat="42.29516" lon="-7.84056">
        <ele>310.4</ele>
        <time>2022-09-30 18:16:14</time>
      </trkpt>
      <trkpt lat="42.29497" lon="-7.84063">
        <ele>310.6</ele>
        <time>2022-09-30 18:16:19</time>
      </trkpt>
      <trkpt lat="42.29471" lon="-7.84073">
        <ele>310.8</ele>
        <time>2022-09-30 18:16:26</time>
      </trkpt>
      <trkpt lat="42.29455" lon="-7.84079">
        <ele>311.6</ele>
        <time>2022-09-30 18:16:31</time>
      </trkpt>
      <trkpt lat="42.29451" lon="-7.84079">
        <ele>311.8</ele>
        <time>2022-09-30 18:16:33</time>
      </trkpt>
      <trkpt lat="42.29449" lon="-7.84078">
        <ele>311.8</ele>
        <time>2022-09-30 18:16:34</time>
      </trkpt>
      <trkpt lat="42.29448" lon="-7.84071">
        <ele>312.4</ele>
        <time>2022-09-30 18:16:37</time>
      </trkpt>
      <trkpt lat="42.29449" lon="-7.84068">
        <ele>312.6</ele>
        <time>2022-09-30 18:16:38</time>
      </trkpt>
      <trkpt lat="42.2945" lon="-7.84066">
        <ele>312.6</ele>
        <time>2022-09-30 18:16:39</time>
      </trkpt>
      <trkpt lat="42.29454" lon="-7.84056">
        <ele>312.8</ele>
        <time>2022-09-30 18:16:42</time>
      </trkpt>
      <trkpt lat="42.29469" lon="-7.84039">
        <ele>313</ele>
        <time>2022-09-30 18:16:49</time>
      </trkpt>
      <trkpt lat="42.29473" lon="-7.84026">
        <ele>313.2</ele>
        <time>2022-09-30 18:16:53</time>
      </trkpt>
      <trkpt lat="42.29466" lon="-7.8402">
        <ele>313.6</ele>
        <time>2022-09-30 18:16:57</time>
      </trkpt>
      <trkpt lat="42.29449" lon="-7.84005">
        <ele>314.6</ele>
        <time>2022-09-30 18:17:05</time>
      </trkpt>
      <trkpt lat="42.29445" lon="-7.84002">
        <ele>314.8</ele>
        <time>2022-09-30 18:17:07</time>
      </trkpt>
      <trkpt lat="42.29434" lon="-7.83993">
        <ele>315.4</ele>
        <time>2022-09-30 18:17:12</time>
      </trkpt>
      <trkpt lat="42.29428" lon="-7.83988">
        <ele>315.8</ele>
        <time>2022-09-30 18:17:15</time>
      </trkpt>
      <trkpt lat="42.29418" lon="-7.83981">
        <ele>317</ele>
        <time>2022-09-30 18:17:20</time>
      </trkpt>
      <trkpt lat="42.29404" lon="-7.83971">
        <ele>318</ele>
        <time>2022-09-30 18:17:27</time>
      </trkpt>
      <trkpt lat="42.29397" lon="-7.83965">
        <ele>318</ele>
        <time>2022-09-30 18:17:31</time>
      </trkpt>
      <trkpt lat="42.2938" lon="-7.83954">
        <ele>318.2</ele>
        <time>2022-09-30 18:17:38</time>
      </trkpt>
      <trkpt lat="42.29364" lon="-7.83947">
        <ele>317.2</ele>
        <time>2022-09-30 18:17:43</time>
      </trkpt>
      <trkpt lat="42.29359" lon="-7.83943">
        <ele>316.6</ele>
        <time>2022-09-30 18:17:44</time>
      </trkpt>
      <trkpt lat="42.29353" lon="-7.83929">
        <ele>315.8</ele>
        <time>2022-09-30 18:17:46</time>
      </trkpt>
      <trkpt lat="42.29351" lon="-7.83921">
        <ele>315.8</ele>
        <time>2022-09-30 18:17:47</time>
      </trkpt>
      <trkpt lat="42.29349" lon="-7.83913">
        <ele>315.6</ele>
        <time>2022-09-30 18:17:48</time>
      </trkpt>
      <trkpt lat="42.29345" lon="-7.83894">
        <ele>315.2</ele>
        <time>2022-09-30 18:17:51</time>
      </trkpt>
      <trkpt lat="42.29338" lon="-7.83863">
        <ele>315.6</ele>
        <time>2022-09-30 18:17:57</time>
      </trkpt>
      <trkpt lat="42.29335" lon="-7.83853">
        <ele>315.8</ele>
        <time>2022-09-30 18:17:59</time>
      </trkpt>
      <trkpt lat="42.29334" lon="-7.83838">
        <ele>316</ele>
        <time>2022-09-30 18:18:02</time>
      </trkpt>
      <trkpt lat="42.2933" lon="-7.83819">
        <ele>315.8</ele>
        <time>2022-09-30 18:18:06</time>
      </trkpt>
      <trkpt lat="42.29328" lon="-7.83814">
        <ele>315.2</ele>
        <time>2022-09-30 18:18:07</time>
      </trkpt>
      <trkpt lat="42.29324" lon="-7.83803">
        <ele>314.8</ele>
        <time>2022-09-30 18:18:09</time>
      </trkpt>
      <trkpt lat="42.29321" lon="-7.8379">
        <ele>314.2</ele>
        <time>2022-09-30 18:18:11</time>
      </trkpt>
      <trkpt lat="42.29318" lon="-7.83767">
        <ele>313.4</ele>
        <time>2022-09-30 18:18:14</time>
      </trkpt>
      <trkpt lat="42.29318" lon="-7.83759">
        <ele>313.2</ele>
        <time>2022-09-30 18:18:15</time>
      </trkpt>
      <trkpt lat="42.29316" lon="-7.83743">
        <ele>313</ele>
        <time>2022-09-30 18:18:17</time>
      </trkpt>
      <trkpt lat="42.29311" lon="-7.8371">
        <ele>312</ele>
        <time>2022-09-30 18:18:21</time>
      </trkpt>
      <trkpt lat="42.2931" lon="-7.83702">
        <ele>311.8</ele>
        <time>2022-09-30 18:18:22</time>
      </trkpt>
      <trkpt lat="42.29304" lon="-7.83677">
        <ele>311</ele>
        <time>2022-09-30 18:18:25</time>
      </trkpt>
      <trkpt lat="42.29299" lon="-7.83654">
        <ele>310.6</ele>
        <time>2022-09-30 18:18:28</time>
      </trkpt>
      <trkpt lat="42.29298" lon="-7.83648">
        <ele>310.2</ele>
        <time>2022-09-30 18:18:29</time>
      </trkpt>
      <trkpt lat="42.29296" lon="-7.83643">
        <ele>309.8</ele>
        <time>2022-09-30 18:18:30</time>
      </trkpt>
      <trkpt lat="42.29292" lon="-7.83636">
        <ele>308.8</ele>
        <time>2022-09-30 18:18:32</time>
      </trkpt>
      <trkpt lat="42.29292" lon="-7.83633">
        <ele>308.6</ele>
        <time>2022-09-30 18:18:33</time>
      </trkpt>
      <trkpt lat="42.29295" lon="-7.83631">
        <ele>308</ele>
        <time>2022-09-30 18:18:35</time>
      </trkpt>
      <trkpt lat="42.29299" lon="-7.83633">
        <ele>307.4</ele>
        <time>2022-09-30 18:18:37</time>
      </trkpt>
      <trkpt lat="42.29303" lon="-7.83636">
        <ele>307.4</ele>
        <time>2022-09-30 18:18:39</time>
      </trkpt>
      <trkpt lat="42.29305" lon="-7.83636">
        <ele>307.4</ele>
        <time>2022-09-30 18:18:40</time>
      </trkpt>
      <trkpt lat="42.29308" lon="-7.83633">
        <ele>307</ele>
        <time>2022-09-30 18:18:42</time>
      </trkpt>
      <trkpt lat="42.29314" lon="-7.8362">
        <ele>306.4</ele>
        <time>2022-09-30 18:18:45</time>
      </trkpt>
      <trkpt lat="42.29317" lon="-7.83618">
        <ele>306.2</ele>
        <time>2022-09-30 18:18:46</time>
      </trkpt>
      <trkpt lat="42.29325" lon="-7.83616">
        <ele>306</ele>
        <time>2022-09-30 18:18:48</time>
      </trkpt>
      <trkpt lat="42.29337" lon="-7.83616">
        <ele>305.6</ele>
        <time>2022-09-30 18:18:51</time>
      </trkpt>
      <trkpt lat="42.29368" lon="-7.83618">
        <ele>306.4</ele>
        <time>2022-09-30 18:18:58</time>
      </trkpt>
      <trkpt lat="42.29385" lon="-7.83621">
        <ele>307.4</ele>
        <time>2022-09-30 18:19:03</time>
      </trkpt>
      <trkpt lat="42.29388" lon="-7.83622">
        <ele>307.6</ele>
        <time>2022-09-30 18:19:04</time>
      </trkpt>
      <trkpt lat="42.2941" lon="-7.83624">
        <ele>308.4</ele>
        <time>2022-09-30 18:19:11</time>
      </trkpt>
      <trkpt lat="42.29413" lon="-7.83624">
        <ele>308.4</ele>
        <time>2022-09-30 18:19:12</time>
      </trkpt>
      <trkpt lat="42.29427" lon="-7.83616">
        <ele>308.8</ele>
        <time>2022-09-30 18:19:17</time>
      </trkpt>
      <trkpt lat="42.29441" lon="-7.83603">
        <ele>309</ele>
        <time>2022-09-30 18:19:22</time>
      </trkpt>
      <trkpt lat="42.29452" lon="-7.8359">
        <ele>309.4</ele>
        <time>2022-09-30 18:19:27</time>
      </trkpt>
      <trkpt lat="42.29457" lon="-7.83584">
        <ele>309.6</ele>
        <time>2022-09-30 18:19:29</time>
      </trkpt>
      <trkpt lat="42.29482" lon="-7.8356">
        <ele>309.4</ele>
        <time>2022-09-30 18:19:37</time>
      </trkpt>
      <trkpt lat="42.29496" lon="-7.83546">
        <ele>309.4</ele>
        <time>2022-09-30 18:19:42</time>
      </trkpt>
      <trkpt lat="42.29506" lon="-7.8354">
        <ele>310.6</ele>
        <time>2022-09-30 18:19:46</time>
      </trkpt>
      <trkpt lat="42.29508" lon="-7.83538">
        <ele>310.8</ele>
        <time>2022-09-30 18:19:47</time>
      </trkpt>
      <trkpt lat="42.29517" lon="-7.83533">
        <ele>311.6</ele>
        <time>2022-09-30 18:19:51</time>
      </trkpt>
      <trkpt lat="42.29521" lon="-7.83531">
        <ele>312</ele>
        <time>2022-09-30 18:19:53</time>
      </trkpt>
      <trkpt lat="42.29527" lon="-7.83529">
        <ele>312.8</ele>
        <time>2022-09-30 18:19:56</time>
      </trkpt>
      <trkpt lat="42.29536" lon="-7.83527">
        <ele>313.6</ele>
        <time>2022-09-30 18:20:00</time>
      </trkpt>
      <trkpt lat="42.29538" lon="-7.83527">
        <ele>313.8</ele>
        <time>2022-09-30 18:20:01</time>
      </trkpt>
      <trkpt lat="42.29545" lon="-7.83525">
        <ele>315</ele>
        <time>2022-09-30 18:20:05</time>
      </trkpt>
      <trkpt lat="42.29553" lon="-7.83524">
        <ele>316</ele>
        <time>2022-09-30 18:20:09</time>
      </trkpt>
      <trkpt lat="42.29566" lon="-7.83519">
        <ele>317.2</ele>
        <time>2022-09-30 18:20:15</time>
      </trkpt>
      <trkpt lat="42.29568" lon="-7.83518">
        <ele>317.4</ele>
        <time>2022-09-30 18:20:16</time>
      </trkpt>
      <trkpt lat="42.29575" lon="-7.83508">
        <ele>318</ele>
        <time>2022-09-30 18:20:21</time>
      </trkpt>
      <trkpt lat="42.29576" lon="-7.83502">
        <ele>318.4</ele>
        <time>2022-09-30 18:20:23</time>
      </trkpt>
      <trkpt lat="42.29578" lon="-7.83487">
        <ele>318.2</ele>
        <time>2022-09-30 18:20:28</time>
      </trkpt>
      <trkpt lat="42.29577" lon="-7.83484">
        <ele>318.2</ele>
        <time>2022-09-30 18:20:29</time>
      </trkpt>
      <trkpt lat="42.29576" lon="-7.83472">
        <ele>317.2</ele>
        <time>2022-09-30 18:20:32</time>
      </trkpt>
      <trkpt lat="42.29581" lon="-7.83458">
        <ele>317.4</ele>
        <time>2022-09-30 18:20:36</time>
      </trkpt>
      <trkpt lat="42.29588" lon="-7.83436">
        <ele>317.6</ele>
        <time>2022-09-30 18:20:42</time>
      </trkpt>
      <trkpt lat="42.296" lon="-7.83418">
        <ele>317</ele>
        <time>2022-09-30 18:20:47</time>
      </trkpt>
      <trkpt lat="42.29615" lon="-7.83412">
        <ele>318.4</ele>
        <time>2022-09-30 18:20:52</time>
      </trkpt>
      <trkpt lat="42.29627" lon="-7.83414">
        <ele>319.8</ele>
        <time>2022-09-30 18:20:56</time>
      </trkpt>
      <trkpt lat="42.29635" lon="-7.83417">
        <ele>320.6</ele>
        <time>2022-09-30 18:20:59</time>
      </trkpt>
      <trkpt lat="42.29638" lon="-7.83418">
        <ele>321</ele>
        <time>2022-09-30 18:21:00</time>
      </trkpt>
      <trkpt lat="42.29649" lon="-7.83421">
        <ele>322</ele>
        <time>2022-09-30 18:21:04</time>
      </trkpt>
      <trkpt lat="42.29654" lon="-7.83421">
        <ele>322.6</ele>
        <time>2022-09-30 18:21:06</time>
      </trkpt>
      <trkpt lat="42.29661" lon="-7.83419">
        <ele>323.2</ele>
        <time>2022-09-30 18:21:09</time>
      </trkpt>
      <trkpt lat="42.29668" lon="-7.83411">
        <ele>323.4</ele>
        <time>2022-09-30 18:21:12</time>
      </trkpt>
      <trkpt lat="42.29683" lon="-7.83401">
        <ele>323.6</ele>
        <time>2022-09-30 18:21:18</time>
      </trkpt>
      <trkpt lat="42.29698" lon="-7.83392">
        <ele>323.6</ele>
        <time>2022-09-30 18:21:24</time>
      </trkpt>
      <trkpt lat="42.29714" lon="-7.83396">
        <ele>324.2</ele>
        <time>2022-09-30 18:21:29</time>
      </trkpt>
      <trkpt lat="42.29732" lon="-7.83393">
        <ele>324.6</ele>
        <time>2022-09-30 18:21:35</time>
      </trkpt>
      <trkpt lat="42.29748" lon="-7.83387">
        <ele>325</ele>
        <time>2022-09-30 18:21:41</time>
      </trkpt>
      <trkpt lat="42.29754" lon="-7.83383">
        <ele>325.4</ele>
        <time>2022-09-30 18:21:44</time>
      </trkpt>
      <trkpt lat="42.29756" lon="-7.83378">
        <ele>325.4</ele>
        <time>2022-09-30 18:21:46</time>
      </trkpt>
      <trkpt lat="42.29758" lon="-7.83372">
        <ele>325.4</ele>
        <time>2022-09-30 18:21:48</time>
      </trkpt>
      <trkpt lat="42.29759" lon="-7.83367">
        <ele>325.6</ele>
        <time>2022-09-30 18:21:50</time>
      </trkpt>
      <trkpt lat="42.29762" lon="-7.83355">
        <ele>325.6</ele>
        <time>2022-09-30 18:21:55</time>
      </trkpt>
      <trkpt lat="42.29765" lon="-7.83333">
        <ele>325.8</ele>
        <time>2022-09-30 18:22:03</time>
      </trkpt>
      <trkpt lat="42.29768" lon="-7.83309">
        <ele>325.8</ele>
        <time>2022-09-30 18:22:12</time>
      </trkpt>
      <trkpt lat="42.29771" lon="-7.83275">
        <ele>325.6</ele>
        <time>2022-09-30 18:22:22</time>
      </trkpt>
      <trkpt lat="42.29775" lon="-7.8324">
        <ele>325.4</ele>
        <time>2022-09-30 18:22:31</time>
      </trkpt>
      <trkpt lat="42.29781" lon="-7.8321">
        <ele>325.4</ele>
        <time>2022-09-30 18:22:38</time>
      </trkpt>
      <trkpt lat="42.29794" lon="-7.83177">
        <ele>325.2</ele>
        <time>2022-09-30 18:22:46</time>
      </trkpt>
      <trkpt lat="42.29809" lon="-7.83138">
        <ele>324.6</ele>
        <time>2022-09-30 18:22:54</time>
      </trkpt>
      <trkpt lat="42.29818" lon="-7.83111">
        <ele>324.2</ele>
        <time>2022-09-30 18:22:59</time>
      </trkpt>
      <trkpt lat="42.29824" lon="-7.83095">
        <ele>324</ele>
        <time>2022-09-30 18:23:02</time>
      </trkpt>
      <trkpt lat="42.29836" lon="-7.83061">
        <ele>323.2</ele>
        <time>2022-09-30 18:23:08</time>
      </trkpt>
      <trkpt lat="42.29837" lon="-7.83055">
        <ele>323.2</ele>
        <time>2022-09-30 18:23:09</time>
      </trkpt>
      <trkpt lat="42.29838" lon="-7.83049">
        <ele>323.2</ele>
        <time>2022-09-30 18:23:10</time>
      </trkpt>
      <trkpt lat="42.2984" lon="-7.83036">
        <ele>323.2</ele>
        <time>2022-09-30 18:23:12</time>
      </trkpt>
      <trkpt lat="42.29839" lon="-7.83019">
        <ele>323.2</ele>
        <time>2022-09-30 18:23:15</time>
      </trkpt>
      <trkpt lat="42.29837" lon="-7.82981">
        <ele>323.4</ele>
        <time>2022-09-30 18:23:22</time>
      </trkpt>
      <trkpt lat="42.2984" lon="-7.82943">
        <ele>322.4</ele>
        <time>2022-09-30 18:23:29</time>
      </trkpt>
      <trkpt lat="42.29842" lon="-7.82931">
        <ele>322.2</ele>
        <time>2022-09-30 18:23:31</time>
      </trkpt>
      <trkpt lat="42.29847" lon="-7.82899">
        <ele>321.6</ele>
        <time>2022-09-30 18:23:36</time>
      </trkpt>
      <trkpt lat="42.29849" lon="-7.82886">
        <ele>321.2</ele>
        <time>2022-09-30 18:23:38</time>
      </trkpt>
      <trkpt lat="42.2985" lon="-7.8288">
        <ele>321</ele>
        <time>2022-09-30 18:23:39</time>
      </trkpt>
      <trkpt lat="42.29853" lon="-7.82868">
        <ele>320.4</ele>
        <time>2022-09-30 18:23:41</time>
      </trkpt>
      <trkpt lat="42.29855" lon="-7.82861">
        <ele>320.2</ele>
        <time>2022-09-30 18:23:42</time>
      </trkpt>
      <trkpt lat="42.29857" lon="-7.82854">
        <ele>320</ele>
        <time>2022-09-30 18:23:43</time>
      </trkpt>
      <trkpt lat="42.29862" lon="-7.82839">
        <ele>319</ele>
        <time>2022-09-30 18:23:45</time>
      </trkpt>
      <trkpt lat="42.29874" lon="-7.82808">
        <ele>317.6</ele>
        <time>2022-09-30 18:23:49</time>
      </trkpt>
      <trkpt lat="42.29873" lon="-7.828">
        <ele>317.2</ele>
        <time>2022-09-30 18:23:50</time>
      </trkpt>
      <trkpt lat="42.29868" lon="-7.82791">
        <ele>316.4</ele>
        <time>2022-09-30 18:23:52</time>
      </trkpt>
      <trkpt lat="42.29865" lon="-7.82788">
        <ele>316</ele>
        <time>2022-09-30 18:23:53</time>
      </trkpt>
      <trkpt lat="42.29861" lon="-7.82785">
        <ele>315.8</ele>
        <time>2022-09-30 18:23:54</time>
      </trkpt>
      <trkpt lat="42.29857" lon="-7.82781">
        <ele>315.8</ele>
        <time>2022-09-30 18:23:55</time>
      </trkpt>
      <trkpt lat="42.2985" lon="-7.82776">
        <ele>315.2</ele>
        <time>2022-09-30 18:23:57</time>
      </trkpt>
      <trkpt lat="42.29846" lon="-7.82766">
        <ele>314.6</ele>
        <time>2022-09-30 18:23:59</time>
      </trkpt>
      <trkpt lat="42.29847" lon="-7.82761">
        <ele>314.6</ele>
        <time>2022-09-30 18:24:00</time>
      </trkpt>
      <trkpt lat="42.29855" lon="-7.8274">
        <ele>314</ele>
        <time>2022-09-30 18:24:03</time>
      </trkpt>
      <trkpt lat="42.29861" lon="-7.82719">
        <ele>313</ele>
        <time>2022-09-30 18:24:05</time>
      </trkpt>
      <trkpt lat="42.29865" lon="-7.82708">
        <ele>312.2</ele>
        <time>2022-09-30 18:24:06</time>
      </trkpt>
      <trkpt lat="42.29869" lon="-7.82698">
        <ele>311.4</ele>
        <time>2022-09-30 18:24:07</time>
      </trkpt>
      <trkpt lat="42.29874" lon="-7.82689">
        <ele>310.2</ele>
        <time>2022-09-30 18:24:08</time>
      </trkpt>
      <trkpt lat="42.29891" lon="-7.82664">
        <ele>309.2</ele>
        <time>2022-09-30 18:24:11</time>
      </trkpt>
      <trkpt lat="42.29898" lon="-7.8266">
        <ele>309.2</ele>
        <time>2022-09-30 18:24:12</time>
      </trkpt>
      <trkpt lat="42.2991" lon="-7.8265">
        <ele>309</ele>
        <time>2022-09-30 18:24:14</time>
      </trkpt>
      <trkpt lat="42.29915" lon="-7.82645">
        <ele>309</ele>
        <time>2022-09-30 18:24:15</time>
      </trkpt>
      <trkpt lat="42.29938" lon="-7.82618">
        <ele>309</ele>
        <time>2022-09-30 18:24:20</time>
      </trkpt>
      <trkpt lat="42.29951" lon="-7.82593">
        <ele>309.4</ele>
        <time>2022-09-30 18:24:24</time>
      </trkpt>
      <trkpt lat="42.29954" lon="-7.82584">
        <ele>310.4</ele>
        <time>2022-09-30 18:24:26</time>
      </trkpt>
      <trkpt lat="42.29953" lon="-7.82579">
        <ele>311</ele>
        <time>2022-09-30 18:24:27</time>
      </trkpt>
      <trkpt lat="42.29957" lon="-7.82554">
        <ele>310.6</ele>
        <time>2022-09-30 18:24:31</time>
      </trkpt>
      <trkpt lat="42.29968" lon="-7.82535">
        <ele>311.2</ele>
        <time>2022-09-30 18:24:35</time>
      </trkpt>
      <trkpt lat="42.29976" lon="-7.82525">
        <ele>311.4</ele>
        <time>2022-09-30 18:24:38</time>
      </trkpt>
      <trkpt lat="42.2998" lon="-7.82522">
        <ele>311.4</ele>
        <time>2022-09-30 18:24:39</time>
      </trkpt>
      <trkpt lat="42.29988" lon="-7.82506">
        <ele>311.2</ele>
        <time>2022-09-30 18:24:42</time>
      </trkpt>
      <trkpt lat="42.30002" lon="-7.82494">
        <ele>310.2</ele>
        <time>2022-09-30 18:24:45</time>
      </trkpt>
      <trkpt lat="42.30014" lon="-7.82475">
        <ele>309.4</ele>
        <time>2022-09-30 18:24:49</time>
      </trkpt>
      <trkpt lat="42.30013" lon="-7.82469">
        <ele>309.2</ele>
        <time>2022-09-30 18:24:50</time>
      </trkpt>
      <trkpt lat="42.30008" lon="-7.82462">
        <ele>308.6</ele>
        <time>2022-09-30 18:24:52</time>
      </trkpt>
      <trkpt lat="42.30008" lon="-7.82454">
        <ele>308</ele>
        <time>2022-09-30 18:24:54</time>
      </trkpt>
      <trkpt lat="42.3001" lon="-7.8245">
        <ele>308</ele>
        <time>2022-09-30 18:24:55</time>
      </trkpt>
      <trkpt lat="42.30013" lon="-7.82428">
        <ele>307.8</ele>
        <time>2022-09-30 18:24:59</time>
      </trkpt>
      <trkpt lat="42.30016" lon="-7.82417">
        <ele>308</ele>
        <time>2022-09-30 18:25:01</time>
      </trkpt>
      <trkpt lat="42.3002" lon="-7.82408">
        <ele>308.2</ele>
        <time>2022-09-30 18:25:03</time>
      </trkpt>
      <trkpt lat="42.30025" lon="-7.82397">
        <ele>309.4</ele>
        <time>2022-09-30 18:25:07</time>
      </trkpt>
      <trkpt lat="42.30036" lon="-7.82395">
        <ele>310.6</ele>
        <time>2022-09-30 18:25:11</time>
      </trkpt>
      <trkpt lat="42.30045" lon="-7.82396">
        <ele>311.8</ele>
        <time>2022-09-30 18:25:15</time>
      </trkpt>
      <trkpt lat="42.30047" lon="-7.82396">
        <ele>312</ele>
        <time>2022-09-30 18:25:16</time>
      </trkpt>
      <trkpt lat="42.30056" lon="-7.82394">
        <ele>313.2</ele>
        <time>2022-09-30 18:25:20</time>
      </trkpt>
      <trkpt lat="42.30063" lon="-7.82393">
        <ele>313.8</ele>
        <time>2022-09-30 18:25:23</time>
      </trkpt>
      <trkpt lat="42.30074" lon="-7.82389">
        <ele>314.4</ele>
        <time>2022-09-30 18:25:28</time>
      </trkpt>
      <trkpt lat="42.30079" lon="-7.82387">
        <ele>314.6</ele>
        <time>2022-09-30 18:25:30</time>
      </trkpt>
      <trkpt lat="42.30097" lon="-7.82374">
        <ele>315.4</ele>
        <time>2022-09-30 18:25:38</time>
      </trkpt>
      <trkpt lat="42.301" lon="-7.82373">
        <ele>315.4</ele>
        <time>2022-09-30 18:25:39</time>
      </trkpt>
      <trkpt lat="42.3011" lon="-7.82369">
        <ele>316.6</ele>
        <time>2022-09-30 18:25:44</time>
      </trkpt>
      <trkpt lat="42.30112" lon="-7.82368">
        <ele>316.6</ele>
        <time>2022-09-30 18:25:45</time>
      </trkpt>
      <trkpt lat="42.30125" lon="-7.82364">
        <ele>317.6</ele>
        <time>2022-09-30 18:25:50</time>
      </trkpt>
      <trkpt lat="42.30129" lon="-7.82364">
        <ele>318</ele>
        <time>2022-09-30 18:25:52</time>
      </trkpt>
      <trkpt lat="42.30137" lon="-7.82366">
        <ele>318.8</ele>
        <time>2022-09-30 18:25:56</time>
      </trkpt>
      <trkpt lat="42.3014" lon="-7.82367">
        <ele>319.2</ele>
        <time>2022-09-30 18:25:58</time>
      </trkpt>
      <trkpt lat="42.30144" lon="-7.8237">
        <ele>320</ele>
        <time>2022-09-30 18:26:01</time>
      </trkpt>
      <trkpt lat="42.30153" lon="-7.82377">
        <ele>320.8</ele>
        <time>2022-09-30 18:26:06</time>
      </trkpt>
      <trkpt lat="42.30154" lon="-7.82379">
        <ele>321</ele>
        <time>2022-09-30 18:26:07</time>
      </trkpt>
      <trkpt lat="42.30161" lon="-7.82385">
        <ele>322</ele>
        <time>2022-09-30 18:26:12</time>
      </trkpt>
      <trkpt lat="42.30174" lon="-7.82392">
        <ele>323.2</ele>
        <time>2022-09-30 18:26:20</time>
      </trkpt>
      <trkpt lat="42.30176" lon="-7.82392">
        <ele>323.2</ele>
        <time>2022-09-30 18:26:21</time>
      </trkpt>
      <trkpt lat="42.3019" lon="-7.82395">
        <ele>323.8</ele>
        <time>2022-09-30 18:26:29</time>
      </trkpt>
      <trkpt lat="42.30193" lon="-7.82395">
        <ele>324.2</ele>
        <time>2022-09-30 18:26:31</time>
      </trkpt>
      <trkpt lat="42.30198" lon="-7.82395">
        <ele>324.6</ele>
        <time>2022-09-30 18:26:34</time>
      </trkpt>
      <trkpt lat="42.30215" lon="-7.82394">
        <ele>325.2</ele>
        <time>2022-09-30 18:26:42</time>
      </trkpt>
      <trkpt lat="42.30217" lon="-7.82393">
        <ele>325.2</ele>
        <time>2022-09-30 18:26:43</time>
      </trkpt>
      <trkpt lat="42.30218" lon="-7.82393">
        <ele>325.4</ele>
        <time>2022-09-30 18:26:44</time>
      </trkpt>
      <trkpt lat="42.30223" lon="-7.82388">
        <ele>325.8</ele>
        <time>2022-09-30 18:26:47</time>
      </trkpt>
      <trkpt lat="42.30222" lon="-7.8238">
        <ele>326.2</ele>
        <time>2022-09-30 18:26:52</time>
      </trkpt>
      <trkpt lat="42.3022" lon="-7.82376">
        <ele>326.2</ele>
        <time>2022-09-30 18:26:56</time>
      </trkpt>
      <trkpt lat="42.30219" lon="-7.82372">
        <ele>326.2</ele>
        <time>2022-09-30 18:26:59</time>
      </trkpt>
      <trkpt lat="42.30218" lon="-7.82368">
        <ele>326.4</ele>
        <time>2022-09-30 18:27:02</time>
      </trkpt>
      <trkpt lat="42.30216" lon="-7.82359">
        <ele>326.2</ele>
        <time>2022-09-30 18:27:07</time>
      </trkpt>
      <trkpt lat="42.30213" lon="-7.82347">
        <ele>326.2</ele>
        <time>2022-09-30 18:27:13</time>
      </trkpt>
      <trkpt lat="42.30211" lon="-7.82324">
        <ele>326</ele>
        <time>2022-09-30 18:27:19</time>
      </trkpt>
      <trkpt lat="42.30209" lon="-7.82298">
        <ele>325.4</ele>
        <time>2022-09-30 18:27:25</time>
      </trkpt>
      <trkpt lat="42.3021" lon="-7.82293">
        <ele>325.2</ele>
        <time>2022-09-30 18:27:26</time>
      </trkpt>
      <trkpt lat="42.30217" lon="-7.82272">
        <ele>324.8</ele>
        <time>2022-09-30 18:27:30</time>
      </trkpt>
      <trkpt lat="42.30222" lon="-7.82255">
        <ele>324</ele>
        <time>2022-09-30 18:27:33</time>
      </trkpt>
      <trkpt lat="42.30227" lon="-7.8224">
        <ele>323.8</ele>
        <time>2022-09-30 18:27:36</time>
      </trkpt>
      <trkpt lat="42.30238" lon="-7.82228">
        <ele>323.6</ele>
        <time>2022-09-30 18:27:40</time>
      </trkpt>
      <trkpt lat="42.30242" lon="-7.82225">
        <ele>323.6</ele>
        <time>2022-09-30 18:27:41</time>
      </trkpt>
      <trkpt lat="42.30247" lon="-7.82215">
        <ele>323.2</ele>
        <time>2022-09-30 18:27:43</time>
      </trkpt>
      <trkpt lat="42.3025" lon="-7.82211">
        <ele>323.2</ele>
        <time>2022-09-30 18:27:44</time>
      </trkpt>
      <trkpt lat="42.30258" lon="-7.82196">
        <ele>323.2</ele>
        <time>2022-09-30 18:27:47</time>
      </trkpt>
      <trkpt lat="42.3026" lon="-7.8219">
        <ele>323.4</ele>
        <time>2022-09-30 18:27:48</time>
      </trkpt>
      <trkpt lat="42.30261" lon="-7.82184">
        <ele>323.2</ele>
        <time>2022-09-30 18:27:49</time>
      </trkpt>
      <trkpt lat="42.30265" lon="-7.82168">
        <ele>323.4</ele>
        <time>2022-09-30 18:27:52</time>
      </trkpt>
      <trkpt lat="42.30276" lon="-7.82158">
        <ele>323.8</ele>
        <time>2022-09-30 18:27:55</time>
      </trkpt>
      <trkpt lat="42.3028" lon="-7.82155">
        <ele>324.2</ele>
        <time>2022-09-30 18:27:56</time>
      </trkpt>
      <trkpt lat="42.3029" lon="-7.82142">
        <ele>324.8</ele>
        <time>2022-09-30 18:27:59</time>
      </trkpt>
      <trkpt lat="42.30292" lon="-7.82136">
        <ele>324.8</ele>
        <time>2022-09-30 18:28:00</time>
      </trkpt>
      <trkpt lat="42.30301" lon="-7.82118">
        <ele>324.4</ele>
        <time>2022-09-30 18:28:03</time>
      </trkpt>
      <trkpt lat="42.30316" lon="-7.82089">
        <ele>323.4</ele>
        <time>2022-09-30 18:28:08</time>
      </trkpt>
      <trkpt lat="42.30326" lon="-7.82089">
        <ele>323.4</ele>
        <time>2022-09-30 18:28:10</time>
      </trkpt>
      <trkpt lat="42.30346" lon="-7.82094">
        <ele>324.6</ele>
        <time>2022-09-30 18:28:14</time>
      </trkpt>
      <trkpt lat="42.30361" lon="-7.82093">
        <ele>325.2</ele>
        <time>2022-09-30 18:28:17</time>
      </trkpt>
      <trkpt lat="42.30371" lon="-7.8209">
        <ele>325.6</ele>
        <time>2022-09-30 18:28:19</time>
      </trkpt>
      <trkpt lat="42.30376" lon="-7.8209">
        <ele>325.6</ele>
        <time>2022-09-30 18:28:20</time>
      </trkpt>
      <trkpt lat="42.30391" lon="-7.82086">
        <ele>326.2</ele>
        <time>2022-09-30 18:28:23</time>
      </trkpt>
      <trkpt lat="42.30395" lon="-7.82084">
        <ele>326.2</ele>
        <time>2022-09-30 18:28:24</time>
      </trkpt>
      <trkpt lat="42.30416" lon="-7.82077">
        <ele>326.6</ele>
        <time>2022-09-30 18:28:29</time>
      </trkpt>
      <trkpt lat="42.30428" lon="-7.82077">
        <ele>325.4</ele>
        <time>2022-09-30 18:28:32</time>
      </trkpt>
      <trkpt lat="42.30433" lon="-7.82079">
        <ele>325</ele>
        <time>2022-09-30 18:28:33</time>
      </trkpt>
      <trkpt lat="42.30438" lon="-7.8208">
        <ele>324.8</ele>
        <time>2022-09-30 18:28:34</time>
      </trkpt>
      <trkpt lat="42.30446" lon="-7.82076">
        <ele>324.2</ele>
        <time>2022-09-30 18:28:36</time>
      </trkpt>
      <trkpt lat="42.30452" lon="-7.82074">
        <ele>323.8</ele>
        <time>2022-09-30 18:28:37</time>
      </trkpt>
      <trkpt lat="42.30464" lon="-7.82072">
        <ele>323</ele>
        <time>2022-09-30 18:28:39</time>
      </trkpt>
      <trkpt lat="42.3047" lon="-7.82068">
        <ele>322.8</ele>
        <time>2022-09-30 18:28:40</time>
      </trkpt>
      <trkpt lat="42.30476" lon="-7.82056">
        <ele>322.8</ele>
        <time>2022-09-30 18:28:42</time>
      </trkpt>
      <trkpt lat="42.30481" lon="-7.82046">
        <ele>323.4</ele>
        <time>2022-09-30 18:28:44</time>
      </trkpt>
      <trkpt lat="42.30483" lon="-7.82043">
        <ele>323.8</ele>
        <time>2022-09-30 18:28:45</time>
      </trkpt>
      <trkpt lat="42.30483" lon="-7.8204">
        <ele>324.4</ele>
        <time>2022-09-30 18:28:46</time>
      </trkpt>
      <trkpt lat="42.30484" lon="-7.82032">
        <ele>325.2</ele>
        <time>2022-09-30 18:28:48</time>
      </trkpt>
      <trkpt lat="42.30486" lon="-7.8202">
        <ele>326.4</ele>
        <time>2022-09-30 18:28:51</time>
      </trkpt>
      <trkpt lat="42.30488" lon="-7.82013">
        <ele>326.8</ele>
        <time>2022-09-30 18:28:53</time>
      </trkpt>
      <trkpt lat="42.30491" lon="-7.82004">
        <ele>327.8</ele>
        <time>2022-09-30 18:28:56</time>
      </trkpt>
      <trkpt lat="42.30496" lon="-7.81993">
        <ele>329</ele>
        <time>2022-09-30 18:29:01</time>
      </trkpt>
      <trkpt lat="42.30501" lon="-7.81986">
        <ele>330</ele>
        <time>2022-09-30 18:29:05</time>
      </trkpt>
      <trkpt lat="42.30502" lon="-7.81985">
        <ele>330.2</ele>
        <time>2022-09-30 18:29:06</time>
      </trkpt>
      <trkpt lat="42.30504" lon="-7.81971">
        <ele>330.4</ele>
        <time>2022-09-30 18:29:11</time>
      </trkpt>
      <trkpt lat="42.305" lon="-7.81953">
        <ele>331</ele>
        <time>2022-09-30 18:29:17</time>
      </trkpt>
      <trkpt lat="42.30496" lon="-7.81939">
        <ele>332.2</ele>
        <time>2022-09-30 18:29:22</time>
      </trkpt>
      <trkpt lat="42.30493" lon="-7.81919">
        <ele>332.8</ele>
        <time>2022-09-30 18:29:28</time>
      </trkpt>
      <trkpt lat="42.30493" lon="-7.81909">
        <ele>333.4</ele>
        <time>2022-09-30 18:29:31</time>
      </trkpt>
      <trkpt lat="42.30494" lon="-7.81895">
        <ele>334.4</ele>
        <time>2022-09-30 18:29:35</time>
      </trkpt>
      <trkpt lat="42.30494" lon="-7.81869">
        <ele>334.6</ele>
        <time>2022-09-30 18:29:42</time>
      </trkpt>
      <trkpt lat="42.30499" lon="-7.81846">
        <ele>334</ele>
        <time>2022-09-30 18:29:47</time>
      </trkpt>
      <trkpt lat="42.30497" lon="-7.81826">
        <ele>333.2</ele>
        <time>2022-09-30 18:29:51</time>
      </trkpt>
      <trkpt lat="42.30488" lon="-7.81813">
        <ele>332.2</ele>
        <time>2022-09-30 18:29:54</time>
      </trkpt>
      <trkpt lat="42.30485" lon="-7.81807">
        <ele>331.6</ele>
        <time>2022-09-30 18:29:55</time>
      </trkpt>
      <trkpt lat="42.30482" lon="-7.81796">
        <ele>331</ele>
        <time>2022-09-30 18:29:57</time>
      </trkpt>
      <trkpt lat="42.30484" lon="-7.81792">
        <ele>330.8</ele>
        <time>2022-09-30 18:29:58</time>
      </trkpt>
      <trkpt lat="42.30494" lon="-7.81786">
        <ele>330.6</ele>
        <time>2022-09-30 18:30:02</time>
      </trkpt>
      <trkpt lat="42.30502" lon="-7.81785">
        <ele>331</ele>
        <time>2022-09-30 18:30:04</time>
      </trkpt>
      <trkpt lat="42.30512" lon="-7.81783">
        <ele>331.4</ele>
        <time>2022-09-30 18:30:07</time>
      </trkpt>
      <trkpt lat="42.30536" lon="-7.81779">
        <ele>332</ele>
        <time>2022-09-30 18:30:15</time>
      </trkpt>
      <trkpt lat="42.30542" lon="-7.81778">
        <ele>332</ele>
        <time>2022-09-30 18:30:17</time>
      </trkpt>
      <trkpt lat="42.30557" lon="-7.81774">
        <ele>332</ele>
        <time>2022-09-30 18:30:22</time>
      </trkpt>
      <trkpt lat="42.30561" lon="-7.81771">
        <ele>331.8</ele>
        <time>2022-09-30 18:30:24</time>
      </trkpt>
      <trkpt lat="42.30561" lon="-7.81766">
        <ele>331.8</ele>
        <time>2022-09-30 18:30:26</time>
      </trkpt>
      <trkpt lat="42.30562" lon="-7.81754">
        <ele>331</ele>
        <time>2022-09-30 18:30:28</time>
      </trkpt>
      <trkpt lat="42.30562" lon="-7.81747">
        <ele>330.4</ele>
        <time>2022-09-30 18:30:29</time>
      </trkpt>
      <trkpt lat="42.30561" lon="-7.81741">
        <ele>330</ele>
        <time>2022-09-30 18:30:30</time>
      </trkpt>
      <trkpt lat="42.3056" lon="-7.81731">
        <ele>329.8</ele>
        <time>2022-09-30 18:30:32</time>
      </trkpt>
      <trkpt lat="42.3056" lon="-7.81726">
        <ele>329.6</ele>
        <time>2022-09-30 18:30:33</time>
      </trkpt>
      <trkpt lat="42.30551" lon="-7.81709">
        <ele>329.6</ele>
        <time>2022-09-30 18:30:37</time>
      </trkpt>
      <trkpt lat="42.30544" lon="-7.81695">
        <ele>329.2</ele>
        <time>2022-09-30 18:30:40</time>
      </trkpt>
      <trkpt lat="42.30541" lon="-7.81684">
        <ele>329</ele>
        <time>2022-09-30 18:30:42</time>
      </trkpt>
      <trkpt lat="42.30535" lon="-7.81661">
        <ele>329</ele>
        <time>2022-09-30 18:30:46</time>
      </trkpt>
      <trkpt lat="42.30534" lon="-7.81651">
        <ele>329</ele>
        <time>2022-09-30 18:30:48</time>
      </trkpt>
      <trkpt lat="42.30535" lon="-7.81629">
        <ele>330.8</ele>
        <time>2022-09-30 18:30:53</time>
      </trkpt>
      <trkpt lat="42.30527" lon="-7.81617">
        <ele>332</ele>
        <time>2022-09-30 18:30:57</time>
      </trkpt>
      <trkpt lat="42.30526" lon="-7.81613">
        <ele>332.2</ele>
        <time>2022-09-30 18:30:58</time>
      </trkpt>
      <trkpt lat="42.30523" lon="-7.81601">
        <ele>332.8</ele>
        <time>2022-09-30 18:31:01</time>
      </trkpt>
      <trkpt lat="42.30522" lon="-7.81597">
        <ele>333</ele>
        <time>2022-09-30 18:31:02</time>
      </trkpt>
      <trkpt lat="42.30519" lon="-7.81584">
        <ele>334.2</ele>
        <time>2022-09-30 18:31:06</time>
      </trkpt>
      <trkpt lat="42.30518" lon="-7.81577">
        <ele>334.6</ele>
        <time>2022-09-30 18:31:08</time>
      </trkpt>
      <trkpt lat="42.30515" lon="-7.81564">
        <ele>335.4</ele>
        <time>2022-09-30 18:31:12</time>
      </trkpt>
      <trkpt lat="42.30513" lon="-7.81558">
        <ele>335.8</ele>
        <time>2022-09-30 18:31:14</time>
      </trkpt>
      <trkpt lat="42.30511" lon="-7.81546">
        <ele>336.4</ele>
        <time>2022-09-30 18:31:18</time>
      </trkpt>
      <trkpt lat="42.3051" lon="-7.81541">
        <ele>336.8</ele>
        <time>2022-09-30 18:31:20</time>
      </trkpt>
      <trkpt lat="42.30509" lon="-7.81539">
        <ele>337</ele>
        <time>2022-09-30 18:31:21</time>
      </trkpt>
      <trkpt lat="42.30507" lon="-7.8153">
        <ele>337.6</ele>
        <time>2022-09-30 18:31:24</time>
      </trkpt>
      <trkpt lat="42.30506" lon="-7.81523">
        <ele>338</ele>
        <time>2022-09-30 18:31:26</time>
      </trkpt>
      <trkpt lat="42.30506" lon="-7.81519">
        <ele>338.2</ele>
        <time>2022-09-30 18:31:27</time>
      </trkpt>
      <trkpt lat="42.30506" lon="-7.81509">
        <ele>339</ele>
        <time>2022-09-30 18:31:29</time>
      </trkpt>
      <trkpt lat="42.30506" lon="-7.81492">
        <ele>340.2</ele>
        <time>2022-09-30 18:31:33</time>
      </trkpt>
      <trkpt lat="42.30506" lon="-7.81489">
        <ele>340.4</ele>
        <time>2022-09-30 18:31:34</time>
      </trkpt>
      <trkpt lat="42.30505" lon="-7.81467">
        <ele>340.4</ele>
        <time>2022-09-30 18:31:39</time>
      </trkpt>
      <trkpt lat="42.30505" lon="-7.81445">
        <ele>339.8</ele>
        <time>2022-09-30 18:31:44</time>
      </trkpt>
      <trkpt lat="42.30505" lon="-7.8144">
        <ele>339.6</ele>
        <time>2022-09-30 18:32:08</time>
      </trkpt>
      <trkpt lat="42.30505" lon="-7.81437">
        <ele>339.6</ele>
        <time>2022-09-30 18:32:09</time>
      </trkpt>
      <trkpt lat="42.30504" lon="-7.81424">
        <ele>339</ele>
        <time>2022-09-30 18:32:12</time>
      </trkpt>
      <trkpt lat="42.30504" lon="-7.81419">
        <ele>338.8</ele>
        <time>2022-09-30 18:32:13</time>
      </trkpt>
      <trkpt lat="42.30499" lon="-7.81401">
        <ele>338.6</ele>
        <time>2022-09-30 18:32:18</time>
      </trkpt>
      <trkpt lat="42.30494" lon="-7.81389">
        <ele>338</ele>
        <time>2022-09-30 18:32:22</time>
      </trkpt>
      <trkpt lat="42.30491" lon="-7.8138">
        <ele>337.2</ele>
        <time>2022-09-30 18:32:24</time>
      </trkpt>
      <trkpt lat="42.30489" lon="-7.81377">
        <ele>336.8</ele>
        <time>2022-09-30 18:32:25</time>
      </trkpt>
      <trkpt lat="42.30484" lon="-7.81375">
        <ele>336.4</ele>
        <time>2022-09-30 18:32:27</time>
      </trkpt>
      <trkpt lat="42.30479" lon="-7.81373">
        <ele>335.8</ele>
        <time>2022-09-30 18:32:29</time>
      </trkpt>
      <trkpt lat="42.30476" lon="-7.81367">
        <ele>335.2</ele>
        <time>2022-09-30 18:32:31</time>
      </trkpt>
      <trkpt lat="42.30474" lon="-7.81364">
        <ele>334.2</ele>
        <time>2022-09-30 18:32:32</time>
      </trkpt>
      <trkpt lat="42.30468" lon="-7.8136">
        <ele>333.4</ele>
        <time>2022-09-30 18:32:35</time>
      </trkpt>
      <trkpt lat="42.30467" lon="-7.8136">
        <ele>333.2</ele>
        <time>2022-09-30 18:32:36</time>
      </trkpt>
      <trkpt lat="42.30457" lon="-7.81358">
        <ele>333.2</ele>
        <time>2022-09-30 18:32:41</time>
      </trkpt>
      <trkpt lat="42.30447" lon="-7.81356">
        <ele>333.2</ele>
        <time>2022-09-30 18:32:46</time>
      </trkpt>
      <trkpt lat="42.30441" lon="-7.81348">
        <ele>332.4</ele>
        <time>2022-09-30 18:32:50</time>
      </trkpt>
      <trkpt lat="42.3044" lon="-7.81343">
        <ele>332</ele>
        <time>2022-09-30 18:32:51</time>
      </trkpt>
      <trkpt lat="42.30438" lon="-7.81327">
        <ele>331.4</ele>
        <time>2022-09-30 18:32:54</time>
      </trkpt>
      <trkpt lat="42.3044" lon="-7.81317">
        <ele>331</ele>
        <time>2022-09-30 18:32:56</time>
      </trkpt>
      <trkpt lat="42.30444" lon="-7.81311">
        <ele>331</ele>
        <time>2022-09-30 18:32:58</time>
      </trkpt>
      <trkpt lat="42.30449" lon="-7.81306">
        <ele>331</ele>
        <time>2022-09-30 18:33:00</time>
      </trkpt>
      <trkpt lat="42.30457" lon="-7.81297">
        <ele>331</ele>
        <time>2022-09-30 18:33:04</time>
      </trkpt>
      <trkpt lat="42.30471" lon="-7.81279">
        <ele>331</ele>
        <time>2022-09-30 18:33:11</time>
      </trkpt>
      <trkpt lat="42.30486" lon="-7.81253">
        <ele>331</ele>
        <time>2022-09-30 18:33:19</time>
      </trkpt>
      <trkpt lat="42.30496" lon="-7.81237">
        <ele>331</ele>
        <time>2022-09-30 18:33:25</time>
      </trkpt>
      <trkpt lat="42.30509" lon="-7.81221">
        <ele>331.2</ele>
        <time>2022-09-30 18:33:30</time>
      </trkpt>
      <trkpt lat="42.30523" lon="-7.81201">
        <ele>330.8</ele>
        <time>2022-09-30 18:33:36</time>
      </trkpt>
      <trkpt lat="42.30535" lon="-7.81175">
        <ele>330.6</ele>
        <time>2022-09-30 18:33:43</time>
      </trkpt>
      <trkpt lat="42.30546" lon="-7.81138">
        <ele>330.2</ele>
        <time>2022-09-30 18:33:51</time>
      </trkpt>
      <trkpt lat="42.30557" lon="-7.81099">
        <ele>330</ele>
        <time>2022-09-30 18:33:59</time>
      </trkpt>
      <trkpt lat="42.30568" lon="-7.81054">
        <ele>331.6</ele>
        <time>2022-09-30 18:34:09</time>
      </trkpt>
      <trkpt lat="42.3057" lon="-7.81045">
        <ele>332.2</ele>
        <time>2022-09-30 18:34:11</time>
      </trkpt>
      <trkpt lat="42.30573" lon="-7.81034">
        <ele>333.2</ele>
        <time>2022-09-30 18:34:14</time>
      </trkpt>
      <trkpt lat="42.30578" lon="-7.81024">
        <ele>334.2</ele>
        <time>2022-09-30 18:34:17</time>
      </trkpt>
      <trkpt lat="42.30579" lon="-7.81021">
        <ele>334.4</ele>
        <time>2022-09-30 18:34:18</time>
      </trkpt>
      <trkpt lat="42.30591" lon="-7.80996">
        <ele>335</ele>
        <time>2022-09-30 18:34:25</time>
      </trkpt>
      <trkpt lat="42.30597" lon="-7.80979">
        <ele>335.2</ele>
        <time>2022-09-30 18:34:30</time>
      </trkpt>
      <trkpt lat="42.30602" lon="-7.80968">
        <ele>335.4</ele>
        <time>2022-09-30 18:34:33</time>
      </trkpt>
      <trkpt lat="42.30605" lon="-7.80958">
        <ele>335.4</ele>
        <time>2022-09-30 18:34:36</time>
      </trkpt>
      <trkpt lat="42.30616" lon="-7.80933">
        <ele>336</ele>
        <time>2022-09-30 18:34:44</time>
      </trkpt>
      <trkpt lat="42.30628" lon="-7.80911">
        <ele>336.2</ele>
        <time>2022-09-30 18:34:51</time>
      </trkpt>
      <trkpt lat="42.30642" lon="-7.80892">
        <ele>336</ele>
        <time>2022-09-30 18:34:58</time>
      </trkpt>
      <trkpt lat="42.30655" lon="-7.80879">
        <ele>336.2</ele>
        <time>2022-09-30 18:35:04</time>
      </trkpt>
      <trkpt lat="42.3067" lon="-7.80863">
        <ele>336.6</ele>
        <time>2022-09-30 18:35:11</time>
      </trkpt>
      <trkpt lat="42.30673" lon="-7.80862">
        <ele>336.6</ele>
        <time>2022-09-30 18:35:12</time>
      </trkpt>
      <trkpt lat="42.30684" lon="-7.80851">
        <ele>336.6</ele>
        <time>2022-09-30 18:35:18</time>
      </trkpt>
      <trkpt lat="42.3069" lon="-7.80847">
        <ele>336.4</ele>
        <time>2022-09-30 18:35:24</time>
      </trkpt>
      <trkpt lat="42.30692" lon="-7.80845">
        <ele>336.4</ele>
        <time>2022-09-30 18:35:26</time>
      </trkpt>
      <trkpt lat="42.30694" lon="-7.80839">
        <ele>336.2</ele>
        <time>2022-09-30 18:35:28</time>
      </trkpt>
      <trkpt lat="42.30699" lon="-7.80825">
        <ele>336</ele>
        <time>2022-09-30 18:35:32</time>
      </trkpt>
      <trkpt lat="42.30714" lon="-7.80816">
        <ele>336</ele>
        <time>2022-09-30 18:35:37</time>
      </trkpt>
      <trkpt lat="42.30716" lon="-7.80815">
        <ele>336</ele>
        <time>2022-09-30 18:35:38</time>
      </trkpt>
      <trkpt lat="42.30733" lon="-7.80806">
        <ele>337.2</ele>
        <time>2022-09-30 18:35:44</time>
      </trkpt>
      <trkpt lat="42.3076" lon="-7.80803">
        <ele>337</ele>
        <time>2022-09-30 18:35:51</time>
      </trkpt>
      <trkpt lat="42.30789" lon="-7.80798">
        <ele>337</ele>
        <time>2022-09-30 18:35:59</time>
      </trkpt>
      <trkpt lat="42.30819" lon="-7.80789">
        <ele>337.4</ele>
        <time>2022-09-30 18:36:07</time>
      </trkpt>
      <trkpt lat="42.30826" lon="-7.80787">
        <ele>337.8</ele>
        <time>2022-09-30 18:36:09</time>
      </trkpt>
      <trkpt lat="42.30851" lon="-7.80783">
        <ele>338.4</ele>
        <time>2022-09-30 18:36:16</time>
      </trkpt>
      <trkpt lat="42.30861" lon="-7.80781">
        <ele>338.8</ele>
        <time>2022-09-30 18:36:19</time>
      </trkpt>
      <trkpt lat="42.30869" lon="-7.8078">
        <ele>339.6</ele>
        <time>2022-09-30 18:36:22</time>
      </trkpt>
      <trkpt lat="42.30879" lon="-7.80781">
        <ele>340</ele>
        <time>2022-09-30 18:36:25</time>
      </trkpt>
      <trkpt lat="42.30888" lon="-7.80782">
        <ele>340.4</ele>
        <time>2022-09-30 18:36:28</time>
      </trkpt>
      <trkpt lat="42.3091" lon="-7.80784">
        <ele>341</ele>
        <time>2022-09-30 18:36:35</time>
      </trkpt>
      <trkpt lat="42.30936" lon="-7.80789">
        <ele>341.6</ele>
        <time>2022-09-30 18:36:42</time>
      </trkpt>
      <trkpt lat="42.30959" lon="-7.80794">
        <ele>342</ele>
        <time>2022-09-30 18:36:48</time>
      </trkpt>
      <trkpt lat="42.30963" lon="-7.80795">
        <ele>342.2</ele>
        <time>2022-09-30 18:36:49</time>
      </trkpt>
      <trkpt lat="42.30987" lon="-7.808">
        <ele>342.8</ele>
        <time>2022-09-30 18:36:56</time>
      </trkpt>
      <trkpt lat="42.31006" lon="-7.80801">
        <ele>342.8</ele>
        <time>2022-09-30 18:37:02</time>
      </trkpt>
      <trkpt lat="42.31034" lon="-7.80796">
        <ele>342</ele>
        <time>2022-09-30 18:37:09</time>
      </trkpt>
      <trkpt lat="42.31062" lon="-7.80789">
        <ele>340.8</ele>
        <time>2022-09-30 18:37:14</time>
      </trkpt>
      <trkpt lat="42.31087" lon="-7.80773">
        <ele>340.2</ele>
        <time>2022-09-30 18:37:19</time>
      </trkpt>
      <trkpt lat="42.31108" lon="-7.80766">
        <ele>339.8</ele>
        <time>2022-09-30 18:37:23</time>
      </trkpt>
      <trkpt lat="42.31113" lon="-7.80764">
        <ele>339.8</ele>
        <time>2022-09-30 18:37:24</time>
      </trkpt>
      <trkpt lat="42.31134" lon="-7.80763">
        <ele>339.8</ele>
        <time>2022-09-30 18:37:29</time>
      </trkpt>
      <trkpt lat="42.31151" lon="-7.80763">
        <ele>339.2</ele>
        <time>2022-09-30 18:37:33</time>
      </trkpt>
      <trkpt lat="42.31161" lon="-7.80762">
        <ele>339.2</ele>
        <time>2022-09-30 18:37:35</time>
      </trkpt>
      <trkpt lat="42.3117" lon="-7.80759">
        <ele>339.2</ele>
        <time>2022-09-30 18:37:37</time>
      </trkpt>
      <trkpt lat="42.31178" lon="-7.80755">
        <ele>339</ele>
        <time>2022-09-30 18:37:39</time>
      </trkpt>
      <trkpt lat="42.31194" lon="-7.80745">
        <ele>339.2</ele>
        <time>2022-09-30 18:37:43</time>
      </trkpt>
      <trkpt lat="42.31201" lon="-7.80742">
        <ele>339.2</ele>
        <time>2022-09-30 18:37:45</time>
      </trkpt>
      <trkpt lat="42.31227" lon="-7.80732">
        <ele>339.8</ele>
        <time>2022-09-30 18:37:51</time>
      </trkpt>
      <trkpt lat="42.31252" lon="-7.80726">
        <ele>340</ele>
        <time>2022-09-30 18:37:57</time>
      </trkpt>
      <trkpt lat="42.31268" lon="-7.80722">
        <ele>340.2</ele>
        <time>2022-09-30 18:38:01</time>
      </trkpt>
      <trkpt lat="42.31275" lon="-7.80716">
        <ele>340.4</ele>
        <time>2022-09-30 18:38:03</time>
      </trkpt>
      <trkpt lat="42.31289" lon="-7.80704">
        <ele>340.8</ele>
        <time>2022-09-30 18:38:07</time>
      </trkpt>
      <trkpt lat="42.31296" lon="-7.807">
        <ele>341</ele>
        <time>2022-09-30 18:38:09</time>
      </trkpt>
      <trkpt lat="42.3131" lon="-7.80695">
        <ele>341.2</ele>
        <time>2022-09-30 18:38:13</time>
      </trkpt>
      <trkpt lat="42.31326" lon="-7.80689">
        <ele>341.8</ele>
        <time>2022-09-30 18:38:18</time>
      </trkpt>
      <trkpt lat="42.3133" lon="-7.80688">
        <ele>342</ele>
        <time>2022-09-30 18:38:19</time>
      </trkpt>
      <trkpt lat="42.31351" lon="-7.80684">
        <ele>342.4</ele>
        <time>2022-09-30 18:38:25</time>
      </trkpt>
      <trkpt lat="42.31366" lon="-7.80678">
        <ele>343</ele>
        <time>2022-09-30 18:38:30</time>
      </trkpt>
      <trkpt lat="42.31374" lon="-7.80677">
        <ele>343.6</ele>
        <time>2022-09-30 18:38:34</time>
      </trkpt>
      <trkpt lat="42.31375" lon="-7.80676">
        <ele>343.6</ele>
        <time>2022-09-30 18:38:35</time>
      </trkpt>
      <trkpt lat="42.31382" lon="-7.80667">
        <ele>343.8</ele>
        <time>2022-09-30 18:38:41</time>
      </trkpt>
      <trkpt lat="42.31383" lon="-7.80654">
        <ele>343.8</ele>
        <time>2022-09-30 18:38:45</time>
      </trkpt>
      <trkpt lat="42.31382" lon="-7.80634">
        <ele>343.4</ele>
        <time>2022-09-30 18:38:51</time>
      </trkpt>
      <trkpt lat="42.31381" lon="-7.80614">
        <ele>343.6</ele>
        <time>2022-09-30 18:38:56</time>
      </trkpt>
      <trkpt lat="42.3138" lon="-7.8061">
        <ele>343.6</ele>
        <time>2022-09-30 18:38:57</time>
      </trkpt>
      <trkpt lat="42.3138" lon="-7.80596">
        <ele>343.8</ele>
        <time>2022-09-30 18:39:00</time>
      </trkpt>
      <trkpt lat="42.3138" lon="-7.80581">
        <ele>344</ele>
        <time>2022-09-30 18:39:03</time>
      </trkpt>
      <trkpt lat="42.31381" lon="-7.80564">
        <ele>345</ele>
        <time>2022-09-30 18:39:07</time>
      </trkpt>
      <trkpt lat="42.31381" lon="-7.8056">
        <ele>345.2</ele>
        <time>2022-09-30 18:39:08</time>
      </trkpt>
      <trkpt lat="42.3138" lon="-7.80535">
        <ele>346.2</ele>
        <time>2022-09-30 18:39:13</time>
      </trkpt>
      <trkpt lat="42.31382" lon="-7.80508">
        <ele>347.2</ele>
        <time>2022-09-30 18:39:19</time>
      </trkpt>
      <trkpt lat="42.31384" lon="-7.80501">
        <ele>347.6</ele>
        <time>2022-09-30 18:39:21</time>
      </trkpt>
      <trkpt lat="42.31385" lon="-7.80484">
        <ele>348</ele>
        <time>2022-09-30 18:39:26</time>
      </trkpt>
      <trkpt lat="42.31385" lon="-7.80476">
        <ele>348.4</ele>
        <time>2022-09-30 18:39:28</time>
      </trkpt>
      <trkpt lat="42.31385" lon="-7.80458">
        <ele>348.4</ele>
        <time>2022-09-30 18:39:33</time>
      </trkpt>
      <trkpt lat="42.31384" lon="-7.80431">
        <ele>348.8</ele>
        <time>2022-09-30 18:39:40</time>
      </trkpt>
      <trkpt lat="42.31383" lon="-7.80408">
        <ele>349.2</ele>
        <time>2022-09-30 18:39:47</time>
      </trkpt>
      <trkpt lat="42.31383" lon="-7.80405">
        <ele>349.4</ele>
        <time>2022-09-30 18:39:48</time>
      </trkpt>
      <trkpt lat="42.31381" lon="-7.80385">
        <ele>349.6</ele>
        <time>2022-09-30 18:39:54</time>
      </trkpt>
      <trkpt lat="42.31384" lon="-7.80359">
        <ele>350.2</ele>
        <time>2022-09-30 18:40:02</time>
      </trkpt>
      <trkpt lat="42.31392" lon="-7.8034">
        <ele>349.8</ele>
        <time>2022-09-30 18:40:07</time>
      </trkpt>
      <trkpt lat="42.31405" lon="-7.80327">
        <ele>349.8</ele>
        <time>2022-09-30 18:40:13</time>
      </trkpt>
      <trkpt lat="42.31422" lon="-7.80315">
        <ele>350.2</ele>
        <time>2022-09-30 18:40:20</time>
      </trkpt>
      <trkpt lat="42.31436" lon="-7.80307">
        <ele>350.4</ele>
        <time>2022-09-30 18:40:25</time>
      </trkpt>
      <trkpt lat="42.31446" lon="-7.80304">
        <ele>350.4</ele>
        <time>2022-09-30 18:40:28</time>
      </trkpt>
      <trkpt lat="42.31462" lon="-7.80302">
        <ele>350</ele>
        <time>2022-09-30 18:40:34</time>
      </trkpt>
      <trkpt lat="42.31482" lon="-7.80306">
        <ele>350.4</ele>
        <time>2022-09-30 18:40:41</time>
      </trkpt>
      <trkpt lat="42.31494" lon="-7.80309">
        <ele>350.2</ele>
        <time>2022-09-30 18:40:45</time>
      </trkpt>
      <trkpt lat="42.31511" lon="-7.80314">
        <ele>350.6</ele>
        <time>2022-09-30 18:40:50</time>
      </trkpt>
      <trkpt lat="42.31532" lon="-7.80325">
        <ele>351</ele>
        <time>2022-09-30 18:40:57</time>
      </trkpt>
      <trkpt lat="42.31553" lon="-7.80336">
        <ele>351.4</ele>
        <time>2022-09-30 18:41:04</time>
      </trkpt>
      <trkpt lat="42.31558" lon="-7.80339">
        <ele>351.6</ele>
        <time>2022-09-30 18:41:06</time>
      </trkpt>
      <trkpt lat="42.31571" lon="-7.8035">
        <ele>352.2</ele>
        <time>2022-09-30 18:41:12</time>
      </trkpt>
      <trkpt lat="42.31582" lon="-7.80358">
        <ele>352.6</ele>
        <time>2022-09-30 18:41:17</time>
      </trkpt>
      <trkpt lat="42.31587" lon="-7.80361">
        <ele>352.8</ele>
        <time>2022-09-30 18:41:19</time>
      </trkpt>
      <trkpt lat="42.31607" lon="-7.80375">
        <ele>353.6</ele>
        <time>2022-09-30 18:41:28</time>
      </trkpt>
      <trkpt lat="42.31626" lon="-7.80388">
        <ele>354</ele>
        <time>2022-09-30 18:41:36</time>
      </trkpt>
      <trkpt lat="42.31641" lon="-7.80398">
        <ele>354.8</ele>
        <time>2022-09-30 18:41:43</time>
      </trkpt>
      <trkpt lat="42.31656" lon="-7.80408">
        <ele>355.4</ele>
        <time>2022-09-30 18:41:50</time>
      </trkpt>
      <trkpt lat="42.31665" lon="-7.80414">
        <ele>355.8</ele>
        <time>2022-09-30 18:41:54</time>
      </trkpt>
      <trkpt lat="42.31674" lon="-7.8042">
        <ele>356</ele>
        <time>2022-09-30 18:41:58</time>
      </trkpt>
      <trkpt lat="42.31691" lon="-7.80431">
        <ele>356.8</ele>
        <time>2022-09-30 18:42:06</time>
      </trkpt>
      <trkpt lat="42.31697" lon="-7.80436">
        <ele>357</ele>
        <time>2022-09-30 18:42:09</time>
      </trkpt>
      <trkpt lat="42.31714" lon="-7.80447">
        <ele>357.8</ele>
        <time>2022-09-30 18:42:17</time>
      </trkpt>
      <trkpt lat="42.31718" lon="-7.8045">
        <ele>358</ele>
        <time>2022-09-30 18:42:19</time>
      </trkpt>
      <trkpt lat="42.31734" lon="-7.80464">
        <ele>358.6</ele>
        <time>2022-09-30 18:42:27</time>
      </trkpt>
      <trkpt lat="42.31742" lon="-7.8047">
        <ele>358.8</ele>
        <time>2022-09-30 18:42:31</time>
      </trkpt>
      <trkpt lat="42.31753" lon="-7.80476">
        <ele>359.4</ele>
        <time>2022-09-30 18:42:36</time>
      </trkpt>
      <trkpt lat="42.31766" lon="-7.80484">
        <ele>360</ele>
        <time>2022-09-30 18:42:42</time>
      </trkpt>
      <trkpt lat="42.31768" lon="-7.80485">
        <ele>360</ele>
        <time>2022-09-30 18:42:43</time>
      </trkpt>
      <trkpt lat="42.31783" lon="-7.80495">
        <ele>360.8</ele>
        <time>2022-09-30 18:42:50</time>
      </trkpt>
      <trkpt lat="42.31792" lon="-7.80501">
        <ele>361</ele>
        <time>2022-09-30 18:42:54</time>
      </trkpt>
      <trkpt lat="42.31798" lon="-7.80505">
        <ele>361.2</ele>
        <time>2022-09-30 18:42:57</time>
      </trkpt>
      <trkpt lat="42.31816" lon="-7.80516">
        <ele>361.8</ele>
        <time>2022-09-30 18:43:06</time>
      </trkpt>
      <trkpt lat="42.31818" lon="-7.80517">
        <ele>362</ele>
        <time>2022-09-30 18:43:07</time>
      </trkpt>
      <trkpt lat="42.3183" lon="-7.80523">
        <ele>362.4</ele>
        <time>2022-09-30 18:43:13</time>
      </trkpt>
      <trkpt lat="42.31844" lon="-7.80536">
        <ele>363</ele>
        <time>2022-09-30 18:43:21</time>
      </trkpt>
      <trkpt lat="42.31848" lon="-7.8054">
        <ele>363</ele>
        <time>2022-09-30 18:43:24</time>
      </trkpt>
      <trkpt lat="42.31852" lon="-7.80545">
        <ele>363.2</ele>
        <time>2022-09-30 18:43:27</time>
      </trkpt>
      <trkpt lat="42.31856" lon="-7.80549">
        <ele>363.2</ele>
        <time>2022-09-30 18:43:29</time>
      </trkpt>
      <trkpt lat="42.31866" lon="-7.80555">
        <ele>363.4</ele>
        <time>2022-09-30 18:43:34</time>
      </trkpt>
      <trkpt lat="42.31872" lon="-7.80559">
        <ele>363.4</ele>
        <time>2022-09-30 18:43:39</time>
      </trkpt>
      <trkpt lat="42.31873" lon="-7.80561">
        <ele>363.4</ele>
        <time>2022-09-30 18:43:41</time>
      </trkpt>
      <trkpt lat="42.31873" lon="-7.80564">
        <ele>363.4</ele>
        <time>2022-09-30 18:43:42</time>
      </trkpt>
      <trkpt lat="42.31873" lon="-7.80567">
        <ele>363.6</ele>
        <time>2022-09-30 18:43:43</time>
      </trkpt>
      <trkpt lat="42.31878" lon="-7.8057">
        <ele>363.4</ele>
        <time>2022-09-30 18:43:47</time>
      </trkpt>
      <trkpt lat="42.3188" lon="-7.80561">
        <ele>363.8</ele>
        <time>2022-09-30 18:43:50</time>
      </trkpt>
      <trkpt lat="42.31882" lon="-7.8056">
        <ele>363.8</ele>
        <time>2022-09-30 18:43:51</time>
      </trkpt>
      <trkpt lat="42.31884" lon="-7.80559">
        <ele>364</ele>
        <time>2022-09-30 18:43:52</time>
      </trkpt>
      <trkpt lat="42.31898" lon="-7.80563">
        <ele>364.8</ele>
        <time>2022-09-30 18:43:59</time>
      </trkpt>
      <trkpt lat="42.31904" lon="-7.80568">
        <ele>365</ele>
        <time>2022-09-30 18:44:03</time>
      </trkpt>
      <trkpt lat="42.31905" lon="-7.80569">
        <ele>365</ele>
        <time>2022-09-30 18:44:04</time>
      </trkpt>
      <trkpt lat="42.31908" lon="-7.80572">
        <ele>365.2</ele>
        <time>2022-09-30 18:44:06</time>
      </trkpt>
      <trkpt lat="42.31947" lon="-7.80596">
        <ele>367.6</ele>
        <time>2022-09-30 18:53:49</time>
      </trkpt>
      <trkpt lat="42.31964" lon="-7.80604">
        <ele>368</ele>
        <time>2022-09-30 18:53:57</time>
      </trkpt>
      <trkpt lat="42.31973" lon="-7.80609">
        <ele>368.6</ele>
        <time>2022-09-30 18:54:01</time>
      </trkpt>
      <trkpt lat="42.31984" lon="-7.80613">
        <ele>369</ele>
        <time>2022-09-30 18:54:06</time>
      </trkpt>
      <trkpt lat="42.31994" lon="-7.80617">
        <ele>369.6</ele>
        <time>2022-09-30 18:54:10</time>
      </trkpt>
      <trkpt lat="42.32003" lon="-7.80622">
        <ele>370</ele>
        <time>2022-09-30 18:54:14</time>
      </trkpt>
      <trkpt lat="42.32015" lon="-7.80631">
        <ele>370.8</ele>
        <time>2022-09-30 18:54:20</time>
      </trkpt>
      <trkpt lat="42.32024" lon="-7.80635">
        <ele>371</ele>
        <time>2022-09-30 18:54:24</time>
      </trkpt>
      <trkpt lat="42.32037" lon="-7.80645">
        <ele>371.8</ele>
        <time>2022-09-30 18:54:30</time>
      </trkpt>
      <trkpt lat="42.32039" lon="-7.80647">
        <ele>372</ele>
        <time>2022-09-30 18:54:31</time>
      </trkpt>
      <trkpt lat="42.32052" lon="-7.80656">
        <ele>372.8</ele>
        <time>2022-09-30 18:54:37</time>
      </trkpt>
      <trkpt lat="42.32059" lon="-7.80664">
        <ele>373.4</ele>
        <time>2022-09-30 18:54:41</time>
      </trkpt>
      <trkpt lat="42.32065" lon="-7.8067">
        <ele>374</ele>
        <time>2022-09-30 18:54:44</time>
      </trkpt>
      <trkpt lat="42.32076" lon="-7.80677">
        <ele>374.4</ele>
        <time>2022-09-30 18:54:49</time>
      </trkpt>
      <trkpt lat="42.32095" lon="-7.80684">
        <ele>375</ele>
        <time>2022-09-30 18:54:57</time>
      </trkpt>
      <trkpt lat="42.32111" lon="-7.80694">
        <ele>375.8</ele>
        <time>2022-09-30 18:55:04</time>
      </trkpt>
      <trkpt lat="42.32126" lon="-7.80692">
        <ele>375.8</ele>
        <time>2022-09-30 18:55:09</time>
      </trkpt>
      <trkpt lat="42.3215" lon="-7.80695">
        <ele>374.8</ele>
        <time>2022-09-30 18:55:15</time>
      </trkpt>
      <trkpt lat="42.32172" lon="-7.80699">
        <ele>374.6</ele>
        <time>2022-09-30 18:55:21</time>
      </trkpt>
      <trkpt lat="42.32198" lon="-7.80699">
        <ele>374.6</ele>
        <time>2022-09-30 18:55:29</time>
      </trkpt>
      <trkpt lat="42.32218" lon="-7.80698">
        <ele>374.4</ele>
        <time>2022-09-30 18:55:35</time>
      </trkpt>
      <trkpt lat="42.32236" lon="-7.80695">
        <ele>374</ele>
        <time>2022-09-30 18:55:40</time>
      </trkpt>
      <trkpt lat="42.3224" lon="-7.80694">
        <ele>374</ele>
        <time>2022-09-30 18:55:41</time>
      </trkpt>
      <trkpt lat="42.32268" lon="-7.80687">
        <ele>373</ele>
        <time>2022-09-30 18:55:48</time>
      </trkpt>
      <trkpt lat="42.32272" lon="-7.80686">
        <ele>373</ele>
        <time>2022-09-30 18:55:49</time>
      </trkpt>
      <trkpt lat="42.32303" lon="-7.80677">
        <ele>372.6</ele>
        <time>2022-09-30 18:55:57</time>
      </trkpt>
      <trkpt lat="42.32334" lon="-7.80667">
        <ele>372.4</ele>
        <time>2022-09-30 18:56:05</time>
      </trkpt>
      <trkpt lat="42.3236" lon="-7.80658">
        <ele>372.8</ele>
        <time>2022-09-30 18:56:13</time>
      </trkpt>
      <trkpt lat="42.32369" lon="-7.80656">
        <ele>374</ele>
        <time>2022-09-30 18:56:17</time>
      </trkpt>
      <trkpt lat="42.32373" lon="-7.80656">
        <ele>374.8</ele>
        <time>2022-09-30 18:56:19</time>
      </trkpt>
      <trkpt lat="42.32375" lon="-7.80655">
        <ele>375</ele>
        <time>2022-09-30 18:56:20</time>
      </trkpt>
      <trkpt lat="42.32384" lon="-7.80654">
        <ele>376.2</ele>
        <time>2022-09-30 18:56:24</time>
      </trkpt>
      <trkpt lat="42.32391" lon="-7.80653">
        <ele>376.2</ele>
        <time>2022-09-30 18:56:27</time>
      </trkpt>
      <trkpt lat="42.32413" lon="-7.80648">
        <ele>375.4</ele>
        <time>2022-09-30 18:56:34</time>
      </trkpt>
      <trkpt lat="42.32434" lon="-7.80649">
        <ele>375.6</ele>
        <time>2022-09-30 18:56:42</time>
      </trkpt>
      <trkpt lat="42.32448" lon="-7.80653">
        <ele>375.8</ele>
        <time>2022-09-30 18:56:48</time>
      </trkpt>
      <trkpt lat="42.32465" lon="-7.80661">
        <ele>376</ele>
        <time>2022-09-30 18:56:54</time>
      </trkpt>
      <trkpt lat="42.32482" lon="-7.80662">
        <ele>376.2</ele>
        <time>2022-09-30 18:56:59</time>
      </trkpt>
      <trkpt lat="42.32499" lon="-7.80655">
        <ele>376.6</ele>
        <time>2022-09-30 18:57:05</time>
      </trkpt>
      <trkpt lat="42.3251" lon="-7.80655">
        <ele>376.2</ele>
        <time>2022-09-30 18:57:09</time>
      </trkpt>
      <trkpt lat="42.32526" lon="-7.80671">
        <ele>377.2</ele>
        <time>2022-09-30 18:57:17</time>
      </trkpt>
      <trkpt lat="42.32532" lon="-7.80678">
        <ele>378.4</ele>
        <time>2022-09-30 18:57:21</time>
      </trkpt>
      <trkpt lat="42.32537" lon="-7.80683">
        <ele>379.2</ele>
        <time>2022-09-30 18:57:24</time>
      </trkpt>
      <trkpt lat="42.32539" lon="-7.80685">
        <ele>379.4</ele>
        <time>2022-09-30 18:57:25</time>
      </trkpt>
      <trkpt lat="42.32549" lon="-7.80696">
        <ele>380.2</ele>
        <time>2022-09-30 18:57:31</time>
      </trkpt>
      <trkpt lat="42.32551" lon="-7.80698">
        <ele>380.4</ele>
        <time>2022-09-30 18:57:32</time>
      </trkpt>
      <trkpt lat="42.3256" lon="-7.8071">
        <ele>381.6</ele>
        <time>2022-09-30 18:57:38</time>
      </trkpt>
      <trkpt lat="42.32569" lon="-7.80721">
        <ele>382.4</ele>
        <time>2022-09-30 18:57:44</time>
      </trkpt>
      <trkpt lat="42.32572" lon="-7.80725">
        <ele>382.6</ele>
        <time>2022-09-30 18:57:46</time>
      </trkpt>
      <trkpt lat="42.3258" lon="-7.80733">
        <ele>383.2</ele>
        <time>2022-09-30 18:57:51</time>
      </trkpt>
      <trkpt lat="42.32589" lon="-7.80741">
        <ele>383.6</ele>
        <time>2022-09-30 18:57:56</time>
      </trkpt>
      <trkpt lat="42.32595" lon="-7.80745">
        <ele>383.8</ele>
        <time>2022-09-30 18:57:59</time>
      </trkpt>
      <trkpt lat="42.3261" lon="-7.80756">
        <ele>384.4</ele>
        <time>2022-09-30 18:58:07</time>
      </trkpt>
      <trkpt lat="42.32617" lon="-7.8076">
        <ele>384.6</ele>
        <time>2022-09-30 18:58:10</time>
      </trkpt>
      <trkpt lat="42.32629" lon="-7.80764">
        <ele>385</ele>
        <time>2022-09-30 18:58:15</time>
      </trkpt>
      <trkpt lat="42.32639" lon="-7.80774">
        <ele>385</ele>
        <time>2022-09-30 18:58:20</time>
      </trkpt>
      <trkpt lat="42.3264" lon="-7.80774">
        <ele>385.2</ele>
        <time>2022-09-30 18:58:21</time>
      </trkpt>
      <trkpt lat="42.32638" lon="-7.80763">
        <ele>384.4</ele>
        <time>2022-09-30 18:58:25</time>
      </trkpt>
      <trkpt lat="42.32632" lon="-7.80753">
        <ele>383.4</ele>
        <time>2022-09-30 18:58:29</time>
      </trkpt>
      <trkpt lat="42.3263" lon="-7.80749">
        <ele>382.6</ele>
        <time>2022-09-30 18:58:31</time>
      </trkpt>
      <trkpt lat="42.32629" lon="-7.80747">
        <ele>382.2</ele>
        <time>2022-09-30 18:58:32</time>
      </trkpt>
      <trkpt lat="42.32629" lon="-7.80743">
        <ele>381.6</ele>
        <time>2022-09-30 18:58:36</time>
      </trkpt>
      <trkpt lat="42.32628" lon="-7.80737">
        <ele>381.6</ele>
        <time>2022-09-30 18:58:41</time>
      </trkpt>
      <trkpt lat="42.32626" lon="-7.80737">
        <ele>381.6</ele>
        <time>2022-09-30 18:58:42</time>
      </trkpt>
      <trkpt lat="42.32625" lon="-7.80736">
        <ele>381.4</ele>
        <time>2022-09-30 18:58:43</time>
      </trkpt>
      <trkpt lat="42.32623" lon="-7.80736">
        <ele>381.2</ele>
        <time>2022-09-30 18:58:44</time>
      </trkpt>
      <trkpt lat="42.3262" lon="-7.80735">
        <ele>380</ele>
        <time>2022-09-30 18:58:46</time>
      </trkpt>
      <trkpt lat="42.32613" lon="-7.80729">
        <ele>379.2</ele>
        <time>2022-09-30 18:58:50</time>
      </trkpt>
      <trkpt lat="42.32611" lon="-7.80727">
        <ele>379</ele>
        <time>2022-09-30 18:58:51</time>
      </trkpt>
      <trkpt lat="42.32609" lon="-7.80725">
        <ele>378.8</ele>
        <time>2022-09-30 18:58:52</time>
      </trkpt>
      <trkpt lat="42.32602" lon="-7.8072">
        <ele>378.4</ele>
        <time>2022-09-30 18:58:56</time>
      </trkpt>
      <trkpt lat="42.32596" lon="-7.80714">
        <ele>378</ele>
        <time>2022-09-30 18:59:00</time>
      </trkpt>
      <trkpt lat="42.32594" lon="-7.80713">
        <ele>377.8</ele>
        <time>2022-09-30 18:59:01</time>
      </trkpt>
      <trkpt lat="42.32591" lon="-7.80702">
        <ele>377.2</ele>
        <time>2022-09-30 18:59:08</time>
      </trkpt>
      <trkpt lat="42.32597" lon="-7.80696">
        <ele>376.8</ele>
        <time>2022-09-30 18:59:13</time>
      </trkpt>
      <trkpt lat="42.32599" lon="-7.80691">
        <ele>377</ele>
        <time>2022-09-30 18:59:16</time>
      </trkpt>
      <trkpt lat="42.326" lon="-7.80688">
        <ele>377</ele>
        <time>2022-09-30 18:59:18</time>
      </trkpt>
      <trkpt lat="42.32601" lon="-7.80685">
        <ele>377</ele>
        <time>2022-09-30 18:59:20</time>
      </trkpt>
      <trkpt lat="42.32603" lon="-7.80679">
        <ele>377</ele>
        <time>2022-09-30 18:59:23</time>
      </trkpt>
      <trkpt lat="42.32606" lon="-7.80669">
        <ele>376</ele>
        <time>2022-09-30 18:59:28</time>
      </trkpt>
      <trkpt lat="42.32607" lon="-7.80666">
        <ele>375.6</ele>
        <time>2022-09-30 18:59:29</time>
      </trkpt>
      <trkpt lat="42.32607" lon="-7.80659">
        <ele>374.8</ele>
        <time>2022-09-30 18:59:32</time>
      </trkpt>
      <trkpt lat="42.32607" lon="-7.80655">
        <ele>374.6</ele>
        <time>2022-09-30 18:59:34</time>
      </trkpt>
      <trkpt lat="42.32608" lon="-7.80648">
        <ele>373.6</ele>
        <time>2022-09-30 18:59:37</time>
      </trkpt>
      <trkpt lat="42.32607" lon="-7.80645">
        <ele>373.2</ele>
        <time>2022-09-30 18:59:38</time>
      </trkpt>
      <trkpt lat="42.32607" lon="-7.80642">
        <ele>372.6</ele>
        <time>2022-09-30 18:59:39</time>
      </trkpt>
      <trkpt lat="42.32606" lon="-7.80638">
        <ele>372</ele>
        <time>2022-09-30 18:59:40</time>
      </trkpt>
      <trkpt lat="42.32603" lon="-7.80634">
        <ele>371</ele>
        <time>2022-09-30 18:59:42</time>
      </trkpt>
      <trkpt lat="42.326" lon="-7.8063">
        <ele>370.4</ele>
        <time>2022-09-30 18:59:44</time>
      </trkpt>
      <trkpt lat="42.32599" lon="-7.80626">
        <ele>369.8</ele>
        <time>2022-09-30 18:59:46</time>
      </trkpt>
      <trkpt lat="42.326" lon="-7.80622">
        <ele>369.2</ele>
        <time>2022-09-30 18:59:48</time>
      </trkpt>
      <trkpt lat="42.32599" lon="-7.80619">
        <ele>369.2</ele>
        <time>2022-09-30 18:59:57</time>
      </trkpt>
      <trkpt lat="42.32597" lon="-7.80617">
        <ele>369</ele>
        <time>2022-09-30 18:59:59</time>
      </trkpt>
      <trkpt lat="42.32596" lon="-7.80615">
        <ele>368.8</ele>
        <time>2022-09-30 19:00:00</time>
      </trkpt>
      <trkpt lat="42.32593" lon="-7.80611">
        <ele>368.6</ele>
        <time>2022-09-30 19:00:04</time>
      </trkpt>
      <trkpt lat="42.32588" lon="-7.80607">
        <ele>368</ele>
        <time>2022-09-30 19:00:11</time>
      </trkpt>
      <trkpt lat="42.32587" lon="-7.80605">
        <ele>367.8</ele>
        <time>2022-09-30 19:00:14</time>
      </trkpt>
      <trkpt lat="42.32585" lon="-7.80603">
        <ele>367.4</ele>
        <time>2022-09-30 19:00:16</time>
      </trkpt>
      <trkpt lat="42.32582" lon="-7.80598">
        <ele>366.4</ele>
        <time>2022-09-30 19:00:25</time>
      </trkpt>
      <trkpt lat="42.32583" lon="-7.80594">
        <ele>366.8</ele>
        <time>2022-09-30 19:00:29</time>
      </trkpt>
      <trkpt lat="42.32585" lon="-7.80592">
        <ele>367.2</ele>
        <time>2022-09-30 19:00:42</time>
      </trkpt>
      <trkpt lat="42.32586" lon="-7.80591">
        <ele>367.2</ele>
        <time>2022-09-30 19:00:43</time>
      </trkpt>
      <trkpt lat="42.32587" lon="-7.8059">
        <ele>367.2</ele>
        <time>2022-09-30 19:00:44</time>
      </trkpt>
      <trkpt lat="42.32588" lon="-7.80589">
        <ele>367.4</ele>
        <time>2022-09-30 19:00:45</time>
      </trkpt>
      <trkpt lat="42.32593" lon="-7.80584">
        <ele>367.6</ele>
        <time>2022-09-30 19:00:47</time>
      </trkpt>
      <trkpt lat="42.32602" lon="-7.80581">
        <ele>367.2</ele>
        <time>2022-09-30 19:00:50</time>
      </trkpt>
      <trkpt lat="42.32609" lon="-7.8058">
        <ele>367.4</ele>
        <time>2022-09-30 19:00:52</time>
      </trkpt>
      <trkpt lat="42.32639" lon="-7.8058">
        <ele>367.4</ele>
        <time>2022-09-30 19:00:59</time>
      </trkpt>
      <trkpt lat="42.32647" lon="-7.80579">
        <ele>367.4</ele>
        <time>2022-09-30 19:01:01</time>
      </trkpt>
      <trkpt lat="42.3265" lon="-7.80574">
        <ele>367.2</ele>
        <time>2022-09-30 19:01:03</time>
      </trkpt>
      <trkpt lat="42.32643" lon="-7.80568">
        <ele>366.8</ele>
        <time>2022-09-30 19:01:06</time>
      </trkpt>
      <trkpt lat="42.32636" lon="-7.80568">
        <ele>366.6</ele>
        <time>2022-09-30 19:01:08</time>
      </trkpt>
      <trkpt lat="42.32624" lon="-7.80568">
        <ele>366.4</ele>
        <time>2022-09-30 19:01:11</time>
      </trkpt>
      <trkpt lat="42.3262" lon="-7.80568">
        <ele>366.2</ele>
        <time>2022-09-30 19:01:12</time>
      </trkpt>
      <trkpt lat="42.32596" lon="-7.80568">
        <ele>365.2</ele>
        <time>2022-09-30 19:01:17</time>
      </trkpt>
      <trkpt lat="42.3259" lon="-7.80568">
        <ele>365</ele>
        <time>2022-09-30 19:01:18</time>
      </trkpt>
      <trkpt lat="42.32568" lon="-7.80571">
        <ele>364.2</ele>
        <time>2022-09-30 19:01:22</time>
      </trkpt>
      <trkpt lat="42.32554" lon="-7.80573">
        <ele>364.2</ele>
        <time>2022-09-30 19:01:25</time>
      </trkpt>
      <trkpt lat="42.32528" lon="-7.80577">
        <ele>364.8</ele>
        <time>2022-09-30 19:01:32</time>
      </trkpt>
      <trkpt lat="42.325" lon="-7.80581">
        <ele>364.8</ele>
        <time>2022-09-30 19:01:39</time>
      </trkpt>
      <trkpt lat="42.32476" lon="-7.80586">
        <ele>364.8</ele>
        <time>2022-09-30 19:01:45</time>
      </trkpt>
      <trkpt lat="42.32451" lon="-7.8059">
        <ele>365.2</ele>
        <time>2022-09-30 19:01:52</time>
      </trkpt>
      <trkpt lat="42.32429" lon="-7.80591">
        <ele>365.8</ele>
        <time>2022-09-30 19:01:58</time>
      </trkpt>
      <trkpt lat="42.32406" lon="-7.80594">
        <ele>366.2</ele>
        <time>2022-09-30 19:02:04</time>
      </trkpt>
      <trkpt lat="42.32401" lon="-7.80595">
        <ele>366.2</ele>
        <time>2022-09-30 19:02:05</time>
      </trkpt>
      <trkpt lat="42.32398" lon="-7.80596">
        <ele>366.4</ele>
        <time>2022-09-30 19:02:06</time>
      </trkpt>
      <trkpt lat="42.32376" lon="-7.80605">
        <ele>367.6</ele>
        <time>2022-09-30 19:02:12</time>
      </trkpt>
      <trkpt lat="42.32354" lon="-7.80614">
        <ele>368.4</ele>
        <time>2022-09-30 19:02:19</time>
      </trkpt>
      <trkpt lat="42.32351" lon="-7.80615">
        <ele>368.6</ele>
        <time>2022-09-30 19:02:20</time>
      </trkpt>
      <trkpt lat="42.32334" lon="-7.80616">
        <ele>369</ele>
        <time>2022-09-30 19:02:25</time>
      </trkpt>
      <trkpt lat="42.32321" lon="-7.80615">
        <ele>369.8</ele>
        <time>2022-09-30 19:02:30</time>
      </trkpt>
      <trkpt lat="42.32318" lon="-7.80615">
        <ele>369.8</ele>
        <time>2022-09-30 19:02:31</time>
      </trkpt>
      <trkpt lat="42.32303" lon="-7.8062">
        <ele>370.8</ele>
        <time>2022-09-30 19:02:37</time>
      </trkpt>
      <trkpt lat="42.323" lon="-7.80621">
        <ele>370.8</ele>
        <time>2022-09-30 19:02:38</time>
      </trkpt>
      <trkpt lat="42.32282" lon="-7.80623">
        <ele>371</ele>
        <time>2022-09-30 19:02:44</time>
      </trkpt>
      <trkpt lat="42.32264" lon="-7.80621">
        <ele>371</ele>
        <time>2022-09-30 19:02:49</time>
      </trkpt>
      <trkpt lat="42.32238" lon="-7.80614">
        <ele>371.6</ele>
        <time>2022-09-30 19:02:57</time>
      </trkpt>
      <trkpt lat="42.32231" lon="-7.80612">
        <ele>371.8</ele>
        <time>2022-09-30 19:02:59</time>
      </trkpt>
      <trkpt lat="42.32211" lon="-7.80607">
        <ele>372</ele>
        <time>2022-09-30 19:03:05</time>
      </trkpt>
      <trkpt lat="42.3219" lon="-7.80598">
        <ele>372</ele>
        <time>2022-09-30 19:03:11</time>
      </trkpt>
      <trkpt lat="42.32166" lon="-7.80583">
        <ele>372.2</ele>
        <time>2022-09-30 19:03:18</time>
      </trkpt>
      <trkpt lat="42.32146" lon="-7.80578">
        <ele>372.2</ele>
        <time>2022-09-30 19:03:24</time>
      </trkpt>
      <trkpt lat="42.32122" lon="-7.80579">
        <ele>372.6</ele>
        <time>2022-09-30 19:03:32</time>
      </trkpt>
      <trkpt lat="42.32114" lon="-7.80579">
        <ele>372.8</ele>
        <time>2022-09-30 19:03:35</time>
      </trkpt>
      <trkpt lat="42.32109" lon="-7.80577">
        <ele>373</ele>
        <time>2022-09-30 19:03:37</time>
      </trkpt>
      <trkpt lat="42.321" lon="-7.80565">
        <ele>373</ele>
        <time>2022-09-30 19:03:43</time>
      </trkpt>
      <trkpt lat="42.3209" lon="-7.80545">
        <ele>372.2</ele>
        <time>2022-09-30 19:03:48</time>
      </trkpt>
      <trkpt lat="42.32084" lon="-7.80534">
        <ele>371.6</ele>
        <time>2022-09-30 19:03:50</time>
      </trkpt>
      <trkpt lat="42.32078" lon="-7.8052">
        <ele>370.6</ele>
        <time>2022-09-30 19:03:52</time>
      </trkpt>
      <trkpt lat="42.32075" lon="-7.80511">
        <ele>370.4</ele>
        <time>2022-09-30 19:03:53</time>
      </trkpt>
      <trkpt lat="42.32066" lon="-7.80473">
        <ele>369</ele>
        <time>2022-09-30 19:03:57</time>
      </trkpt>
      <trkpt lat="42.32064" lon="-7.80462">
        <ele>368.6</ele>
        <time>2022-09-30 19:03:58</time>
      </trkpt>
      <trkpt lat="42.3206" lon="-7.80429">
        <ele>367.6</ele>
        <time>2022-09-30 19:04:01</time>
      </trkpt>
      <trkpt lat="42.32057" lon="-7.80386">
        <ele>366.6</ele>
        <time>2022-09-30 19:04:05</time>
      </trkpt>
      <trkpt lat="42.32055" lon="-7.80345">
        <ele>366</ele>
        <time>2022-09-30 19:04:09</time>
      </trkpt>
      <trkpt lat="42.32053" lon="-7.80327">
        <ele>365.4</ele>
        <time>2022-09-30 19:04:11</time>
      </trkpt>
      <trkpt lat="42.32051" lon="-7.8029">
        <ele>365</ele>
        <time>2022-09-30 19:04:15</time>
      </trkpt>
      <trkpt lat="42.32052" lon="-7.80246">
        <ele>364.2</ele>
        <time>2022-09-30 19:04:20</time>
      </trkpt>
      <trkpt lat="42.32053" lon="-7.80238">
        <ele>364</ele>
        <time>2022-09-30 19:04:21</time>
      </trkpt>
      <trkpt lat="42.32048" lon="-7.80225">
        <ele>363</ele>
        <time>2022-09-30 19:04:24</time>
      </trkpt>
      <trkpt lat="42.32038" lon="-7.80228">
        <ele>362.8</ele>
        <time>2022-09-30 19:04:27</time>
      </trkpt>
      <trkpt lat="42.32027" lon="-7.80226">
        <ele>362.8</ele>
        <time>2022-09-30 19:04:31</time>
      </trkpt>
      <trkpt lat="42.32026" lon="-7.80208">
        <ele>362.6</ele>
        <time>2022-09-30 19:04:35</time>
      </trkpt>
      <trkpt lat="42.32026" lon="-7.80203">
        <ele>362.6</ele>
        <time>2022-09-30 19:04:36</time>
      </trkpt>
      <trkpt lat="42.32025" lon="-7.80186">
        <ele>362.4</ele>
        <time>2022-09-30 19:04:39</time>
      </trkpt>
      <trkpt lat="42.32023" lon="-7.80181">
        <ele>362.2</ele>
        <time>2022-09-30 19:04:40</time>
      </trkpt>
      <trkpt lat="42.3202" lon="-7.80177">
        <ele>362</ele>
        <time>2022-09-30 19:04:41</time>
      </trkpt>
      <trkpt lat="42.32012" lon="-7.80173">
        <ele>362</ele>
        <time>2022-09-30 19:04:43</time>
      </trkpt>
      <trkpt lat="42.32" lon="-7.80172">
        <ele>361.8</ele>
        <time>2022-09-30 19:04:46</time>
      </trkpt>
      <trkpt lat="42.31988" lon="-7.80174">
        <ele>361.6</ele>
        <time>2022-09-30 19:04:49</time>
      </trkpt>
      <trkpt lat="42.31974" lon="-7.80165">
        <ele>361.4</ele>
        <time>2022-09-30 19:04:53</time>
      </trkpt>
      <trkpt lat="42.31971" lon="-7.80146">
        <ele>361.2</ele>
        <time>2022-09-30 19:04:57</time>
      </trkpt>
      <trkpt lat="42.31968" lon="-7.80119">
        <ele>361</ele>
        <time>2022-09-30 19:05:02</time>
      </trkpt>
      <trkpt lat="42.31967" lon="-7.80108">
        <ele>361</ele>
        <time>2022-09-30 19:05:04</time>
      </trkpt>
      <trkpt lat="42.31966" lon="-7.80102">
        <ele>361</ele>
        <time>2022-09-30 19:05:05</time>
      </trkpt>
      <trkpt lat="42.31963" lon="-7.8008">
        <ele>360.6</ele>
        <time>2022-09-30 19:05:09</time>
      </trkpt>
      <trkpt lat="42.31955" lon="-7.80062">
        <ele>360.4</ele>
        <time>2022-09-30 19:05:13</time>
      </trkpt>
      <trkpt lat="42.31952" lon="-7.80058">
        <ele>360.4</ele>
        <time>2022-09-30 19:05:14</time>
      </trkpt>
      <trkpt lat="42.31936" lon="-7.80044">
        <ele>360.4</ele>
        <time>2022-09-30 19:05:19</time>
      </trkpt>
      <trkpt lat="42.31923" lon="-7.80033">
        <ele>360.8</ele>
        <time>2022-09-30 19:05:24</time>
      </trkpt>
      <trkpt lat="42.31913" lon="-7.80022">
        <ele>361</ele>
        <time>2022-09-30 19:05:29</time>
      </trkpt>
      <trkpt lat="42.31901" lon="-7.80009">
        <ele>361.2</ele>
        <time>2022-09-30 19:05:36</time>
      </trkpt>
      <trkpt lat="42.31894" lon="-7.80005">
        <ele>361.4</ele>
        <time>2022-09-30 19:05:39</time>
      </trkpt>
      <trkpt lat="42.3189" lon="-7.80002">
        <ele>361.6</ele>
        <time>2022-09-30 19:05:41</time>
      </trkpt>
      <trkpt lat="42.31873" lon="-7.79994">
        <ele>362</ele>
        <time>2022-09-30 19:05:49</time>
      </trkpt>
      <trkpt lat="42.3186" lon="-7.79992">
        <ele>362.2</ele>
        <time>2022-09-30 19:05:54</time>
      </trkpt>
      <trkpt lat="42.31845" lon="-7.79987">
        <ele>362.2</ele>
        <time>2022-09-30 19:05:59</time>
      </trkpt>
      <trkpt lat="42.31834" lon="-7.79972">
        <ele>362.2</ele>
        <time>2022-09-30 19:06:04</time>
      </trkpt>
      <trkpt lat="42.31831" lon="-7.7996">
        <ele>361.8</ele>
        <time>2022-09-30 19:06:07</time>
      </trkpt>
      <trkpt lat="42.3183" lon="-7.79956">
        <ele>361.8</ele>
        <time>2022-09-30 19:06:08</time>
      </trkpt>
      <trkpt lat="42.31834" lon="-7.79936">
        <ele>361.6</ele>
        <time>2022-09-30 19:06:13</time>
      </trkpt>
      <trkpt lat="42.31836" lon="-7.79913">
        <ele>361</ele>
        <time>2022-09-30 19:06:18</time>
      </trkpt>
      <trkpt lat="42.31843" lon="-7.79884">
        <ele>360.2</ele>
        <time>2022-09-30 19:06:24</time>
      </trkpt>
      <trkpt lat="42.31845" lon="-7.79881">
        <ele>360</ele>
        <time>2022-09-30 19:06:25</time>
      </trkpt>
      <trkpt lat="42.31856" lon="-7.79868">
        <ele>359</ele>
        <time>2022-09-30 19:06:29</time>
      </trkpt>
      <trkpt lat="42.31872" lon="-7.79849">
        <ele>358</ele>
        <time>2022-09-30 19:06:33</time>
      </trkpt>
      <trkpt lat="42.31877" lon="-7.79843">
        <ele>357.8</ele>
        <time>2022-09-30 19:06:34</time>
      </trkpt>
      <trkpt lat="42.31886" lon="-7.7983">
        <ele>356.6</ele>
        <time>2022-09-30 19:06:36</time>
      </trkpt>
      <trkpt lat="42.31896" lon="-7.79817">
        <ele>355.6</ele>
        <time>2022-09-30 19:06:38</time>
      </trkpt>
      <trkpt lat="42.31901" lon="-7.79812">
        <ele>355.2</ele>
        <time>2022-09-30 19:06:39</time>
      </trkpt>
      <trkpt lat="42.31926" lon="-7.79798">
        <ele>354.6</ele>
        <time>2022-09-30 19:06:43</time>
      </trkpt>
      <trkpt lat="42.31937" lon="-7.79793">
        <ele>354.6</ele>
        <time>2022-09-30 19:06:45</time>
      </trkpt>
      <trkpt lat="42.31952" lon="-7.79787">
        <ele>354.6</ele>
        <time>2022-09-30 19:06:48</time>
      </trkpt>
      <trkpt lat="42.31957" lon="-7.79786">
        <ele>354.4</ele>
        <time>2022-09-30 19:06:49</time>
      </trkpt>
      <trkpt lat="42.31966" lon="-7.79783">
        <ele>354.4</ele>
        <time>2022-09-30 19:06:51</time>
      </trkpt>
      <trkpt lat="42.31991" lon="-7.79777">
        <ele>354</ele>
        <time>2022-09-30 19:06:56</time>
      </trkpt>
      <trkpt lat="42.32005" lon="-7.79774">
        <ele>353.4</ele>
        <time>2022-09-30 19:06:59</time>
      </trkpt>
      <trkpt lat="42.32019" lon="-7.79769">
        <ele>353</ele>
        <time>2022-09-30 19:07:02</time>
      </trkpt>
      <trkpt lat="42.32045" lon="-7.7976">
        <ele>352.4</ele>
        <time>2022-09-30 19:07:07</time>
      </trkpt>
      <trkpt lat="42.32056" lon="-7.79757">
        <ele>352</ele>
        <time>2022-09-30 19:07:09</time>
      </trkpt>
      <trkpt lat="42.32072" lon="-7.79751">
        <ele>351.2</ele>
        <time>2022-09-30 19:07:12</time>
      </trkpt>
      <trkpt lat="42.32085" lon="-7.79746">
        <ele>350</ele>
        <time>2022-09-30 19:07:15</time>
      </trkpt>
      <trkpt lat="42.3209" lon="-7.7974">
        <ele>349.2</ele>
        <time>2022-09-30 19:07:17</time>
      </trkpt>
      <trkpt lat="42.32091" lon="-7.79735">
        <ele>348.8</ele>
        <time>2022-09-30 19:07:18</time>
      </trkpt>
      <trkpt lat="42.32091" lon="-7.79729">
        <ele>348.6</ele>
        <time>2022-09-30 19:07:19</time>
      </trkpt>
      <trkpt lat="42.32088" lon="-7.79716">
        <ele>348</ele>
        <time>2022-09-30 19:07:21</time>
      </trkpt>
      <trkpt lat="42.32086" lon="-7.79708">
        <ele>347.6</ele>
        <time>2022-09-30 19:07:22</time>
      </trkpt>
      <trkpt lat="42.32083" lon="-7.797">
        <ele>347</ele>
        <time>2022-09-30 19:07:23</time>
      </trkpt>
      <trkpt lat="42.32081" lon="-7.79691">
        <ele>346.4</ele>
        <time>2022-09-30 19:07:24</time>
      </trkpt>
      <trkpt lat="42.3207" lon="-7.7966">
        <ele>344.8</ele>
        <time>2022-09-30 19:07:27</time>
      </trkpt>
      <trkpt lat="42.32067" lon="-7.79649">
        <ele>344.2</ele>
        <time>2022-09-30 19:07:28</time>
      </trkpt>
      <trkpt lat="42.32063" lon="-7.79638">
        <ele>343.6</ele>
        <time>2022-09-30 19:07:29</time>
      </trkpt>
      <trkpt lat="42.32055" lon="-7.79614">
        <ele>342.4</ele>
        <time>2022-09-30 19:07:31</time>
      </trkpt>
      <trkpt lat="42.32046" lon="-7.79589">
        <ele>341.2</ele>
        <time>2022-09-30 19:07:33</time>
      </trkpt>
      <trkpt lat="42.32041" lon="-7.79577">
        <ele>340.6</ele>
        <time>2022-09-30 19:07:34</time>
      </trkpt>
      <trkpt lat="42.32035" lon="-7.79566">
        <ele>340.2</ele>
        <time>2022-09-30 19:07:35</time>
      </trkpt>
      <trkpt lat="42.32028" lon="-7.79555">
        <ele>339.6</ele>
        <time>2022-09-30 19:07:36</time>
      </trkpt>
      <trkpt lat="42.32014" lon="-7.79534">
        <ele>338.6</ele>
        <time>2022-09-30 19:07:38</time>
      </trkpt>
      <trkpt lat="42.31984" lon="-7.79497">
        <ele>337.4</ele>
        <time>2022-09-30 19:07:42</time>
      </trkpt>
      <trkpt lat="42.31973" lon="-7.79478">
        <ele>336.8</ele>
        <time>2022-09-30 19:07:44</time>
      </trkpt>
      <trkpt lat="42.31968" lon="-7.79467">
        <ele>336.8</ele>
        <time>2022-09-30 19:07:45</time>
      </trkpt>
      <trkpt lat="42.31963" lon="-7.79447">
        <ele>336.6</ele>
        <time>2022-09-30 19:07:47</time>
      </trkpt>
      <trkpt lat="42.31954" lon="-7.79403">
        <ele>336.8</ele>
        <time>2022-09-30 19:07:52</time>
      </trkpt>
      <trkpt lat="42.31945" lon="-7.7936">
        <ele>337.4</ele>
        <time>2022-09-30 19:07:58</time>
      </trkpt>
      <trkpt lat="42.31932" lon="-7.79311">
        <ele>337.6</ele>
        <time>2022-09-30 19:08:05</time>
      </trkpt>
      <trkpt lat="42.31916" lon="-7.79268">
        <ele>338</ele>
        <time>2022-09-30 19:08:12</time>
      </trkpt>
      <trkpt lat="42.3191" lon="-7.79241">
        <ele>338</ele>
        <time>2022-09-30 19:08:16</time>
      </trkpt>
      <trkpt lat="42.31909" lon="-7.79226">
        <ele>337.8</ele>
        <time>2022-09-30 19:08:18</time>
      </trkpt>
      <trkpt lat="42.31909" lon="-7.79196">
        <ele>337</ele>
        <time>2022-09-30 19:08:22</time>
      </trkpt>
      <trkpt lat="42.31912" lon="-7.79181">
        <ele>336.8</ele>
        <time>2022-09-30 19:08:24</time>
      </trkpt>
      <trkpt lat="42.31921" lon="-7.79154">
        <ele>336.2</ele>
        <time>2022-09-30 19:08:28</time>
      </trkpt>
      <trkpt lat="42.31924" lon="-7.79147">
        <ele>336.2</ele>
        <time>2022-09-30 19:08:29</time>
      </trkpt>
      <trkpt lat="42.31934" lon="-7.79111">
        <ele>335.6</ele>
        <time>2022-09-30 19:08:34</time>
      </trkpt>
      <trkpt lat="42.31934" lon="-7.79103">
        <ele>335.6</ele>
        <time>2022-09-30 19:08:35</time>
      </trkpt>
      <trkpt lat="42.31931" lon="-7.79081">
        <ele>335.8</ele>
        <time>2022-09-30 19:08:38</time>
      </trkpt>
      <trkpt lat="42.31931" lon="-7.79066">
        <ele>335.8</ele>
        <time>2022-09-30 19:08:40</time>
      </trkpt>
      <trkpt lat="42.31935" lon="-7.7904">
        <ele>336</ele>
        <time>2022-09-30 19:08:44</time>
      </trkpt>
      <trkpt lat="42.31937" lon="-7.79033">
        <ele>335.8</ele>
        <time>2022-09-30 19:08:45</time>
      </trkpt>
      <trkpt lat="42.31941" lon="-7.7902">
        <ele>335.8</ele>
        <time>2022-09-30 19:08:47</time>
      </trkpt>
      <trkpt lat="42.31944" lon="-7.79008">
        <ele>336</ele>
        <time>2022-09-30 19:08:49</time>
      </trkpt>
      <trkpt lat="42.31956" lon="-7.78959">
        <ele>336.6</ele>
        <time>2022-09-30 19:08:57</time>
      </trkpt>
      <trkpt lat="42.31965" lon="-7.78923">
        <ele>337.2</ele>
        <time>2022-09-30 19:09:03</time>
      </trkpt>
      <trkpt lat="42.31968" lon="-7.78911">
        <ele>337.4</ele>
        <time>2022-09-30 19:09:05</time>
      </trkpt>
      <trkpt lat="42.31977" lon="-7.7887">
        <ele>338.2</ele>
        <time>2022-09-30 19:09:12</time>
      </trkpt>
      <trkpt lat="42.31979" lon="-7.78859">
        <ele>338.6</ele>
        <time>2022-09-30 19:09:14</time>
      </trkpt>
      <trkpt lat="42.31983" lon="-7.78826">
        <ele>339.4</ele>
        <time>2022-09-30 19:09:20</time>
      </trkpt>
      <trkpt lat="42.31985" lon="-7.78816">
        <ele>339.4</ele>
        <time>2022-09-30 19:09:22</time>
      </trkpt>
      <trkpt lat="42.31987" lon="-7.78799">
        <ele>340</ele>
        <time>2022-09-30 19:09:25</time>
      </trkpt>
      <trkpt lat="42.31993" lon="-7.78781">
        <ele>340.4</ele>
        <time>2022-09-30 19:09:29</time>
      </trkpt>
      <trkpt lat="42.31997" lon="-7.78779">
        <ele>340.6</ele>
        <time>2022-09-30 19:09:30</time>
      </trkpt>
      <trkpt lat="42.32004" lon="-7.78777">
        <ele>340.8</ele>
        <time>2022-09-30 19:09:32</time>
      </trkpt>
      <trkpt lat="42.3202" lon="-7.78775">
        <ele>341.4</ele>
        <time>2022-09-30 19:09:36</time>
      </trkpt>
      <trkpt lat="42.32035" lon="-7.78773">
        <ele>341.8</ele>
        <time>2022-09-30 19:09:40</time>
      </trkpt>
      <trkpt lat="42.32054" lon="-7.78768">
        <ele>342.6</ele>
        <time>2022-09-30 19:09:45</time>
      </trkpt>
      <trkpt lat="42.32062" lon="-7.78767">
        <ele>342.8</ele>
        <time>2022-09-30 19:09:47</time>
      </trkpt>
      <trkpt lat="42.32094" lon="-7.78759">
        <ele>343.2</ele>
        <time>2022-09-30 19:09:55</time>
      </trkpt>
      <trkpt lat="42.32119" lon="-7.78755">
        <ele>343.6</ele>
        <time>2022-09-30 19:10:01</time>
      </trkpt>
      <trkpt lat="42.32123" lon="-7.78755">
        <ele>343.4</ele>
        <time>2022-09-30 19:10:02</time>
      </trkpt>
      <trkpt lat="42.32154" lon="-7.78749">
        <ele>343.2</ele>
        <time>2022-09-30 19:10:10</time>
      </trkpt>
      <trkpt lat="42.32174" lon="-7.78748">
        <ele>343.6</ele>
        <time>2022-09-30 19:10:15</time>
      </trkpt>
      <trkpt lat="42.32179" lon="-7.78749">
        <ele>343.4</ele>
        <time>2022-09-30 19:10:16</time>
      </trkpt>
      <trkpt lat="42.3219" lon="-7.78754">
        <ele>343.2</ele>
        <time>2022-09-30 19:10:19</time>
      </trkpt>
      <trkpt lat="42.32193" lon="-7.78763">
        <ele>343.2</ele>
        <time>2022-09-30 19:10:21</time>
      </trkpt>
      <trkpt lat="42.32198" lon="-7.78773">
        <ele>343.2</ele>
        <time>2022-09-30 19:10:23</time>
      </trkpt>
      <trkpt lat="42.32201" lon="-7.78777">
        <ele>343</ele>
        <time>2022-09-30 19:10:24</time>
      </trkpt>
      <trkpt lat="42.32204" lon="-7.78781">
        <ele>342.8</ele>
        <time>2022-09-30 19:10:25</time>
      </trkpt>
      <trkpt lat="42.32212" lon="-7.78787">
        <ele>342.4</ele>
        <time>2022-09-30 19:10:27</time>
      </trkpt>
      <trkpt lat="42.32223" lon="-7.78789">
        <ele>341.6</ele>
        <time>2022-09-30 19:10:29</time>
      </trkpt>
      <trkpt lat="42.32229" lon="-7.78789">
        <ele>341.2</ele>
        <time>2022-09-30 19:10:30</time>
      </trkpt>
      <trkpt lat="42.32235" lon="-7.78789">
        <ele>341</ele>
        <time>2022-09-30 19:10:31</time>
      </trkpt>
      <trkpt lat="42.32245" lon="-7.78794">
        <ele>340.4</ele>
        <time>2022-09-30 19:10:33</time>
      </trkpt>
      <trkpt lat="42.32251" lon="-7.78798">
        <ele>340.6</ele>
        <time>2022-09-30 19:10:35</time>
      </trkpt>
      <trkpt lat="42.32252" lon="-7.788">
        <ele>341.2</ele>
        <time>2022-09-30 19:10:36</time>
      </trkpt>
      <trkpt lat="42.32263" lon="-7.78809">
        <ele>341.6</ele>
        <time>2022-09-30 19:10:41</time>
      </trkpt>
      <trkpt lat="42.32278" lon="-7.78818">
        <ele>340.8</ele>
        <time>2022-09-30 19:10:44</time>
      </trkpt>
      <trkpt lat="42.32291" lon="-7.78823">
        <ele>339.6</ele>
        <time>2022-09-30 19:10:46</time>
      </trkpt>
      <trkpt lat="42.32306" lon="-7.78828">
        <ele>338.6</ele>
        <time>2022-09-30 19:10:48</time>
      </trkpt>
      <trkpt lat="42.32329" lon="-7.78831">
        <ele>337.6</ele>
        <time>2022-09-30 19:10:51</time>
      </trkpt>
      <trkpt lat="42.32344" lon="-7.78833">
        <ele>337</ele>
        <time>2022-09-30 19:10:53</time>
      </trkpt>
      <trkpt lat="42.32358" lon="-7.78837">
        <ele>336.4</ele>
        <time>2022-09-30 19:10:55</time>
      </trkpt>
      <trkpt lat="42.32364" lon="-7.78839">
        <ele>336.4</ele>
        <time>2022-09-30 19:10:56</time>
      </trkpt>
      <trkpt lat="42.32369" lon="-7.78841">
        <ele>336.4</ele>
        <time>2022-09-30 19:10:57</time>
      </trkpt>
      <trkpt lat="42.32393" lon="-7.78852">
        <ele>336.4</ele>
        <time>2022-09-30 19:11:02</time>
      </trkpt>
      <trkpt lat="42.32396" lon="-7.78856">
        <ele>336.2</ele>
        <time>2022-09-30 19:11:03</time>
      </trkpt>
      <trkpt lat="42.32404" lon="-7.78864">
        <ele>336.2</ele>
        <time>2022-09-30 19:11:05</time>
      </trkpt>
      <trkpt lat="42.32417" lon="-7.78869">
        <ele>336.6</ele>
        <time>2022-09-30 19:11:08</time>
      </trkpt>
      <trkpt lat="42.32429" lon="-7.78861">
        <ele>337</ele>
        <time>2022-09-30 19:11:11</time>
      </trkpt>
      <trkpt lat="42.32432" lon="-7.78853">
        <ele>337.2</ele>
        <time>2022-09-30 19:11:13</time>
      </trkpt>
      <trkpt lat="42.32436" lon="-7.78845">
        <ele>337.2</ele>
        <time>2022-09-30 19:11:15</time>
      </trkpt>
      <trkpt lat="42.32446" lon="-7.78817">
        <ele>337.4</ele>
        <time>2022-09-30 19:11:21</time>
      </trkpt>
      <trkpt lat="42.3245" lon="-7.78811">
        <ele>337.6</ele>
        <time>2022-09-30 19:11:23</time>
      </trkpt>
      <trkpt lat="42.32459" lon="-7.78804">
        <ele>338</ele>
        <time>2022-09-30 19:11:26</time>
      </trkpt>
      <trkpt lat="42.32467" lon="-7.78798">
        <ele>338.6</ele>
        <time>2022-09-30 19:11:29</time>
      </trkpt>
      <trkpt lat="42.32475" lon="-7.78792">
        <ele>339</ele>
        <time>2022-09-30 19:11:32</time>
      </trkpt>
      <trkpt lat="42.32484" lon="-7.78788">
        <ele>339.6</ele>
        <time>2022-09-30 19:11:35</time>
      </trkpt>
      <trkpt lat="42.32498" lon="-7.78781">
        <ele>340.8</ele>
        <time>2022-09-30 19:11:40</time>
      </trkpt>
      <trkpt lat="42.32509" lon="-7.78775">
        <ele>341.8</ele>
        <time>2022-09-30 19:11:45</time>
      </trkpt>
      <trkpt lat="42.32512" lon="-7.78772">
        <ele>342.4</ele>
        <time>2022-09-30 19:11:47</time>
      </trkpt>
      <trkpt lat="42.32513" lon="-7.7877">
        <ele>343</ele>
        <time>2022-09-30 19:11:48</time>
      </trkpt>
      <trkpt lat="42.32518" lon="-7.78764">
        <ele>343.6</ele>
        <time>2022-09-30 19:11:51</time>
      </trkpt>
      <trkpt lat="42.32521" lon="-7.78759">
        <ele>344</ele>
        <time>2022-09-30 19:11:53</time>
      </trkpt>
      <trkpt lat="42.32531" lon="-7.78751">
        <ele>344.4</ele>
        <time>2022-09-30 19:11:57</time>
      </trkpt>
      <trkpt lat="42.32536" lon="-7.78748">
        <ele>344.6</ele>
        <time>2022-09-30 19:11:59</time>
      </trkpt>
      <trkpt lat="42.3254" lon="-7.78744">
        <ele>344.8</ele>
        <time>2022-09-30 19:12:01</time>
      </trkpt>
      <trkpt lat="42.32544" lon="-7.7874">
        <ele>345</ele>
        <time>2022-09-30 19:12:03</time>
      </trkpt>
      <trkpt lat="42.32547" lon="-7.78737">
        <ele>345.2</ele>
        <time>2022-09-30 19:12:04</time>
      </trkpt>
      <trkpt lat="42.32556" lon="-7.7873">
        <ele>345.4</ele>
        <time>2022-09-30 19:12:07</time>
      </trkpt>
      <trkpt lat="42.32572" lon="-7.78723">
        <ele>346</ele>
        <time>2022-09-30 19:12:11</time>
      </trkpt>
      <trkpt lat="42.32575" lon="-7.78721">
        <ele>346.2</ele>
        <time>2022-09-30 19:12:12</time>
      </trkpt>
      <trkpt lat="42.32581" lon="-7.78717">
        <ele>346.6</ele>
        <time>2022-09-30 19:12:14</time>
      </trkpt>
      <trkpt lat="42.32583" lon="-7.78715">
        <ele>346.6</ele>
        <time>2022-09-30 19:12:15</time>
      </trkpt>
      <trkpt lat="42.32588" lon="-7.78698">
        <ele>346.4</ele>
        <time>2022-09-30 19:12:21</time>
      </trkpt>
      <trkpt lat="42.32583" lon="-7.78681">
        <ele>345.8</ele>
        <time>2022-09-30 19:12:25</time>
      </trkpt>
      <trkpt lat="42.32576" lon="-7.78667">
        <ele>345</ele>
        <time>2022-09-30 19:12:28</time>
      </trkpt>
      <trkpt lat="42.32572" lon="-7.78661">
        <ele>344.8</ele>
        <time>2022-09-30 19:12:29</time>
      </trkpt>
      <trkpt lat="42.32562" lon="-7.78644">
        <ele>343.8</ele>
        <time>2022-09-30 19:12:32</time>
      </trkpt>
      <trkpt lat="42.32554" lon="-7.78631">
        <ele>343.4</ele>
        <time>2022-09-30 19:12:34</time>
      </trkpt>
      <trkpt lat="42.32544" lon="-7.78612">
        <ele>342.8</ele>
        <time>2022-09-30 19:12:37</time>
      </trkpt>
      <trkpt lat="42.32538" lon="-7.78589">
        <ele>342.4</ele>
        <time>2022-09-30 19:12:40</time>
      </trkpt>
      <trkpt lat="42.32536" lon="-7.78559">
        <ele>342</ele>
        <time>2022-09-30 19:12:44</time>
      </trkpt>
      <trkpt lat="42.32536" lon="-7.78551">
        <ele>342</ele>
        <time>2022-09-30 19:12:45</time>
      </trkpt>
      <trkpt lat="42.32537" lon="-7.78539">
        <ele>341.8</ele>
        <time>2022-09-30 19:12:47</time>
      </trkpt>
      <trkpt lat="42.32538" lon="-7.78525">
        <ele>341.4</ele>
        <time>2022-09-30 19:12:49</time>
      </trkpt>
      <trkpt lat="42.32539" lon="-7.78518">
        <ele>341.2</ele>
        <time>2022-09-30 19:12:50</time>
      </trkpt>
      <trkpt lat="42.32543" lon="-7.78504">
        <ele>340.8</ele>
        <time>2022-09-30 19:12:52</time>
      </trkpt>
      <trkpt lat="42.32546" lon="-7.78491">
        <ele>340.4</ele>
        <time>2022-09-30 19:12:54</time>
      </trkpt>
      <trkpt lat="42.3255" lon="-7.78479">
        <ele>340.4</ele>
        <time>2022-09-30 19:12:56</time>
      </trkpt>
      <trkpt lat="42.32557" lon="-7.78453">
        <ele>339.6</ele>
        <time>2022-09-30 19:13:01</time>
      </trkpt>
      <trkpt lat="42.32555" lon="-7.78413">
        <ele>339.4</ele>
        <time>2022-09-30 19:13:07</time>
      </trkpt>
      <trkpt lat="42.32554" lon="-7.784">
        <ele>339.2</ele>
        <time>2022-09-30 19:13:09</time>
      </trkpt>
      <trkpt lat="42.32553" lon="-7.78381">
        <ele>339</ele>
        <time>2022-09-30 19:13:12</time>
      </trkpt>
      <trkpt lat="42.32552" lon="-7.78375">
        <ele>339.2</ele>
        <time>2022-09-30 19:13:13</time>
      </trkpt>
      <trkpt lat="42.32552" lon="-7.78341">
        <ele>339.2</ele>
        <time>2022-09-30 19:13:19</time>
      </trkpt>
      <trkpt lat="42.32564" lon="-7.78314">
        <ele>339.6</ele>
        <time>2022-09-30 19:13:25</time>
      </trkpt>
      <trkpt lat="42.32577" lon="-7.78288">
        <ele>339.8</ele>
        <time>2022-09-30 19:13:31</time>
      </trkpt>
      <trkpt lat="42.3259" lon="-7.78267">
        <ele>340</ele>
        <time>2022-09-30 19:13:36</time>
      </trkpt>
      <trkpt lat="42.32604" lon="-7.78247">
        <ele>340.4</ele>
        <time>2022-09-30 19:13:41</time>
      </trkpt>
      <trkpt lat="42.32612" lon="-7.78241">
        <ele>340.6</ele>
        <time>2022-09-30 19:13:43</time>
      </trkpt>
      <trkpt lat="42.32625" lon="-7.78233">
        <ele>340.8</ele>
        <time>2022-09-30 19:13:46</time>
      </trkpt>
      <trkpt lat="42.32655" lon="-7.78221">
        <ele>341.4</ele>
        <time>2022-09-30 19:13:52</time>
      </trkpt>
      <trkpt lat="42.32672" lon="-7.78217">
        <ele>341.6</ele>
        <time>2022-09-30 19:13:56</time>
      </trkpt>
      <trkpt lat="42.3268" lon="-7.78215">
        <ele>342</ele>
        <time>2022-09-30 19:13:58</time>
      </trkpt>
      <trkpt lat="42.32688" lon="-7.78211">
        <ele>342</ele>
        <time>2022-09-30 19:14:00</time>
      </trkpt>
      <trkpt lat="42.32698" lon="-7.78202">
        <ele>341.8</ele>
        <time>2022-09-30 19:14:03</time>
      </trkpt>
      <trkpt lat="42.32721" lon="-7.7818">
        <ele>342.2</ele>
        <time>2022-09-30 19:14:10</time>
      </trkpt>
      <trkpt lat="42.32743" lon="-7.78165">
        <ele>342.6</ele>
        <time>2022-09-30 19:14:17</time>
      </trkpt>
      <trkpt lat="42.32747" lon="-7.78163">
        <ele>342.8</ele>
        <time>2022-09-30 19:14:18</time>
      </trkpt>
      <trkpt lat="42.3276" lon="-7.78165">
        <ele>343.4</ele>
        <time>2022-09-30 19:14:22</time>
      </trkpt>
      <trkpt lat="42.32766" lon="-7.78168">
        <ele>343.8</ele>
        <time>2022-09-30 19:14:24</time>
      </trkpt>
      <trkpt lat="42.32791" lon="-7.78175">
        <ele>344.8</ele>
        <time>2022-09-30 19:14:32</time>
      </trkpt>
      <trkpt lat="42.32806" lon="-7.78182">
        <ele>345.8</ele>
        <time>2022-09-30 19:14:38</time>
      </trkpt>
      <trkpt lat="42.32809" lon="-7.78183">
        <ele>346</ele>
        <time>2022-09-30 19:14:39</time>
      </trkpt>
      <trkpt lat="42.32822" lon="-7.78187">
        <ele>346.6</ele>
        <time>2022-09-30 19:14:44</time>
      </trkpt>
      <trkpt lat="42.32832" lon="-7.78192">
        <ele>347</ele>
        <time>2022-09-30 19:14:48</time>
      </trkpt>
      <trkpt lat="42.32835" lon="-7.78193">
        <ele>347.2</ele>
        <time>2022-09-30 19:14:49</time>
      </trkpt>
      <trkpt lat="42.3284" lon="-7.78194">
        <ele>347.4</ele>
        <time>2022-09-30 19:14:51</time>
      </trkpt>
      <trkpt lat="42.32845" lon="-7.78195">
        <ele>347.8</ele>
        <time>2022-09-30 19:14:53</time>
      </trkpt>
      <trkpt lat="42.3285" lon="-7.78197">
        <ele>348.2</ele>
        <time>2022-09-30 19:14:55</time>
      </trkpt>
      <trkpt lat="42.32859" lon="-7.78203">
        <ele>349</ele>
        <time>2022-09-30 19:14:59</time>
      </trkpt>
      <trkpt lat="42.32862" lon="-7.78204">
        <ele>349.2</ele>
        <time>2022-09-30 19:15:00</time>
      </trkpt>
      <trkpt lat="42.32875" lon="-7.78212">
        <ele>350</ele>
        <time>2022-09-30 19:15:05</time>
      </trkpt>
      <trkpt lat="42.32885" lon="-7.7822">
        <ele>350.4</ele>
        <time>2022-09-30 19:15:09</time>
      </trkpt>
      <trkpt lat="42.32889" lon="-7.78222">
        <ele>350.6</ele>
        <time>2022-09-30 19:15:10</time>
      </trkpt>
      <trkpt lat="42.32906" lon="-7.78236">
        <ele>351.6</ele>
        <time>2022-09-30 19:15:17</time>
      </trkpt>
      <trkpt lat="42.32918" lon="-7.78243">
        <ele>352</ele>
        <time>2022-09-30 19:15:22</time>
      </trkpt>
      <trkpt lat="42.32934" lon="-7.78248">
        <ele>352.4</ele>
        <time>2022-09-30 19:15:27</time>
      </trkpt>
      <trkpt lat="42.3294" lon="-7.78249">
        <ele>352.6</ele>
        <time>2022-09-30 19:15:29</time>
      </trkpt>
      <trkpt lat="42.32951" lon="-7.7825">
        <ele>353</ele>
        <time>2022-09-30 19:15:33</time>
      </trkpt>
      <trkpt lat="42.32953" lon="-7.78248">
        <ele>353</ele>
        <time>2022-09-30 19:15:34</time>
      </trkpt>
      <trkpt lat="42.32962" lon="-7.78244">
        <ele>353.6</ele>
        <time>2022-09-30 19:15:37</time>
      </trkpt>
      <trkpt lat="42.32965" lon="-7.78243">
        <ele>353.6</ele>
        <time>2022-09-30 19:15:38</time>
      </trkpt>
      <trkpt lat="42.32975" lon="-7.78231">
        <ele>353.8</ele>
        <time>2022-09-30 19:15:42</time>
      </trkpt>
      <trkpt lat="42.32992" lon="-7.78205">
        <ele>354.2</ele>
        <time>2022-09-30 19:15:50</time>
      </trkpt>
      <trkpt lat="42.33001" lon="-7.78202">
        <ele>354.4</ele>
        <time>2022-09-30 19:15:53</time>
      </trkpt>
      <trkpt lat="42.33004" lon="-7.78203">
        <ele>354.4</ele>
        <time>2022-09-30 19:15:54</time>
      </trkpt>
      <trkpt lat="42.33009" lon="-7.78206">
        <ele>354.8</ele>
        <time>2022-09-30 19:15:56</time>
      </trkpt>
      <trkpt lat="42.33011" lon="-7.78208">
        <ele>354.8</ele>
        <time>2022-09-30 19:15:57</time>
      </trkpt>
      <trkpt lat="42.33019" lon="-7.7821">
        <ele>355.4</ele>
        <time>2022-09-30 19:16:00</time>
      </trkpt>
      <trkpt lat="42.33028" lon="-7.78204">
        <ele>355.8</ele>
        <time>2022-09-30 19:16:04</time>
      </trkpt>
      <trkpt lat="42.33031" lon="-7.78203">
        <ele>355.8</ele>
        <time>2022-09-30 19:16:05</time>
      </trkpt>
      <trkpt lat="42.33042" lon="-7.78199">
        <ele>356.2</ele>
        <time>2022-09-30 19:16:09</time>
      </trkpt>
      <trkpt lat="42.33044" lon="-7.78199">
        <ele>356.4</ele>
        <time>2022-09-30 19:16:10</time>
      </trkpt>
      <trkpt lat="42.33061" lon="-7.78195">
        <ele>356.8</ele>
        <time>2022-09-30 19:16:16</time>
      </trkpt>
      <trkpt lat="42.33071" lon="-7.78182">
        <ele>357.8</ele>
        <time>2022-09-30 19:16:21</time>
      </trkpt>
      <trkpt lat="42.33072" lon="-7.78179">
        <ele>358</ele>
        <time>2022-09-30 19:16:22</time>
      </trkpt>
      <trkpt lat="42.33078" lon="-7.78171">
        <ele>359.2</ele>
        <time>2022-09-30 19:16:25</time>
      </trkpt>
      <trkpt lat="42.33088" lon="-7.78161">
        <ele>360</ele>
        <time>2022-09-30 19:16:29</time>
      </trkpt>
      <trkpt lat="42.33092" lon="-7.78156">
        <ele>360.4</ele>
        <time>2022-09-30 19:16:31</time>
      </trkpt>
      <trkpt lat="42.33101" lon="-7.78148">
        <ele>361.2</ele>
        <time>2022-09-30 19:16:35</time>
      </trkpt>
      <trkpt lat="42.33103" lon="-7.78147">
        <ele>361.4</ele>
        <time>2022-09-30 19:16:36</time>
      </trkpt>
      <trkpt lat="42.33115" lon="-7.78145">
        <ele>362.4</ele>
        <time>2022-09-30 19:16:40</time>
      </trkpt>
      <trkpt lat="42.33123" lon="-7.78153">
        <ele>363.2</ele>
        <time>2022-09-30 19:16:45</time>
      </trkpt>
      <trkpt lat="42.33128" lon="-7.78156">
        <ele>363.6</ele>
        <time>2022-09-30 19:16:48</time>
      </trkpt>
      <trkpt lat="42.33134" lon="-7.7816">
        <ele>364.4</ele>
        <time>2022-09-30 19:16:52</time>
      </trkpt>
      <trkpt lat="42.33136" lon="-7.78161">
        <ele>364.8</ele>
        <time>2022-09-30 19:16:53</time>
      </trkpt>
      <trkpt lat="42.33137" lon="-7.78163">
        <ele>365</ele>
        <time>2022-09-30 19:16:54</time>
      </trkpt>
      <trkpt lat="42.3314" lon="-7.78171">
        <ele>365.2</ele>
        <time>2022-09-30 19:16:57</time>
      </trkpt>
      <trkpt lat="42.33146" lon="-7.78179">
        <ele>365.8</ele>
        <time>2022-09-30 19:17:01</time>
      </trkpt>
      <trkpt lat="42.33149" lon="-7.78182">
        <ele>366</ele>
        <time>2022-09-30 19:17:03</time>
      </trkpt>
      <trkpt lat="42.33161" lon="-7.78197">
        <ele>366.4</ele>
        <time>2022-09-30 19:17:10</time>
      </trkpt>
      <trkpt lat="42.33173" lon="-7.78215">
        <ele>366</ele>
        <time>2022-09-30 19:17:16</time>
      </trkpt>
      <trkpt lat="42.33185" lon="-7.7823">
        <ele>365.8</ele>
        <time>2022-09-30 19:17:22</time>
      </trkpt>
      <trkpt lat="42.3319" lon="-7.78242">
        <ele>366</ele>
        <time>2022-09-30 19:17:28</time>
      </trkpt>
      <trkpt lat="42.33191" lon="-7.78244">
        <ele>366.2</ele>
        <time>2022-09-30 19:17:29</time>
      </trkpt>
      <trkpt lat="42.33196" lon="-7.78251">
        <ele>366.6</ele>
        <time>2022-09-30 19:17:33</time>
      </trkpt>
      <trkpt lat="42.33199" lon="-7.78256">
        <ele>366.8</ele>
        <time>2022-09-30 19:17:36</time>
      </trkpt>
      <trkpt lat="42.33201" lon="-7.78265">
        <ele>367.2</ele>
        <time>2022-09-30 19:17:40</time>
      </trkpt>
      <trkpt lat="42.33209" lon="-7.78277">
        <ele>368</ele>
        <time>2022-09-30 19:17:46</time>
      </trkpt>
      <trkpt lat="42.33217" lon="-7.78283">
        <ele>369</ele>
        <time>2022-09-30 19:17:51</time>
      </trkpt>
      <trkpt lat="42.33219" lon="-7.78286">
        <ele>369.4</ele>
        <time>2022-09-30 19:17:53</time>
      </trkpt>
      <trkpt lat="42.33226" lon="-7.78296">
        <ele>370.2</ele>
        <time>2022-09-30 19:17:58</time>
      </trkpt>
      <trkpt lat="42.3323" lon="-7.78302">
        <ele>370.8</ele>
        <time>2022-09-30 19:18:01</time>
      </trkpt>
      <trkpt lat="42.33235" lon="-7.7831">
        <ele>371.4</ele>
        <time>2022-09-30 19:18:05</time>
      </trkpt>
      <trkpt lat="42.3324" lon="-7.78322">
        <ele>372</ele>
        <time>2022-09-30 19:18:10</time>
      </trkpt>
      <trkpt lat="42.33244" lon="-7.78329">
        <ele>372.6</ele>
        <time>2022-09-30 19:18:13</time>
      </trkpt>
      <trkpt lat="42.33249" lon="-7.7834">
        <ele>373.2</ele>
        <time>2022-09-30 19:18:18</time>
      </trkpt>
      <trkpt lat="42.33251" lon="-7.78344">
        <ele>373.6</ele>
        <time>2022-09-30 19:18:20</time>
      </trkpt>
      <trkpt lat="42.33254" lon="-7.78353">
        <ele>374</ele>
        <time>2022-09-30 19:18:24</time>
      </trkpt>
      <trkpt lat="42.33255" lon="-7.78355">
        <ele>374.2</ele>
        <time>2022-09-30 19:18:25</time>
      </trkpt>
      <trkpt lat="42.33256" lon="-7.78362">
        <ele>374.8</ele>
        <time>2022-09-30 19:18:28</time>
      </trkpt>
      <trkpt lat="42.33257" lon="-7.78371">
        <ele>376</ele>
        <time>2022-09-30 19:18:32</time>
      </trkpt>
      <trkpt lat="42.33254" lon="-7.78387">
        <ele>376.6</ele>
        <time>2022-09-30 19:18:38</time>
      </trkpt>
      <trkpt lat="42.33251" lon="-7.784">
        <ele>377</ele>
        <time>2022-09-30 19:18:42</time>
      </trkpt>
      <trkpt lat="42.33249" lon="-7.78408">
        <ele>377.4</ele>
        <time>2022-09-30 19:18:45</time>
      </trkpt>
      <trkpt lat="42.33248" lon="-7.78419">
        <ele>378</ele>
        <time>2022-09-30 19:18:50</time>
      </trkpt>
      <trkpt lat="42.33247" lon="-7.78423">
        <ele>378.4</ele>
        <time>2022-09-30 19:18:52</time>
      </trkpt>
      <trkpt lat="42.33248" lon="-7.78433">
        <ele>379.2</ele>
        <time>2022-09-30 19:18:56</time>
      </trkpt>
      <trkpt lat="42.33247" lon="-7.78443">
        <ele>380</ele>
        <time>2022-09-30 19:19:00</time>
      </trkpt>
      <trkpt lat="42.33246" lon="-7.78445">
        <ele>380.2</ele>
        <time>2022-09-30 19:19:01</time>
      </trkpt>
      <trkpt lat="42.33241" lon="-7.78471">
        <ele>380.4</ele>
        <time>2022-09-30 19:19:10</time>
      </trkpt>
      <trkpt lat="42.33236" lon="-7.78487">
        <ele>380.4</ele>
        <time>2022-09-30 19:19:16</time>
      </trkpt>
      <trkpt lat="42.33227" lon="-7.78508">
        <ele>381.4</ele>
        <time>2022-09-30 19:19:24</time>
      </trkpt>
      <trkpt lat="42.33222" lon="-7.78525">
        <ele>382.4</ele>
        <time>2022-09-30 19:19:31</time>
      </trkpt>
      <trkpt lat="42.33221" lon="-7.7853">
        <ele>382.6</ele>
        <time>2022-09-30 19:19:33</time>
      </trkpt>
      <trkpt lat="42.33217" lon="-7.78547">
        <ele>383.6</ele>
        <time>2022-09-30 19:19:40</time>
      </trkpt>
      <trkpt lat="42.33215" lon="-7.78552">
        <ele>383.8</ele>
        <time>2022-09-30 19:19:42</time>
      </trkpt>
      <trkpt lat="42.33211" lon="-7.78559">
        <ele>384.6</ele>
        <time>2022-09-30 19:19:46</time>
      </trkpt>
      <trkpt lat="42.33211" lon="-7.78564">
        <ele>385</ele>
        <time>2022-09-30 19:19:49</time>
      </trkpt>
      <trkpt lat="42.33214" lon="-7.78572">
        <ele>385.6</ele>
        <time>2022-09-30 19:19:55</time>
      </trkpt>
      <trkpt lat="42.33215" lon="-7.78574">
        <ele>385.6</ele>
        <time>2022-09-30 19:19:56</time>
      </trkpt>
      <trkpt lat="42.33216" lon="-7.78575">
        <ele>385.8</ele>
        <time>2022-09-30 19:19:57</time>
      </trkpt>
      <trkpt lat="42.33219" lon="-7.78582">
        <ele>386.6</ele>
        <time>2022-09-30 19:20:01</time>
      </trkpt>
      <trkpt lat="42.33221" lon="-7.78584">
        <ele>386.8</ele>
        <time>2022-09-30 19:20:03</time>
      </trkpt>
      <trkpt lat="42.33223" lon="-7.78584">
        <ele>387.2</ele>
        <time>2022-09-30 19:20:05</time>
      </trkpt>
      <trkpt lat="42.33225" lon="-7.78585">
        <ele>387.4</ele>
        <time>2022-09-30 19:20:28</time>
      </trkpt>
      <trkpt lat="42.33228" lon="-7.78585">
        <ele>387.6</ele>
        <time>2022-09-30 19:20:30</time>
      </trkpt>
      <trkpt lat="42.33231" lon="-7.78584">
        <ele>387.8</ele>
        <time>2022-09-30 19:20:31</time>
      </trkpt>
      <trkpt lat="42.33235" lon="-7.78584">
        <ele>388.2</ele>
        <time>2022-09-30 19:20:33</time>
      </trkpt>
      <trkpt lat="42.3324" lon="-7.78584">
        <ele>388.8</ele>
        <time>2022-09-30 19:20:36</time>
      </trkpt>
      <trkpt lat="42.33246" lon="-7.78586">
        <ele>389.8</ele>
        <time>2022-09-30 19:20:40</time>
      </trkpt>
      <trkpt lat="42.33247" lon="-7.78586">
        <ele>389.8</ele>
        <time>2022-09-30 19:20:41</time>
      </trkpt>
      <trkpt lat="42.33249" lon="-7.78587">
        <ele>390</ele>
        <time>2022-09-30 19:20:42</time>
      </trkpt>
      <trkpt lat="42.3326" lon="-7.78593">
        <ele>391</ele>
        <time>2022-09-30 19:20:49</time>
      </trkpt>
      <trkpt lat="42.33268" lon="-7.78592">
        <ele>392.2</ele>
        <time>2022-09-30 19:20:54</time>
      </trkpt>
      <trkpt lat="42.3327" lon="-7.78592">
        <ele>392.4</ele>
        <time>2022-09-30 19:20:55</time>
      </trkpt>
      <trkpt lat="42.33276" lon="-7.78589">
        <ele>393.2</ele>
        <time>2022-09-30 19:20:59</time>
      </trkpt>
      <trkpt lat="42.33278" lon="-7.78588">
        <ele>393.2</ele>
        <time>2022-09-30 19:21:00</time>
      </trkpt>
      <trkpt lat="42.33288" lon="-7.78586">
        <ele>393.6</ele>
        <time>2022-09-30 19:21:06</time>
      </trkpt>
      <trkpt lat="42.333" lon="-7.78593">
        <ele>394</ele>
        <time>2022-09-30 19:21:12</time>
      </trkpt>
      <trkpt lat="42.33313" lon="-7.78596">
        <ele>394.2</ele>
        <time>2022-09-30 19:21:19</time>
      </trkpt>
      <trkpt lat="42.33329" lon="-7.78593">
        <ele>394.6</ele>
        <time>2022-09-30 19:21:27</time>
      </trkpt>
      <trkpt lat="42.33337" lon="-7.78591">
        <ele>395.2</ele>
        <time>2022-09-30 19:21:31</time>
      </trkpt>
      <trkpt lat="42.33342" lon="-7.7859">
        <ele>396.2</ele>
        <time>2022-09-30 19:21:34</time>
      </trkpt>
      <trkpt lat="42.33344" lon="-7.7859">
        <ele>396.6</ele>
        <time>2022-09-30 19:21:35</time>
      </trkpt>
      <trkpt lat="42.3335" lon="-7.78591">
        <ele>396.8</ele>
        <time>2022-09-30 19:21:39</time>
      </trkpt>
      <trkpt lat="42.33355" lon="-7.78589">
        <ele>397.6</ele>
        <time>2022-09-30 19:21:42</time>
      </trkpt>
      <trkpt lat="42.33359" lon="-7.78589">
        <ele>398</ele>
        <time>2022-09-30 19:21:45</time>
      </trkpt>
      <trkpt lat="42.33363" lon="-7.78587">
        <ele>398.2</ele>
        <time>2022-09-30 19:21:48</time>
      </trkpt>
      <trkpt lat="42.33365" lon="-7.78582">
        <ele>398.6</ele>
        <time>2022-09-30 19:21:50</time>
      </trkpt>
      <trkpt lat="42.33372" lon="-7.7856">
        <ele>399.4</ele>
        <time>2022-09-30 19:21:58</time>
      </trkpt>
      <trkpt lat="42.33374" lon="-7.7855">
        <ele>399.6</ele>
        <time>2022-09-30 19:22:01</time>
      </trkpt>
      <trkpt lat="42.33379" lon="-7.78535">
        <ele>400.2</ele>
        <time>2022-09-30 19:22:06</time>
      </trkpt>
      <trkpt lat="42.33381" lon="-7.7853">
        <ele>400.8</ele>
        <time>2022-09-30 19:22:08</time>
      </trkpt>
      <trkpt lat="42.33388" lon="-7.7852">
        <ele>401.8</ele>
        <time>2022-09-30 19:22:13</time>
      </trkpt>
      <trkpt lat="42.3339" lon="-7.78519">
        <ele>401.8</ele>
        <time>2022-09-30 19:22:14</time>
      </trkpt>
      <trkpt lat="42.33395" lon="-7.78514">
        <ele>402.6</ele>
        <time>2022-09-30 19:22:18</time>
      </trkpt>
      <trkpt lat="42.33398" lon="-7.78513">
        <ele>403</ele>
        <time>2022-09-30 19:22:20</time>
      </trkpt>
      <trkpt lat="42.33409" lon="-7.78514">
        <ele>404</ele>
        <time>2022-09-30 19:22:26</time>
      </trkpt>
      <trkpt lat="42.3341" lon="-7.78515">
        <ele>404.2</ele>
        <time>2022-09-30 19:22:27</time>
      </trkpt>
      <trkpt lat="42.33417" lon="-7.78515">
        <ele>405.2</ele>
        <time>2022-09-30 19:22:31</time>
      </trkpt>
      <trkpt lat="42.33419" lon="-7.78516">
        <ele>405.2</ele>
        <time>2022-09-30 19:22:32</time>
      </trkpt>
      <trkpt lat="42.3342" lon="-7.78517">
        <ele>405.4</ele>
        <time>2022-09-30 19:22:33</time>
      </trkpt>
      <trkpt lat="42.33429" lon="-7.78514">
        <ele>406.4</ele>
        <time>2022-09-30 19:22:38</time>
      </trkpt>
      <trkpt lat="42.3343" lon="-7.78513">
        <ele>406.4</ele>
        <time>2022-09-30 19:22:39</time>
      </trkpt>
      <trkpt lat="42.33441" lon="-7.78506">
        <ele>407.2</ele>
        <time>2022-09-30 19:22:45</time>
      </trkpt>
      <trkpt lat="42.3345" lon="-7.78496">
        <ele>407.4</ele>
        <time>2022-09-30 19:22:50</time>
      </trkpt>
      <trkpt lat="42.33452" lon="-7.78494">
        <ele>407.4</ele>
        <time>2022-09-30 19:22:51</time>
      </trkpt>
      <trkpt lat="42.33465" lon="-7.78487">
        <ele>408</ele>
        <time>2022-09-30 19:22:57</time>
      </trkpt>
      <trkpt lat="42.33484" lon="-7.78479">
        <ele>408.6</ele>
        <time>2022-09-30 19:23:05</time>
      </trkpt>
      <trkpt lat="42.33503" lon="-7.78468">
        <ele>409.6</ele>
        <time>2022-09-30 19:23:14</time>
      </trkpt>
      <trkpt lat="42.33518" lon="-7.78462">
        <ele>410.6</ele>
        <time>2022-09-30 19:23:22</time>
      </trkpt>
      <trkpt lat="42.33527" lon="-7.78451">
        <ele>411.8</ele>
        <time>2022-09-30 19:23:29</time>
      </trkpt>
      <trkpt lat="42.33529" lon="-7.78447">
        <ele>412</ele>
        <time>2022-09-30 19:23:31</time>
      </trkpt>
      <trkpt lat="42.33535" lon="-7.7844">
        <ele>413</ele>
        <time>2022-09-30 19:23:36</time>
      </trkpt>
      <trkpt lat="42.33548" lon="-7.78445">
        <ele>413.6</ele>
        <time>2022-09-30 19:23:42</time>
      </trkpt>
      <trkpt lat="42.33558" lon="-7.78443">
        <ele>413.6</ele>
        <time>2022-09-30 19:23:46</time>
      </trkpt>
      <trkpt lat="42.3356" lon="-7.78442">
        <ele>413.8</ele>
        <time>2022-09-30 19:23:47</time>
      </trkpt>
      <trkpt lat="42.33577" lon="-7.78428">
        <ele>414</ele>
        <time>2022-09-30 19:23:54</time>
      </trkpt>
      <trkpt lat="42.33599" lon="-7.78414">
        <ele>414</ele>
        <time>2022-09-30 19:24:03</time>
      </trkpt>
      <trkpt lat="42.33619" lon="-7.78404">
        <ele>413.4</ele>
        <time>2022-09-30 19:24:10</time>
      </trkpt>
      <trkpt lat="42.33623" lon="-7.78402">
        <ele>413.2</ele>
        <time>2022-09-30 19:24:11</time>
      </trkpt>
      <trkpt lat="42.33644" lon="-7.78392">
        <ele>412.2</ele>
        <time>2022-09-30 19:24:15</time>
      </trkpt>
      <trkpt lat="42.33649" lon="-7.78389">
        <ele>412</ele>
        <time>2022-09-30 19:24:16</time>
      </trkpt>
      <trkpt lat="42.33654" lon="-7.78387">
        <ele>411.8</ele>
        <time>2022-09-30 19:24:17</time>
      </trkpt>
      <trkpt lat="42.33668" lon="-7.7838">
        <ele>411.4</ele>
        <time>2022-09-30 19:24:20</time>
      </trkpt>
      <trkpt lat="42.33672" lon="-7.7838">
        <ele>411.2</ele>
        <time>2022-09-30 19:24:21</time>
      </trkpt>
      <trkpt lat="42.33674" lon="-7.78383">
        <ele>411</ele>
        <time>2022-09-30 19:24:22</time>
      </trkpt>
      <trkpt lat="42.33675" lon="-7.78386">
        <ele>411</ele>
        <time>2022-09-30 19:24:23</time>
      </trkpt>
      <trkpt lat="42.3367" lon="-7.78393">
        <ele>411.4</ele>
        <time>2022-09-30 19:24:26</time>
      </trkpt>
      <trkpt lat="42.33666" lon="-7.78396">
        <ele>411.6</ele>
        <time>2022-09-30 19:24:28</time>
      </trkpt>
      <trkpt lat="42.33657" lon="-7.78403">
        <ele>412</ele>
        <time>2022-09-30 19:24:32</time>
      </trkpt>
      <trkpt lat="42.33653" lon="-7.78405">
        <ele>412.4</ele>
        <time>2022-09-30 19:24:34</time>
      </trkpt>
      <trkpt lat="42.33647" lon="-7.7841">
        <ele>413.2</ele>
        <time>2022-09-30 19:24:37</time>
      </trkpt>
      <trkpt lat="42.33634" lon="-7.78421">
        <ele>413.8</ele>
        <time>2022-09-30 19:24:43</time>
      </trkpt>
      <trkpt lat="42.33628" lon="-7.78432">
        <ele>414.2</ele>
        <time>2022-09-30 19:24:47</time>
      </trkpt>
      <trkpt lat="42.33627" lon="-7.78439">
        <ele>414.4</ele>
        <time>2022-09-30 19:24:49</time>
      </trkpt>
      <trkpt lat="42.33625" lon="-7.7846">
        <ele>415.4</ele>
        <time>2022-09-30 19:24:55</time>
      </trkpt>
      <trkpt lat="42.33624" lon="-7.78467">
        <ele>415.6</ele>
        <time>2022-09-30 19:24:57</time>
      </trkpt>
      <trkpt lat="42.33624" lon="-7.78483">
        <ele>416.6</ele>
        <time>2022-09-30 19:25:02</time>
      </trkpt>
      <trkpt lat="42.33624" lon="-7.78488">
        <ele>417</ele>
        <time>2022-09-30 19:25:04</time>
      </trkpt>
      <trkpt lat="42.33624" lon="-7.78499">
        <ele>417.8</ele>
        <time>2022-09-30 19:25:08</time>
      </trkpt>
      <trkpt lat="42.33624" lon="-7.78507">
        <ele>418.6</ele>
        <time>2022-09-30 19:25:11</time>
      </trkpt>
      <trkpt lat="42.33624" lon="-7.78516">
        <ele>419</ele>
        <time>2022-09-30 19:25:14</time>
      </trkpt>
      <trkpt lat="42.33624" lon="-7.78535">
        <ele>420</ele>
        <time>2022-09-30 19:25:20</time>
      </trkpt>
      <trkpt lat="42.33623" lon="-7.78552">
        <ele>421.2</ele>
        <time>2022-09-30 19:25:26</time>
      </trkpt>
      <trkpt lat="42.33623" lon="-7.78561">
        <ele>421.6</ele>
        <time>2022-09-30 19:25:29</time>
      </trkpt>
      <trkpt lat="42.33621" lon="-7.78572">
        <ele>422.2</ele>
        <time>2022-09-30 19:25:33</time>
      </trkpt>
      <trkpt lat="42.33619" lon="-7.78583">
        <ele>422.8</ele>
        <time>2022-09-30 19:25:37</time>
      </trkpt>
      <trkpt lat="42.33617" lon="-7.78594">
        <ele>423.2</ele>
        <time>2022-09-30 19:25:41</time>
      </trkpt>
      <trkpt lat="42.33616" lon="-7.78601">
        <ele>423.4</ele>
        <time>2022-09-30 19:25:44</time>
      </trkpt>
      <trkpt lat="42.33614" lon="-7.78619">
        <ele>424.4</ele>
        <time>2022-09-30 19:25:52</time>
      </trkpt>
      <trkpt lat="42.33614" lon="-7.78621">
        <ele>424.4</ele>
        <time>2022-09-30 19:25:53</time>
      </trkpt>
      <trkpt lat="42.3361" lon="-7.78638">
        <ele>425.4</ele>
        <time>2022-09-30 19:26:01</time>
      </trkpt>
      <trkpt lat="42.3361" lon="-7.7864">
        <ele>425.4</ele>
        <time>2022-09-30 19:26:02</time>
      </trkpt>
      <trkpt lat="42.33609" lon="-7.78651">
        <ele>426</ele>
        <time>2022-09-30 19:26:07</time>
      </trkpt>
      <trkpt lat="42.33608" lon="-7.78659">
        <ele>426</ele>
        <time>2022-09-30 19:26:12</time>
      </trkpt>
      <trkpt lat="42.33608" lon="-7.78661">
        <ele>426.2</ele>
        <time>2022-09-30 19:26:14</time>
      </trkpt>
      <trkpt lat="42.33608" lon="-7.78662">
        <ele>426.2</ele>
        <time>2022-09-30 19:26:15</time>
      </trkpt>
      <trkpt lat="42.3361" lon="-7.78671">
        <ele>426.2</ele>
        <time>2022-09-30 19:26:20</time>
      </trkpt>
      <trkpt lat="42.33616" lon="-7.78687">
        <ele>426.2</ele>
        <time>2022-09-30 19:26:26</time>
      </trkpt>
      <trkpt lat="42.33621" lon="-7.78705">
        <ele>425.8</ele>
        <time>2022-09-30 19:26:30</time>
      </trkpt>
      <trkpt lat="42.33622" lon="-7.78711">
        <ele>425.4</ele>
        <time>2022-09-30 19:26:31</time>
      </trkpt>
      <trkpt lat="42.3362" lon="-7.78733">
        <ele>424.8</ele>
        <time>2022-09-30 19:26:34</time>
      </trkpt>
      <trkpt lat="42.33617" lon="-7.7874">
        <ele>424.4</ele>
        <time>2022-09-30 19:26:35</time>
      </trkpt>
      <trkpt lat="42.3361" lon="-7.78755">
        <ele>424</ele>
        <time>2022-09-30 19:26:37</time>
      </trkpt>
      <trkpt lat="42.33605" lon="-7.78763">
        <ele>423.4</ele>
        <time>2022-09-30 19:26:38</time>
      </trkpt>
      <trkpt lat="42.33601" lon="-7.78771">
        <ele>422.8</ele>
        <time>2022-09-30 19:26:39</time>
      </trkpt>
      <trkpt lat="42.33593" lon="-7.78787">
        <ele>422.2</ele>
        <time>2022-09-30 19:26:41</time>
      </trkpt>
      <trkpt lat="42.33572" lon="-7.78834">
        <ele>421.2</ele>
        <time>2022-09-30 19:26:47</time>
      </trkpt>
      <trkpt lat="42.33569" lon="-7.78842">
        <ele>421.2</ele>
        <time>2022-09-30 19:26:48</time>
      </trkpt>
      <trkpt lat="42.33551" lon="-7.78873">
        <ele>419.8</ele>
        <time>2022-09-30 19:26:52</time>
      </trkpt>
      <trkpt lat="42.33545" lon="-7.7888">
        <ele>419.6</ele>
        <time>2022-09-30 19:26:53</time>
      </trkpt>
      <trkpt lat="42.33519" lon="-7.78911">
        <ele>419</ele>
        <time>2022-09-30 19:26:58</time>
      </trkpt>
      <trkpt lat="42.33506" lon="-7.78925">
        <ele>419.4</ele>
        <time>2022-09-30 19:27:02</time>
      </trkpt>
      <trkpt lat="42.33491" lon="-7.78948">
        <ele>419.4</ele>
        <time>2022-09-30 19:27:08</time>
      </trkpt>
      <trkpt lat="42.33486" lon="-7.78958">
        <ele>419.2</ele>
        <time>2022-09-30 19:27:10</time>
      </trkpt>
      <trkpt lat="42.33477" lon="-7.7897">
        <ele>419.2</ele>
        <time>2022-09-30 19:27:13</time>
      </trkpt>
      <trkpt lat="42.33471" lon="-7.78977">
        <ele>419.8</ele>
        <time>2022-09-30 19:27:15</time>
      </trkpt>
      <trkpt lat="42.33456" lon="-7.78993">
        <ele>421</ele>
        <time>2022-09-30 19:27:20</time>
      </trkpt>
      <trkpt lat="42.33436" lon="-7.79001">
        <ele>421</ele>
        <time>2022-09-30 19:27:26</time>
      </trkpt>
      <trkpt lat="42.33427" lon="-7.79016">
        <ele>419.8</ele>
        <time>2022-09-30 19:27:30</time>
      </trkpt>
      <trkpt lat="42.33421" lon="-7.79037">
        <ele>418.4</ele>
        <time>2022-09-30 19:27:33</time>
      </trkpt>
      <trkpt lat="42.33419" lon="-7.79043">
        <ele>417.8</ele>
        <time>2022-09-30 19:27:34</time>
      </trkpt>
      <trkpt lat="42.33417" lon="-7.79048">
        <ele>417</ele>
        <time>2022-09-30 19:27:35</time>
      </trkpt>
      <trkpt lat="42.33413" lon="-7.7906">
        <ele>415.4</ele>
        <time>2022-09-30 19:27:37</time>
      </trkpt>
      <trkpt lat="42.33411" lon="-7.79074">
        <ele>413.2</ele>
        <time>2022-09-30 19:27:39</time>
      </trkpt>
      <trkpt lat="42.3341" lon="-7.79081">
        <ele>411.8</ele>
        <time>2022-09-30 19:27:40</time>
      </trkpt>
      <trkpt lat="42.33409" lon="-7.79087">
        <ele>410.2</ele>
        <time>2022-09-30 19:27:41</time>
      </trkpt>
      <trkpt lat="42.33408" lon="-7.79092">
        <ele>409</ele>
        <time>2022-09-30 19:27:42</time>
      </trkpt>
      <trkpt lat="42.33407" lon="-7.79097">
        <ele>407.6</ele>
        <time>2022-09-30 19:27:43</time>
      </trkpt>
      <trkpt lat="42.33407" lon="-7.791">
        <ele>406.8</ele>
        <time>2022-09-30 19:27:44</time>
      </trkpt>
      <trkpt lat="42.33406" lon="-7.79104">
        <ele>405.8</ele>
        <time>2022-09-30 19:27:45</time>
      </trkpt>
      <trkpt lat="42.33406" lon="-7.79113">
        <ele>404.2</ele>
        <time>2022-09-30 19:27:47</time>
      </trkpt>
      <trkpt lat="42.33404" lon="-7.7912">
        <ele>403</ele>
        <time>2022-09-30 19:27:49</time>
      </trkpt>
      <trkpt lat="42.33402" lon="-7.79124">
        <ele>401</ele>
        <time>2022-09-30 19:27:50</time>
      </trkpt>
      <trkpt lat="42.33401" lon="-7.79131">
        <ele>399.6</ele>
        <time>2022-09-30 19:27:52</time>
      </trkpt>
      <trkpt lat="42.33399" lon="-7.79139">
        <ele>398.4</ele>
        <time>2022-09-30 19:27:54</time>
      </trkpt>
      <trkpt lat="42.334" lon="-7.79141">
        <ele>397.8</ele>
        <time>2022-09-30 19:27:55</time>
      </trkpt>
      <trkpt lat="42.33401" lon="-7.79144">
        <ele>397.4</ele>
        <time>2022-09-30 19:27:56</time>
      </trkpt>
      <trkpt lat="42.33403" lon="-7.79152">
        <ele>396</ele>
        <time>2022-09-30 19:27:58</time>
      </trkpt>
      <trkpt lat="42.33401" lon="-7.79154">
        <ele>395.6</ele>
        <time>2022-09-30 19:27:59</time>
      </trkpt>
      <trkpt lat="42.33399" lon="-7.79157">
        <ele>395</ele>
        <time>2022-09-30 19:28:00</time>
      </trkpt>
      <trkpt lat="42.33395" lon="-7.79161">
        <ele>393.8</ele>
        <time>2022-09-30 19:28:02</time>
      </trkpt>
      <trkpt lat="42.33393" lon="-7.79164">
        <ele>393.4</ele>
        <time>2022-09-30 19:28:03</time>
      </trkpt>
      <trkpt lat="42.33391" lon="-7.79168">
        <ele>392.8</ele>
        <time>2022-09-30 19:28:04</time>
      </trkpt>
      <trkpt lat="42.33387" lon="-7.79176">
        <ele>391.2</ele>
        <time>2022-09-30 19:28:06</time>
      </trkpt>
      <trkpt lat="42.33383" lon="-7.79184">
        <ele>389.8</ele>
        <time>2022-09-30 19:28:08</time>
      </trkpt>
      <trkpt lat="42.3338" lon="-7.7919">
        <ele>388.2</ele>
        <time>2022-09-30 19:28:10</time>
      </trkpt>
      <trkpt lat="42.33378" lon="-7.79198">
        <ele>387</ele>
        <time>2022-09-30 19:28:12</time>
      </trkpt>
      <trkpt lat="42.33377" lon="-7.79203">
        <ele>386.4</ele>
        <time>2022-09-30 19:28:13</time>
      </trkpt>
      <trkpt lat="42.33374" lon="-7.79208">
        <ele>385.2</ele>
        <time>2022-09-30 19:28:14</time>
      </trkpt>
      <trkpt lat="42.33368" lon="-7.79218">
        <ele>383.4</ele>
        <time>2022-09-30 19:28:16</time>
      </trkpt>
      <trkpt lat="42.33364" lon="-7.79225">
        <ele>381.4</ele>
        <time>2022-09-30 19:28:18</time>
      </trkpt>
      <trkpt lat="42.33363" lon="-7.79227">
        <ele>380.4</ele>
        <time>2022-09-30 19:28:20</time>
      </trkpt>
      <trkpt lat="42.33358" lon="-7.79234">
        <ele>379.2</ele>
        <time>2022-09-30 19:28:24</time>
      </trkpt>
      <trkpt lat="42.33358" lon="-7.79238">
        <ele>378.8</ele>
        <time>2022-09-30 19:28:25</time>
      </trkpt>
      <trkpt lat="42.33354" lon="-7.7925">
        <ele>378</ele>
        <time>2022-09-30 19:28:27</time>
      </trkpt>
      <trkpt lat="42.3335" lon="-7.79263">
        <ele>377.8</ele>
        <time>2022-09-30 19:28:29</time>
      </trkpt>
      <trkpt lat="42.33337" lon="-7.79275">
        <ele>376.8</ele>
        <time>2022-09-30 19:28:32</time>
      </trkpt>
      <trkpt lat="42.33324" lon="-7.79287">
        <ele>375.6</ele>
        <time>2022-09-30 19:28:35</time>
      </trkpt>
      <trkpt lat="42.33316" lon="-7.79295">
        <ele>375.2</ele>
        <time>2022-09-30 19:28:37</time>
      </trkpt>
      <trkpt lat="42.33296" lon="-7.79316">
        <ele>374.6</ele>
        <time>2022-09-30 19:28:43</time>
      </trkpt>
      <trkpt lat="42.33294" lon="-7.79319">
        <ele>374.4</ele>
        <time>2022-09-30 19:28:44</time>
      </trkpt>
      <trkpt lat="42.33284" lon="-7.7933">
        <ele>373.2</ele>
        <time>2022-09-30 19:28:48</time>
      </trkpt>
      <trkpt lat="42.33273" lon="-7.79343">
        <ele>372</ele>
        <time>2022-09-30 19:28:51</time>
      </trkpt>
      <trkpt lat="42.33268" lon="-7.7935">
        <ele>371.4</ele>
        <time>2022-09-30 19:28:52</time>
      </trkpt>
      <trkpt lat="42.33259" lon="-7.79365">
        <ele>370.6</ele>
        <time>2022-09-30 19:28:54</time>
      </trkpt>
      <trkpt lat="42.33254" lon="-7.79379">
        <ele>369.8</ele>
        <time>2022-09-30 19:28:56</time>
      </trkpt>
      <trkpt lat="42.3325" lon="-7.79387">
        <ele>369.2</ele>
        <time>2022-09-30 19:28:57</time>
      </trkpt>
      <trkpt lat="42.33242" lon="-7.79403">
        <ele>367.8</ele>
        <time>2022-09-30 19:28:59</time>
      </trkpt>
      <trkpt lat="42.33239" lon="-7.79412">
        <ele>366.8</ele>
        <time>2022-09-30 19:29:00</time>
      </trkpt>
      <trkpt lat="42.33237" lon="-7.79419">
        <ele>365.8</ele>
        <time>2022-09-30 19:29:01</time>
      </trkpt>
      <trkpt lat="42.33234" lon="-7.79426">
        <ele>364</ele>
        <time>2022-09-30 19:29:02</time>
      </trkpt>
      <trkpt lat="42.33231" lon="-7.79432">
        <ele>363.2</ele>
        <time>2022-09-30 19:29:03</time>
      </trkpt>
      <trkpt lat="42.3323" lon="-7.79438">
        <ele>362.6</ele>
        <time>2022-09-30 19:29:04</time>
      </trkpt>
      <trkpt lat="42.33228" lon="-7.79444">
        <ele>362</ele>
        <time>2022-09-30 19:29:05</time>
      </trkpt>
      <trkpt lat="42.33227" lon="-7.7945">
        <ele>361.4</ele>
        <time>2022-09-30 19:29:06</time>
      </trkpt>
      <trkpt lat="42.33227" lon="-7.79455">
        <ele>360.8</ele>
        <time>2022-09-30 19:29:07</time>
      </trkpt>
      <trkpt lat="42.33228" lon="-7.7946">
        <ele>360.2</ele>
        <time>2022-09-30 19:29:08</time>
      </trkpt>
      <trkpt lat="42.33229" lon="-7.79463">
        <ele>359.8</ele>
        <time>2022-09-30 19:29:09</time>
      </trkpt>
      <trkpt lat="42.33236" lon="-7.79472">
        <ele>359.6</ele>
        <time>2022-09-30 19:29:13</time>
      </trkpt>
      <trkpt lat="42.33238" lon="-7.79473">
        <ele>359.6</ele>
        <time>2022-09-30 19:29:14</time>
      </trkpt>
      <trkpt lat="42.33237" lon="-7.79475">
        <ele>359.4</ele>
        <time>2022-09-30 19:29:20</time>
      </trkpt>
      <trkpt lat="42.33229" lon="-7.79482">
        <ele>359.2</ele>
        <time>2022-09-30 19:29:25</time>
      </trkpt>
      <trkpt lat="42.33227" lon="-7.79485">
        <ele>359</ele>
        <time>2022-09-30 19:29:26</time>
      </trkpt>
      <trkpt lat="42.33217" lon="-7.79502">
        <ele>358.2</ele>
        <time>2022-09-30 19:29:31</time>
      </trkpt>
      <trkpt lat="42.33212" lon="-7.7951">
        <ele>358</ele>
        <time>2022-09-30 19:29:33</time>
      </trkpt>
      <trkpt lat="42.33202" lon="-7.79531">
        <ele>357.2</ele>
        <time>2022-09-30 19:29:38</time>
      </trkpt>
      <trkpt lat="42.332" lon="-7.79537">
        <ele>356.8</ele>
        <time>2022-09-30 19:29:40</time>
      </trkpt>
      <trkpt lat="42.33198" lon="-7.79544">
        <ele>356.4</ele>
        <time>2022-09-30 19:29:43</time>
      </trkpt>
      <trkpt lat="42.33196" lon="-7.79551">
        <ele>355.8</ele>
        <time>2022-09-30 19:29:47</time>
      </trkpt>
      <trkpt lat="42.33195" lon="-7.79552">
        <ele>355.8</ele>
        <time>2022-09-30 19:29:48</time>
      </trkpt>
      <trkpt lat="42.33194" lon="-7.79552">
        <ele>355.8</ele>
        <time>2022-09-30 19:29:49</time>
      </trkpt>
      <trkpt lat="42.33193" lon="-7.79549">
        <ele>356</ele>
        <time>2022-09-30 19:29:54</time>
      </trkpt>
      <trkpt lat="42.33195" lon="-7.79548">
        <ele>356.2</ele>
        <time>2022-09-30 19:29:56</time>
      </trkpt>
      <trkpt lat="42.33198" lon="-7.7955">
        <ele>356</ele>
        <time>2022-09-30 19:29:58</time>
      </trkpt>
      <trkpt lat="42.33201" lon="-7.79553">
        <ele>355.8</ele>
        <time>2022-09-30 19:30:01</time>
      </trkpt>
      <trkpt lat="42.33203" lon="-7.79556">
        <ele>355</ele>
        <time>2022-09-30 19:30:04</time>
      </trkpt>
      <trkpt lat="42.33203" lon="-7.79558">
        <ele>354.8</ele>
        <time>2022-09-30 19:30:09</time>
      </trkpt>
      <trkpt lat="42.33203" lon="-7.7956">
        <ele>354.6</ele>
        <time>2022-09-30 19:30:11</time>
      </trkpt>
      <trkpt lat="42.33202" lon="-7.79563">
        <ele>354.2</ele>
        <time>2022-09-30 19:30:13</time>
      </trkpt>
      <trkpt lat="42.33201" lon="-7.79564">
        <ele>354</ele>
        <time>2022-09-30 19:30:15</time>
      </trkpt>
      <trkpt lat="42.332" lon="-7.79565">
        <ele>353.8</ele>
        <time>2022-09-30 19:30:16</time>
      </trkpt>
      <trkpt lat="42.33197" lon="-7.79567">
        <ele>353.2</ele>
        <time>2022-09-30 19:30:19</time>
      </trkpt>
      <trkpt lat="42.33196" lon="-7.79568">
        <ele>353</ele>
        <time>2022-09-30 19:30:21</time>
      </trkpt>
      <trkpt lat="42.33195" lon="-7.79571">
        <ele>352.4</ele>
        <time>2022-09-30 19:30:25</time>
      </trkpt>
      <trkpt lat="42.33194" lon="-7.79579">
        <ele>351.6</ele>
        <time>2022-09-30 19:30:27</time>
      </trkpt>
      <trkpt lat="42.33194" lon="-7.79583">
        <ele>351</ele>
        <time>2022-09-30 19:30:28</time>
      </trkpt>
      <trkpt lat="42.33194" lon="-7.79589">
        <ele>349.8</ele>
        <time>2022-09-30 19:30:30</time>
      </trkpt>
      <trkpt lat="42.33195" lon="-7.79598">
        <ele>347.6</ele>
        <time>2022-09-30 19:30:40</time>
      </trkpt>
      <trkpt lat="42.33196" lon="-7.79601">
        <ele>346.6</ele>
        <time>2022-09-30 19:30:43</time>
      </trkpt>
      <trkpt lat="42.33195" lon="-7.79617">
        <ele>342.4</ele>
        <time>2022-09-30 19:31:02</time>
      </trkpt>
      <trkpt lat="42.33194" lon="-7.79628">
        <ele>341.2</ele>
        <time>2022-09-30 19:31:05</time>
      </trkpt>
      <trkpt lat="42.33193" lon="-7.79631">
        <ele>340.8</ele>
        <time>2022-09-30 19:31:06</time>
      </trkpt>
      <trkpt lat="42.33193" lon="-7.79635">
        <ele>340.2</ele>
        <time>2022-09-30 19:31:07</time>
      </trkpt>
      <trkpt lat="42.33192" lon="-7.79637">
        <ele>339.8</ele>
        <time>2022-09-30 19:31:08</time>
      </trkpt>
      <trkpt lat="42.33193" lon="-7.79639">
        <ele>339.4</ele>
        <time>2022-09-30 19:31:09</time>
      </trkpt>
      <trkpt lat="42.33194" lon="-7.79641">
        <ele>339</ele>
        <time>2022-09-30 19:31:10</time>
      </trkpt>
      <trkpt lat="42.33198" lon="-7.79656">
        <ele>337.6</ele>
        <time>2022-09-30 19:31:14</time>
      </trkpt>
      <trkpt lat="42.33201" lon="-7.79666">
        <ele>336.6</ele>
        <time>2022-09-30 19:31:16</time>
      </trkpt>
      <trkpt lat="42.33203" lon="-7.79671">
        <ele>336</ele>
        <time>2022-09-30 19:31:17</time>
      </trkpt>
      <trkpt lat="42.33204" lon="-7.79677">
        <ele>335.4</ele>
        <time>2022-09-30 19:31:18</time>
      </trkpt>
      <trkpt lat="42.33207" lon="-7.79693">
        <ele>334.2</ele>
        <time>2022-09-30 19:31:22</time>
      </trkpt>
      <trkpt lat="42.33207" lon="-7.79704">
        <ele>333.2</ele>
        <time>2022-09-30 19:31:25</time>
      </trkpt>
      <trkpt lat="42.33207" lon="-7.79707">
        <ele>333</ele>
        <time>2022-09-30 19:31:26</time>
      </trkpt>
      <trkpt lat="42.33211" lon="-7.79712">
        <ele>333</ele>
        <time>2022-09-30 19:31:29</time>
      </trkpt>
      <trkpt lat="42.33215" lon="-7.79717">
        <ele>331.8</ele>
        <time>2022-09-30 19:31:32</time>
      </trkpt>
      <trkpt lat="42.33218" lon="-7.79718">
        <ele>330.8</ele>
        <time>2022-09-30 19:31:34</time>
      </trkpt>
      <trkpt lat="42.3322" lon="-7.79719">
        <ele>330.4</ele>
        <time>2022-09-30 19:31:35</time>
      </trkpt>
      <trkpt lat="42.33227" lon="-7.79725">
        <ele>329</ele>
        <time>2022-09-30 19:31:38</time>
      </trkpt>
      <trkpt lat="42.33233" lon="-7.79719">
        <ele>328.4</ele>
        <time>2022-09-30 19:31:41</time>
      </trkpt>
      <trkpt lat="42.33243" lon="-7.7971">
        <ele>328.2</ele>
        <time>2022-09-30 19:31:44</time>
      </trkpt>
      <trkpt lat="42.33245" lon="-7.79706">
        <ele>328.2</ele>
        <time>2022-09-30 19:31:45</time>
      </trkpt>
      <trkpt lat="42.33249" lon="-7.79692">
        <ele>328</ele>
        <time>2022-09-30 19:31:49</time>
      </trkpt>
      <trkpt lat="42.33258" lon="-7.79676">
        <ele>328.2</ele>
        <time>2022-09-30 19:31:54</time>
      </trkpt>
      <trkpt lat="42.33271" lon="-7.7965">
        <ele>328.4</ele>
        <time>2022-09-30 19:32:00</time>
      </trkpt>
      <trkpt lat="42.33284" lon="-7.79642">
        <ele>328.4</ele>
        <time>2022-09-30 19:32:04</time>
      </trkpt>
      <trkpt lat="42.3331" lon="-7.79645">
        <ele>328.8</ele>
        <time>2022-09-30 19:32:09</time>
      </trkpt>
      <trkpt lat="42.33319" lon="-7.79646">
        <ele>328.8</ele>
        <time>2022-09-30 19:32:11</time>
      </trkpt>
      <trkpt lat="42.33333" lon="-7.7964">
        <ele>328.4</ele>
        <time>2022-09-30 19:32:14</time>
      </trkpt>
      <trkpt lat="42.33346" lon="-7.79634">
        <ele>328.6</ele>
        <time>2022-09-30 19:32:17</time>
      </trkpt>
      <trkpt lat="42.33351" lon="-7.79625">
        <ele>328.8</ele>
        <time>2022-09-30 19:32:19</time>
      </trkpt>
      <trkpt lat="42.33354" lon="-7.79614">
        <ele>329.2</ele>
        <time>2022-09-30 19:32:21</time>
      </trkpt>
      <trkpt lat="42.33357" lon="-7.79605">
        <ele>329</ele>
        <time>2022-09-30 19:32:23</time>
      </trkpt>
      <trkpt lat="42.33372" lon="-7.79576">
        <ele>328.8</ele>
        <time>2022-09-30 19:32:29</time>
      </trkpt>
      <trkpt lat="42.33386" lon="-7.79564">
        <ele>329</ele>
        <time>2022-09-30 19:32:33</time>
      </trkpt>
      <trkpt lat="42.3339" lon="-7.79561">
        <ele>328.8</ele>
        <time>2022-09-30 19:32:34</time>
      </trkpt>
      <trkpt lat="42.33399" lon="-7.79556">
        <ele>328.8</ele>
        <time>2022-09-30 19:32:36</time>
      </trkpt>
      <trkpt lat="42.33406" lon="-7.79546">
        <ele>328.6</ele>
        <time>2022-09-30 19:32:38</time>
      </trkpt>
      <trkpt lat="42.33411" lon="-7.79525">
        <ele>328.8</ele>
        <time>2022-09-30 19:32:41</time>
      </trkpt>
      <trkpt lat="42.33418" lon="-7.79501">
        <ele>329</ele>
        <time>2022-09-30 19:32:45</time>
      </trkpt>
      <trkpt lat="42.33421" lon="-7.79495">
        <ele>329</ele>
        <time>2022-09-30 19:32:46</time>
      </trkpt>
      <trkpt lat="42.33434" lon="-7.79473">
        <ele>329</ele>
        <time>2022-09-30 19:32:51</time>
      </trkpt>
      <trkpt lat="42.33437" lon="-7.79469">
        <ele>329</ele>
        <time>2022-09-30 19:32:52</time>
      </trkpt>
      <trkpt lat="42.33445" lon="-7.79457">
        <ele>329.2</ele>
        <time>2022-09-30 19:32:55</time>
      </trkpt>
      <trkpt lat="42.3346" lon="-7.79437">
        <ele>328.8</ele>
        <time>2022-09-30 19:33:00</time>
      </trkpt>
      <trkpt lat="42.33474" lon="-7.79419">
        <ele>328.6</ele>
        <time>2022-09-30 19:33:05</time>
      </trkpt>
      <trkpt lat="42.33493" lon="-7.79402">
        <ele>328.8</ele>
        <time>2022-09-30 19:33:11</time>
      </trkpt>
      <trkpt lat="42.33495" lon="-7.79406">
        <ele>328.4</ele>
        <time>2022-09-30 19:33:14</time>
      </trkpt>
      <trkpt lat="42.33491" lon="-7.79417">
        <ele>328.4</ele>
        <time>2022-09-30 19:33:17</time>
      </trkpt>
      <trkpt lat="42.33486" lon="-7.79432">
        <ele>328.6</ele>
        <time>2022-09-30 19:33:20</time>
      </trkpt>
      <trkpt lat="42.33482" lon="-7.79444">
        <ele>328.6</ele>
        <time>2022-09-30 19:33:22</time>
      </trkpt>
      <trkpt lat="42.33471" lon="-7.79467">
        <ele>328.4</ele>
        <time>2022-09-30 19:33:26</time>
      </trkpt>
      <trkpt lat="42.33462" lon="-7.79484">
        <ele>328.4</ele>
        <time>2022-09-30 19:33:29</time>
      </trkpt>
      <trkpt lat="42.33464" lon="-7.79508">
        <ele>328.4</ele>
        <time>2022-09-30 19:33:33</time>
      </trkpt>
      <trkpt lat="42.33471" lon="-7.79521">
        <ele>328.4</ele>
        <time>2022-09-30 19:33:35</time>
      </trkpt>
      <trkpt lat="42.33476" lon="-7.79532">
        <ele>328.2</ele>
        <time>2022-09-30 19:33:37</time>
      </trkpt>
      <trkpt lat="42.33477" lon="-7.79539">
        <ele>328.2</ele>
        <time>2022-09-30 19:33:38</time>
      </trkpt>
      <trkpt lat="42.33481" lon="-7.79565">
        <ele>328.4</ele>
        <time>2022-09-30 19:33:42</time>
      </trkpt>
      <trkpt lat="42.33482" lon="-7.79579">
        <ele>328.6</ele>
        <time>2022-09-30 19:33:44</time>
      </trkpt>
      <trkpt lat="42.33487" lon="-7.79605">
        <ele>328.6</ele>
        <time>2022-09-30 19:33:48</time>
      </trkpt>
      <trkpt lat="42.33489" lon="-7.79618">
        <ele>328.8</ele>
        <time>2022-09-30 19:33:50</time>
      </trkpt>
      <trkpt lat="42.33489" lon="-7.79631">
        <ele>329</ele>
        <time>2022-09-30 19:33:52</time>
      </trkpt>
      <trkpt lat="42.33489" lon="-7.79638">
        <ele>328.8</ele>
        <time>2022-09-30 19:33:53</time>
      </trkpt>
      <trkpt lat="42.33486" lon="-7.79659">
        <ele>328.4</ele>
        <time>2022-09-30 19:33:56</time>
      </trkpt>
      <trkpt lat="42.33476" lon="-7.79683">
        <ele>328.4</ele>
        <time>2022-09-30 19:34:00</time>
      </trkpt>
      <trkpt lat="42.3347" lon="-7.7971">
        <ele>328.4</ele>
        <time>2022-09-30 19:34:04</time>
      </trkpt>
      <trkpt lat="42.3347" lon="-7.79723">
        <ele>328.6</ele>
        <time>2022-09-30 19:34:06</time>
      </trkpt>
      <trkpt lat="42.3347" lon="-7.79729">
        <ele>328.4</ele>
        <time>2022-09-30 19:34:07</time>
      </trkpt>
      <trkpt lat="42.33472" lon="-7.79754">
        <ele>328.6</ele>
        <time>2022-09-30 19:34:11</time>
      </trkpt>
      <trkpt lat="42.33472" lon="-7.79769">
        <ele>328.6</ele>
        <time>2022-09-30 19:34:13</time>
      </trkpt>
      <trkpt lat="42.33472" lon="-7.79784">
        <ele>328.4</ele>
        <time>2022-09-30 19:34:15</time>
      </trkpt>
      <trkpt lat="42.33473" lon="-7.7979">
        <ele>328.2</ele>
        <time>2022-09-30 19:34:16</time>
      </trkpt>
      <trkpt lat="42.33474" lon="-7.79803">
        <ele>328</ele>
        <time>2022-09-30 19:34:18</time>
      </trkpt>
      <trkpt lat="42.33479" lon="-7.79819">
        <ele>328.2</ele>
        <time>2022-09-30 19:34:21</time>
      </trkpt>
      <trkpt lat="42.33485" lon="-7.79829">
        <ele>328.2</ele>
        <time>2022-09-30 19:34:23</time>
      </trkpt>
      <trkpt lat="42.33493" lon="-7.79838">
        <ele>328</ele>
        <time>2022-09-30 19:34:25</time>
      </trkpt>
      <trkpt lat="42.33501" lon="-7.79844">
        <ele>328</ele>
        <time>2022-09-30 19:34:27</time>
      </trkpt>
      <trkpt lat="42.33505" lon="-7.79848">
        <ele>328.2</ele>
        <time>2022-09-30 19:34:28</time>
      </trkpt>
      <trkpt lat="42.33512" lon="-7.79855">
        <ele>328.2</ele>
        <time>2022-09-30 19:34:30</time>
      </trkpt>
      <trkpt lat="42.33528" lon="-7.79872">
        <ele>328</ele>
        <time>2022-09-30 19:34:34</time>
      </trkpt>
      <trkpt lat="42.33535" lon="-7.79883">
        <ele>328</ele>
        <time>2022-09-30 19:34:36</time>
      </trkpt>
      <trkpt lat="42.33558" lon="-7.79923">
        <ele>327.8</ele>
        <time>2022-09-30 19:34:43</time>
      </trkpt>
      <trkpt lat="42.33561" lon="-7.79928">
        <ele>327.6</ele>
        <time>2022-09-30 19:34:44</time>
      </trkpt>
      <trkpt lat="42.3357" lon="-7.79947">
        <ele>327.8</ele>
        <time>2022-09-30 19:34:48</time>
      </trkpt>
      <trkpt lat="42.33584" lon="-7.79985">
        <ele>327.8</ele>
        <time>2022-09-30 19:34:55</time>
      </trkpt>
      <trkpt lat="42.33588" lon="-7.79995">
        <ele>327.8</ele>
        <time>2022-09-30 19:34:57</time>
      </trkpt>
      <trkpt lat="42.33596" lon="-7.79997">
        <ele>327.6</ele>
        <time>2022-09-30 19:34:59</time>
      </trkpt>
      <trkpt lat="42.33605" lon="-7.79994">
        <ele>327.4</ele>
        <time>2022-09-30 19:35:01</time>
      </trkpt>
      <trkpt lat="42.33614" lon="-7.79993">
        <ele>327.4</ele>
        <time>2022-09-30 19:35:03</time>
      </trkpt>
      <trkpt lat="42.33636" lon="-7.8">
        <ele>327.6</ele>
        <time>2022-09-30 19:35:08</time>
      </trkpt>
      <trkpt lat="42.33644" lon="-7.80002">
        <ele>327.8</ele>
        <time>2022-09-30 19:35:10</time>
      </trkpt>
      <trkpt lat="42.33662" lon="-7.80002">
        <ele>327.8</ele>
        <time>2022-09-30 19:35:14</time>
      </trkpt>
      <trkpt lat="42.33675" lon="-7.8">
        <ele>327.6</ele>
        <time>2022-09-30 19:35:17</time>
      </trkpt>
      <trkpt lat="42.33687" lon="-7.79995">
        <ele>327.6</ele>
        <time>2022-09-30 19:35:20</time>
      </trkpt>
      <trkpt lat="42.33719" lon="-7.79987">
        <ele>327.4</ele>
        <time>2022-09-30 19:35:27</time>
      </trkpt>
      <trkpt lat="42.33723" lon="-7.79987">
        <ele>327.4</ele>
        <time>2022-09-30 19:35:28</time>
      </trkpt>
      <trkpt lat="42.33744" lon="-7.79986">
        <ele>327.4</ele>
        <time>2022-09-30 19:35:33</time>
      </trkpt>
      <trkpt lat="42.33773" lon="-7.79983">
        <ele>327.4</ele>
        <time>2022-09-30 19:35:40</time>
      </trkpt>
      <trkpt lat="42.33797" lon="-7.79984">
        <ele>327.2</ele>
        <time>2022-09-30 19:35:46</time>
      </trkpt>
      <trkpt lat="42.33816" lon="-7.79986">
        <ele>327</ele>
        <time>2022-09-30 19:35:51</time>
      </trkpt>
      <trkpt lat="42.33823" lon="-7.79986">
        <ele>327</ele>
        <time>2022-09-30 19:35:53</time>
      </trkpt>
      <trkpt lat="42.33836" lon="-7.79993">
        <ele>326.6</ele>
        <time>2022-09-30 19:35:57</time>
      </trkpt>
      <trkpt lat="42.33844" lon="-7.79998">
        <ele>326.8</ele>
        <time>2022-09-30 19:36:00</time>
      </trkpt>
      <trkpt lat="42.33847" lon="-7.79996">
        <ele>327</ele>
        <time>2022-09-30 19:36:02</time>
      </trkpt>
      <trkpt lat="42.33847" lon="-7.79989">
        <ele>327.2</ele>
        <time>2022-09-30 19:36:05</time>
      </trkpt>
      <trkpt lat="42.33841" lon="-7.79973">
        <ele>328</ele>
        <time>2022-09-30 19:36:11</time>
      </trkpt>
      <trkpt lat="42.33833" lon="-7.79966">
        <ele>329.2</ele>
        <time>2022-09-30 19:36:16</time>
      </trkpt>
      <trkpt lat="42.33831" lon="-7.79965">
        <ele>329.4</ele>
        <time>2022-09-30 19:36:17</time>
      </trkpt>
      <trkpt lat="42.33825" lon="-7.79961">
        <ele>330.2</ele>
        <time>2022-09-30 19:36:21</time>
      </trkpt>
      <trkpt lat="42.33817" lon="-7.79958">
        <ele>331</ele>
        <time>2022-09-30 19:36:25</time>
      </trkpt>
      <trkpt lat="42.33814" lon="-7.79956">
        <ele>331.2</ele>
        <time>2022-09-30 19:36:27</time>
      </trkpt>
      <trkpt lat="42.33802" lon="-7.79949">
        <ele>332</ele>
        <time>2022-09-30 19:36:33</time>
      </trkpt>
      <trkpt lat="42.33797" lon="-7.79947">
        <ele>332.4</ele>
        <time>2022-09-30 19:36:35</time>
      </trkpt>
      <trkpt lat="42.33788" lon="-7.79942">
        <ele>333.2</ele>
        <time>2022-09-30 19:36:39</time>
      </trkpt>
      <trkpt lat="42.33783" lon="-7.79941">
        <ele>333.6</ele>
        <time>2022-09-30 19:36:41</time>
      </trkpt>
      <trkpt lat="42.33772" lon="-7.79936">
        <ele>334.4</ele>
        <time>2022-09-30 19:36:46</time>
      </trkpt>
      <trkpt lat="42.33769" lon="-7.79935">
        <ele>334.6</ele>
        <time>2022-09-30 19:36:47</time>
      </trkpt>
      <trkpt lat="42.3376" lon="-7.79931">
        <ele>336</ele>
        <time>2022-09-30 19:36:52</time>
      </trkpt>
      <trkpt lat="42.33756" lon="-7.79928">
        <ele>336.4</ele>
        <time>2022-09-30 19:36:54</time>
      </trkpt>
      <trkpt lat="42.33754" lon="-7.79923">
        <ele>336.8</ele>
        <time>2022-09-30 19:36:56</time>
      </trkpt>
      <trkpt lat="42.33754" lon="-7.79917">
        <ele>337</ele>
        <time>2022-09-30 19:36:58</time>
      </trkpt>
      <trkpt lat="42.33756" lon="-7.79906">
        <ele>337.6</ele>
        <time>2022-09-30 19:37:03</time>
      </trkpt>
      <trkpt lat="42.33761" lon="-7.79895">
        <ele>338</ele>
        <time>2022-09-30 19:37:07</time>
      </trkpt>
      <trkpt lat="42.33762" lon="-7.79893">
        <ele>338</ele>
        <time>2022-09-30 19:37:08</time>
      </trkpt>
      <trkpt lat="42.33764" lon="-7.79889">
        <ele>338</ele>
        <time>2022-09-30 19:37:10</time>
      </trkpt>
      <trkpt lat="42.33768" lon="-7.79883">
        <ele>338.2</ele>
        <time>2022-09-30 19:37:13</time>
      </trkpt>
      <trkpt lat="42.33772" lon="-7.79875">
        <ele>338.6</ele>
        <time>2022-09-30 19:37:19</time>
      </trkpt>
      <trkpt lat="42.33773" lon="-7.79873">
        <ele>338.6</ele>
        <time>2022-09-30 19:37:30</time>
      </trkpt>
      <trkpt lat="42.33775" lon="-7.79873">
        <ele>338.6</ele>
        <time>2022-09-30 19:37:31</time>
      </trkpt>
      <trkpt lat="42.33782" lon="-7.79872">
        <ele>339</ele>
        <time>2022-09-30 19:37:34</time>
      </trkpt>
      <trkpt lat="42.33784" lon="-7.79871">
        <ele>339.2</ele>
        <time>2022-09-30 19:37:35</time>
      </trkpt>
      <trkpt lat="42.33787" lon="-7.79871">
        <ele>339.2</ele>
        <time>2022-09-30 19:37:36</time>
      </trkpt>
      <trkpt lat="42.33805" lon="-7.79863">
        <ele>339.8</ele>
        <time>2022-09-30 19:37:43</time>
      </trkpt>
      <trkpt lat="42.33813" lon="-7.79861">
        <ele>340.2</ele>
        <time>2022-09-30 19:37:46</time>
      </trkpt>
      <trkpt lat="42.33822" lon="-7.79856">
        <ele>340.4</ele>
        <time>2022-09-30 19:37:50</time>
      </trkpt>
      <trkpt lat="42.33834" lon="-7.79854">
        <ele>340.8</ele>
        <time>2022-09-30 19:37:54</time>
      </trkpt>
      <trkpt lat="42.3385" lon="-7.79856">
        <ele>340.2</ele>
        <time>2022-09-30 19:37:59</time>
      </trkpt>
      <trkpt lat="42.33855" lon="-7.79863">
        <ele>339.8</ele>
        <time>2022-09-30 19:38:02</time>
      </trkpt>
      <trkpt lat="42.33856" lon="-7.79867">
        <ele>339.8</ele>
        <time>2022-09-30 19:38:03</time>
      </trkpt>
      <trkpt lat="42.33868" lon="-7.79888">
        <ele>339.4</ele>
        <time>2022-09-30 19:38:08</time>
      </trkpt>
      <trkpt lat="42.33872" lon="-7.79891">
        <ele>339.4</ele>
        <time>2022-09-30 19:38:09</time>
      </trkpt>
      <trkpt lat="42.33887" lon="-7.79901">
        <ele>339.4</ele>
        <time>2022-09-30 19:38:13</time>
      </trkpt>
      <trkpt lat="42.33901" lon="-7.79898">
        <ele>339.6</ele>
        <time>2022-09-30 19:38:17</time>
      </trkpt>
      <trkpt lat="42.33915" lon="-7.79895">
        <ele>340.4</ele>
        <time>2022-09-30 19:38:22</time>
      </trkpt>
      <trkpt lat="42.33922" lon="-7.79908">
        <ele>340.4</ele>
        <time>2022-09-30 19:38:26</time>
      </trkpt>
      <trkpt lat="42.33929" lon="-7.79927">
        <ele>341</ele>
        <time>2022-09-30 19:38:31</time>
      </trkpt>
      <trkpt lat="42.33931" lon="-7.79932">
        <ele>341</ele>
        <time>2022-09-30 19:38:32</time>
      </trkpt>
      <trkpt lat="42.33936" lon="-7.79945">
        <ele>341.2</ele>
        <time>2022-09-30 19:38:35</time>
      </trkpt>
      <trkpt lat="42.3394" lon="-7.79948">
        <ele>341.4</ele>
        <time>2022-09-30 19:38:37</time>
      </trkpt>
      <trkpt lat="42.33946" lon="-7.79952">
        <ele>342</ele>
        <time>2022-09-30 19:38:42</time>
      </trkpt>
      <trkpt lat="42.33953" lon="-7.79951">
        <ele>342.4</ele>
        <time>2022-09-30 19:38:46</time>
      </trkpt>
      <trkpt lat="42.33956" lon="-7.79949">
        <ele>342.6</ele>
        <time>2022-09-30 19:38:48</time>
      </trkpt>
      <trkpt lat="42.33963" lon="-7.79949">
        <ele>343.6</ele>
        <time>2022-09-30 19:38:52</time>
      </trkpt>
      <trkpt lat="42.33966" lon="-7.79948">
        <ele>343.8</ele>
        <time>2022-09-30 19:38:54</time>
      </trkpt>
      <trkpt lat="42.33971" lon="-7.79948">
        <ele>344.6</ele>
        <time>2022-09-30 19:38:57</time>
      </trkpt>
      <trkpt lat="42.33974" lon="-7.79948">
        <ele>345.2</ele>
        <time>2022-09-30 19:38:59</time>
      </trkpt>
      <trkpt lat="42.33982" lon="-7.79948">
        <ele>345.8</ele>
        <time>2022-09-30 19:39:03</time>
      </trkpt>
      <trkpt lat="42.33987" lon="-7.7995">
        <ele>346.2</ele>
        <time>2022-09-30 19:39:05</time>
      </trkpt>
      <trkpt lat="42.33993" lon="-7.7995">
        <ele>347</ele>
        <time>2022-09-30 19:39:08</time>
      </trkpt>
      <trkpt lat="42.33999" lon="-7.79952">
        <ele>347.4</ele>
        <time>2022-09-30 19:39:11</time>
      </trkpt>
      <trkpt lat="42.34005" lon="-7.79953">
        <ele>348</ele>
        <time>2022-09-30 19:39:14</time>
      </trkpt>
      <trkpt lat="42.34011" lon="-7.79955">
        <ele>349</ele>
        <time>2022-09-30 19:39:18</time>
      </trkpt>
      <trkpt lat="42.34014" lon="-7.79956">
        <ele>349.2</ele>
        <time>2022-09-30 19:39:19</time>
      </trkpt>
      <trkpt lat="42.34021" lon="-7.79958">
        <ele>350.2</ele>
        <time>2022-09-30 19:39:23</time>
      </trkpt>
      <trkpt lat="42.34022" lon="-7.79958">
        <ele>350.8</ele>
        <time>2022-09-30 19:39:30</time>
      </trkpt>
      <trkpt lat="42.34033" lon="-7.79958">
        <ele>351.6</ele>
        <time>2022-09-30 19:39:38</time>
      </trkpt>
      <trkpt lat="42.34039" lon="-7.79958">
        <ele>351.8</ele>
        <time>2022-09-30 19:39:42</time>
      </trkpt>
      <trkpt lat="42.34047" lon="-7.79958">
        <ele>352.4</ele>
        <time>2022-09-30 19:39:49</time>
      </trkpt>
      <trkpt lat="42.34052" lon="-7.79957">
        <ele>352.8</ele>
        <time>2022-09-30 19:39:54</time>
      </trkpt>
      <trkpt lat="42.34053" lon="-7.79957">
        <ele>352.8</ele>
        <time>2022-09-30 19:39:55</time>
      </trkpt>
      <trkpt lat="42.34054" lon="-7.79957">
        <ele>352.8</ele>
        <time>2022-09-30 19:39:56</time>
      </trkpt>
      <trkpt lat="42.34059" lon="-7.79958">
        <ele>353.2</ele>
        <time>2022-09-30 19:40:01</time>
      </trkpt>
      <trkpt lat="42.34061" lon="-7.79958">
        <ele>353.4</ele>
        <time>2022-09-30 19:40:05</time>
      </trkpt>
      <trkpt lat="42.34065" lon="-7.79959">
        <ele>353</ele>
        <time>2022-09-30 19:40:08</time>
      </trkpt>
      <trkpt lat="42.34075" lon="-7.79962">
        <ele>353.2</ele>
        <time>2022-09-30 19:40:17</time>
      </trkpt>
      <trkpt lat="42.34088" lon="-7.79968">
        <ele>353.2</ele>
        <time>2022-09-30 19:40:24</time>
      </trkpt>
      <trkpt lat="42.34099" lon="-7.79973">
        <ele>352.8</ele>
        <time>2022-09-30 19:40:29</time>
      </trkpt>
      <trkpt lat="42.34111" lon="-7.7998">
        <ele>352.2</ele>
        <time>2022-09-30 19:40:34</time>
      </trkpt>
      <trkpt lat="42.34116" lon="-7.79982">
        <ele>351.6</ele>
        <time>2022-09-30 19:40:37</time>
      </trkpt>
      <trkpt lat="42.34122" lon="-7.79984">
        <ele>351.4</ele>
        <time>2022-09-30 19:40:40</time>
      </trkpt>
      <trkpt lat="42.34134" lon="-7.79991">
        <ele>350.6</ele>
        <time>2022-09-30 19:40:44</time>
      </trkpt>
      <trkpt lat="42.34147" lon="-7.79997">
        <ele>349.4</ele>
        <time>2022-09-30 19:40:47</time>
      </trkpt>
      <trkpt lat="42.34156" lon="-7.80001">
        <ele>348.4</ele>
        <time>2022-09-30 19:40:49</time>
      </trkpt>
      <trkpt lat="42.34161" lon="-7.80002">
        <ele>348</ele>
        <time>2022-09-30 19:40:50</time>
      </trkpt>
      <trkpt lat="42.34165" lon="-7.80002">
        <ele>347.6</ele>
        <time>2022-09-30 19:40:51</time>
      </trkpt>
      <trkpt lat="42.34175" lon="-7.80004">
        <ele>346.8</ele>
        <time>2022-09-30 19:40:53</time>
      </trkpt>
      <trkpt lat="42.34179" lon="-7.80003">
        <ele>346.4</ele>
        <time>2022-09-30 19:40:54</time>
      </trkpt>
      <trkpt lat="42.34185" lon="-7.80006">
        <ele>345.4</ele>
        <time>2022-09-30 19:40:56</time>
      </trkpt>
      <trkpt lat="42.3419" lon="-7.80007">
        <ele>344.8</ele>
        <time>2022-09-30 19:40:58</time>
      </trkpt>
      <trkpt lat="42.34199" lon="-7.8001">
        <ele>344.4</ele>
        <time>2022-09-30 19:41:00</time>
      </trkpt>
      <trkpt lat="42.3421" lon="-7.80013">
        <ele>343.6</ele>
        <time>2022-09-30 19:41:02</time>
      </trkpt>
      <trkpt lat="42.34216" lon="-7.80014">
        <ele>343</ele>
        <time>2022-09-30 19:41:03</time>
      </trkpt>
      <trkpt lat="42.34237" lon="-7.80016">
        <ele>341.6</ele>
        <time>2022-09-30 19:41:06</time>
      </trkpt>
      <trkpt lat="42.34244" lon="-7.80015">
        <ele>341</ele>
        <time>2022-09-30 19:41:07</time>
      </trkpt>
      <trkpt lat="42.34252" lon="-7.80015">
        <ele>340.4</ele>
        <time>2022-09-30 19:41:08</time>
      </trkpt>
      <trkpt lat="42.34275" lon="-7.80013">
        <ele>339.4</ele>
        <time>2022-09-30 19:41:11</time>
      </trkpt>
      <trkpt lat="42.34282" lon="-7.80013">
        <ele>338.8</ele>
        <time>2022-09-30 19:41:12</time>
      </trkpt>
      <trkpt lat="42.34288" lon="-7.80014">
        <ele>338.4</ele>
        <time>2022-09-30 19:41:13</time>
      </trkpt>
      <trkpt lat="42.34298" lon="-7.80015">
        <ele>337.2</ele>
        <time>2022-09-30 19:41:15</time>
      </trkpt>
      <trkpt lat="42.34303" lon="-7.80015">
        <ele>336.8</ele>
        <time>2022-09-30 19:41:16</time>
      </trkpt>
      <trkpt lat="42.34308" lon="-7.80015">
        <ele>336.8</ele>
        <time>2022-09-30 19:41:17</time>
      </trkpt>
      <trkpt lat="42.34324" lon="-7.80013">
        <ele>337.2</ele>
        <time>2022-09-30 19:41:21</time>
      </trkpt>
      <trkpt lat="42.34338" lon="-7.80014">
        <ele>337.6</ele>
        <time>2022-09-30 19:41:24</time>
      </trkpt>
      <trkpt lat="42.34353" lon="-7.80018">
        <ele>337</ele>
        <time>2022-09-30 19:41:27</time>
      </trkpt>
      <trkpt lat="42.34369" lon="-7.80028">
        <ele>336</ele>
        <time>2022-09-30 19:41:30</time>
      </trkpt>
      <trkpt lat="42.34374" lon="-7.80033">
        <ele>335.8</ele>
        <time>2022-09-30 19:41:31</time>
      </trkpt>
      <trkpt lat="42.34392" lon="-7.80049">
        <ele>334.8</ele>
        <time>2022-09-30 19:41:34</time>
      </trkpt>
      <trkpt lat="42.34406" lon="-7.80058">
        <ele>334</ele>
        <time>2022-09-30 19:41:36</time>
      </trkpt>
      <trkpt lat="42.34413" lon="-7.80061">
        <ele>333.6</ele>
        <time>2022-09-30 19:41:37</time>
      </trkpt>
      <trkpt lat="42.3442" lon="-7.80064">
        <ele>333.2</ele>
        <time>2022-09-30 19:41:38</time>
      </trkpt>
      <trkpt lat="42.34434" lon="-7.80058">
        <ele>332.4</ele>
        <time>2022-09-30 19:41:40</time>
      </trkpt>
      <trkpt lat="42.34448" lon="-7.80042">
        <ele>332.6</ele>
        <time>2022-09-30 19:41:43</time>
      </trkpt>
      <trkpt lat="42.34463" lon="-7.80033">
        <ele>332.4</ele>
        <time>2022-09-30 19:41:46</time>
      </trkpt>
      <trkpt lat="42.34475" lon="-7.80028">
        <ele>332</ele>
        <time>2022-09-30 19:41:48</time>
      </trkpt>
      <trkpt lat="42.34492" lon="-7.80021">
        <ele>331.4</ele>
        <time>2022-09-30 19:41:51</time>
      </trkpt>
      <trkpt lat="42.34519" lon="-7.80006">
        <ele>331</ele>
        <time>2022-09-30 19:41:56</time>
      </trkpt>
      <trkpt lat="42.34541" lon="-7.79989">
        <ele>330.8</ele>
        <time>2022-09-30 19:42:01</time>
      </trkpt>
      <trkpt lat="42.34545" lon="-7.79986">
        <ele>330.8</ele>
        <time>2022-09-30 19:42:02</time>
      </trkpt>
      <trkpt lat="42.34548" lon="-7.79984">
        <ele>330.8</ele>
        <time>2022-09-30 19:42:03</time>
      </trkpt>
      <trkpt lat="42.34563" lon="-7.79977">
        <ele>330.8</ele>
        <time>2022-09-30 19:42:07</time>
      </trkpt>
      <trkpt lat="42.34589" lon="-7.79963">
        <ele>330.2</ele>
        <time>2022-09-30 19:42:13</time>
      </trkpt>
      <trkpt lat="42.34593" lon="-7.79959">
        <ele>330.2</ele>
        <time>2022-09-30 19:42:14</time>
      </trkpt>
      <trkpt lat="42.34604" lon="-7.79947">
        <ele>329.8</ele>
        <time>2022-09-30 19:42:17</time>
      </trkpt>
      <trkpt lat="42.34614" lon="-7.79934">
        <ele>329.6</ele>
        <time>2022-09-30 19:42:20</time>
      </trkpt>
      <trkpt lat="42.34622" lon="-7.79911">
        <ele>329.6</ele>
        <time>2022-09-30 19:42:25</time>
      </trkpt>
      <trkpt lat="42.34625" lon="-7.79885">
        <ele>330</ele>
        <time>2022-09-30 19:42:31</time>
      </trkpt>
      <trkpt lat="42.34618" lon="-7.79872">
        <ele>330.8</ele>
        <time>2022-09-30 19:42:36</time>
      </trkpt>
      <trkpt lat="42.34615" lon="-7.79868">
        <ele>331.4</ele>
        <time>2022-09-30 19:42:38</time>
      </trkpt>
      <trkpt lat="42.34611" lon="-7.79861">
        <ele>332.6</ele>
        <time>2022-09-30 19:42:41</time>
      </trkpt>
      <trkpt lat="42.34609" lon="-7.79857">
        <ele>333.2</ele>
        <time>2022-09-30 19:42:43</time>
      </trkpt>
      <trkpt lat="42.34606" lon="-7.79853">
        <ele>333.6</ele>
        <time>2022-09-30 19:42:45</time>
      </trkpt>
      <trkpt lat="42.34601" lon="-7.79845">
        <ele>334.6</ele>
        <time>2022-09-30 19:42:49</time>
      </trkpt>
      <trkpt lat="42.34598" lon="-7.79841">
        <ele>335.4</ele>
        <time>2022-09-30 19:42:51</time>
      </trkpt>
      <trkpt lat="42.34596" lon="-7.79839">
        <ele>335.8</ele>
        <time>2022-09-30 19:42:53</time>
      </trkpt>
      <trkpt lat="42.3459" lon="-7.79832">
        <ele>336.8</ele>
        <time>2022-09-30 19:42:58</time>
      </trkpt>
      <trkpt lat="42.34589" lon="-7.7983">
        <ele>337</ele>
        <time>2022-09-30 19:42:59</time>
      </trkpt>
      <trkpt lat="42.34583" lon="-7.79824">
        <ele>338</ele>
        <time>2022-09-30 19:43:03</time>
      </trkpt>
      <trkpt lat="42.34581" lon="-7.79821">
        <ele>338.4</ele>
        <time>2022-09-30 19:43:05</time>
      </trkpt>
      <trkpt lat="42.34578" lon="-7.79816">
        <ele>339</ele>
        <time>2022-09-30 19:43:08</time>
      </trkpt>
      <trkpt lat="42.34574" lon="-7.79813">
        <ele>339.6</ele>
        <time>2022-09-30 19:43:11</time>
      </trkpt>
      <trkpt lat="42.34571" lon="-7.79809">
        <ele>340</ele>
        <time>2022-09-30 19:43:13</time>
      </trkpt>
      <trkpt lat="42.3457" lon="-7.79808">
        <ele>340</ele>
        <time>2022-09-30 19:43:14</time>
      </trkpt>
      <trkpt lat="42.34563" lon="-7.79802">
        <ele>340.6</ele>
        <time>2022-09-30 19:43:18</time>
      </trkpt>
      <trkpt lat="42.34556" lon="-7.79794">
        <ele>341.2</ele>
        <time>2022-09-30 19:43:22</time>
      </trkpt>
      <trkpt lat="42.34546" lon="-7.79786">
        <ele>342.4</ele>
        <time>2022-09-30 19:43:28</time>
      </trkpt>
      <trkpt lat="42.34536" lon="-7.79782">
        <ele>343.6</ele>
        <time>2022-09-30 19:43:34</time>
      </trkpt>
      <trkpt lat="42.34535" lon="-7.79781">
        <ele>343.8</ele>
        <time>2022-09-30 19:43:35</time>
      </trkpt>
      <trkpt lat="42.34528" lon="-7.79778">
        <ele>344.6</ele>
        <time>2022-09-30 19:43:40</time>
      </trkpt>
      <trkpt lat="42.34523" lon="-7.79776">
        <ele>345.4</ele>
        <time>2022-09-30 19:43:43</time>
      </trkpt>
      <trkpt lat="42.34519" lon="-7.79775">
        <ele>345.8</ele>
        <time>2022-09-30 19:43:45</time>
      </trkpt>
      <trkpt lat="42.34511" lon="-7.79772">
        <ele>347.2</ele>
        <time>2022-09-30 19:43:51</time>
      </trkpt>
      <trkpt lat="42.34505" lon="-7.7977">
        <ele>348.4</ele>
        <time>2022-09-30 19:43:56</time>
      </trkpt>
      <trkpt lat="42.34502" lon="-7.79769">
        <ele>348.8</ele>
        <time>2022-09-30 19:43:58</time>
      </trkpt>
      <trkpt lat="42.34498" lon="-7.79768">
        <ele>349.4</ele>
        <time>2022-09-30 19:44:01</time>
      </trkpt>
      <trkpt lat="42.34491" lon="-7.79766">
        <ele>350.6</ele>
        <time>2022-09-30 19:44:06</time>
      </trkpt>
      <trkpt lat="42.34485" lon="-7.79763">
        <ele>351.8</ele>
        <time>2022-09-30 19:44:11</time>
      </trkpt>
      <trkpt lat="42.34482" lon="-7.79761">
        <ele>352.2</ele>
        <time>2022-09-30 19:44:13</time>
      </trkpt>
      <trkpt lat="42.34479" lon="-7.79759">
        <ele>353</ele>
        <time>2022-09-30 19:44:15</time>
      </trkpt>
      <trkpt lat="42.34475" lon="-7.79756">
        <ele>353.6</ele>
        <time>2022-09-30 19:44:18</time>
      </trkpt>
      <trkpt lat="42.34473" lon="-7.79753">
        <ele>354.2</ele>
        <time>2022-09-30 19:44:20</time>
      </trkpt>
      <trkpt lat="42.34472" lon="-7.79752">
        <ele>354.4</ele>
        <time>2022-09-30 19:44:21</time>
      </trkpt>
      <trkpt lat="42.34468" lon="-7.79747">
        <ele>355.2</ele>
        <time>2022-09-30 19:44:25</time>
      </trkpt>
      <trkpt lat="42.34464" lon="-7.79744">
        <ele>356.2</ele>
        <time>2022-09-30 19:44:29</time>
      </trkpt>
      <trkpt lat="42.34462" lon="-7.79743">
        <ele>356.4</ele>
        <time>2022-09-30 19:44:30</time>
      </trkpt>
      <trkpt lat="42.34455" lon="-7.79738">
        <ele>357.4</ele>
        <time>2022-09-30 19:44:35</time>
      </trkpt>
      <trkpt lat="42.34453" lon="-7.79736">
        <ele>358</ele>
        <time>2022-09-30 19:44:37</time>
      </trkpt>
      <trkpt lat="42.3445" lon="-7.79733">
        <ele>358.6</ele>
        <time>2022-09-30 19:44:40</time>
      </trkpt>
      <trkpt lat="42.34443" lon="-7.79731">
        <ele>359.4</ele>
        <time>2022-09-30 19:44:44</time>
      </trkpt>
      <trkpt lat="42.34442" lon="-7.7973">
        <ele>359.6</ele>
        <time>2022-09-30 19:44:45</time>
      </trkpt>
      <trkpt lat="42.34436" lon="-7.79726">
        <ele>360.8</ele>
        <time>2022-09-30 19:44:49</time>
      </trkpt>
      <trkpt lat="42.34435" lon="-7.79724">
        <ele>360.8</ele>
        <time>2022-09-30 19:44:50</time>
      </trkpt>
      <trkpt lat="42.34429" lon="-7.7972">
        <ele>361.8</ele>
        <time>2022-09-30 19:44:54</time>
      </trkpt>
      <trkpt lat="42.34423" lon="-7.79715">
        <ele>362.8</ele>
        <time>2022-09-30 19:44:59</time>
      </trkpt>
      <trkpt lat="42.34417" lon="-7.7971">
        <ele>364</ele>
        <time>2022-09-30 19:45:03</time>
      </trkpt>
      <trkpt lat="42.34413" lon="-7.79706">
        <ele>364.6</ele>
        <time>2022-09-30 19:45:06</time>
      </trkpt>
      <trkpt lat="42.34411" lon="-7.79704">
        <ele>365.2</ele>
        <time>2022-09-30 19:45:08</time>
      </trkpt>
      <trkpt lat="42.34404" lon="-7.79698">
        <ele>366.2</ele>
        <time>2022-09-30 19:45:13</time>
      </trkpt>
      <trkpt lat="42.34398" lon="-7.79694">
        <ele>367</ele>
        <time>2022-09-30 19:45:17</time>
      </trkpt>
      <trkpt lat="42.34397" lon="-7.79693">
        <ele>367.2</ele>
        <time>2022-09-30 19:45:18</time>
      </trkpt>
      <trkpt lat="42.34389" lon="-7.79688">
        <ele>368.4</ele>
        <time>2022-09-30 19:45:23</time>
      </trkpt>
      <trkpt lat="42.34388" lon="-7.79687">
        <ele>368.6</ele>
        <time>2022-09-30 19:45:24</time>
      </trkpt>
      <trkpt lat="42.34381" lon="-7.79684">
        <ele>369.6</ele>
        <time>2022-09-30 19:45:28</time>
      </trkpt>
      <trkpt lat="42.34375" lon="-7.79681">
        <ele>370.2</ele>
        <time>2022-09-30 19:45:32</time>
      </trkpt>
      <trkpt lat="42.34372" lon="-7.79681">
        <ele>370.6</ele>
        <time>2022-09-30 19:45:34</time>
      </trkpt>
      <trkpt lat="42.34366" lon="-7.79681">
        <ele>371.4</ele>
        <time>2022-09-30 19:45:39</time>
      </trkpt>
      <trkpt lat="42.34362" lon="-7.79681">
        <ele>371.6</ele>
        <time>2022-09-30 19:45:42</time>
      </trkpt>
      <trkpt lat="42.34356" lon="-7.79681">
        <ele>372.2</ele>
        <time>2022-09-30 19:45:47</time>
      </trkpt>
      <trkpt lat="42.34347" lon="-7.79679">
        <ele>372.8</ele>
        <time>2022-09-30 19:45:54</time>
      </trkpt>
      <trkpt lat="42.34345" lon="-7.7968">
        <ele>372.8</ele>
        <time>2022-09-30 19:45:55</time>
      </trkpt>
      <trkpt lat="42.34344" lon="-7.7968">
        <ele>372.8</ele>
        <time>2022-09-30 19:45:56</time>
      </trkpt>
      <trkpt lat="42.34339" lon="-7.79678">
        <ele>373</ele>
        <time>2022-09-30 19:46:00</time>
      </trkpt>
      <trkpt lat="42.34337" lon="-7.79677">
        <ele>373</ele>
        <time>2022-09-30 19:46:01</time>
      </trkpt>
      <trkpt lat="42.34336" lon="-7.79675">
        <ele>373.4</ele>
        <time>2022-09-30 19:47:18</time>
      </trkpt>
      <trkpt lat="42.34335" lon="-7.79677">
        <ele>373.4</ele>
        <time>2022-09-30 19:47:19</time>
      </trkpt>
      <trkpt lat="42.34338" lon="-7.79681">
        <ele>373.4</ele>
        <time>2022-09-30 19:47:22</time>
      </trkpt>
      <trkpt lat="42.34342" lon="-7.79679">
        <ele>373.4</ele>
        <time>2022-09-30 19:47:25</time>
      </trkpt>
      <trkpt lat="42.34347" lon="-7.79679">
        <ele>373.2</ele>
        <time>2022-09-30 19:47:29</time>
      </trkpt>
      <trkpt lat="42.34359" lon="-7.7968">
        <ele>372.8</ele>
        <time>2022-09-30 19:47:36</time>
      </trkpt>
      <trkpt lat="42.34376" lon="-7.7968">
        <ele>371.6</ele>
        <time>2022-09-30 19:47:43</time>
      </trkpt>
      <trkpt lat="42.34388" lon="-7.79684">
        <ele>370.2</ele>
        <time>2022-09-30 19:47:47</time>
      </trkpt>
      <trkpt lat="42.34394" lon="-7.79688">
        <ele>369.6</ele>
        <time>2022-09-30 19:47:49</time>
      </trkpt>
      <trkpt lat="42.34398" lon="-7.7969">
        <ele>369.2</ele>
        <time>2022-09-30 19:47:50</time>
      </trkpt>
      <trkpt lat="42.34402" lon="-7.79693">
        <ele>368.2</ele>
        <time>2022-09-30 19:47:51</time>
      </trkpt>
      <trkpt lat="42.34406" lon="-7.79696">
        <ele>367.8</ele>
        <time>2022-09-30 19:47:52</time>
      </trkpt>
      <trkpt lat="42.34414" lon="-7.79703">
        <ele>366.6</ele>
        <time>2022-09-30 19:47:54</time>
      </trkpt>
      <trkpt lat="42.34418" lon="-7.79706">
        <ele>365.8</ele>
        <time>2022-09-30 19:47:55</time>
      </trkpt>
      <trkpt lat="42.34422" lon="-7.7971">
        <ele>365.2</ele>
        <time>2022-09-30 19:47:56</time>
      </trkpt>
      <trkpt lat="42.34433" lon="-7.79719">
        <ele>364</ele>
        <time>2022-09-30 19:47:58</time>
      </trkpt>
      <trkpt lat="42.34448" lon="-7.7973">
        <ele>362.4</ele>
        <time>2022-09-30 19:48:00</time>
      </trkpt>
      <trkpt lat="42.34462" lon="-7.79741">
        <ele>360.4</ele>
        <time>2022-09-30 19:48:02</time>
      </trkpt>
      <trkpt lat="42.34469" lon="-7.79747">
        <ele>359.2</ele>
        <time>2022-09-30 19:48:03</time>
      </trkpt>
      <trkpt lat="42.34476" lon="-7.79753">
        <ele>357.8</ele>
        <time>2022-09-30 19:48:04</time>
      </trkpt>
      <trkpt lat="42.34484" lon="-7.79758">
        <ele>356.6</ele>
        <time>2022-09-30 19:48:05</time>
      </trkpt>
      <trkpt lat="42.34492" lon="-7.79763">
        <ele>355.4</ele>
        <time>2022-09-30 19:48:06</time>
      </trkpt>
      <trkpt lat="42.34502" lon="-7.79767">
        <ele>354.2</ele>
        <time>2022-09-30 19:48:07</time>
      </trkpt>
      <trkpt lat="42.34512" lon="-7.7977">
        <ele>353.2</ele>
        <time>2022-09-30 19:48:08</time>
      </trkpt>
      <trkpt lat="42.34521" lon="-7.79772">
        <ele>351.8</ele>
        <time>2022-09-30 19:48:09</time>
      </trkpt>
      <trkpt lat="42.3453" lon="-7.79774">
        <ele>350</ele>
        <time>2022-09-30 19:48:10</time>
      </trkpt>
      <trkpt lat="42.34538" lon="-7.79777">
        <ele>348.4</ele>
        <time>2022-09-30 19:48:11</time>
      </trkpt>
      <trkpt lat="42.34546" lon="-7.79781">
        <ele>347</ele>
        <time>2022-09-30 19:48:12</time>
      </trkpt>
      <trkpt lat="42.34554" lon="-7.79788">
        <ele>345.8</ele>
        <time>2022-09-30 19:48:13</time>
      </trkpt>
      <trkpt lat="42.34562" lon="-7.79795">
        <ele>344.8</ele>
        <time>2022-09-30 19:48:14</time>
      </trkpt>
      <trkpt lat="42.34569" lon="-7.79803">
        <ele>343</ele>
        <time>2022-09-30 19:48:15</time>
      </trkpt>
      <trkpt lat="42.34583" lon="-7.79817">
        <ele>341.6</ele>
        <time>2022-09-30 19:48:17</time>
      </trkpt>
      <trkpt lat="42.34596" lon="-7.79831">
        <ele>339.6</ele>
        <time>2022-09-30 19:48:19</time>
      </trkpt>
      <trkpt lat="42.34602" lon="-7.79839">
        <ele>338.4</ele>
        <time>2022-09-30 19:48:20</time>
      </trkpt>
      <trkpt lat="42.34608" lon="-7.79848">
        <ele>337.4</ele>
        <time>2022-09-30 19:48:21</time>
      </trkpt>
      <trkpt lat="42.34614" lon="-7.79856">
        <ele>336.2</ele>
        <time>2022-09-30 19:48:22</time>
      </trkpt>
      <trkpt lat="42.34619" lon="-7.79864">
        <ele>335.2</ele>
        <time>2022-09-30 19:48:23</time>
      </trkpt>
      <trkpt lat="42.34624" lon="-7.79871">
        <ele>333.8</ele>
        <time>2022-09-30 19:48:24</time>
      </trkpt>
      <trkpt lat="42.34628" lon="-7.79878">
        <ele>332.6</ele>
        <time>2022-09-30 19:48:25</time>
      </trkpt>
      <trkpt lat="42.3463" lon="-7.79885">
        <ele>331.6</ele>
        <time>2022-09-30 19:48:26</time>
      </trkpt>
      <trkpt lat="42.34628" lon="-7.799">
        <ele>330.2</ele>
        <time>2022-09-30 19:48:28</time>
      </trkpt>
      <trkpt lat="42.34626" lon="-7.79907">
        <ele>330</ele>
        <time>2022-09-30 19:48:29</time>
      </trkpt>
      <trkpt lat="42.34618" lon="-7.79932">
        <ele>329.4</ele>
        <time>2022-09-30 19:48:33</time>
      </trkpt>
      <trkpt lat="42.34619" lon="-7.79938">
        <ele>329.4</ele>
        <time>2022-09-30 19:48:34</time>
      </trkpt>
      <trkpt lat="42.34624" lon="-7.79956">
        <ele>329.2</ele>
        <time>2022-09-30 19:48:37</time>
      </trkpt>
      <trkpt lat="42.34624" lon="-7.79968">
        <ele>329</ele>
        <time>2022-09-30 19:48:39</time>
      </trkpt>
      <trkpt lat="42.34626" lon="-7.79999">
        <ele>328.8</ele>
        <time>2022-09-30 19:48:45</time>
      </trkpt>
      <trkpt lat="42.34634" lon="-7.80008">
        <ele>328.6</ele>
        <time>2022-09-30 19:48:49</time>
      </trkpt>
      <trkpt lat="42.34643" lon="-7.80009">
        <ele>329</ele>
        <time>2022-09-30 19:48:54</time>
      </trkpt>
      <trkpt lat="42.34645" lon="-7.80005">
        <ele>329.2</ele>
        <time>2022-09-30 19:48:59</time>
      </trkpt>
      <trkpt lat="42.3464" lon="-7.8001">
        <ele>329</ele>
        <time>2022-09-30 19:49:03</time>
      </trkpt>
      <trkpt lat="42.34639" lon="-7.80013">
        <ele>328.8</ele>
        <time>2022-09-30 19:49:04</time>
      </trkpt>
      <trkpt lat="42.34638" lon="-7.80038">
        <ele>328.6</ele>
        <time>2022-09-30 19:49:11</time>
      </trkpt>
      <trkpt lat="42.34639" lon="-7.80052">
        <ele>328.2</ele>
        <time>2022-09-30 19:49:14</time>
      </trkpt>
      <trkpt lat="42.34642" lon="-7.80075">
        <ele>328.2</ele>
        <time>2022-09-30 19:49:19</time>
      </trkpt>
      <trkpt lat="42.34641" lon="-7.80088">
        <ele>328.4</ele>
        <time>2022-09-30 19:49:22</time>
      </trkpt>
      <trkpt lat="42.34644" lon="-7.80097">
        <ele>328.2</ele>
        <time>2022-09-30 19:49:24</time>
      </trkpt>
      <trkpt lat="42.34645" lon="-7.80108">
        <ele>327.4</ele>
        <time>2022-09-30 19:49:27</time>
      </trkpt>
      <trkpt lat="42.34643" lon="-7.80122">
        <ele>327</ele>
        <time>2022-09-30 19:49:30</time>
      </trkpt>
      <trkpt lat="42.3464" lon="-7.80136">
        <ele>326.2</ele>
        <time>2022-09-30 19:49:32</time>
      </trkpt>
      <trkpt lat="42.34637" lon="-7.80143">
        <ele>325.6</ele>
        <time>2022-09-30 19:49:33</time>
      </trkpt>
      <trkpt lat="42.34632" lon="-7.8015">
        <ele>324.6</ele>
        <time>2022-09-30 19:49:34</time>
      </trkpt>
      <trkpt lat="42.34627" lon="-7.80155">
        <ele>323.4</ele>
        <time>2022-09-30 19:49:35</time>
      </trkpt>
      <trkpt lat="42.34623" lon="-7.80162">
        <ele>322.2</ele>
        <time>2022-09-30 19:49:36</time>
      </trkpt>
      <trkpt lat="42.34619" lon="-7.80171">
        <ele>321</ele>
        <time>2022-09-30 19:49:37</time>
      </trkpt>
      <trkpt lat="42.34617" lon="-7.80182">
        <ele>319.6</ele>
        <time>2022-09-30 19:49:38</time>
      </trkpt>
      <trkpt lat="42.34615" lon="-7.80207">
        <ele>318</ele>
        <time>2022-09-30 19:49:40</time>
      </trkpt>
      <trkpt lat="42.34616" lon="-7.80234">
        <ele>316.6</ele>
        <time>2022-09-30 19:49:42</time>
      </trkpt>
      <trkpt lat="42.34616" lon="-7.80247">
        <ele>315.4</ele>
        <time>2022-09-30 19:49:43</time>
      </trkpt>
      <trkpt lat="42.34616" lon="-7.80271">
        <ele>314</ele>
        <time>2022-09-30 19:49:45</time>
      </trkpt>
      <trkpt lat="42.34615" lon="-7.80282">
        <ele>313.8</ele>
        <time>2022-09-30 19:49:46</time>
      </trkpt>
      <trkpt lat="42.34614" lon="-7.80315">
        <ele>313</ele>
        <time>2022-09-30 19:49:49</time>
      </trkpt>
      <trkpt lat="42.34612" lon="-7.80333">
        <ele>312.2</ele>
        <time>2022-09-30 19:49:51</time>
      </trkpt>
      <trkpt lat="42.34603" lon="-7.80358">
        <ele>312.6</ele>
        <time>2022-09-30 19:49:55</time>
      </trkpt>
      <trkpt lat="42.34601" lon="-7.80364">
        <ele>312.8</ele>
        <time>2022-09-30 19:49:56</time>
      </trkpt>
      <trkpt lat="42.34598" lon="-7.80376">
        <ele>313.4</ele>
        <time>2022-09-30 19:49:58</time>
      </trkpt>
      <trkpt lat="42.34597" lon="-7.80392">
        <ele>314</ele>
        <time>2022-09-30 19:50:01</time>
      </trkpt>
      <trkpt lat="42.34599" lon="-7.80397">
        <ele>314</ele>
        <time>2022-09-30 19:50:02</time>
      </trkpt>
      <trkpt lat="42.34605" lon="-7.80404">
        <ele>314.4</ele>
        <time>2022-09-30 19:50:04</time>
      </trkpt>
      <trkpt lat="42.34611" lon="-7.80409">
        <ele>314.8</ele>
        <time>2022-09-30 19:50:06</time>
      </trkpt>
      <trkpt lat="42.34614" lon="-7.8041">
        <ele>315</ele>
        <time>2022-09-30 19:50:07</time>
      </trkpt>
      <trkpt lat="42.34623" lon="-7.80416">
        <ele>315.8</ele>
        <time>2022-09-30 19:50:10</time>
      </trkpt>
      <trkpt lat="42.34631" lon="-7.80424">
        <ele>316.2</ele>
        <time>2022-09-30 19:50:13</time>
      </trkpt>
      <trkpt lat="42.34635" lon="-7.80432">
        <ele>316.8</ele>
        <time>2022-09-30 19:50:15</time>
      </trkpt>
      <trkpt lat="42.34637" lon="-7.8044">
        <ele>317.4</ele>
        <time>2022-09-30 19:50:17</time>
      </trkpt>
      <trkpt lat="42.34641" lon="-7.8045">
        <ele>318.6</ele>
        <time>2022-09-30 19:50:20</time>
      </trkpt>
      <trkpt lat="42.34652" lon="-7.80459">
        <ele>319.4</ele>
        <time>2022-09-30 19:50:25</time>
      </trkpt>
      <trkpt lat="42.34654" lon="-7.80461">
        <ele>319.6</ele>
        <time>2022-09-30 19:50:26</time>
      </trkpt>
      <trkpt lat="42.3466" lon="-7.80467">
        <ele>318.4</ele>
        <time>2022-09-30 19:50:29</time>
      </trkpt>
      <trkpt lat="42.34662" lon="-7.8047">
        <ele>318</ele>
        <time>2022-09-30 19:50:30</time>
      </trkpt>
      <trkpt lat="42.34667" lon="-7.80475">
        <ele>317</ele>
        <time>2022-09-30 19:50:32</time>
      </trkpt>
      <trkpt lat="42.34669" lon="-7.80487">
        <ele>315.6</ele>
        <time>2022-09-30 19:50:35</time>
      </trkpt>
      <trkpt lat="42.3467" lon="-7.80498">
        <ele>314.2</ele>
        <time>2022-09-30 19:50:37</time>
      </trkpt>
      <trkpt lat="42.34672" lon="-7.80508">
        <ele>312.4</ele>
        <time>2022-09-30 19:50:39</time>
      </trkpt>
      <trkpt lat="42.34673" lon="-7.80513">
        <ele>310.4</ele>
        <time>2022-09-30 19:50:40</time>
      </trkpt>
      <trkpt lat="42.34675" lon="-7.80519">
        <ele>309.4</ele>
        <time>2022-09-30 19:50:41</time>
      </trkpt>
      <trkpt lat="42.34676" lon="-7.80524">
        <ele>308.2</ele>
        <time>2022-09-30 19:50:42</time>
      </trkpt>
      <trkpt lat="42.34678" lon="-7.80529">
        <ele>307.2</ele>
        <time>2022-09-30 19:50:43</time>
      </trkpt>
      <trkpt lat="42.34682" lon="-7.80541">
        <ele>305.6</ele>
        <time>2022-09-30 19:50:45</time>
      </trkpt>
      <trkpt lat="42.34684" lon="-7.80547">
        <ele>304.8</ele>
        <time>2022-09-30 19:50:46</time>
      </trkpt>
      <trkpt lat="42.34686" lon="-7.80554">
        <ele>303.8</ele>
        <time>2022-09-30 19:50:47</time>
      </trkpt>
      <trkpt lat="42.34689" lon="-7.80567">
        <ele>302</ele>
        <time>2022-09-30 19:50:49</time>
      </trkpt>
      <trkpt lat="42.34691" lon="-7.80573">
        <ele>301.2</ele>
        <time>2022-09-30 19:50:50</time>
      </trkpt>
      <trkpt lat="42.34692" lon="-7.80577">
        <ele>300.2</ele>
        <time>2022-09-30 19:50:51</time>
      </trkpt>
      <trkpt lat="42.34694" lon="-7.80583">
        <ele>299.6</ele>
        <time>2022-09-30 19:50:52</time>
      </trkpt>
      <trkpt lat="42.34694" lon="-7.8059">
        <ele>298.6</ele>
        <time>2022-09-30 19:50:53</time>
      </trkpt>
      <trkpt lat="42.34694" lon="-7.80598">
        <ele>297.4</ele>
        <time>2022-09-30 19:50:54</time>
      </trkpt>
      <trkpt lat="42.34692" lon="-7.80605">
        <ele>295.8</ele>
        <time>2022-09-30 19:50:55</time>
      </trkpt>
      <trkpt lat="42.34688" lon="-7.80612">
        <ele>294.6</ele>
        <time>2022-09-30 19:50:56</time>
      </trkpt>
      <trkpt lat="42.34683" lon="-7.80617">
        <ele>293.6</ele>
        <time>2022-09-30 19:50:57</time>
      </trkpt>
      <trkpt lat="42.34677" lon="-7.80622">
        <ele>292.8</ele>
        <time>2022-09-30 19:50:58</time>
      </trkpt>
      <trkpt lat="42.34665" lon="-7.80632">
        <ele>291.2</ele>
        <time>2022-09-30 19:51:00</time>
      </trkpt>
      <trkpt lat="42.34661" lon="-7.80638">
        <ele>290.4</ele>
        <time>2022-09-30 19:51:01</time>
      </trkpt>
      <trkpt lat="42.34657" lon="-7.80645">
        <ele>289.8</ele>
        <time>2022-09-30 19:51:02</time>
      </trkpt>
      <trkpt lat="42.34653" lon="-7.80661">
        <ele>287.8</ele>
        <time>2022-09-30 19:51:04</time>
      </trkpt>
      <trkpt lat="42.34656" lon="-7.8068">
        <ele>286.2</ele>
        <time>2022-09-30 19:51:06</time>
      </trkpt>
      <trkpt lat="42.34656" lon="-7.807">
        <ele>284.8</ele>
        <time>2022-09-30 19:51:08</time>
      </trkpt>
      <trkpt lat="42.34665" lon="-7.80713">
        <ele>284</ele>
        <time>2022-09-30 19:51:09</time>
      </trkpt>
      <trkpt lat="42.34668" lon="-7.80726">
        <ele>283.4</ele>
        <time>2022-09-30 19:51:10</time>
      </trkpt>
      <trkpt lat="42.34671" lon="-7.80738">
        <ele>282.4</ele>
        <time>2022-09-30 19:51:11</time>
      </trkpt>
      <trkpt lat="42.34674" lon="-7.8075">
        <ele>281.6</ele>
        <time>2022-09-30 19:51:12</time>
      </trkpt>
      <trkpt lat="42.3468" lon="-7.80774">
        <ele>279.8</ele>
        <time>2022-09-30 19:51:14</time>
      </trkpt>
      <trkpt lat="42.34687" lon="-7.80799">
        <ele>278.2</ele>
        <time>2022-09-30 19:51:16</time>
      </trkpt>
      <trkpt lat="42.3469" lon="-7.80812">
        <ele>277</ele>
        <time>2022-09-30 19:51:17</time>
      </trkpt>
      <trkpt lat="42.34693" lon="-7.80824">
        <ele>275.6</ele>
        <time>2022-09-30 19:51:18</time>
      </trkpt>
      <trkpt lat="42.347" lon="-7.80849">
        <ele>274.2</ele>
        <time>2022-09-30 19:51:20</time>
      </trkpt>
      <trkpt lat="42.34702" lon="-7.8086">
        <ele>273.8</ele>
        <time>2022-09-30 19:51:21</time>
      </trkpt>
      <trkpt lat="42.34706" lon="-7.80876">
        <ele>273.4</ele>
        <time>2022-09-30 19:51:23</time>
      </trkpt>
      <trkpt lat="42.3471" lon="-7.80888">
        <ele>273.8</ele>
        <time>2022-09-30 19:51:25</time>
      </trkpt>
      <trkpt lat="42.34714" lon="-7.80907">
        <ele>273.6</ele>
        <time>2022-09-30 19:51:28</time>
      </trkpt>
      <trkpt lat="42.34717" lon="-7.80923">
        <ele>273</ele>
        <time>2022-09-30 19:51:30</time>
      </trkpt>
      <trkpt lat="42.34722" lon="-7.80949">
        <ele>272.2</ele>
        <time>2022-09-30 19:51:33</time>
      </trkpt>
      <trkpt lat="42.34724" lon="-7.80958">
        <ele>272</ele>
        <time>2022-09-30 19:51:34</time>
      </trkpt>
      <trkpt lat="42.34735" lon="-7.81">
        <ele>271</ele>
        <time>2022-09-30 19:51:39</time>
      </trkpt>
      <trkpt lat="42.3474" lon="-7.81024">
        <ele>270.8</ele>
        <time>2022-09-30 19:51:42</time>
      </trkpt>
      <trkpt lat="42.34749" lon="-7.81057">
        <ele>270.8</ele>
        <time>2022-09-30 19:51:47</time>
      </trkpt>
      <trkpt lat="42.34757" lon="-7.81089">
        <ele>271.4</ele>
        <time>2022-09-30 19:51:53</time>
      </trkpt>
      <trkpt lat="42.3476" lon="-7.81104">
        <ele>272.2</ele>
        <time>2022-09-30 19:51:56</time>
      </trkpt>
      <trkpt lat="42.34766" lon="-7.81125">
        <ele>273.2</ele>
        <time>2022-09-30 19:52:01</time>
      </trkpt>
      <trkpt lat="42.34767" lon="-7.81129">
        <ele>273.4</ele>
        <time>2022-09-30 19:52:02</time>
      </trkpt>
      <trkpt lat="42.34778" lon="-7.81148">
        <ele>274.6</ele>
        <time>2022-09-30 19:52:07</time>
      </trkpt>
      <trkpt lat="42.34794" lon="-7.81161">
        <ele>275.4</ele>
        <time>2022-09-30 19:52:13</time>
      </trkpt>
      <trkpt lat="42.34797" lon="-7.81163">
        <ele>275.6</ele>
        <time>2022-09-30 19:52:14</time>
      </trkpt>
      <trkpt lat="42.34815" lon="-7.81168">
        <ele>276.4</ele>
        <time>2022-09-30 19:52:20</time>
      </trkpt>
      <trkpt lat="42.34833" lon="-7.81172">
        <ele>276.6</ele>
        <time>2022-09-30 19:52:25</time>
      </trkpt>
      <trkpt lat="42.34845" lon="-7.81175">
        <ele>277</ele>
        <time>2022-09-30 19:52:28</time>
      </trkpt>
      <trkpt lat="42.34873" lon="-7.81184">
        <ele>277.4</ele>
        <time>2022-09-30 19:52:35</time>
      </trkpt>
      <trkpt lat="42.34903" lon="-7.81204">
        <ele>277.2</ele>
        <time>2022-09-30 19:52:43</time>
      </trkpt>
      <trkpt lat="42.34913" lon="-7.8122">
        <ele>277.8</ele>
        <time>2022-09-30 19:52:47</time>
      </trkpt>
      <trkpt lat="42.34914" lon="-7.81224">
        <ele>277.8</ele>
        <time>2022-09-30 19:52:48</time>
      </trkpt>
      <trkpt lat="42.34912" lon="-7.81239">
        <ele>278.4</ele>
        <time>2022-09-30 19:52:52</time>
      </trkpt>
      <trkpt lat="42.34908" lon="-7.81245">
        <ele>278.8</ele>
        <time>2022-09-30 19:52:54</time>
      </trkpt>
      <trkpt lat="42.34902" lon="-7.8125">
        <ele>279.2</ele>
        <time>2022-09-30 19:52:56</time>
      </trkpt>
      <trkpt lat="42.34899" lon="-7.81251">
        <ele>279.2</ele>
        <time>2022-09-30 19:52:57</time>
      </trkpt>
      <trkpt lat="42.34887" lon="-7.81259">
        <ele>279.8</ele>
        <time>2022-09-30 19:53:01</time>
      </trkpt>
      <trkpt lat="42.34876" lon="-7.81269">
        <ele>280.2</ele>
        <time>2022-09-30 19:53:05</time>
      </trkpt>
      <trkpt lat="42.34867" lon="-7.81286">
        <ele>280.8</ele>
        <time>2022-09-30 19:53:10</time>
      </trkpt>
      <trkpt lat="42.34866" lon="-7.8129">
        <ele>281</ele>
        <time>2022-09-30 19:53:11</time>
      </trkpt>
      <trkpt lat="42.34864" lon="-7.81305">
        <ele>281.8</ele>
        <time>2022-09-30 19:53:15</time>
      </trkpt>
      <trkpt lat="42.34864" lon="-7.81312">
        <ele>282.2</ele>
        <time>2022-09-30 19:53:17</time>
      </trkpt>
      <trkpt lat="42.34865" lon="-7.81321">
        <ele>282.8</ele>
        <time>2022-09-30 19:53:20</time>
      </trkpt>
      <trkpt lat="42.34866" lon="-7.81324">
        <ele>283</ele>
        <time>2022-09-30 19:53:21</time>
      </trkpt>
      <trkpt lat="42.34869" lon="-7.81329">
        <ele>283.2</ele>
        <time>2022-09-30 19:53:23</time>
      </trkpt>
      <trkpt lat="42.34876" lon="-7.81343">
        <ele>284.2</ele>
        <time>2022-09-30 19:53:28</time>
      </trkpt>
      <trkpt lat="42.34882" lon="-7.81353">
        <ele>284.6</ele>
        <time>2022-09-30 19:53:32</time>
      </trkpt>
      <trkpt lat="42.34889" lon="-7.81362">
        <ele>285.2</ele>
        <time>2022-09-30 19:53:36</time>
      </trkpt>
      <trkpt lat="42.34898" lon="-7.81371">
        <ele>285.8</ele>
        <time>2022-09-30 19:53:40</time>
      </trkpt>
      <trkpt lat="42.34906" lon="-7.81382">
        <ele>286.2</ele>
        <time>2022-09-30 19:53:45</time>
      </trkpt>
      <trkpt lat="42.34919" lon="-7.81395">
        <ele>287</ele>
        <time>2022-09-30 19:53:52</time>
      </trkpt>
      <trkpt lat="42.34923" lon="-7.81403">
        <ele>287.4</ele>
        <time>2022-09-30 19:53:55</time>
      </trkpt>
      <trkpt lat="42.34929" lon="-7.8141">
        <ele>287.8</ele>
        <time>2022-09-30 19:53:58</time>
      </trkpt>
      <trkpt lat="42.34937" lon="-7.81426">
        <ele>288.4</ele>
        <time>2022-09-30 19:54:04</time>
      </trkpt>
      <trkpt lat="42.34947" lon="-7.81444">
        <ele>289</ele>
        <time>2022-09-30 19:54:11</time>
      </trkpt>
      <trkpt lat="42.34953" lon="-7.81459">
        <ele>289.4</ele>
        <time>2022-09-30 19:54:16</time>
      </trkpt>
      <trkpt lat="42.34966" lon="-7.81484">
        <ele>290.2</ele>
        <time>2022-09-30 19:54:25</time>
      </trkpt>
      <trkpt lat="42.34968" lon="-7.8149">
        <ele>290.6</ele>
        <time>2022-09-30 19:54:27</time>
      </trkpt>
      <trkpt lat="42.3497" lon="-7.81504">
        <ele>291</ele>
        <time>2022-09-30 19:54:31</time>
      </trkpt>
      <trkpt lat="42.34971" lon="-7.81526">
        <ele>291.6</ele>
        <time>2022-09-30 19:54:37</time>
      </trkpt>
      <trkpt lat="42.3497" lon="-7.81529">
        <ele>291.6</ele>
        <time>2022-09-30 19:54:38</time>
      </trkpt>
      <trkpt lat="42.3497" lon="-7.81531">
        <ele>291.8</ele>
        <time>2022-09-30 19:54:39</time>
      </trkpt>
      <trkpt lat="42.34973" lon="-7.8154">
        <ele>292.2</ele>
        <time>2022-09-30 19:54:44</time>
      </trkpt>
      <trkpt lat="42.34974" lon="-7.81543">
        <ele>292.6</ele>
        <time>2022-09-30 19:54:46</time>
      </trkpt>
      <trkpt lat="42.34978" lon="-7.81553">
        <ele>293</ele>
        <time>2022-09-30 19:54:51</time>
      </trkpt>
      <trkpt lat="42.3498" lon="-7.81557">
        <ele>293.2</ele>
        <time>2022-09-30 19:54:53</time>
      </trkpt>
      <trkpt lat="42.3498" lon="-7.81559">
        <ele>293.2</ele>
        <time>2022-09-30 19:54:54</time>
      </trkpt>
      <trkpt lat="42.34983" lon="-7.81564">
        <ele>293.4</ele>
        <time>2022-09-30 19:54:56</time>
      </trkpt>
      <trkpt lat="42.34985" lon="-7.81569">
        <ele>293.6</ele>
        <time>2022-09-30 19:54:58</time>
      </trkpt>
      <trkpt lat="42.34987" lon="-7.81572">
        <ele>293.6</ele>
        <time>2022-09-30 19:54:59</time>
      </trkpt>
      <trkpt lat="42.34992" lon="-7.8158">
        <ele>294</ele>
        <time>2022-09-30 19:55:03</time>
      </trkpt>
      <trkpt lat="42.34997" lon="-7.8159">
        <ele>294</ele>
        <time>2022-09-30 19:55:08</time>
      </trkpt>
      <trkpt lat="42.34999" lon="-7.81592">
        <ele>294</ele>
        <time>2022-09-30 19:55:09</time>
      </trkpt>
      <trkpt lat="42.35006" lon="-7.81601">
        <ele>294.2</ele>
        <time>2022-09-30 19:55:13</time>
      </trkpt>
      <trkpt lat="42.35014" lon="-7.81615">
        <ele>294.2</ele>
        <time>2022-09-30 19:55:20</time>
      </trkpt>
      <trkpt lat="42.35025" lon="-7.81634">
        <ele>294.6</ele>
        <time>2022-09-30 19:55:26</time>
      </trkpt>
      <trkpt lat="42.35027" lon="-7.81637">
        <ele>294.6</ele>
        <time>2022-09-30 19:55:27</time>
      </trkpt>
      <trkpt lat="42.35041" lon="-7.81655">
        <ele>294.8</ele>
        <time>2022-09-30 19:55:33</time>
      </trkpt>
      <trkpt lat="42.35061" lon="-7.81678">
        <ele>294.4</ele>
        <time>2022-09-30 19:55:41</time>
      </trkpt>
      <trkpt lat="42.35075" lon="-7.81702">
        <ele>294.6</ele>
        <time>2022-09-30 19:55:47</time>
      </trkpt>
      <trkpt lat="42.35075" lon="-7.81722">
        <ele>295</ele>
        <time>2022-09-30 19:55:51</time>
      </trkpt>
      <trkpt lat="42.3507" lon="-7.81739">
        <ele>295.6</ele>
        <time>2022-09-30 19:55:55</time>
      </trkpt>
      <trkpt lat="42.35067" lon="-7.81747">
        <ele>296</ele>
        <time>2022-09-30 19:55:57</time>
      </trkpt>
      <trkpt lat="42.35061" lon="-7.81762">
        <ele>296.8</ele>
        <time>2022-09-30 19:56:01</time>
      </trkpt>
      <trkpt lat="42.35057" lon="-7.81773">
        <ele>297.2</ele>
        <time>2022-09-30 19:56:04</time>
      </trkpt>
      <trkpt lat="42.35052" lon="-7.81789">
        <ele>297.8</ele>
        <time>2022-09-30 19:56:08</time>
      </trkpt>
      <trkpt lat="42.35051" lon="-7.81803">
        <ele>298</ele>
        <time>2022-09-30 19:56:11</time>
      </trkpt>
      <trkpt lat="42.35053" lon="-7.81841">
        <ele>298.2</ele>
        <time>2022-09-30 19:56:18</time>
      </trkpt>
      <trkpt lat="42.35062" lon="-7.81872">
        <ele>298.2</ele>
        <time>2022-09-30 19:56:24</time>
      </trkpt>
      <trkpt lat="42.35075" lon="-7.81898">
        <ele>298.2</ele>
        <time>2022-09-30 19:56:31</time>
      </trkpt>
      <trkpt lat="42.35094" lon="-7.81922">
        <ele>297.8</ele>
        <time>2022-09-30 19:56:38</time>
      </trkpt>
      <trkpt lat="42.35115" lon="-7.81935">
        <ele>297.2</ele>
        <time>2022-09-30 19:56:44</time>
      </trkpt>
      <trkpt lat="42.3513" lon="-7.8194">
        <ele>296.8</ele>
        <time>2022-09-30 19:56:48</time>
      </trkpt>
      <trkpt lat="42.35138" lon="-7.81942">
        <ele>296.6</ele>
        <time>2022-09-30 19:56:50</time>
      </trkpt>
      <trkpt lat="42.35159" lon="-7.8195">
        <ele>295.8</ele>
        <time>2022-09-30 19:56:55</time>
      </trkpt>
      <trkpt lat="42.35169" lon="-7.81952">
        <ele>295.2</ele>
        <time>2022-09-30 19:56:57</time>
      </trkpt>
      <trkpt lat="42.3518" lon="-7.81956">
        <ele>294.6</ele>
        <time>2022-09-30 19:56:59</time>
      </trkpt>
      <trkpt lat="42.35194" lon="-7.81963">
        <ele>294.4</ele>
        <time>2022-09-30 19:57:02</time>
      </trkpt>
      <trkpt lat="42.35203" lon="-7.8197">
        <ele>294.2</ele>
        <time>2022-09-30 19:57:04</time>
      </trkpt>
      <trkpt lat="42.35211" lon="-7.81984">
        <ele>294.6</ele>
        <time>2022-09-30 19:57:07</time>
      </trkpt>
      <trkpt lat="42.35214" lon="-7.81989">
        <ele>294.8</ele>
        <time>2022-09-30 19:57:08</time>
      </trkpt>
      <trkpt lat="42.3522" lon="-7.82017">
        <ele>295.2</ele>
        <time>2022-09-30 19:57:13</time>
      </trkpt>
      <trkpt lat="42.35213" lon="-7.82042">
        <ele>295.2</ele>
        <time>2022-09-30 19:57:17</time>
      </trkpt>
      <trkpt lat="42.35205" lon="-7.82052">
        <ele>295</ele>
        <time>2022-09-30 19:57:19</time>
      </trkpt>
      <trkpt lat="42.35201" lon="-7.82057">
        <ele>294.8</ele>
        <time>2022-09-30 19:57:20</time>
      </trkpt>
      <trkpt lat="42.35197" lon="-7.82061">
        <ele>294.8</ele>
        <time>2022-09-30 19:57:21</time>
      </trkpt>
      <trkpt lat="42.3517" lon="-7.82091">
        <ele>293.6</ele>
        <time>2022-09-30 19:57:27</time>
      </trkpt>
      <trkpt lat="42.35161" lon="-7.82102">
        <ele>293</ele>
        <time>2022-09-30 19:57:29</time>
      </trkpt>
      <trkpt lat="42.35152" lon="-7.82122">
        <ele>293</ele>
        <time>2022-09-30 19:57:32</time>
      </trkpt>
      <trkpt lat="42.35133" lon="-7.82171">
        <ele>294</ele>
        <time>2022-09-30 19:57:40</time>
      </trkpt>
      <trkpt lat="42.35132" lon="-7.82176">
        <ele>294.2</ele>
        <time>2022-09-30 19:57:41</time>
      </trkpt>
      <trkpt lat="42.3513" lon="-7.82187">
        <ele>294.6</ele>
        <time>2022-09-30 19:57:43</time>
      </trkpt>
      <trkpt lat="42.35127" lon="-7.82196">
        <ele>295</ele>
        <time>2022-09-30 19:57:45</time>
      </trkpt>
      <trkpt lat="42.35117" lon="-7.82207">
        <ele>295.2</ele>
        <time>2022-09-30 19:57:49</time>
      </trkpt>
      <trkpt lat="42.35105" lon="-7.82216">
        <ele>295.6</ele>
        <time>2022-09-30 19:57:53</time>
      </trkpt>
      <trkpt lat="42.35092" lon="-7.82226">
        <ele>296.2</ele>
        <time>2022-09-30 19:57:57</time>
      </trkpt>
      <trkpt lat="42.3508" lon="-7.82234">
        <ele>296.8</ele>
        <time>2022-09-30 19:58:01</time>
      </trkpt>
      <trkpt lat="42.35074" lon="-7.82239">
        <ele>297.2</ele>
        <time>2022-09-30 19:58:03</time>
      </trkpt>
      <trkpt lat="42.35051" lon="-7.8226">
        <ele>297.8</ele>
        <time>2022-09-30 19:58:11</time>
      </trkpt>
      <trkpt lat="42.35046" lon="-7.82265">
        <ele>298</ele>
        <time>2022-09-30 19:58:13</time>
      </trkpt>
      <trkpt lat="42.35028" lon="-7.82279">
        <ele>298</ele>
        <time>2022-09-30 19:58:19</time>
      </trkpt>
      <trkpt lat="42.35017" lon="-7.82288">
        <ele>297.8</ele>
        <time>2022-09-30 19:58:22</time>
      </trkpt>
      <trkpt lat="42.35008" lon="-7.82297">
        <ele>297.4</ele>
        <time>2022-09-30 19:58:24</time>
      </trkpt>
      <trkpt lat="42.34997" lon="-7.82305">
        <ele>296.8</ele>
        <time>2022-09-30 19:58:26</time>
      </trkpt>
      <trkpt lat="42.34984" lon="-7.82317">
        <ele>295.8</ele>
        <time>2022-09-30 19:58:28</time>
      </trkpt>
      <trkpt lat="42.34977" lon="-7.82323">
        <ele>295.4</ele>
        <time>2022-09-30 19:58:29</time>
      </trkpt>
      <trkpt lat="42.3497" lon="-7.82331">
        <ele>294.8</ele>
        <time>2022-09-30 19:58:30</time>
      </trkpt>
      <trkpt lat="42.34964" lon="-7.8234">
        <ele>294.2</ele>
        <time>2022-09-30 19:58:31</time>
      </trkpt>
      <trkpt lat="42.34957" lon="-7.8235">
        <ele>293.4</ele>
        <time>2022-09-30 19:58:32</time>
      </trkpt>
      <trkpt lat="42.3495" lon="-7.82359">
        <ele>292.8</ele>
        <time>2022-09-30 19:58:33</time>
      </trkpt>
      <trkpt lat="42.34936" lon="-7.82377">
        <ele>291.6</ele>
        <time>2022-09-30 19:58:35</time>
      </trkpt>
      <trkpt lat="42.34925" lon="-7.82395">
        <ele>290.8</ele>
        <time>2022-09-30 19:58:37</time>
      </trkpt>
      <trkpt lat="42.34922" lon="-7.82405">
        <ele>290.4</ele>
        <time>2022-09-30 19:58:38</time>
      </trkpt>
      <trkpt lat="42.34921" lon="-7.82416">
        <ele>290</ele>
        <time>2022-09-30 19:58:39</time>
      </trkpt>
      <trkpt lat="42.34922" lon="-7.82433">
        <ele>289.4</ele>
        <time>2022-09-30 19:58:41</time>
      </trkpt>
      <trkpt lat="42.34924" lon="-7.8244">
        <ele>289.2</ele>
        <time>2022-09-30 19:58:42</time>
      </trkpt>
      <trkpt lat="42.3493" lon="-7.82456">
        <ele>288.6</ele>
        <time>2022-09-30 19:58:44</time>
      </trkpt>
      <trkpt lat="42.34934" lon="-7.82465">
        <ele>288</ele>
        <time>2022-09-30 19:58:45</time>
      </trkpt>
      <trkpt lat="42.34937" lon="-7.82474">
        <ele>287.6</ele>
        <time>2022-09-30 19:58:46</time>
      </trkpt>
      <trkpt lat="42.34946" lon="-7.82494">
        <ele>287</ele>
        <time>2022-09-30 19:58:48</time>
      </trkpt>
      <trkpt lat="42.34956" lon="-7.82515">
        <ele>285.4</ele>
        <time>2022-09-30 19:58:50</time>
      </trkpt>
      <trkpt lat="42.34962" lon="-7.82526">
        <ele>284.6</ele>
        <time>2022-09-30 19:58:51</time>
      </trkpt>
      <trkpt lat="42.34968" lon="-7.82537">
        <ele>284</ele>
        <time>2022-09-30 19:58:52</time>
      </trkpt>
      <trkpt lat="42.34981" lon="-7.82561">
        <ele>282.6</ele>
        <time>2022-09-30 19:58:54</time>
      </trkpt>
      <trkpt lat="42.34985" lon="-7.82575">
        <ele>281.8</ele>
        <time>2022-09-30 19:58:55</time>
      </trkpt>
      <trkpt lat="42.34989" lon="-7.82591">
        <ele>280.8</ele>
        <time>2022-09-30 19:58:56</time>
      </trkpt>
      <trkpt lat="42.34993" lon="-7.82606">
        <ele>279.8</ele>
        <time>2022-09-30 19:58:57</time>
      </trkpt>
      <trkpt lat="42.34999" lon="-7.82634">
        <ele>278</ele>
        <time>2022-09-30 19:58:59</time>
      </trkpt>
      <trkpt lat="42.34999" lon="-7.82646">
        <ele>277</ele>
        <time>2022-09-30 19:59:00</time>
      </trkpt>
      <trkpt lat="42.34994" lon="-7.82656">
        <ele>276.4</ele>
        <time>2022-09-30 19:59:01</time>
      </trkpt>
      <trkpt lat="42.34987" lon="-7.82665">
        <ele>276</ele>
        <time>2022-09-30 19:59:02</time>
      </trkpt>
      <trkpt lat="42.34957" lon="-7.82683">
        <ele>274.2</ele>
        <time>2022-09-30 19:59:04</time>
      </trkpt>
      <trkpt lat="42.34944" lon="-7.82693">
        <ele>273.4</ele>
        <time>2022-09-30 19:59:05</time>
      </trkpt>
      <trkpt lat="42.34933" lon="-7.82703">
        <ele>272.4</ele>
        <time>2022-09-30 19:59:06</time>
      </trkpt>
      <trkpt lat="42.34923" lon="-7.82713">
        <ele>271.2</ele>
        <time>2022-09-30 19:59:07</time>
      </trkpt>
      <trkpt lat="42.34915" lon="-7.82725">
        <ele>270.2</ele>
        <time>2022-09-30 19:59:08</time>
      </trkpt>
      <trkpt lat="42.34908" lon="-7.82739">
        <ele>269.2</ele>
        <time>2022-09-30 19:59:09</time>
      </trkpt>
      <trkpt lat="42.34902" lon="-7.82753">
        <ele>268.2</ele>
        <time>2022-09-30 19:59:10</time>
      </trkpt>
      <trkpt lat="42.3489" lon="-7.82781">
        <ele>266.4</ele>
        <time>2022-09-30 19:59:12</time>
      </trkpt>
      <trkpt lat="42.34884" lon="-7.82793">
        <ele>265.6</ele>
        <time>2022-09-30 19:59:13</time>
      </trkpt>
      <trkpt lat="42.34877" lon="-7.82803">
        <ele>264.4</ele>
        <time>2022-09-30 19:59:14</time>
      </trkpt>
      <trkpt lat="42.3487" lon="-7.82812">
        <ele>263.2</ele>
        <time>2022-09-30 19:59:15</time>
      </trkpt>
      <trkpt lat="42.34864" lon="-7.82819">
        <ele>262</ele>
        <time>2022-09-30 19:59:16</time>
      </trkpt>
      <trkpt lat="42.34859" lon="-7.82826">
        <ele>260.8</ele>
        <time>2022-09-30 19:59:17</time>
      </trkpt>
      <trkpt lat="42.34854" lon="-7.82843">
        <ele>259</ele>
        <time>2022-09-30 19:59:19</time>
      </trkpt>
      <trkpt lat="42.34856" lon="-7.82861">
        <ele>257.6</ele>
        <time>2022-09-30 19:59:21</time>
      </trkpt>
      <trkpt lat="42.34858" lon="-7.8287">
        <ele>256.8</ele>
        <time>2022-09-30 19:59:22</time>
      </trkpt>
      <trkpt lat="42.34862" lon="-7.82878">
        <ele>256</ele>
        <time>2022-09-30 19:59:23</time>
      </trkpt>
      <trkpt lat="42.34865" lon="-7.82886">
        <ele>255</ele>
        <time>2022-09-30 19:59:24</time>
      </trkpt>
      <trkpt lat="42.34867" lon="-7.82894">
        <ele>253.8</ele>
        <time>2022-09-30 19:59:25</time>
      </trkpt>
      <trkpt lat="42.34868" lon="-7.82901">
        <ele>252.8</ele>
        <time>2022-09-30 19:59:26</time>
      </trkpt>
      <trkpt lat="42.34869" lon="-7.82908">
        <ele>251.8</ele>
        <time>2022-09-30 19:59:27</time>
      </trkpt>
      <trkpt lat="42.34869" lon="-7.82913">
        <ele>249.8</ele>
        <time>2022-09-30 19:59:28</time>
      </trkpt>
      <trkpt lat="42.34869" lon="-7.8292">
        <ele>248.6</ele>
        <time>2022-09-30 19:59:30</time>
      </trkpt>
      <trkpt lat="42.34862" lon="-7.82924">
        <ele>247.2</ele>
        <time>2022-09-30 19:59:33</time>
      </trkpt>
      <trkpt lat="42.34858" lon="-7.82927">
        <ele>246.8</ele>
        <time>2022-09-30 19:59:34</time>
      </trkpt>
      <trkpt lat="42.34854" lon="-7.82929">
        <ele>246.2</ele>
        <time>2022-09-30 19:59:35</time>
      </trkpt>
      <trkpt lat="42.3485" lon="-7.82931">
        <ele>245.6</ele>
        <time>2022-09-30 19:59:36</time>
      </trkpt>
      <trkpt lat="42.34839" lon="-7.82938">
        <ele>244.4</ele>
        <time>2022-09-30 19:59:39</time>
      </trkpt>
      <trkpt lat="42.3483" lon="-7.82949">
        <ele>243.4</ele>
        <time>2022-09-30 19:59:42</time>
      </trkpt>
      <trkpt lat="42.34825" lon="-7.82956">
        <ele>242.6</ele>
        <time>2022-09-30 19:59:44</time>
      </trkpt>
      <trkpt lat="42.3482" lon="-7.82962">
        <ele>242</ele>
        <time>2022-09-30 19:59:46</time>
      </trkpt>
      <trkpt lat="42.34812" lon="-7.82972">
        <ele>241</ele>
        <time>2022-09-30 19:59:50</time>
      </trkpt>
      <trkpt lat="42.34811" lon="-7.82975">
        <ele>240.8</ele>
        <time>2022-09-30 19:59:51</time>
      </trkpt>
      <trkpt lat="42.34807" lon="-7.82986">
        <ele>239.4</ele>
        <time>2022-09-30 19:59:54</time>
      </trkpt>
      <trkpt lat="42.34805" lon="-7.82994">
        <ele>238.4</ele>
        <time>2022-09-30 19:59:56</time>
      </trkpt>
      <trkpt lat="42.34802" lon="-7.83003">
        <ele>237.2</ele>
        <time>2022-09-30 19:59:58</time>
      </trkpt>
      <trkpt lat="42.34799" lon="-7.83011">
        <ele>235.8</ele>
        <time>2022-09-30 20:00:00</time>
      </trkpt>
      <trkpt lat="42.34796" lon="-7.83018">
        <ele>234.4</ele>
        <time>2022-09-30 20:00:02</time>
      </trkpt>
      <trkpt lat="42.34794" lon="-7.83023">
        <ele>233.8</ele>
        <time>2022-09-30 20:00:03</time>
      </trkpt>
      <trkpt lat="42.34792" lon="-7.83027">
        <ele>233.2</ele>
        <time>2022-09-30 20:00:04</time>
      </trkpt>
      <trkpt lat="42.3479" lon="-7.83033">
        <ele>231.8</ele>
        <time>2022-09-30 20:00:06</time>
      </trkpt>
      <trkpt lat="42.34787" lon="-7.83036">
        <ele>230.8</ele>
        <time>2022-09-30 20:00:08</time>
      </trkpt>
      <trkpt lat="42.34783" lon="-7.83037">
        <ele>230</ele>
        <time>2022-09-30 20:00:12</time>
      </trkpt>
      <trkpt lat="42.34784" lon="-7.83037">
        <ele>230</ele>
        <time>2022-09-30 20:00:16</time>
      </trkpt>
      <trkpt lat="42.34784" lon="-7.83039">
        <ele>230</ele>
        <time>2022-09-30 20:00:18</time>
      </trkpt>
      <trkpt lat="42.34785" lon="-7.8304">
        <ele>229.8</ele>
        <time>2022-09-30 20:04:02</time>
      </trkpt>
      <trkpt lat="42.34787" lon="-7.83041">
        <ele>230</ele>
        <time>2022-09-30 20:04:15</time>
      </trkpt>
      <trkpt lat="42.34792" lon="-7.83045">
        <ele>229.6</ele>
        <time>2022-09-30 20:04:17</time>
      </trkpt>
      <trkpt lat="42.348" lon="-7.83052">
        <ele>229</ele>
        <time>2022-09-30 20:04:19</time>
      </trkpt>
      <trkpt lat="42.34804" lon="-7.83056">
        <ele>228.4</ele>
        <time>2022-09-30 20:04:20</time>
      </trkpt>
      <trkpt lat="42.34818" lon="-7.83071">
        <ele>227</ele>
        <time>2022-09-30 20:04:23</time>
      </trkpt>
      <trkpt lat="42.34821" lon="-7.83077">
        <ele>226.4</ele>
        <time>2022-09-30 20:04:24</time>
      </trkpt>
      <trkpt lat="42.34824" lon="-7.83083">
        <ele>226</ele>
        <time>2022-09-30 20:04:25</time>
      </trkpt>
      <trkpt lat="42.34827" lon="-7.83088">
        <ele>225.4</ele>
        <time>2022-09-30 20:04:26</time>
      </trkpt>
      <trkpt lat="42.34834" lon="-7.83099">
        <ele>224.8</ele>
        <time>2022-09-30 20:04:28</time>
      </trkpt>
      <trkpt lat="42.34841" lon="-7.83113">
        <ele>224</ele>
        <time>2022-09-30 20:04:30</time>
      </trkpt>
      <trkpt lat="42.34846" lon="-7.83119">
        <ele>223.8</ele>
        <time>2022-09-30 20:04:31</time>
      </trkpt>
      <trkpt lat="42.3485" lon="-7.83123">
        <ele>223.4</ele>
        <time>2022-09-30 20:04:32</time>
      </trkpt>
      <trkpt lat="42.34857" lon="-7.8313">
        <ele>222.6</ele>
        <time>2022-09-30 20:04:34</time>
      </trkpt>
      <trkpt lat="42.34869" lon="-7.83138">
        <ele>221.6</ele>
        <time>2022-09-30 20:04:38</time>
      </trkpt>
      <trkpt lat="42.34872" lon="-7.83141">
        <ele>221</ele>
        <time>2022-09-30 20:04:40</time>
      </trkpt>
      <trkpt lat="42.34882" lon="-7.8315">
        <ele>221</ele>
        <time>2022-09-30 20:04:46</time>
      </trkpt>
      <trkpt lat="42.34895" lon="-7.83164">
        <ele>222</ele>
        <time>2022-09-30 20:04:52</time>
      </trkpt>
      <trkpt lat="42.34907" lon="-7.83188">
        <ele>221.2</ele>
        <time>2022-09-30 20:04:58</time>
      </trkpt>
      <trkpt lat="42.34909" lon="-7.83193">
        <ele>220.8</ele>
        <time>2022-09-30 20:04:59</time>
      </trkpt>
      <trkpt lat="42.34913" lon="-7.83205">
        <ele>220.2</ele>
        <time>2022-09-30 20:05:01</time>
      </trkpt>
      <trkpt lat="42.34915" lon="-7.83216">
        <ele>219.4</ele>
        <time>2022-09-30 20:05:03</time>
      </trkpt>
      <trkpt lat="42.34915" lon="-7.83222">
        <ele>218.6</ele>
        <time>2022-09-30 20:05:04</time>
      </trkpt>
      <trkpt lat="42.34914" lon="-7.83239">
        <ele>217.2</ele>
        <time>2022-09-30 20:05:07</time>
      </trkpt>
      <trkpt lat="42.34912" lon="-7.83243">
        <ele>216.8</ele>
        <time>2022-09-30 20:05:08</time>
      </trkpt>
      <trkpt lat="42.34907" lon="-7.83248">
        <ele>216</ele>
        <time>2022-09-30 20:05:10</time>
      </trkpt>
      <trkpt lat="42.34904" lon="-7.8325">
        <ele>215.6</ele>
        <time>2022-09-30 20:05:11</time>
      </trkpt>
      <trkpt lat="42.34903" lon="-7.83252">
        <ele>215</ele>
        <time>2022-09-30 20:05:12</time>
      </trkpt>
      <trkpt lat="42.34899" lon="-7.83259">
        <ele>213.8</ele>
        <time>2022-09-30 20:05:15</time>
      </trkpt>
      <trkpt lat="42.34897" lon="-7.83263">
        <ele>213</ele>
        <time>2022-09-30 20:05:17</time>
      </trkpt>
      <trkpt lat="42.34896" lon="-7.83265">
        <ele>212.8</ele>
        <time>2022-09-30 20:05:18</time>
      </trkpt>
      <trkpt lat="42.34899" lon="-7.83278">
        <ele>211.6</ele>
        <time>2022-09-30 20:05:22</time>
      </trkpt>
      <trkpt lat="42.34905" lon="-7.83293">
        <ele>210.8</ele>
        <time>2022-09-30 20:05:25</time>
      </trkpt>
      <trkpt lat="42.34909" lon="-7.83302">
        <ele>210.6</ele>
        <time>2022-09-30 20:05:27</time>
      </trkpt>
      <trkpt lat="42.3491" lon="-7.83307">
        <ele>210.4</ele>
        <time>2022-09-30 20:05:28</time>
      </trkpt>
      <trkpt lat="42.34911" lon="-7.83327">
        <ele>210.6</ele>
        <time>2022-09-30 20:05:32</time>
      </trkpt>
      <trkpt lat="42.34907" lon="-7.83357">
        <ele>210</ele>
        <time>2022-09-30 20:05:38</time>
      </trkpt>
      <trkpt lat="42.34912" lon="-7.83373">
        <ele>209.8</ele>
        <time>2022-09-30 20:05:43</time>
      </trkpt>
      <trkpt lat="42.3492" lon="-7.83383">
        <ele>209.2</ele>
        <time>2022-09-30 20:05:47</time>
      </trkpt>
      <trkpt lat="42.34922" lon="-7.83386">
        <ele>208.8</ele>
        <time>2022-09-30 20:05:48</time>
      </trkpt>
      <trkpt lat="42.34927" lon="-7.83392">
        <ele>208</ele>
        <time>2022-09-30 20:05:51</time>
      </trkpt>
      <trkpt lat="42.3493" lon="-7.83396">
        <ele>207</ele>
        <time>2022-09-30 20:05:53</time>
      </trkpt>
      <trkpt lat="42.34931" lon="-7.83399">
        <ele>206.4</ele>
        <time>2022-09-30 20:05:54</time>
      </trkpt>
      <trkpt lat="42.34933" lon="-7.83401">
        <ele>205.8</ele>
        <time>2022-09-30 20:05:55</time>
      </trkpt>
      <trkpt lat="42.34936" lon="-7.83407">
        <ele>204.8</ele>
        <time>2022-09-30 20:05:57</time>
      </trkpt>
      <trkpt lat="42.34942" lon="-7.83412">
        <ele>203.6</ele>
        <time>2022-09-30 20:06:00</time>
      </trkpt>
      <trkpt lat="42.34948" lon="-7.83421">
        <ele>202.4</ele>
        <time>2022-09-30 20:06:04</time>
      </trkpt>
      <trkpt lat="42.34959" lon="-7.83429">
        <ele>201</ele>
        <time>2022-09-30 20:06:09</time>
      </trkpt>
      <trkpt lat="42.3496" lon="-7.83431">
        <ele>200.6</ele>
        <time>2022-09-30 20:06:10</time>
      </trkpt>
      <trkpt lat="42.34963" lon="-7.83437">
        <ele>199.6</ele>
        <time>2022-09-30 20:06:13</time>
      </trkpt>
      <trkpt lat="42.34965" lon="-7.83443">
        <ele>198.4</ele>
        <time>2022-09-30 20:06:16</time>
      </trkpt>
      <trkpt lat="42.34966" lon="-7.8345">
        <ele>197.4</ele>
        <time>2022-09-30 20:06:20</time>
      </trkpt>
      <trkpt lat="42.34966" lon="-7.83455">
        <ele>196.4</ele>
        <time>2022-09-30 20:06:23</time>
      </trkpt>
      <trkpt lat="42.34965" lon="-7.83457">
        <ele>196</ele>
        <time>2022-09-30 20:06:24</time>
      </trkpt>
      <trkpt lat="42.34965" lon="-7.83465">
        <ele>194.6</ele>
        <time>2022-09-30 20:06:27</time>
      </trkpt>
      <trkpt lat="42.34966" lon="-7.83471">
        <ele>193.4</ele>
        <time>2022-09-30 20:06:30</time>
      </trkpt>
      <trkpt lat="42.34967" lon="-7.8348">
        <ele>192.4</ele>
        <time>2022-09-30 20:06:34</time>
      </trkpt>
      <trkpt lat="42.34966" lon="-7.83485">
        <ele>191.8</ele>
        <time>2022-09-30 20:06:36</time>
      </trkpt>
      <trkpt lat="42.34966" lon="-7.83487">
        <ele>191.4</ele>
        <time>2022-09-30 20:06:37</time>
      </trkpt>
      <trkpt lat="42.34964" lon="-7.83494">
        <ele>190.2</ele>
        <time>2022-09-30 20:06:40</time>
      </trkpt>
      <trkpt lat="42.34964" lon="-7.83498">
        <ele>189</ele>
        <time>2022-09-30 20:06:42</time>
      </trkpt>
      <trkpt lat="42.34963" lon="-7.83499">
        <ele>188.6</ele>
        <time>2022-09-30 20:06:43</time>
      </trkpt>
      <trkpt lat="42.34963" lon="-7.83502">
        <ele>188</ele>
        <time>2022-09-30 20:06:46</time>
      </trkpt>
      <trkpt lat="42.34962" lon="-7.83504">
        <ele>187.6</ele>
        <time>2022-09-30 20:06:47</time>
      </trkpt>
      <trkpt lat="42.34963" lon="-7.83506">
        <ele>187.4</ele>
        <time>2022-09-30 20:06:48</time>
      </trkpt>
      <trkpt lat="42.34964" lon="-7.8351">
        <ele>186.6</ele>
        <time>2022-09-30 20:06:50</time>
      </trkpt>
      <trkpt lat="42.34963" lon="-7.83514">
        <ele>185.6</ele>
        <time>2022-09-30 20:06:53</time>
      </trkpt>
      <trkpt lat="42.34962" lon="-7.83517">
        <ele>185</ele>
        <time>2022-09-30 20:06:55</time>
      </trkpt>
      <trkpt lat="42.34961" lon="-7.8352">
        <ele>184.2</ele>
        <time>2022-09-30 20:06:57</time>
      </trkpt>
      <trkpt lat="42.34959" lon="-7.83525">
        <ele>183.2</ele>
        <time>2022-09-30 20:07:00</time>
      </trkpt>
      <trkpt lat="42.34958" lon="-7.83526">
        <ele>183</ele>
        <time>2022-09-30 20:07:01</time>
      </trkpt>
      <trkpt lat="42.34958" lon="-7.83529">
        <ele>182.4</ele>
        <time>2022-09-30 20:07:02</time>
      </trkpt>
      <trkpt lat="42.34958" lon="-7.83532">
        <ele>181.8</ele>
        <time>2022-09-30 20:07:04</time>
      </trkpt>
      <trkpt lat="42.34959" lon="-7.83534">
        <ele>181.2</ele>
        <time>2022-09-30 20:07:05</time>
      </trkpt>
      <trkpt lat="42.3496" lon="-7.83538">
        <ele>180.4</ele>
        <time>2022-09-30 20:07:07</time>
      </trkpt>
      <trkpt lat="42.34963" lon="-7.83542">
        <ele>179.6</ele>
        <time>2022-09-30 20:07:09</time>
      </trkpt>
      <trkpt lat="42.34964" lon="-7.83543">
        <ele>179.2</ele>
        <time>2022-09-30 20:07:10</time>
      </trkpt>
      <trkpt lat="42.34965" lon="-7.83546">
        <ele>179</ele>
        <time>2022-09-30 20:07:11</time>
      </trkpt>
      <trkpt lat="42.34965" lon="-7.83552">
        <ele>178.4</ele>
        <time>2022-09-30 20:07:14</time>
      </trkpt>
      <trkpt lat="42.34964" lon="-7.83554">
        <ele>178.2</ele>
        <time>2022-09-30 20:07:15</time>
      </trkpt>
      <trkpt lat="42.34959" lon="-7.83559">
        <ele>177.2</ele>
        <time>2022-09-30 20:07:18</time>
      </trkpt>
      <trkpt lat="42.34957" lon="-7.8356">
        <ele>176.8</ele>
        <time>2022-09-30 20:07:19</time>
      </trkpt>
      <trkpt lat="42.34954" lon="-7.83563">
        <ele>176</ele>
        <time>2022-09-30 20:07:21</time>
      </trkpt>
      <trkpt lat="42.34948" lon="-7.83567">
        <ele>174.8</ele>
        <time>2022-09-30 20:07:24</time>
      </trkpt>
      <trkpt lat="42.34946" lon="-7.83569">
        <ele>174.4</ele>
        <time>2022-09-30 20:07:25</time>
      </trkpt>
      <trkpt lat="42.34941" lon="-7.83571">
        <ele>173.6</ele>
        <time>2022-09-30 20:07:28</time>
      </trkpt>
      <trkpt lat="42.3494" lon="-7.83572">
        <ele>173</ele>
        <time>2022-09-30 20:07:29</time>
      </trkpt>
      <trkpt lat="42.34939" lon="-7.83574">
        <ele>172.6</ele>
        <time>2022-09-30 20:07:30</time>
      </trkpt>
      <trkpt lat="42.34937" lon="-7.8358">
        <ele>171.4</ele>
        <time>2022-09-30 20:07:34</time>
      </trkpt>
      <trkpt lat="42.34936" lon="-7.83581">
        <ele>171</ele>
        <time>2022-09-30 20:07:35</time>
      </trkpt>
      <trkpt lat="42.34936" lon="-7.83583">
        <ele>170.8</ele>
        <time>2022-09-30 20:07:36</time>
      </trkpt>
      <trkpt lat="42.34935" lon="-7.83586">
        <ele>170.2</ele>
        <time>2022-09-30 20:07:38</time>
      </trkpt>
      <trkpt lat="42.34934" lon="-7.83591">
        <ele>169</ele>
        <time>2022-09-30 20:07:41</time>
      </trkpt>
      <trkpt lat="42.34935" lon="-7.83595">
        <ele>167.8</ele>
        <time>2022-09-30 20:07:45</time>
      </trkpt>
      <trkpt lat="42.34935" lon="-7.836">
        <ele>167</ele>
        <time>2022-09-30 20:07:48</time>
      </trkpt>
      <trkpt lat="42.34936" lon="-7.83602">
        <ele>166.6</ele>
        <time>2022-09-30 20:07:49</time>
      </trkpt>
      <trkpt lat="42.34935" lon="-7.83609">
        <ele>165.2</ele>
        <time>2022-09-30 20:07:52</time>
      </trkpt>
      <trkpt lat="42.34935" lon="-7.83615">
        <ele>164</ele>
        <time>2022-09-30 20:07:54</time>
      </trkpt>
      <trkpt lat="42.34933" lon="-7.83623">
        <ele>162.6</ele>
        <time>2022-09-30 20:07:57</time>
      </trkpt>
      <trkpt lat="42.34932" lon="-7.83628">
        <ele>162</ele>
        <time>2022-09-30 20:07:59</time>
      </trkpt>
      <trkpt lat="42.34931" lon="-7.83635">
        <ele>161.2</ele>
        <time>2022-09-30 20:08:01</time>
      </trkpt>
      <trkpt lat="42.34931" lon="-7.83647">
        <ele>160</ele>
        <time>2022-09-30 20:08:05</time>
      </trkpt>
      <trkpt lat="42.3493" lon="-7.83655">
        <ele>159.2</ele>
        <time>2022-09-30 20:08:08</time>
      </trkpt>
      <trkpt lat="42.3493" lon="-7.83657">
        <ele>158.8</ele>
        <time>2022-09-30 20:08:09</time>
      </trkpt>
      <trkpt lat="42.3493" lon="-7.8366">
        <ele>158.6</ele>
        <time>2022-09-30 20:08:10</time>
      </trkpt>
      <trkpt lat="42.34929" lon="-7.83669">
        <ele>157.8</ele>
        <time>2022-09-30 20:08:14</time>
      </trkpt>
      <trkpt lat="42.34929" lon="-7.83671">
        <ele>157.4</ele>
        <time>2022-09-30 20:08:15</time>
      </trkpt>
      <trkpt lat="42.34929" lon="-7.83677">
        <ele>156.6</ele>
        <time>2022-09-30 20:08:17</time>
      </trkpt>
      <trkpt lat="42.34928" lon="-7.83685">
        <ele>155.8</ele>
        <time>2022-09-30 20:08:20</time>
      </trkpt>
      <trkpt lat="42.34927" lon="-7.83691">
        <ele>155.2</ele>
        <time>2022-09-30 20:08:22</time>
      </trkpt>
      <trkpt lat="42.34927" lon="-7.83694">
        <ele>154.8</ele>
        <time>2022-09-30 20:08:24</time>
      </trkpt>
      <trkpt lat="42.34925" lon="-7.83701">
        <ele>154.2</ele>
        <time>2022-09-30 20:08:27</time>
      </trkpt>
      <trkpt lat="42.34922" lon="-7.83707">
        <ele>153.4</ele>
        <time>2022-09-30 20:08:30</time>
      </trkpt>
      <trkpt lat="42.34919" lon="-7.83713">
        <ele>153</ele>
        <time>2022-09-30 20:08:32</time>
      </trkpt>
      <trkpt lat="42.34917" lon="-7.8372">
        <ele>152.4</ele>
        <time>2022-09-30 20:08:35</time>
      </trkpt>
      <trkpt lat="42.34915" lon="-7.83725">
        <ele>151.8</ele>
        <time>2022-09-30 20:08:38</time>
      </trkpt>
      <trkpt lat="42.34912" lon="-7.83731">
        <ele>150.8</ele>
        <time>2022-09-30 20:08:41</time>
      </trkpt>
      <trkpt lat="42.34907" lon="-7.83743">
        <ele>149.4</ele>
        <time>2022-09-30 20:08:48</time>
      </trkpt>
      <trkpt lat="42.34905" lon="-7.83746">
        <ele>149.2</ele>
        <time>2022-09-30 20:08:49</time>
      </trkpt>
      <trkpt lat="42.349" lon="-7.83758">
        <ele>148.2</ele>
        <time>2022-09-30 20:08:53</time>
      </trkpt>
      <trkpt lat="42.34898" lon="-7.8376">
        <ele>148</ele>
        <time>2022-09-30 20:08:54</time>
      </trkpt>
      <trkpt lat="42.34896" lon="-7.83768">
        <ele>147.2</ele>
        <time>2022-09-30 20:08:57</time>
      </trkpt>
      <trkpt lat="42.34894" lon="-7.83775">
        <ele>146.4</ele>
        <time>2022-09-30 20:09:00</time>
      </trkpt>
      <trkpt lat="42.34891" lon="-7.83783">
        <ele>145.8</ele>
        <time>2022-09-30 20:09:02</time>
      </trkpt>
      <trkpt lat="42.34886" lon="-7.83794">
        <ele>144.4</ele>
        <time>2022-09-30 20:09:05</time>
      </trkpt>
      <trkpt lat="42.34878" lon="-7.83812">
        <ele>143.2</ele>
        <time>2022-09-30 20:09:10</time>
      </trkpt>
      <trkpt lat="42.34875" lon="-7.83817">
        <ele>142.6</ele>
        <time>2022-09-30 20:09:20</time>
      </trkpt>
      <trkpt lat="42.34869" lon="-7.8383">
        <ele>141.8</ele>
        <time>2022-09-30 20:09:25</time>
      </trkpt>
      <trkpt lat="42.34866" lon="-7.83841">
        <ele>140.6</ele>
        <time>2022-09-30 20:09:28</time>
      </trkpt>
      <trkpt lat="42.34865" lon="-7.83845">
        <ele>139.4</ele>
        <time>2022-09-30 20:09:29</time>
      </trkpt>
      <trkpt lat="42.34865" lon="-7.83848">
        <ele>139.2</ele>
        <time>2022-09-30 20:09:30</time>
      </trkpt>
      <trkpt lat="42.34865" lon="-7.83859">
        <ele>138.2</ele>
        <time>2022-09-30 20:09:33</time>
      </trkpt>
      <trkpt lat="42.34864" lon="-7.83864">
        <ele>138</ele>
        <time>2022-09-30 20:09:34</time>
      </trkpt>
      <trkpt lat="42.34863" lon="-7.83872">
        <ele>137.2</ele>
        <time>2022-09-30 20:09:36</time>
      </trkpt>
      <trkpt lat="42.34858" lon="-7.83883">
        <ele>136.2</ele>
        <time>2022-09-30 20:09:39</time>
      </trkpt>
      <trkpt lat="42.34854" lon="-7.83887">
        <ele>135.8</ele>
        <time>2022-09-30 20:09:40</time>
      </trkpt>
      <trkpt lat="42.3485" lon="-7.8389">
        <ele>135.2</ele>
        <time>2022-09-30 20:09:41</time>
      </trkpt>
      <trkpt lat="42.34841" lon="-7.83899">
        <ele>134</ele>
        <time>2022-09-30 20:09:43</time>
      </trkpt>
      <trkpt lat="42.34836" lon="-7.83902">
        <ele>133.4</ele>
        <time>2022-09-30 20:09:44</time>
      </trkpt>
      <trkpt lat="42.3483" lon="-7.83905">
        <ele>132.8</ele>
        <time>2022-09-30 20:09:45</time>
      </trkpt>
      <trkpt lat="42.34826" lon="-7.83906">
        <ele>132.4</ele>
        <time>2022-09-30 20:09:46</time>
      </trkpt>
      <trkpt lat="42.34818" lon="-7.83904">
        <ele>131.8</ele>
        <time>2022-09-30 20:09:48</time>
      </trkpt>
      <trkpt lat="42.34814" lon="-7.839">
        <ele>131.6</ele>
        <time>2022-09-30 20:09:49</time>
      </trkpt>
      <trkpt lat="42.3481" lon="-7.83897">
        <ele>131.4</ele>
        <time>2022-09-30 20:09:50</time>
      </trkpt>
      <trkpt lat="42.34795" lon="-7.83886">
        <ele>130.6</ele>
        <time>2022-09-30 20:09:53</time>
      </trkpt>
      <trkpt lat="42.34785" lon="-7.83878">
        <ele>130</ele>
        <time>2022-09-30 20:09:55</time>
      </trkpt>
      <trkpt lat="42.34774" lon="-7.8387">
        <ele>129.6</ele>
        <time>2022-09-30 20:09:57</time>
      </trkpt>
      <trkpt lat="42.34755" lon="-7.83866">
        <ele>128.6</ele>
        <time>2022-09-30 20:10:00</time>
      </trkpt>
      <trkpt lat="42.34749" lon="-7.83867">
        <ele>128</ele>
        <time>2022-09-30 20:10:01</time>
      </trkpt>
      <trkpt lat="42.34737" lon="-7.83876">
        <ele>126.8</ele>
        <time>2022-09-30 20:10:03</time>
      </trkpt>
      <trkpt lat="42.34731" lon="-7.83882">
        <ele>126</ele>
        <time>2022-09-30 20:10:04</time>
      </trkpt>
      <trkpt lat="42.34726" lon="-7.83888">
        <ele>125.4</ele>
        <time>2022-09-30 20:10:05</time>
      </trkpt>
      <trkpt lat="42.34718" lon="-7.83902">
        <ele>124.2</ele>
        <time>2022-09-30 20:10:07</time>
      </trkpt>
      <trkpt lat="42.34714" lon="-7.83909">
        <ele>123.8</ele>
        <time>2022-09-30 20:10:08</time>
      </trkpt>
      <trkpt lat="42.34712" lon="-7.83916">
        <ele>123.2</ele>
        <time>2022-09-30 20:10:09</time>
      </trkpt>
      <trkpt lat="42.3471" lon="-7.83929">
        <ele>122.2</ele>
        <time>2022-09-30 20:10:11</time>
      </trkpt>
      <trkpt lat="42.34712" lon="-7.83933">
        <ele>121.8</ele>
        <time>2022-09-30 20:10:12</time>
      </trkpt>
      <trkpt lat="42.34714" lon="-7.83938">
        <ele>121.4</ele>
        <time>2022-09-30 20:10:13</time>
      </trkpt>
      <trkpt lat="42.34714" lon="-7.83943">
        <ele>121.2</ele>
        <time>2022-09-30 20:10:14</time>
      </trkpt>
      <trkpt lat="42.34716" lon="-7.83955">
        <ele>120.8</ele>
        <time>2022-09-30 20:10:17</time>
      </trkpt>
      <trkpt lat="42.34718" lon="-7.83956">
        <ele>120.8</ele>
        <time>2022-09-30 20:10:18</time>
      </trkpt>
      <trkpt lat="42.34732" lon="-7.8396">
        <ele>120.8</ele>
        <time>2022-09-30 20:10:23</time>
      </trkpt>
      <trkpt lat="42.34748" lon="-7.83964">
        <ele>121.2</ele>
        <time>2022-09-30 20:10:28</time>
      </trkpt>
      <trkpt lat="42.34765" lon="-7.83968">
        <ele>121.2</ele>
        <time>2022-09-30 20:10:32</time>
      </trkpt>
      <trkpt lat="42.34773" lon="-7.8397">
        <ele>121</ele>
        <time>2022-09-30 20:10:34</time>
      </trkpt>
      <trkpt lat="42.34802" lon="-7.83977">
        <ele>120.8</ele>
        <time>2022-09-30 20:10:41</time>
      </trkpt>
      <trkpt lat="42.34806" lon="-7.8398">
        <ele>120.8</ele>
        <time>2022-09-30 20:10:42</time>
      </trkpt>
      <trkpt lat="42.34814" lon="-7.83984">
        <ele>120.6</ele>
        <time>2022-09-30 20:10:44</time>
      </trkpt>
      <trkpt lat="42.34819" lon="-7.83987">
        <ele>120.6</ele>
        <time>2022-09-30 20:10:45</time>
      </trkpt>
      <trkpt lat="42.34835" lon="-7.84001">
        <ele>120.4</ele>
        <time>2022-09-30 20:10:49</time>
      </trkpt>
      <trkpt lat="42.34854" lon="-7.84019">
        <ele>120.2</ele>
        <time>2022-09-30 20:10:55</time>
      </trkpt>
      <trkpt lat="42.34859" lon="-7.84027">
        <ele>119.2</ele>
        <time>2022-09-30 20:10:57</time>
      </trkpt>
      <trkpt lat="42.3486" lon="-7.84032">
        <ele>118.6</ele>
        <time>2022-09-30 20:10:59</time>
      </trkpt>
      <trkpt lat="42.34855" lon="-7.84047">
        <ele>118.6</ele>
        <time>2022-09-30 20:11:03</time>
      </trkpt>
      <trkpt lat="42.34853" lon="-7.84052">
        <ele>118.6</ele>
        <time>2022-09-30 20:11:04</time>
      </trkpt>
      <trkpt lat="42.34851" lon="-7.84063">
        <ele>118.8</ele>
        <time>2022-09-30 20:11:07</time>
      </trkpt>
      <trkpt lat="42.34852" lon="-7.84067">
        <ele>118.8</ele>
        <time>2022-09-30 20:11:08</time>
      </trkpt>
      <trkpt lat="42.34856" lon="-7.84086">
        <ele>118.2</ele>
        <time>2022-09-30 20:11:12</time>
      </trkpt>
      <trkpt lat="42.34848" lon="-7.84099">
        <ele>117.4</ele>
        <time>2022-09-30 20:11:16</time>
      </trkpt>
      <trkpt lat="42.34841" lon="-7.84114">
        <ele>118.2</ele>
        <time>2022-09-30 20:11:21</time>
      </trkpt>
      <trkpt lat="42.34834" lon="-7.84126">
        <ele>118.2</ele>
        <time>2022-09-30 20:11:25</time>
      </trkpt>
      <trkpt lat="42.34821" lon="-7.84142">
        <ele>117.6</ele>
        <time>2022-09-30 20:11:29</time>
      </trkpt>
      <trkpt lat="42.34812" lon="-7.84149">
        <ele>117</ele>
        <time>2022-09-30 20:11:31</time>
      </trkpt>
      <trkpt lat="42.34807" lon="-7.84151">
        <ele>117</ele>
        <time>2022-09-30 20:11:32</time>
      </trkpt>
      <trkpt lat="42.34803" lon="-7.84153">
        <ele>117</ele>
        <time>2022-09-30 20:11:33</time>
      </trkpt>
      <trkpt lat="42.3478" lon="-7.84169">
        <ele>116.4</ele>
        <time>2022-09-30 20:11:39</time>
      </trkpt>
      <trkpt lat="42.3477" lon="-7.84178">
        <ele>116</ele>
        <time>2022-09-30 20:11:43</time>
      </trkpt>
      <trkpt lat="42.34766" lon="-7.84181">
        <ele>115.8</ele>
        <time>2022-09-30 20:13:25</time>
      </trkpt>
      <trkpt lat="42.34761" lon="-7.84186">
        <ele>115.8</ele>
        <time>2022-09-30 20:13:27</time>
      </trkpt>
      <trkpt lat="42.34746" lon="-7.84201">
        <ele>116.4</ele>
        <time>2022-09-30 20:13:32</time>
      </trkpt>
      <trkpt lat="42.34729" lon="-7.84221">
        <ele>116.4</ele>
        <time>2022-09-30 20:13:38</time>
      </trkpt>
      <trkpt lat="42.34721" lon="-7.8424">
        <ele>116.4</ele>
        <time>2022-09-30 20:13:43</time>
      </trkpt>
      <trkpt lat="42.3472" lon="-7.84257">
        <ele>116.4</ele>
        <time>2022-09-30 20:13:46</time>
      </trkpt>
      <trkpt lat="42.34722" lon="-7.8427">
        <ele>116.2</ele>
        <time>2022-09-30 20:13:48</time>
      </trkpt>
      <trkpt lat="42.34726" lon="-7.84287">
        <ele>116</ele>
        <time>2022-09-30 20:13:51</time>
      </trkpt>
      <trkpt lat="42.34734" lon="-7.84301">
        <ele>115.6</ele>
        <time>2022-09-30 20:13:54</time>
      </trkpt>
      <trkpt lat="42.34737" lon="-7.84305">
        <ele>115.6</ele>
        <time>2022-09-30 20:13:55</time>
      </trkpt>
      <trkpt lat="42.34748" lon="-7.84318">
        <ele>115.6</ele>
        <time>2022-09-30 20:13:59</time>
      </trkpt>
      <trkpt lat="42.3476" lon="-7.84321">
        <ele>115</ele>
        <time>2022-09-30 20:14:02</time>
      </trkpt>
      <trkpt lat="42.34764" lon="-7.8432">
        <ele>114.8</ele>
        <time>2022-09-30 20:14:03</time>
      </trkpt>
      <trkpt lat="42.34775" lon="-7.84315">
        <ele>114.6</ele>
        <time>2022-09-30 20:14:07</time>
      </trkpt>
      <trkpt lat="42.34789" lon="-7.84305">
        <ele>114.8</ele>
        <time>2022-09-30 20:14:11</time>
      </trkpt>
      <trkpt lat="42.34806" lon="-7.84305">
        <ele>115</ele>
        <time>2022-09-30 20:14:15</time>
      </trkpt>
      <trkpt lat="42.3481" lon="-7.84305">
        <ele>115</ele>
        <time>2022-09-30 20:14:16</time>
      </trkpt>
      <trkpt lat="42.34822" lon="-7.8431">
        <ele>115</ele>
        <time>2022-09-30 20:14:19</time>
      </trkpt>
      <trkpt lat="42.34826" lon="-7.84312">
        <ele>115</ele>
        <time>2022-09-30 20:14:20</time>
      </trkpt>
      <trkpt lat="42.34842" lon="-7.84321">
        <ele>114.8</ele>
        <time>2022-09-30 20:14:24</time>
      </trkpt>
      <trkpt lat="42.34846" lon="-7.84322">
        <ele>114.8</ele>
        <time>2022-09-30 20:14:25</time>
      </trkpt>
      <trkpt lat="42.34867" lon="-7.84333">
        <ele>115</ele>
        <time>2022-09-30 20:14:30</time>
      </trkpt>
      <trkpt lat="42.34884" lon="-7.84344">
        <ele>114.6</ele>
        <time>2022-09-30 20:14:35</time>
      </trkpt>
      <trkpt lat="42.34889" lon="-7.84348">
        <ele>114.6</ele>
        <time>2022-09-30 20:14:36</time>
      </trkpt>
      <trkpt lat="42.34903" lon="-7.84376">
        <ele>115</ele>
        <time>2022-09-30 20:14:42</time>
      </trkpt>
      <trkpt lat="42.34905" lon="-7.84382">
        <ele>115</ele>
        <time>2022-09-30 20:14:43</time>
      </trkpt>
      <trkpt lat="42.3491" lon="-7.84401">
        <ele>113.6</ele>
        <time>2022-09-30 20:14:47</time>
      </trkpt>
      <trkpt lat="42.3491" lon="-7.84405">
        <ele>113</ele>
        <time>2022-09-30 20:14:49</time>
      </trkpt>
      <trkpt lat="42.34906" lon="-7.84411">
        <ele>112.8</ele>
        <time>2022-09-30 20:14:51</time>
      </trkpt>
      <trkpt lat="42.34896" lon="-7.8442">
        <ele>112.8</ele>
        <time>2022-09-30 20:14:55</time>
      </trkpt>
      <trkpt lat="42.34894" lon="-7.8442">
        <ele>112.8</ele>
        <time>2022-09-30 20:14:56</time>
      </trkpt>
      <trkpt lat="42.34883" lon="-7.84422">
        <ele>113.2</ele>
        <time>2022-09-30 20:15:00</time>
      </trkpt>
      <trkpt lat="42.3487" lon="-7.84435">
        <ele>113.8</ele>
        <time>2022-09-30 20:15:05</time>
      </trkpt>
      <trkpt lat="42.34856" lon="-7.84448">
        <ele>114</ele>
        <time>2022-09-30 20:15:09</time>
      </trkpt>
      <trkpt lat="42.34848" lon="-7.84454">
        <ele>113.6</ele>
        <time>2022-09-30 20:15:11</time>
      </trkpt>
      <trkpt lat="42.34828" lon="-7.84471">
        <ele>113.6</ele>
        <time>2022-09-30 20:15:18</time>
      </trkpt>
      <trkpt lat="42.34817" lon="-7.84481">
        <ele>114</ele>
        <time>2022-09-30 20:15:22</time>
      </trkpt>
      <trkpt lat="42.348" lon="-7.84498">
        <ele>114</ele>
        <time>2022-09-30 20:15:27</time>
      </trkpt>
      <trkpt lat="42.34785" lon="-7.84519">
        <ele>114.6</ele>
        <time>2022-09-30 20:15:32</time>
      </trkpt>
      <trkpt lat="42.34782" lon="-7.84523">
        <ele>114.6</ele>
        <time>2022-09-30 20:15:33</time>
      </trkpt>
      <trkpt lat="42.34774" lon="-7.8454">
        <ele>114.4</ele>
        <time>2022-09-30 20:15:36</time>
      </trkpt>
      <trkpt lat="42.34768" lon="-7.84551">
        <ele>114.2</ele>
        <time>2022-09-30 20:15:38</time>
      </trkpt>
      <trkpt lat="42.34762" lon="-7.84567">
        <ele>114</ele>
        <time>2022-09-30 20:15:41</time>
      </trkpt>
      <trkpt lat="42.34756" lon="-7.8458">
        <ele>114</ele>
        <time>2022-09-30 20:15:44</time>
      </trkpt>
      <trkpt lat="42.34741" lon="-7.84604">
        <ele>113.8</ele>
        <time>2022-09-30 20:15:50</time>
      </trkpt>
      <trkpt lat="42.34732" lon="-7.84616">
        <ele>113.6</ele>
        <time>2022-09-30 20:15:53</time>
      </trkpt>
      <trkpt lat="42.34729" lon="-7.84621">
        <ele>113.4</ele>
        <time>2022-09-30 20:15:54</time>
      </trkpt>
      <trkpt lat="42.34716" lon="-7.84641">
        <ele>113</ele>
        <time>2022-09-30 20:15:59</time>
      </trkpt>
      <trkpt lat="42.34708" lon="-7.84656">
        <ele>112.8</ele>
        <time>2022-09-30 20:16:02</time>
      </trkpt>
      <trkpt lat="42.34704" lon="-7.84682">
        <ele>112.6</ele>
        <time>2022-09-30 20:16:07</time>
      </trkpt>
      <trkpt lat="42.34708" lon="-7.84705">
        <ele>113</ele>
        <time>2022-09-30 20:16:11</time>
      </trkpt>
      <trkpt lat="42.34709" lon="-7.84712">
        <ele>113</ele>
        <time>2022-09-30 20:16:12</time>
      </trkpt>
      <trkpt lat="42.3471" lon="-7.84733">
        <ele>113</ele>
        <time>2022-09-30 20:16:15</time>
      </trkpt>
      <trkpt lat="42.34711" lon="-7.84738">
        <ele>112.8</ele>
        <time>2022-09-30 20:16:16</time>
      </trkpt>
      <trkpt lat="42.34718" lon="-7.84768">
        <ele>112.6</ele>
        <time>2022-09-30 20:16:21</time>
      </trkpt>
      <trkpt lat="42.34719" lon="-7.84773">
        <ele>112.6</ele>
        <time>2022-09-30 20:16:22</time>
      </trkpt>
      <trkpt lat="42.34723" lon="-7.8481">
        <ele>111.8</ele>
        <time>2022-09-30 20:16:28</time>
      </trkpt>
      <trkpt lat="42.34728" lon="-7.84825">
        <ele>111.8</ele>
        <time>2022-09-30 20:16:32</time>
      </trkpt>
      <trkpt lat="42.34738" lon="-7.8485">
        <ele>111.8</ele>
        <time>2022-09-30 20:16:38</time>
      </trkpt>
      <trkpt lat="42.34745" lon="-7.84871">
        <ele>111.4</ele>
        <time>2022-09-30 20:16:42</time>
      </trkpt>
      <trkpt lat="42.34749" lon="-7.84882">
        <ele>111.4</ele>
        <time>2022-09-30 20:16:44</time>
      </trkpt>
      <trkpt lat="42.3476" lon="-7.84912">
        <ele>111.2</ele>
        <time>2022-09-30 20:16:50</time>
      </trkpt>
      <trkpt lat="42.34777" lon="-7.84935">
        <ele>112.2</ele>
        <time>2022-09-30 20:16:57</time>
      </trkpt>
      <trkpt lat="42.34791" lon="-7.84944">
        <ele>112</ele>
        <time>2022-09-30 20:17:01</time>
      </trkpt>
      <trkpt lat="42.34797" lon="-7.84962">
        <ele>111.4</ele>
        <time>2022-09-30 20:17:04</time>
      </trkpt>
      <trkpt lat="42.34796" lon="-7.84993">
        <ele>110.4</ele>
        <time>2022-09-30 20:17:08</time>
      </trkpt>
      <trkpt lat="42.34795" lon="-7.85012">
        <ele>110.4</ele>
        <time>2022-09-30 20:17:11</time>
      </trkpt>
      <trkpt lat="42.34795" lon="-7.85019">
        <ele>110.2</ele>
        <time>2022-09-30 20:17:12</time>
      </trkpt>
      <trkpt lat="42.34794" lon="-7.85034">
        <ele>109.8</ele>
        <time>2022-09-30 20:17:14</time>
      </trkpt>
      <trkpt lat="42.34793" lon="-7.85052">
        <ele>109.4</ele>
        <time>2022-09-30 20:17:17</time>
      </trkpt>
      <trkpt lat="42.3479" lon="-7.85071">
        <ele>109.4</ele>
        <time>2022-09-30 20:17:20</time>
      </trkpt>
      <trkpt lat="42.34789" lon="-7.85077">
        <ele>109.4</ele>
        <time>2022-09-30 20:17:21</time>
      </trkpt>
      <trkpt lat="42.34789" lon="-7.85082">
        <ele>109.2</ele>
        <time>2022-09-30 20:17:22</time>
      </trkpt>
      <trkpt lat="42.34786" lon="-7.85107">
        <ele>109.4</ele>
        <time>2022-09-30 20:17:26</time>
      </trkpt>
      <trkpt lat="42.34783" lon="-7.85125">
        <ele>109.8</ele>
        <time>2022-09-30 20:17:30</time>
      </trkpt>
      <trkpt lat="42.34782" lon="-7.85131">
        <ele>110.4</ele>
        <time>2022-09-30 20:17:32</time>
      </trkpt>
      <trkpt lat="42.34781" lon="-7.85142">
        <ele>111.8</ele>
        <time>2022-09-30 20:17:35</time>
      </trkpt>
      <trkpt lat="42.34779" lon="-7.85152">
        <ele>113</ele>
        <time>2022-09-30 20:17:38</time>
      </trkpt>
      <trkpt lat="42.34778" lon="-7.85164">
        <ele>113.6</ele>
        <time>2022-09-30 20:17:41</time>
      </trkpt>
      <trkpt lat="42.34778" lon="-7.85174">
        <ele>114</ele>
        <time>2022-09-30 20:17:44</time>
      </trkpt>
      <trkpt lat="42.3478" lon="-7.85185">
        <ele>114.2</ele>
        <time>2022-09-30 20:17:47</time>
      </trkpt>
      <trkpt lat="42.34783" lon="-7.85204">
        <ele>113.8</ele>
        <time>2022-09-30 20:17:51</time>
      </trkpt>
      <trkpt lat="42.34785" lon="-7.85227">
        <ele>113.6</ele>
        <time>2022-09-30 20:17:55</time>
      </trkpt>
      <trkpt lat="42.34788" lon="-7.85255">
        <ele>114</ele>
        <time>2022-09-30 20:18:00</time>
      </trkpt>
      <trkpt lat="42.34792" lon="-7.85276">
        <ele>114.4</ele>
        <time>2022-09-30 20:18:04</time>
      </trkpt>
      <trkpt lat="42.34795" lon="-7.8528">
        <ele>114.4</ele>
        <time>2022-09-30 20:18:05</time>
      </trkpt>
      <trkpt lat="42.34801" lon="-7.85298">
        <ele>114.6</ele>
        <time>2022-09-30 20:18:10</time>
      </trkpt>
      <trkpt lat="42.34805" lon="-7.85313">
        <ele>114.6</ele>
        <time>2022-09-30 20:18:14</time>
      </trkpt>
      <trkpt lat="42.34809" lon="-7.85323">
        <ele>114.6</ele>
        <time>2022-09-30 20:18:17</time>
      </trkpt>
      <trkpt lat="42.34818" lon="-7.85348">
        <ele>115.2</ele>
        <time>2022-09-30 20:18:23</time>
      </trkpt>
      <trkpt lat="42.34835" lon="-7.85376">
        <ele>115</ele>
        <time>2022-09-30 20:18:30</time>
      </trkpt>
      <trkpt lat="42.34841" lon="-7.85387">
        <ele>114.4</ele>
        <time>2022-09-30 20:18:32</time>
      </trkpt>
      <trkpt lat="42.34845" lon="-7.85393">
        <ele>114.2</ele>
        <time>2022-09-30 20:18:33</time>
      </trkpt>
      <trkpt lat="42.34848" lon="-7.85399">
        <ele>113.8</ele>
        <time>2022-09-30 20:18:34</time>
      </trkpt>
      <trkpt lat="42.34862" lon="-7.85423">
        <ele>113.4</ele>
        <time>2022-09-30 20:18:38</time>
      </trkpt>
      <trkpt lat="42.34868" lon="-7.85434">
        <ele>113.2</ele>
        <time>2022-09-30 20:18:40</time>
      </trkpt>
      <trkpt lat="42.34871" lon="-7.8544">
        <ele>113</ele>
        <time>2022-09-30 20:18:41</time>
      </trkpt>
      <trkpt lat="42.34878" lon="-7.85451">
        <ele>112.8</ele>
        <time>2022-09-30 20:18:43</time>
      </trkpt>
      <trkpt lat="42.34887" lon="-7.85466">
        <ele>112.6</ele>
        <time>2022-09-30 20:18:46</time>
      </trkpt>
      <trkpt lat="42.349" lon="-7.85487">
        <ele>112.4</ele>
        <time>2022-09-30 20:18:50</time>
      </trkpt>
      <trkpt lat="42.34908" lon="-7.85503">
        <ele>112.2</ele>
        <time>2022-09-30 20:18:53</time>
      </trkpt>
      <trkpt lat="42.34913" lon="-7.85513">
        <ele>112</ele>
        <time>2022-09-30 20:18:55</time>
      </trkpt>
      <trkpt lat="42.34922" lon="-7.85523">
        <ele>111.8</ele>
        <time>2022-09-30 20:18:58</time>
      </trkpt>
      <trkpt lat="42.34941" lon="-7.85535">
        <ele>110.8</ele>
        <time>2022-09-30 20:19:01</time>
      </trkpt>
      <trkpt lat="42.34948" lon="-7.8554">
        <ele>109.8</ele>
        <time>2022-09-30 20:19:02</time>
      </trkpt>
      <trkpt lat="42.34954" lon="-7.85544">
        <ele>108.6</ele>
        <time>2022-09-30 20:19:03</time>
      </trkpt>
      <trkpt lat="42.34957" lon="-7.8555">
        <ele>107.6</ele>
        <time>2022-09-30 20:19:04</time>
      </trkpt>
      <trkpt lat="42.34959" lon="-7.85556">
        <ele>107.2</ele>
        <time>2022-09-30 20:19:05</time>
      </trkpt>
      <trkpt lat="42.3496" lon="-7.85564">
        <ele>108.4</ele>
        <time>2022-09-30 20:19:07</time>
      </trkpt>
      <trkpt lat="42.34959" lon="-7.85568">
        <ele>109</ele>
        <time>2022-09-30 20:19:08</time>
      </trkpt>
      <trkpt lat="42.34957" lon="-7.85574">
        <ele>109.6</ele>
        <time>2022-09-30 20:19:09</time>
      </trkpt>
      <trkpt lat="42.34954" lon="-7.85584">
        <ele>110.8</ele>
        <time>2022-09-30 20:19:11</time>
      </trkpt>
      <trkpt lat="42.34953" lon="-7.8559">
        <ele>111</ele>
        <time>2022-09-30 20:19:12</time>
      </trkpt>
      <trkpt lat="42.34952" lon="-7.85596">
        <ele>111.4</ele>
        <time>2022-09-30 20:19:13</time>
      </trkpt>
      <trkpt lat="42.34955" lon="-7.8561">
        <ele>111.8</ele>
        <time>2022-09-30 20:19:16</time>
      </trkpt>
      <trkpt lat="42.34955" lon="-7.85619">
        <ele>111.8</ele>
        <time>2022-09-30 20:19:18</time>
      </trkpt>
      <trkpt lat="42.34953" lon="-7.85632">
        <ele>111.8</ele>
        <time>2022-09-30 20:19:21</time>
      </trkpt>
      <trkpt lat="42.34952" lon="-7.85658">
        <ele>111.6</ele>
        <time>2022-09-30 20:19:28</time>
      </trkpt>
      <trkpt lat="42.34957" lon="-7.85678">
        <ele>111.6</ele>
        <time>2022-09-30 20:19:34</time>
      </trkpt>
      <trkpt lat="42.3496" lon="-7.85704">
        <ele>111.6</ele>
        <time>2022-09-30 20:19:40</time>
      </trkpt>
      <trkpt lat="42.34953" lon="-7.85725">
        <ele>111.6</ele>
        <time>2022-09-30 20:19:45</time>
      </trkpt>
      <trkpt lat="42.34937" lon="-7.85745">
        <ele>111.2</ele>
        <time>2022-09-30 20:19:52</time>
      </trkpt>
      <trkpt lat="42.34923" lon="-7.85765">
        <ele>111.2</ele>
        <time>2022-09-30 20:19:58</time>
      </trkpt>
      <trkpt lat="42.3491" lon="-7.85783">
        <ele>111</ele>
        <time>2022-09-30 20:20:04</time>
      </trkpt>
      <trkpt lat="42.34899" lon="-7.85805">
        <ele>111</ele>
        <time>2022-09-30 20:20:11</time>
      </trkpt>
      <trkpt lat="42.34889" lon="-7.85824">
        <ele>111</ele>
        <time>2022-09-30 20:20:18</time>
      </trkpt>
      <trkpt lat="42.34882" lon="-7.85845">
        <ele>111.4</ele>
        <time>2022-09-30 20:20:23</time>
      </trkpt>
      <trkpt lat="42.34871" lon="-7.85873">
        <ele>111.2</ele>
        <time>2022-09-30 20:20:28</time>
      </trkpt>
      <trkpt lat="42.34858" lon="-7.85908">
        <ele>111</ele>
        <time>2022-09-30 20:20:35</time>
      </trkpt>
      <trkpt lat="42.34849" lon="-7.85934">
        <ele>110.8</ele>
        <time>2022-09-30 20:20:41</time>
      </trkpt>
      <trkpt lat="42.34843" lon="-7.85952">
        <ele>110.8</ele>
        <time>2022-09-30 20:20:45</time>
      </trkpt>
      <trkpt lat="42.34841" lon="-7.85958">
        <ele>111</ele>
        <time>2022-09-30 20:20:46</time>
      </trkpt>
      <trkpt lat="42.3483" lon="-7.85986">
        <ele>110.8</ele>
        <time>2022-09-30 20:20:52</time>
      </trkpt>
      <trkpt lat="42.3482" lon="-7.86006">
        <ele>111</ele>
        <time>2022-09-30 20:20:56</time>
      </trkpt>
      <trkpt lat="42.34816" lon="-7.86016">
        <ele>111</ele>
        <time>2022-09-30 20:20:58</time>
      </trkpt>
      <trkpt lat="42.34806" lon="-7.8604">
        <ele>110.8</ele>
        <time>2022-09-30 20:21:03</time>
      </trkpt>
      <trkpt lat="42.34801" lon="-7.86051">
        <ele>110.8</ele>
        <time>2022-09-30 20:21:05</time>
      </trkpt>
      <trkpt lat="42.34789" lon="-7.86076">
        <ele>110.6</ele>
        <time>2022-09-30 20:21:10</time>
      </trkpt>
      <trkpt lat="42.3478" lon="-7.86111">
        <ele>110.4</ele>
        <time>2022-09-30 20:21:17</time>
      </trkpt>
      <trkpt lat="42.34779" lon="-7.86132">
        <ele>110.6</ele>
        <time>2022-09-30 20:21:21</time>
      </trkpt>
      <trkpt lat="42.34776" lon="-7.86137">
        <ele>110.6</ele>
        <time>2022-09-30 20:21:22</time>
      </trkpt>
      <trkpt lat="42.34761" lon="-7.86148">
        <ele>110.6</ele>
        <time>2022-09-30 20:21:26</time>
      </trkpt>
      <trkpt lat="42.34757" lon="-7.86151">
        <ele>110.4</ele>
        <time>2022-09-30 20:21:27</time>
      </trkpt>
      <trkpt lat="42.34754" lon="-7.86154">
        <ele>110.4</ele>
        <time>2022-09-30 20:21:28</time>
      </trkpt>
      <trkpt lat="42.34747" lon="-7.86165">
        <ele>110.2</ele>
        <time>2022-09-30 20:21:31</time>
      </trkpt>
      <trkpt lat="42.34745" lon="-7.86169">
        <ele>110.2</ele>
        <time>2022-09-30 20:21:32</time>
      </trkpt>
      <trkpt lat="42.34734" lon="-7.86192">
        <ele>110.2</ele>
        <time>2022-09-30 20:21:37</time>
      </trkpt>
      <trkpt lat="42.34719" lon="-7.86222">
        <ele>110.4</ele>
        <time>2022-09-30 20:21:43</time>
      </trkpt>
      <trkpt lat="42.34714" lon="-7.86231">
        <ele>110.4</ele>
        <time>2022-09-30 20:21:45</time>
      </trkpt>
      <trkpt lat="42.34702" lon="-7.86254">
        <ele>110.2</ele>
        <time>2022-09-30 20:21:50</time>
      </trkpt>
      <trkpt lat="42.34691" lon="-7.86276">
        <ele>109.6</ele>
        <time>2022-09-30 20:21:55</time>
      </trkpt>
      <trkpt lat="42.34682" lon="-7.86292">
        <ele>109.4</ele>
        <time>2022-09-30 20:21:59</time>
      </trkpt>
      <trkpt lat="42.34674" lon="-7.86311">
        <ele>109.6</ele>
        <time>2022-09-30 20:22:04</time>
      </trkpt>
      <trkpt lat="42.34661" lon="-7.86332">
        <ele>109.2</ele>
        <time>2022-09-30 20:22:10</time>
      </trkpt>
      <trkpt lat="42.34646" lon="-7.8636">
        <ele>109.6</ele>
        <time>2022-09-30 20:22:18</time>
      </trkpt>
      <trkpt lat="42.34631" lon="-7.86385">
        <ele>109.4</ele>
        <time>2022-09-30 20:22:26</time>
      </trkpt>
      <trkpt lat="42.34621" lon="-7.86403">
        <ele>109.2</ele>
        <time>2022-09-30 20:22:33</time>
      </trkpt>
      <trkpt lat="42.34611" lon="-7.86414">
        <ele>109</ele>
        <time>2022-09-30 20:22:40</time>
      </trkpt>
      <trkpt lat="42.34608" lon="-7.86415">
        <ele>109.2</ele>
        <time>2022-09-30 20:22:42</time>
      </trkpt>
      <trkpt lat="42.34599" lon="-7.86414">
        <ele>109.2</ele>
        <time>2022-09-30 20:22:45</time>
      </trkpt>
      <trkpt lat="42.34593" lon="-7.86412">
        <ele>109.2</ele>
        <time>2022-09-30 20:22:47</time>
      </trkpt>
      <trkpt lat="42.34584" lon="-7.86407">
        <ele>109.6</ele>
        <time>2022-09-30 20:22:51</time>
      </trkpt>
      <trkpt lat="42.34566" lon="-7.86398">
        <ele>110.2</ele>
        <time>2022-09-30 20:22:58</time>
      </trkpt>
      <trkpt lat="42.34561" lon="-7.86401">
        <ele>110.8</ele>
        <time>2022-09-30 20:23:01</time>
      </trkpt>
      <trkpt lat="42.3456" lon="-7.86403">
        <ele>110.8</ele>
        <time>2022-09-30 20:23:02</time>
      </trkpt>
      <trkpt lat="42.34552" lon="-7.86416">
        <ele>110.8</ele>
        <time>2022-09-30 20:23:07</time>
      </trkpt>
      <trkpt lat="42.34536" lon="-7.86429">
        <ele>111.6</ele>
        <time>2022-09-30 20:23:13</time>
      </trkpt>
      <trkpt lat="42.34533" lon="-7.86432">
        <ele>111.8</ele>
        <time>2022-09-30 20:23:14</time>
      </trkpt>
      <trkpt lat="42.34525" lon="-7.86443">
        <ele>112.4</ele>
        <time>2022-09-30 20:23:19</time>
      </trkpt>
      <trkpt lat="42.34522" lon="-7.86455">
        <ele>112.6</ele>
        <time>2022-09-30 20:23:25</time>
      </trkpt>
      <trkpt lat="42.3453" lon="-7.86463">
        <ele>113.4</ele>
        <time>2022-09-30 20:23:30</time>
      </trkpt>
      <trkpt lat="42.34531" lon="-7.86468">
        <ele>114</ele>
        <time>2022-09-30 20:23:32</time>
      </trkpt>
      <trkpt lat="42.34533" lon="-7.86473">
        <ele>114.4</ele>
        <time>2022-09-30 20:23:34</time>
      </trkpt>
      <trkpt lat="42.34534" lon="-7.86483">
        <ele>115.4</ele>
        <time>2022-09-30 20:23:38</time>
      </trkpt>
      <trkpt lat="42.3453" lon="-7.86486">
        <ele>115.2</ele>
        <time>2022-09-30 20:23:40</time>
      </trkpt>
      <trkpt lat="42.34527" lon="-7.86486">
        <ele>115.4</ele>
        <time>2022-09-30 20:23:41</time>
      </trkpt>
      <trkpt lat="42.34525" lon="-7.86485">
        <ele>115.6</ele>
        <time>2022-09-30 20:23:42</time>
      </trkpt>
      <trkpt lat="42.34518" lon="-7.86478">
        <ele>116.6</ele>
        <time>2022-09-30 20:23:47</time>
      </trkpt>
      <trkpt lat="42.34516" lon="-7.86478">
        <ele>116.8</ele>
        <time>2022-09-30 20:23:48</time>
      </trkpt>
      <trkpt lat="42.34515" lon="-7.86475">
        <ele>117.2</ele>
        <time>2022-09-30 20:23:50</time>
      </trkpt>
      <trkpt lat="42.34515" lon="-7.86476">
        <ele>117.2</ele>
        <time>2022-09-30 20:23:52</time>
      </trkpt>
      <trkpt lat="42.34516" lon="-7.86476">
        <ele>117.4</ele>
        <time>2022-09-30 20:23:53</time>
      </trkpt>
      <trkpt lat="42.34517" lon="-7.86477">
        <ele>117.8</ele>
        <time>2022-09-30 20:23:54</time>
      </trkpt>
      <trkpt lat="42.34521" lon="-7.86486">
        <ele>119</ele>
        <time>2022-09-30 20:23:58</time>
      </trkpt>
      <trkpt lat="42.34526" lon="-7.86491">
        <ele>119.4</ele>
        <time>2022-09-30 20:24:03</time>
      </trkpt>
      <trkpt lat="42.3452" lon="-7.86484">
        <ele>120</ele>
        <time>2022-09-30 20:24:06</time>
      </trkpt>
      <trkpt lat="42.34514" lon="-7.86478">
        <ele>120.8</ele>
        <time>2022-09-30 20:24:09</time>
      </trkpt>
      <trkpt lat="42.34513" lon="-7.86476">
        <ele>121</ele>
        <time>2022-09-30 20:24:10</time>
      </trkpt>
      <trkpt lat="42.34514" lon="-7.86473">
        <ele>121.2</ele>
        <time>2022-09-30 20:24:11</time>
      </trkpt>
      <trkpt lat="42.34515" lon="-7.86474">
        <ele>121.2</ele>
        <time>2022-09-30 20:24:12</time>
      </trkpt>
      <trkpt lat="42.34523" lon="-7.8648">
        <ele>122</ele>
        <time>2022-09-30 20:24:16</time>
      </trkpt>
      <trkpt lat="42.34524" lon="-7.86482">
        <ele>122.2</ele>
        <time>2022-09-30 20:24:17</time>
      </trkpt>
      <trkpt lat="42.3453" lon="-7.86494">
        <ele>123.2</ele>
        <time>2022-09-30 20:24:23</time>
      </trkpt>
      <trkpt lat="42.34524" lon="-7.86494">
        <ele>123.2</ele>
        <time>2022-09-30 20:24:27</time>
      </trkpt>
      <trkpt lat="42.34513" lon="-7.86484">
        <ele>123.2</ele>
        <time>2022-09-30 20:24:33</time>
      </trkpt>
      <trkpt lat="42.34498" lon="-7.86475">
        <ele>123.2</ele>
        <time>2022-09-30 20:24:40</time>
      </trkpt>
      <trkpt lat="42.34486" lon="-7.86474">
        <ele>123.2</ele>
        <time>2022-09-30 20:24:46</time>
      </trkpt>
      <trkpt lat="42.34477" lon="-7.86469">
        <ele>123.2</ele>
        <time>2022-09-30 20:24:51</time>
      </trkpt>
      <trkpt lat="42.34474" lon="-7.86468">
        <ele>123.2</ele>
        <time>2022-09-30 20:24:57</time>
      </trkpt>
      <trkpt lat="42.34474" lon="-7.86466">
        <ele>123.8</ele>
        <time>2022-09-30 20:25:01</time>
      </trkpt>
      <trkpt lat="42.3447" lon="-7.86466">
        <ele>124.2</ele>
        <time>2022-09-30 20:25:02</time>
      </trkpt>
      <trkpt lat="42.34466" lon="-7.86466">
        <ele>124.6</ele>
        <time>2022-09-30 20:25:03</time>
      </trkpt>
      <trkpt lat="42.34452" lon="-7.86466">
        <ele>125.2</ele>
        <time>2022-09-30 20:25:06</time>
      </trkpt>
      <trkpt lat="42.34449" lon="-7.86467">
        <ele>125.4</ele>
        <time>2022-09-30 20:25:07</time>
      </trkpt>
      <trkpt lat="42.34446" lon="-7.86467">
        <ele>125.6</ele>
        <time>2022-09-30 20:25:08</time>
      </trkpt>
      <trkpt lat="42.34443" lon="-7.86467">
        <ele>125.8</ele>
        <time>2022-09-30 20:25:09</time>
      </trkpt>
      <trkpt lat="42.34433" lon="-7.86465">
        <ele>125.8</ele>
        <time>2022-09-30 20:25:15</time>
      </trkpt>
      <trkpt lat="42.34429" lon="-7.86468">
        <ele>125.8</ele>
        <time>2022-09-30 20:25:17</time>
      </trkpt>
      <trkpt lat="42.34423" lon="-7.86468">
        <ele>125.8</ele>
        <time>2022-09-30 20:25:20</time>
      </trkpt>
      <trkpt lat="42.34421" lon="-7.86468">
        <ele>125.8</ele>
        <time>2022-09-30 20:25:21</time>
      </trkpt>
      <trkpt lat="42.34418" lon="-7.86468">
        <ele>126.8</ele>
        <time>2022-09-30 20:25:24</time>
      </trkpt>
      <trkpt lat="42.34415" lon="-7.86466">
        <ele>128.6</ele>
        <time>2022-09-30 20:25:30</time>
      </trkpt>
      <trkpt lat="42.34412" lon="-7.86467">
        <ele>129.2</ele>
        <time>2022-09-30 20:25:39</time>
      </trkpt>
      <trkpt lat="42.3441" lon="-7.86468">
        <ele>129.2</ele>
        <time>2022-09-30 20:25:43</time>
      </trkpt>
      <trkpt lat="42.34403" lon="-7.86472">
        <ele>129.2</ele>
        <time>2022-09-30 20:25:51</time>
      </trkpt>
      <trkpt lat="42.34401" lon="-7.86476">
        <ele>129.2</ele>
        <time>2022-09-30 20:25:54</time>
      </trkpt>
      <trkpt lat="42.34401" lon="-7.86483">
        <ele>129.2</ele>
        <time>2022-09-30 20:25:58</time>
      </trkpt>
      <trkpt lat="42.34401" lon="-7.86494">
        <ele>129.2</ele>
        <time>2022-09-30 20:26:01</time>
      </trkpt>
      <trkpt lat="42.344" lon="-7.86501">
        <ele>129</ele>
        <time>2022-09-30 20:26:03</time>
      </trkpt>
      <trkpt lat="42.34397" lon="-7.86521">
        <ele>128.8</ele>
        <time>2022-09-30 20:26:08</time>
      </trkpt>
      <trkpt lat="42.34394" lon="-7.86546">
        <ele>128.4</ele>
        <time>2022-09-30 20:26:16</time>
      </trkpt>
      <trkpt lat="42.34393" lon="-7.86558">
        <ele>127.8</ele>
        <time>2022-09-30 20:26:22</time>
      </trkpt>
      <trkpt lat="42.34384" lon="-7.86568">
        <ele>127.8</ele>
        <time>2022-09-30 20:26:27</time>
      </trkpt>
      <trkpt lat="42.34382" lon="-7.86569">
        <ele>127.8</ele>
        <time>2022-09-30 20:26:28</time>
      </trkpt>
      <trkpt lat="42.34379" lon="-7.86569">
        <ele>127.6</ele>
        <time>2022-09-30 20:26:29</time>
      </trkpt>
      <trkpt lat="42.34366" lon="-7.86569">
        <ele>127.6</ele>
        <time>2022-09-30 20:26:33</time>
      </trkpt>
      <trkpt lat="42.3435" lon="-7.86571">
        <ele>128</ele>
        <time>2022-09-30 20:26:40</time>
      </trkpt>
      <trkpt lat="42.34335" lon="-7.86572">
        <ele>128.4</ele>
        <time>2022-09-30 20:26:48</time>
      </trkpt>
      <trkpt lat="42.34324" lon="-7.86566">
        <ele>128.4</ele>
        <time>2022-09-30 20:28:15</time>
      </trkpt>
      <trkpt lat="42.34323" lon="-7.86565">
        <ele>128.2</ele>
        <time>2022-09-30 20:28:16</time>
      </trkpt>
      <trkpt lat="42.34319" lon="-7.86563">
        <ele>128.4</ele>
        <time>2022-09-30 20:28:18</time>
      </trkpt>
      <trkpt lat="42.34316" lon="-7.86562">
        <ele>128.4</ele>
        <time>2022-09-30 20:28:19</time>
      </trkpt>
      <trkpt lat="42.34312" lon="-7.86563">
        <ele>128.4</ele>
        <time>2022-09-30 20:28:21</time>
      </trkpt>
      <trkpt lat="42.34309" lon="-7.86565">
        <ele>128.6</ele>
        <time>2022-09-30 20:28:23</time>
      </trkpt>
      <trkpt lat="42.34296" lon="-7.86566">
        <ele>128.4</ele>
        <time>2022-09-30 20:29:06</time>
      </trkpt>
      <trkpt lat="42.34295" lon="-7.86559">
        <ele>128.6</ele>
        <time>2022-09-30 20:29:10</time>
      </trkpt>
      <trkpt lat="42.34294" lon="-7.86547">
        <ele>129</ele>
        <time>2022-09-30 20:29:15</time>
      </trkpt>
      <trkpt lat="42.34302" lon="-7.8654">
        <ele>129</ele>
        <time>2022-09-30 20:29:19</time>
      </trkpt>
      <trkpt lat="42.34327" lon="-7.86526">
        <ele>129.2</ele>
        <time>2022-09-30 20:29:25</time>
      </trkpt>
      <trkpt lat="42.34367" lon="-7.86502">
        <ele>129</ele>
        <time>2022-09-30 20:29:32</time>
      </trkpt>
      <trkpt lat="42.34407" lon="-7.86484">
        <ele>129.2</ele>
        <time>2022-09-30 20:29:38</time>
      </trkpt>
      <trkpt lat="42.34462" lon="-7.86456">
        <ele>129.2</ele>
        <time>2022-09-30 20:29:47</time>
      </trkpt>
      <trkpt lat="42.34468" lon="-7.86453">
        <ele>129.2</ele>
        <time>2022-09-30 20:29:48</time>
      </trkpt>
      <trkpt lat="42.34498" lon="-7.86425">
        <ele>129</ele>
        <time>2022-09-30 20:29:55</time>
      </trkpt>
      <trkpt lat="42.34519" lon="-7.86409">
        <ele>129</ele>
        <time>2022-09-30 20:30:03</time>
      </trkpt>
      <trkpt lat="42.34515" lon="-7.86422">
        <ele>129</ele>
        <time>2022-09-30 20:30:08</time>
      </trkpt>
      <trkpt lat="42.34518" lon="-7.86425">
        <ele>129</ele>
        <time>2022-09-30 20:30:17</time>
      </trkpt>
      <trkpt lat="42.3452" lon="-7.8642">
        <ele>129</ele>
        <time>2022-09-30 20:30:29</time>
      </trkpt>
      <trkpt lat="42.3452" lon="-7.86415">
        <ele>129</ele>
        <time>2022-09-30 20:30:40</time>
      </trkpt>
      <trkpt lat="42.34493" lon="-7.86431">
        <ele>129</ele>
        <time>2022-09-30 20:30:52</time>
      </trkpt>
      <trkpt lat="42.34475" lon="-7.86448">
        <ele>129</ele>
        <time>2022-09-30 20:31:00</time>
      </trkpt>
      <trkpt lat="42.34447" lon="-7.86476">
        <ele>128.8</ele>
        <time>2022-09-30 20:31:10</time>
      </trkpt>
      <trkpt lat="42.34439" lon="-7.86477">
        <ele>129</ele>
        <time>2022-09-30 20:31:21</time>
      </trkpt>
      <trkpt lat="42.34444" lon="-7.86454">
        <ele>128.8</ele>
        <time>2022-09-30 20:31:31</time>
      </trkpt>
      <trkpt lat="42.34464" lon="-7.86433">
        <ele>129</ele>
        <time>2022-09-30 20:31:42</time>
      </trkpt>
      <trkpt lat="42.34438" lon="-7.86452">
        <ele>128.8</ele>
        <time>2022-09-30 20:31:48</time>
      </trkpt>
      <trkpt lat="42.34418" lon="-7.86468">
        <ele>128.6</ele>
        <time>2022-09-30 20:31:58</time>
      </trkpt>
      <trkpt lat="42.34397" lon="-7.86485">
        <ele>128.6</ele>
        <time>2022-09-30 20:32:08</time>
      </trkpt>
      <trkpt lat="42.34396" lon="-7.86489">
        <ele>128.6</ele>
        <time>2022-09-30 20:32:19</time>
      </trkpt>
      <trkpt lat="42.34394" lon="-7.86492">
        <ele>128.6</ele>
        <time>2022-09-30 20:32:28</time>
      </trkpt>
      <trkpt lat="42.34395" lon="-7.86494">
        <ele>128.6</ele>
        <time>2022-09-30 20:32:30</time>
      </trkpt>
      <trkpt lat="42.34408" lon="-7.86507">
        <ele>128.8</ele>
        <time>2022-09-30 20:32:43</time>
      </trkpt>
      <trkpt lat="42.34363" lon="-7.86541">
        <ele>128.6</ele>
        <time>2022-09-30 20:32:46</time>
      </trkpt>
      <trkpt lat="42.34343" lon="-7.86546">
        <ele>128.4</ele>
        <time>2022-09-30 20:33:12</time>
      </trkpt>
      <trkpt lat="42.34312" lon="-7.86569">
        <ele>128.4</ele>
        <time>2022-09-30 20:34:21</time>
      </trkpt>
      <trkpt lat="42.34312" lon="-7.86564">
        <ele>128.4</ele>
        <time>2022-09-30 20:34:52</time>
      </trkpt>
      <trkpt lat="42.34314" lon="-7.86555">
        <ele>128.4</ele>
        <time>2022-09-30 20:34:55</time>
      </trkpt>
      <trkpt lat="42.34293" lon="-7.8657">
        <ele>127.6</ele>
        <time>2022-09-30 20:35:04</time>
      </trkpt>
      <trkpt lat="42.34293" lon="-7.86572">
        <ele>127.6</ele>
        <time>2022-09-30 20:40:55</time>
      </trkpt>
      <trkpt lat="42.34293" lon="-7.86573">
        <ele>127.6</ele>
        <time>2022-09-30 20:40:56</time>
      </trkpt>
      <trkpt lat="42.34285" lon="-7.86587">
        <ele>127.6</ele>
        <time>2022-09-30 20:40:57</time>
      </trkpt>
      <trkpt lat="42.34291" lon="-7.86584">
        <ele>127.2</ele>
        <time>2022-09-30 20:41:08</time>
      </trkpt>
      <trkpt lat="42.34282" lon="-7.86586">
        <ele>127</ele>
        <time>2022-09-30 20:45:12</time>
      </trkpt>
      <trkpt lat="42.34296" lon="-7.86571">
        <ele>126.8</ele>
        <time>2022-09-30 20:47:16</time>
      </trkpt>
      <trkpt lat="42.34297" lon="-7.8657">
        <ele>126.8</ele>
        <time>2022-09-30 20:49:20</time>
      </trkpt>
      <trkpt lat="42.34304" lon="-7.86564">
        <ele>126.8</ele>
        <time>2022-09-30 20:49:21</time>
      </trkpt>
      <trkpt lat="42.34288" lon="-7.86573">
        <ele>126.4</ele>
        <time>2022-09-30 20:49:29</time>
      </trkpt>
      <trkpt lat="42.34287" lon="-7.86575">
        <ele>126.4</ele>
        <time>2022-09-30 20:51:30</time>
      </trkpt>
      <trkpt lat="42.34251" lon="-7.86622">
        <ele>125.8</ele>
        <time>2022-09-30 20:51:31</time>
      </trkpt>
      <trkpt lat="42.34258" lon="-7.86617">
        <ele>125.4</ele>
        <time>2022-09-30 21:00:50</time>
      </trkpt>
      <trkpt lat="42.34259" lon="-7.86612">
        <ele>125.4</ele>
        <time>2022-09-30 21:00:55</time>
      </trkpt>
      <trkpt lat="42.34263" lon="-7.86606">
        <ele>124.8</ele>
        <time>2022-09-30 21:00:59</time>
      </trkpt>
      <trkpt lat="42.34266" lon="-7.86601">
        <ele>125.2</ele>
        <time>2022-09-30 21:01:07</time>
      </trkpt>
      <trkpt lat="42.34266" lon="-7.86598">
        <ele>125.2</ele>
        <time>2022-09-30 21:01:14</time>
      </trkpt>
      <trkpt lat="42.34266" lon="-7.86593">
        <ele>125.2</ele>
        <time>2022-09-30 21:01:16</time>
      </trkpt>
      <trkpt lat="42.34291" lon="-7.8656">
        <ele>125</ele>
        <time>2022-09-30 21:01:19</time>
      </trkpt>
      <trkpt lat="42.34302" lon="-7.86543">
        <ele>125</ele>
        <time>2022-09-30 21:01:51</time>
      </trkpt>
      <trkpt lat="42.34287" lon="-7.86565">
        <ele>124.8</ele>
        <time>2022-09-30 21:01:59</time>
      </trkpt>
      <trkpt lat="42.34284" lon="-7.86565">
        <ele>125</ele>
        <time>2022-09-30 21:02:09</time>
      </trkpt>
      <trkpt lat="42.34275" lon="-7.86566">
        <ele>125.2</ele>
        <time>2022-09-30 21:02:11</time>
      </trkpt>
      <trkpt lat="42.34274" lon="-7.8657">
        <ele>125.2</ele>
        <time>2022-09-30 21:02:16</time>
      </trkpt>
      <trkpt lat="42.34265" lon="-7.86587">
        <ele>125</ele>
        <time>2022-09-30 21:02:17</time>
      </trkpt>
      <trkpt lat="42.3426" lon="-7.86594">
        <ele>124.8</ele>
        <time>2022-09-30 21:02:21</time>
      </trkpt>
      <trkpt lat="42.34259" lon="-7.86603">
        <ele>124.2</ele>
        <time>2022-09-30 21:02:23</time>
      </trkpt>
      <trkpt lat="42.34265" lon="-7.86624">
        <ele>123.2</ele>
        <time>2022-09-30 21:02:26</time>
      </trkpt>
      <trkpt lat="42.34266" lon="-7.86641">
        <ele>122.8</ele>
        <time>2022-09-30 21:02:30</time>
      </trkpt>
      <trkpt lat="42.34267" lon="-7.86659">
        <ele>122</ele>
        <time>2022-09-30 21:02:32</time>
      </trkpt>
      <trkpt lat="42.34272" lon="-7.86696">
        <ele>120.8</ele>
        <time>2022-09-30 21:02:34</time>
      </trkpt>
      <trkpt lat="42.34274" lon="-7.86713">
        <ele>120.2</ele>
        <time>2022-09-30 21:02:38</time>
      </trkpt>
      <trkpt lat="42.34281" lon="-7.86728">
        <ele>119.6</ele>
        <time>2022-09-30 21:02:40</time>
      </trkpt>
      <trkpt lat="42.34285" lon="-7.8674">
        <ele>118.8</ele>
        <time>2022-09-30 21:02:42</time>
      </trkpt>
      <trkpt lat="42.34286" lon="-7.86743">
        <ele>117.8</ele>
        <time>2022-09-30 21:02:44</time>
      </trkpt>
      <trkpt lat="42.34288" lon="-7.86746">
        <ele>117.4</ele>
        <time>2022-09-30 21:02:45</time>
      </trkpt>
      <trkpt lat="42.34291" lon="-7.86748">
        <ele>117.4</ele>
        <time>2022-09-30 21:02:47</time>
      </trkpt>
      <trkpt lat="42.34297" lon="-7.86754">
        <ele>117</ele>
        <time>2022-09-30 21:02:49</time>
      </trkpt>
      <trkpt lat="42.343" lon="-7.86758">
        <ele>116.8</ele>
        <time>2022-09-30 21:02:53</time>
      </trkpt>
      <trkpt lat="42.34302" lon="-7.86767">
        <ele>116.4</ele>
        <time>2022-09-30 21:02:55</time>
      </trkpt>
      <trkpt lat="42.34305" lon="-7.86782">
        <ele>115.6</ele>
        <time>2022-09-30 21:02:58</time>
      </trkpt>
      <trkpt lat="42.34304" lon="-7.86788">
        <ele>115.4</ele>
        <time>2022-09-30 21:03:02</time>
      </trkpt>
      <trkpt lat="42.34305" lon="-7.86796">
        <ele>115</ele>
        <time>2022-09-30 21:03:03</time>
      </trkpt>
      <trkpt lat="42.34309" lon="-7.86803">
        <ele>114.6</ele>
        <time>2022-09-30 21:03:05</time>
      </trkpt>
      <trkpt lat="42.34312" lon="-7.86817">
        <ele>113.4</ele>
        <time>2022-09-30 21:03:08</time>
      </trkpt>
      <trkpt lat="42.34314" lon="-7.86838">
        <ele>113.2</ele>
        <time>2022-09-30 21:03:13</time>
      </trkpt>
      <trkpt lat="42.34315" lon="-7.86838">
        <ele>113</ele>
        <time>2022-09-30 21:03:33</time>
      </trkpt>
      <trkpt lat="42.3432" lon="-7.8684">
        <ele>112.4</ele>
        <time>2022-09-30 21:03:35</time>
      </trkpt>
      <trkpt lat="42.34327" lon="-7.86844">
        <ele>112.2</ele>
        <time>2022-09-30 21:03:39</time>
      </trkpt>
      <trkpt lat="42.34342" lon="-7.86855">
        <ele>111.6</ele>
        <time>2022-09-30 21:03:41</time>
      </trkpt>
      <trkpt lat="42.34345" lon="-7.86863">
        <ele>111.4</ele>
        <time>2022-09-30 21:03:46</time>
      </trkpt>
      <trkpt lat="42.34346" lon="-7.86866">
        <ele>111.2</ele>
        <time>2022-09-30 21:03:49</time>
      </trkpt>
      <trkpt lat="42.34348" lon="-7.86872">
        <ele>111</ele>
        <time>2022-09-30 21:03:50</time>
      </trkpt>
      <trkpt lat="42.34349" lon="-7.86879">
        <ele>110.8</ele>
        <time>2022-09-30 21:03:55</time>
      </trkpt>
      <trkpt lat="42.34346" lon="-7.86883">
        <ele>110.8</ele>
        <time>2022-09-30 21:03:59</time>
      </trkpt>
      <trkpt lat="42.3434" lon="-7.86898">
        <ele>110.6</ele>
        <time>2022-09-30 21:04:01</time>
      </trkpt>
      <trkpt lat="42.3434" lon="-7.86904">
        <ele>110.4</ele>
        <time>2022-09-30 21:04:05</time>
      </trkpt>
      <trkpt lat="42.3434" lon="-7.86909">
        <ele>110.2</ele>
        <time>2022-09-30 21:04:06</time>
      </trkpt>
      <trkpt lat="42.34339" lon="-7.86927">
        <ele>109.6</ele>
        <time>2022-09-30 21:04:07</time>
      </trkpt>
      <trkpt lat="42.34338" lon="-7.86933">
        <ele>109.6</ele>
        <time>2022-09-30 21:04:10</time>
      </trkpt>
      <trkpt lat="42.34338" lon="-7.86946">
        <ele>109.2</ele>
        <time>2022-09-30 21:04:11</time>
      </trkpt>
      <trkpt lat="42.34338" lon="-7.86953">
        <ele>109</ele>
        <time>2022-09-30 21:04:13</time>
      </trkpt>
      <trkpt lat="42.34338" lon="-7.8696">
        <ele>108.8</ele>
        <time>2022-09-30 21:04:14</time>
      </trkpt>
      <trkpt lat="42.34337" lon="-7.86971">
        <ele>108.4</ele>
        <time>2022-09-30 21:04:15</time>
      </trkpt>
      <trkpt lat="42.34337" lon="-7.86981">
        <ele>108.2</ele>
        <time>2022-09-30 21:04:17</time>
      </trkpt>
      <trkpt lat="42.34337" lon="-7.86985">
        <ele>108</ele>
        <time>2022-09-30 21:04:19</time>
      </trkpt>
      <trkpt lat="42.34338" lon="-7.86991">
        <ele>107.8</ele>
        <time>2022-09-30 21:04:20</time>
      </trkpt>
      <trkpt lat="42.34337" lon="-7.86989">
        <ele>107.8</ele>
        <time>2022-09-30 21:04:23</time>
      </trkpt>
    </trkseg>
  </trk>
</gpx>
